GFSSE_sfc_wetblb_000.txt.gz
Wetbulb
66.69 70.50 73.88 74.08 73.43 73.10 73.30 72.20 70.98 69.52 68.80 67.38 67.32 68.31 69.21 69.08 67.87 67.23 67.89 68.00 67.07 65.76 66.75 68.01 68.58 69.46 69.70 69.71 69.14 68.18 67.99 67.21 66.00 65.81 65.77 65.98 66.11 66.63 67.81 67.42 65.69 66.19 66.62
68.70 70.80 74.12 74.22 73.32 73.22 72.80 71.86 70.22 69.39 68.68 67.31 66.35 67.02 66.31 66.47 66.51 66.09 66.84 66.79 66.69 65.51 66.22 66.81 67.63 67.87 68.48 68.49 67.17 66.47 66.12 65.73 65.83 65.31 65.75 65.85 66.48 66.19 66.06 65.46 65.62 65.80 68.86
67.89 70.57 72.22 74.53 74.05 73.50 72.77 71.43 69.96 69.06 68.05 67.59 65.94 65.84 65.59 66.11 66.21 66.98 67.08 66.38 65.94 65.80 65.98 66.03 65.67 66.38 66.51 67.75 67.58 67.15 66.46 65.32 64.65 64.99 65.44 63.33 61.69 66.67 66.63 66.13 65.41 66.18 68.03
68.56 70.19 71.05 74.61 73.70 73.28 72.78 71.31 70.19 69.35 68.12 67.08 66.07 67.13 67.61 66.76 66.85 66.90 66.38 65.49 65.87 65.47 65.31 65.38 65.07 65.13 65.74 66.31 66.81 66.84 67.03 65.91 64.74 65.21 63.10 62.01 62.34 67.31 66.49 65.94 65.52 65.82 66.67
66.24 70.21 72.58 74.36 74.10 73.41 72.08 71.01 70.09 69.53 68.58 67.25 66.38 66.18 67.39 67.73 68.77 67.41 67.00 66.46 66.22 65.24 64.82 64.83 64.70 64.48 64.71 65.33 65.68 66.22 66.47 65.82 65.43 64.96 62.29 59.77 60.53 64.78 66.11 65.66 65.20 66.43 65.92
65.79 71.07 73.31 74.27 74.35 73.54 72.63 71.66 70.63 69.78 69.21 68.38 67.02 66.96 67.01 68.56 69.40 69.22 67.88 68.33 66.72 65.45 65.12 65.04 65.06 65.32 65.59 65.47 65.16 64.91 65.52 66.03 66.65 61.59 60.35 61.65 59.84 64.42 65.86 65.81 66.14 65.96 66.23
66.42 71.36 72.76 74.25 73.88 73.51 73.08 71.98 71.04 70.39 69.23 68.41 67.45 66.89 67.22 68.98 69.46 69.23 68.64 67.89 66.96 65.95 65.30 65.29 64.81 65.50 66.29 66.80 66.34 66.37 65.70 66.37 62.91 59.62 59.45 59.84 60.48 64.56 64.94 65.86 66.34 66.50 66.49
67.10 69.48 71.83 72.99 73.14 73.40 72.80 72.31 71.67 71.02 70.26 69.47 67.73 66.48 66.85 67.81 68.94 69.17 69.03 68.00 67.15 66.24 66.54 65.98 65.76 65.77 66.32 67.02 67.49 67.08 67.06 66.40 63.02 59.24 58.79 59.27 63.06 66.16 65.69 65.28 65.92 66.19 66.86
67.66 67.93 68.61 70.37 71.70 72.87 72.63 72.55 71.94 71.64 71.21 70.00 68.92 67.48 68.06 67.30 67.20 68.12 68.49 67.58 67.12 66.78 66.92 67.16 66.71 66.23 65.87 66.34 66.53 67.08 67.47 66.49 62.39 60.70 60.93 59.27 64.66 66.61 66.84 66.36 65.40 65.63 66.51
66.63 67.44 67.11 68.25 69.23 69.84 69.19 71.24 71.15 70.96 70.80 69.91 69.20 68.76 68.07 67.66 67.72 68.24 68.10 68.15 67.24 67.03 66.67 66.26 66.38 66.61 66.54 66.27 66.53 67.41 67.09 66.53 62.61 61.21 60.87 60.41 65.81 66.30 66.71 66.53 66.28 65.75 65.89
66.44 66.44 66.97 67.31 68.52 68.31 68.30 69.49 70.13 69.86 69.72 69.01 67.98 67.22 66.65 63.93 63.59 65.47 65.84 66.58 66.75 66.65 66.76 66.75 66.78 66.88 67.29 66.77 66.71 66.45 65.98 62.96 60.97 60.66 60.11 63.91 67.16 66.12 66.16 66.14 66.35 66.41 66.20
64.02 65.56 66.67 66.90 67.48 67.43 68.52 67.98 67.31 67.47 66.79 66.44 65.92 65.18 64.67 62.28 62.76 64.48 63.54 65.52 67.03 67.66 67.62 67.18 67.48 67.71 66.81 64.10 63.09 64.61 63.51 62.45 61.62 61.05 60.60 66.07 67.31 66.81 66.51 66.13 66.14 66.12 66.33
63.33 64.93 66.36 66.78 67.18 67.18 66.70 66.36 65.97 65.76 65.11 64.58 64.27 63.69 63.47 63.21 62.40 62.52 62.95 63.38 63.15 64.52 64.04 64.94 65.23 65.10 63.48 62.78 61.89 61.44 61.37 61.09 60.53 60.77 62.92 66.43 67.85 67.59 67.54 67.37 67.46 66.64 66.68
61.58 63.78 65.70 66.42 66.72 66.81 66.90 66.00 65.41 64.66 64.45 63.62 63.91 63.95 62.73 62.55 62.47 62.50 62.64 63.21 63.25 63.46 62.95 63.38 63.10 63.77 64.17 63.61 63.45 62.94 62.10 61.70 61.47 61.84 62.34 65.09 67.55 68.65 68.12 68.00 68.64 68.22 67.32
60.67 61.93 63.43 65.14 66.08 66.57 66.32 66.24 65.49 64.52 64.10 64.09 64.40 64.68 64.07 63.38 63.10 63.78 63.73 63.95 64.97 65.01 64.83 64.06 63.89 64.03 63.69 63.52 62.70 62.84 63.24 61.93 62.19 63.10 62.66 63.61 65.88 68.09 68.91 68.34 68.21 68.02 67.88
60.68 61.73 62.83 63.71 65.04 66.19 65.82 65.48 65.04 64.71 64.28 64.39 64.10 64.37 64.81 63.94 63.56 63.69 64.48 64.41 64.33 64.21 64.26 63.75 63.01 62.12 61.81 60.77 60.50 60.13 59.94 59.91 60.56 60.85 61.78 61.83 64.66 66.39 68.09 68.82 68.53 68.39 68.28
57.64 58.62 59.66 61.51 63.58 64.55 64.93 65.32 64.67 64.36 64.51 63.74 63.94 63.94 64.20 64.41 63.51 64.16 63.89 62.87 62.18 60.85 59.76 58.26 57.36 57.01 56.53 57.69 56.95 58.34 58.54 58.73 59.20 59.14 59.75 60.44 61.52 62.95 65.71 68.43 69.41 68.95 68.55
57.53 58.37 59.04 60.39 60.63 63.29 64.29 64.42 64.10 63.67 63.11 62.63 63.00 64.42 62.47 62.56 62.02 59.41 56.31 53.72 54.19 54.67 53.72 52.82 52.31 52.15 51.84 51.74 52.83 53.33 53.58 54.10 54.97 56.93 58.35 59.22 59.92 61.77 63.57 66.22 66.96 67.86 67.95
57.41 58.37 59.33 59.83 60.85 63.13 63.77 62.54 61.98 61.75 60.54 59.16 57.21 54.33 54.21 54.39 54.34 53.44 52.34 51.45 51.47 52.25 51.83 51.38 50.42 50.37 49.81 50.52 51.35 50.46 51.24 51.78 52.11 54.56 54.48 53.92 54.30 54.97 55.87 59.93 62.82 64.26 65.25
58.22 59.38 60.00 61.28 61.83 62.42 61.73 61.15 57.26 55.36 54.42 53.36 52.31 51.65 51.69 51.27 51.29 50.62 50.50 50.05 50.14 49.85 49.44 47.69 46.49 47.34 47.18 47.34 48.46 49.05 48.54 49.52 50.38 49.88 49.65 51.15 52.03 52.84 53.66 54.36 54.62 57.62 62.10
58.85 59.01 59.84 60.45 61.02 61.20 59.94 56.11 54.15 52.60 51.93 51.16 50.65 50.08 49.22 48.74 49.13 47.79 47.67 47.45 47.25 46.85 45.94 45.81 44.66 43.95 44.07 44.73 43.68 44.16 44.83 47.11 47.57 48.33 49.15 50.43 48.97 50.34 50.05 51.22 52.64 52.04 53.57
56.71 58.08 59.24 59.10 57.75 57.35 56.60 55.18 53.93 51.75 50.96 50.18 49.62 48.54 47.37 46.03 45.88 45.97 44.43 44.36 44.09 44.57 43.70 43.20 42.50 42.47 43.07 44.01 40.76 40.77 38.42 41.24 44.55 45.90 46.70 47.38 46.01 47.62 48.22 49.19 47.66 47.62 49.70
53.57 53.82 54.89 54.95 55.54 56.02 55.30 54.73 52.85 52.23 50.06 48.36 48.05 46.89 45.90 44.50 43.84 43.50 43.25 42.70 42.32 42.71 41.91 41.68 41.35 41.32 40.78 42.06 41.72 38.85 35.91 35.62 39.54 42.85 43.55 43.78 44.00 44.96 45.04 45.79 46.41 46.63 46.91
52.38 53.37 53.84 54.29 54.17 54.38 53.47 51.81 49.39 47.26 45.94 46.76 46.43 46.01 44.71 43.70 42.30 42.49 42.47 41.95 41.17 41.59 40.18 40.44 42.62 40.76 40.77 39.13 40.14 42.65 39.53 38.87 36.53 35.62 39.72 41.66 41.69 42.86 43.11 43.92 44.77 45.38 45.35
52.12 50.86 50.65 50.80 50.86 50.84 50.36 49.66 48.12 46.58 46.07 45.77 45.00 43.50 42.60 41.97 41.38 41.42 41.31 40.49 39.81 40.12 39.13 38.90 38.80 38.94 40.24 39.08 38.20 37.89 37.55 36.95 37.36 35.64 34.00 36.20 39.45 40.87 41.93 43.16 42.89 43.60 43.63
51.09 50.33 49.33 49.19 49.27 49.39 48.61 47.92 46.79 45.34 44.50 43.03 41.66 40.74 40.38 40.53 40.37 39.77 40.73 39.26 38.96 38.68 37.99 38.09 37.87 37.95 38.19 38.15 37.93 37.07 36.19 34.54 34.95 35.13 34.39 34.85 35.29 37.91 40.36 40.83 40.84 40.38 41.14

GFSSE_sfc_wetblb_003.txt.gz
Wetbulb
66.34 71.23 75.25 74.39 74.38 74.10 73.75 72.89 71.02 70.12 68.65 67.76 68.55 69.43 70.56 69.20 67.96 67.79 68.35 67.97 66.89 66.95 66.05 67.72 68.59 69.71 70.21 69.94 69.46 68.14 68.44 67.40 66.37 65.80 65.83 65.85 65.39 65.74 67.42 68.07 65.06 66.11 67.26
69.18 72.09 74.82 74.42 74.07 73.81 73.70 72.50 70.97 69.94 68.61 67.38 66.98 66.90 67.31 67.35 66.77 67.09 67.36 67.06 66.39 66.18 65.79 66.15 67.36 67.68 68.09 68.36 67.68 67.11 66.74 66.26 65.17 65.20 65.49 66.17 65.82 65.97 66.87 66.01 65.32 65.27 67.98
70.43 72.48 73.33 74.86 74.68 74.20 73.35 71.75 70.77 69.82 68.85 67.42 66.74 66.68 66.71 66.56 67.12 67.86 67.18 66.37 66.27 66.36 65.76 65.44 64.94 65.50 66.00 66.79 67.17 67.53 67.58 65.88 65.15 64.99 65.47 62.79 62.79 65.39 67.11 66.53 65.94 65.87 67.20
70.55 71.70 72.45 74.86 74.60 74.21 73.03 71.72 70.70 69.80 68.63 67.81 66.61 67.47 66.14 67.48 66.80 66.44 67.34 66.63 66.46 65.73 65.28 65.17 64.69 64.11 65.02 66.14 66.54 66.76 66.78 66.54 65.21 65.53 63.26 63.05 61.44 66.24 67.46 66.52 65.99 65.89 66.60
69.31 70.89 72.38 74.70 74.57 74.44 72.69 71.71 70.97 70.49 68.93 68.20 66.96 66.31 67.38 68.25 69.15 68.39 68.10 66.95 66.83 65.97 65.10 64.87 64.78 64.93 64.61 64.38 64.79 65.62 65.93 66.28 65.94 65.41 62.36 61.48 59.53 64.49 67.53 66.45 65.85 65.98 66.76
68.62 70.94 73.66 74.40 74.98 74.01 72.97 71.64 71.10 70.64 69.83 68.85 68.08 67.50 67.22 68.83 69.65 70.39 69.25 69.62 67.63 66.64 65.71 65.00 65.05 65.40 65.92 66.04 66.00 65.62 65.26 65.72 66.69 62.96 60.27 60.56 60.30 64.19 65.74 66.87 66.38 66.27 66.58
69.54 71.50 73.09 74.81 74.52 73.92 73.12 72.36 71.40 70.81 70.29 69.24 68.60 67.78 68.09 69.14 69.93 69.78 69.26 68.86 68.03 67.17 66.49 65.89 65.44 65.46 66.09 66.78 67.70 67.03 66.67 66.83 63.55 60.46 59.02 59.04 59.91 65.87 66.16 66.14 66.73 67.03 67.18
70.68 72.36 72.99 73.65 73.95 73.90 73.75 73.00 72.17 71.50 70.59 69.92 68.19 67.79 67.52 67.75 68.79 69.46 69.99 68.64 67.69 67.00 66.53 67.01 66.68 66.64 65.93 66.72 67.48 67.96 68.05 67.18 63.89 60.17 59.38 58.33 61.70 65.74 67.37 66.90 66.22 66.46 66.96
70.04 71.39 71.36 71.66 72.32 72.56 72.74 72.70 72.41 72.30 71.71 70.44 69.31 68.00 68.66 67.79 67.41 68.39 69.88 68.56 67.68 67.21 67.21 67.48 67.49 66.90 66.64 66.36 66.64 67.78 67.95 67.34 63.68 61.60 61.55 59.93 63.18 66.21 67.02 67.52 67.35 66.93 66.27
67.14 68.54 69.50 70.20 71.08 71.26 70.69 71.72 71.22 71.10 70.90 70.75 69.51 68.93 67.97 67.63 67.61 68.20 68.75 68.59 67.76 67.70 67.57 66.80 66.58 66.86 67.05 67.02 66.93 67.35 67.15 66.98 64.22 62.74 62.13 61.22 65.40 67.05 67.25 67.18 67.28 67.26 67.01
65.34 65.50 67.18 68.67 69.13 69.98 68.87 69.49 70.32 70.01 69.87 69.16 68.10 67.22 66.48 64.15 63.39 64.91 66.37 67.25 67.59 67.11 67.23 67.12 67.30 67.45 67.85 67.28 67.23 67.07 66.22 63.33 62.64 62.33 61.90 63.86 66.23 67.41 67.35 67.70 67.45 66.78 66.99
63.53 64.76 65.50 67.34 68.53 68.29 69.45 68.32 67.69 68.07 67.54 66.77 66.17 64.99 64.95 63.20 62.14 64.73 64.02 65.89 67.07 67.86 68.14 67.87 68.01 68.70 67.43 64.33 63.23 64.49 62.48 62.72 62.39 61.92 61.87 64.92 66.87 67.83 68.12 69.13 68.98 67.84 67.08
63.71 64.50 65.64 65.46 66.84 66.34 66.91 66.55 65.79 65.40 65.30 65.18 65.09 64.27 64.00 62.35 61.88 62.06 62.41 62.96 62.38 63.77 63.79 64.56 63.54 64.45 63.79 63.16 63.20 62.59 62.59 61.89 62.11 61.87 62.76 65.87 67.57 68.23 68.47 69.52 69.58 69.40 69.06
61.94 64.30 65.37 65.89 65.73 66.00 65.53 65.04 64.38 64.26 63.61 62.36 63.07 62.89 61.85 61.67 61.71 61.64 61.82 62.23 62.89 64.06 63.69 64.07 64.33 64.39 64.15 64.08 63.52 63.11 62.09 61.69 61.51 61.81 61.90 64.44 67.06 68.48 69.04 69.60 69.70 69.59 69.52
60.39 62.99 64.30 65.14 65.54 65.79 65.37 65.36 65.03 63.25 63.22 63.32 63.51 63.66 63.08 62.72 62.49 63.28 63.06 63.58 64.43 64.61 64.40 63.81 63.63 62.87 60.66 60.39 60.06 59.28 59.22 60.03 60.87 61.41 61.47 62.96 65.46 67.73 68.75 69.18 69.11 69.03 69.05
59.33 61.69 63.82 64.57 65.70 65.93 65.12 64.81 64.50 63.73 64.16 63.05 62.82 63.37 64.03 63.20 62.73 63.24 64.04 63.22 62.30 61.31 60.02 57.04 55.31 54.39 54.40 54.83 55.32 54.99 56.66 58.21 58.40 58.66 59.32 60.19 63.37 65.25 66.95 68.70 69.55 68.91 67.89
56.57 58.38 61.10 63.64 65.67 65.18 65.00 64.61 63.76 63.35 63.32 62.40 62.66 64.02 63.91 64.35 62.82 62.57 55.51 52.13 53.35 53.90 53.03 52.01 51.46 51.67 51.31 52.11 50.95 53.03 53.01 51.98 52.62 52.93 55.56 57.88 59.57 61.77 64.24 66.31 68.31 68.66 68.19
57.30 57.87 58.16 63.62 64.80 64.16 64.03 63.54 62.89 62.16 61.17 60.58 57.79 55.73 54.56 53.88 53.72 52.39 50.77 49.48 50.12 51.44 50.58 49.72 48.90 48.35 47.70 48.28 48.58 48.15 47.92 50.13 49.94 49.96 53.04 52.64 52.80 54.09 58.17 61.85 63.16 62.76 65.16
56.84 57.54 57.18 59.74 63.46 63.02 61.17 61.22 57.98 54.01 53.44 52.69 52.54 51.83 50.50 50.65 50.62 49.80 49.08 48.30 48.42 49.01 47.47 46.78 45.76 44.67 44.21 44.98 45.84 46.06 46.63 45.96 47.56 51.42 49.02 48.80 50.17 51.10 52.00 55.81 58.40 60.23 60.47
56.93 57.82 58.30 60.85 61.79 59.95 55.26 53.97 52.88 51.83 50.41 50.00 48.98 48.50 48.19 48.53 47.67 47.10 46.67 45.81 46.27 46.15 44.57 43.49 42.41 43.01 42.97 42.57 46.08 44.90 43.67 45.19 45.54 44.69 45.37 48.56 47.77 48.17 48.70 49.63 50.59 49.95 54.65
56.84 58.08 58.85 60.34 59.34 56.44 53.60 51.89 49.93 48.64 47.81 47.44 47.09 46.46 45.63 45.41 45.54 43.88 43.93 43.53 43.79 43.26 41.77 42.26 41.74 41.47 41.78 42.35 40.85 41.36 42.54 44.46 43.04 44.30 45.10 46.10 46.41 45.98 47.50 46.22 46.60 46.88 47.38
56.17 56.81 56.87 56.59 56.52 55.08 54.05 51.91 50.48 48.99 47.28 46.90 46.34 44.38 43.52 43.05 43.36 43.62 41.99 41.52 41.29 41.60 40.73 40.26 40.03 40.14 41.06 41.00 38.34 37.43 36.04 38.43 41.18 42.88 42.71 43.82 42.16 44.26 44.29 44.88 44.59 45.37 44.38
52.07 52.57 53.41 53.61 53.92 53.64 52.98 51.76 49.91 48.46 47.15 46.08 44.86 43.24 42.12 42.09 42.12 41.89 41.37 40.58 40.26 40.15 39.09 38.80 39.01 38.80 38.30 39.46 39.40 37.04 33.74 32.92 36.59 39.45 39.73 40.23 40.65 40.63 42.17 42.95 44.06 43.61 44.36
50.69 51.93 52.67 53.22 53.14 52.57 51.48 49.89 47.47 45.71 44.74 44.99 44.73 42.89 41.18 40.96 40.53 41.10 40.78 39.82 39.17 39.13 37.48 37.82 39.57 38.02 37.75 37.11 38.86 40.91 37.06 35.55 33.19 31.88 37.05 38.54 38.98 40.64 40.19 41.70 42.29 42.17 41.39
49.44 48.20 48.05 48.72 48.90 48.65 48.29 47.06 46.20 45.23 44.47 44.09 42.39 40.81 39.47 38.94 39.51 39.95 39.36 38.33 37.82 37.80 36.66 36.48 35.99 35.91 36.69 35.91 36.29 36.50 35.18 35.16 34.03 32.27 30.97 33.12 37.86 38.56 38.98 39.46 38.75 39.76 39.54
47.60 46.96 46.88 47.43 46.68 46.92 47.08 46.71 45.43 43.39 41.70 40.41 38.99 38.22 38.18 38.13 37.94 38.00 38.57 37.03 36.55 36.42 35.88 35.83 35.45 35.03 34.61 34.72 34.99 34.95 34.18 32.96 33.24 33.11 31.80 32.73 33.74 36.02 37.25 37.66 37.60 37.31 38.99

GFSSE_sfc_wetblb_006.txt.gz
Wetbulb
66.49 70.89 75.48 74.82 74.87 74.37 73.68 72.09 71.12 69.98 68.59 68.93 68.90 69.64 70.06 69.48 68.69 68.32 68.23 67.20 66.86 66.40 65.69 67.06 68.13 69.33 70.15 69.97 69.27 68.28 67.91 66.62 65.99 65.57 65.29 65.77 65.49 65.64 66.52 67.96 66.25 65.08 67.91
68.57 71.80 75.06 74.82 74.66 74.10 73.41 71.88 70.83 69.38 68.19 67.84 68.02 68.35 68.82 68.07 67.30 67.41 67.09 67.02 65.79 66.14 65.34 65.50 66.67 67.46 67.62 68.06 67.74 67.29 67.73 65.91 65.14 64.88 65.23 65.22 65.78 65.90 66.55 66.80 65.79 64.37 67.79
70.47 72.26 73.21 74.67 74.56 74.21 73.22 71.63 70.55 69.53 68.04 67.29 67.03 66.88 67.51 67.10 67.97 67.71 67.06 66.30 66.41 65.69 64.98 64.63 64.54 64.74 65.57 66.18 66.68 66.92 67.02 65.83 65.19 65.13 65.47 62.47 61.93 65.60 66.99 66.84 66.30 66.20 66.78
71.16 72.18 72.40 74.72 74.51 73.99 72.66 71.42 70.47 69.53 68.67 67.55 67.35 66.82 67.43 67.44 67.20 66.14 67.48 66.78 66.22 65.62 64.88 64.46 64.06 63.38 64.06 65.27 66.09 66.25 66.35 66.40 65.62 65.78 62.73 62.43 62.30 65.60 67.13 67.29 67.14 66.30 66.47
70.29 71.43 72.46 74.77 74.83 74.06 72.47 71.35 70.52 69.65 68.74 67.55 67.28 66.80 67.26 68.03 68.15 68.47 68.27 67.34 66.82 66.22 65.26 64.70 64.46 64.71 65.00 64.72 64.80 65.07 66.13 66.25 66.69 65.61 61.71 61.18 60.29 63.44 67.54 67.72 66.83 66.95 66.67
68.60 69.94 72.88 74.57 74.72 74.31 73.11 71.51 71.00 70.23 68.98 68.23 67.24 67.40 67.51 68.74 69.54 70.26 69.31 70.13 68.23 66.90 65.87 64.94 64.74 65.15 65.77 66.39 66.65 66.61 66.36 65.78 67.30 62.62 61.21 60.05 61.22 64.06 65.69 67.08 66.97 66.61 66.29
67.69 69.94 72.94 74.45 74.78 73.83 72.64 71.87 71.18 70.54 70.09 68.78 68.04 67.70 68.62 68.66 69.60 69.69 70.00 70.22 67.82 67.04 66.17 65.60 65.91 65.98 65.86 66.38 67.18 68.02 67.47 67.67 63.61 60.69 59.66 58.35 58.24 65.05 66.62 66.89 66.76 67.25 67.33
69.05 71.20 72.28 73.74 73.90 73.31 72.82 72.41 71.68 70.83 70.59 69.73 68.38 68.03 68.45 67.63 68.54 69.34 69.39 68.61 67.52 66.79 66.27 66.85 66.92 67.28 66.80 66.32 66.52 67.09 68.05 67.64 64.67 61.15 59.87 58.78 61.59 65.61 66.40 66.73 67.72 66.96 66.74
70.63 71.34 71.37 72.22 72.30 72.73 72.85 72.57 72.31 71.99 71.23 70.07 68.85 68.11 68.48 67.82 67.11 68.12 69.83 68.67 67.98 66.98 67.01 67.07 67.26 66.59 66.64 66.97 66.98 66.85 67.72 67.32 64.32 62.25 62.11 60.56 63.31 66.40 66.93 67.07 67.48 67.80 67.72
70.01 70.71 70.38 70.33 71.31 70.35 70.71 71.53 71.27 71.24 70.94 70.48 69.40 68.71 68.24 67.47 67.28 67.94 69.02 68.47 67.69 67.63 67.59 67.07 66.55 66.84 67.06 67.21 67.22 67.75 67.22 66.51 63.61 62.89 62.69 62.07 65.73 67.69 68.11 68.03 67.75 67.78 67.81
67.54 68.19 69.70 69.44 69.40 69.88 69.34 69.85 70.32 70.21 69.85 69.40 67.99 67.07 65.98 63.06 62.64 64.03 65.81 66.74 68.31 67.52 67.20 67.46 67.56 67.84 68.32 67.58 67.54 67.34 66.38 63.17 61.61 61.90 62.02 64.10 66.40 68.11 68.22 68.24 68.25 68.22 67.79
62.72 65.19 67.58 68.51 68.15 68.75 69.62 67.81 67.47 67.69 67.24 66.28 65.68 64.15 63.99 62.74 61.97 62.93 63.90 66.07 67.39 67.83 68.03 68.04 68.32 68.87 67.66 64.46 63.43 64.57 63.71 63.02 61.26 62.32 61.99 64.76 66.89 68.51 68.79 69.10 69.73 69.22 68.76
63.35 64.14 66.11 67.19 67.51 67.72 66.99 66.77 65.87 65.62 65.32 65.02 64.37 63.94 63.61 62.07 60.65 61.28 61.20 62.08 61.89 62.80 62.85 63.84 63.03 62.43 63.06 63.33 62.51 61.81 61.60 60.52 60.55 61.43 62.27 65.04 66.80 68.20 68.88 69.04 69.00 68.82 68.91
61.64 63.97 64.83 66.52 66.53 65.73 66.19 65.99 64.78 64.35 63.95 63.27 64.07 63.86 61.81 60.53 60.93 60.89 61.06 62.40 62.85 62.53 63.52 63.92 63.39 61.91 59.72 58.33 58.43 58.13 57.24 58.37 59.80 60.32 60.75 63.87 65.22 65.51 67.20 66.81 68.63 69.12 69.33
60.12 63.47 64.06 65.01 65.76 64.96 65.16 64.35 63.28 62.84 62.80 61.97 62.03 62.01 62.04 61.98 61.81 62.50 62.07 62.13 61.53 61.83 60.55 55.95 53.39 53.02 52.37 52.92 52.77 52.49 52.98 54.42 54.65 56.61 56.96 60.27 62.49 63.69 64.92 65.15 66.13 67.01 67.93
59.51 63.03 63.78 64.84 65.06 65.18 64.52 64.10 63.67 62.80 63.76 62.32 62.29 62.76 63.07 62.57 62.22 62.09 55.21 54.93 55.52 52.74 51.66 50.39 49.48 49.04 48.22 48.92 49.23 49.92 49.80 49.79 49.86 50.31 51.70 53.66 60.52 61.37 60.92 61.21 62.05 64.47 66.03
57.95 61.67 63.25 64.74 65.40 65.04 64.56 64.08 63.13 64.48 64.18 63.14 62.99 61.53 61.10 60.68 56.59 53.84 52.06 49.77 50.10 49.92 48.73 47.58 46.67 46.11 46.14 47.12 45.52 47.12 46.71 46.34 47.58 47.12 50.07 50.12 51.48 56.10 58.32 58.69 60.97 58.73 59.56
56.68 58.84 61.43 65.90 64.99 64.50 63.84 63.48 62.52 62.79 61.18 56.36 54.23 53.83 53.65 53.05 51.05 50.17 47.97 46.91 47.72 46.87 45.72 45.04 44.28 43.32 43.55 42.87 42.38 43.37 43.94 44.54 45.50 47.22 47.83 46.55 48.01 49.41 51.85 56.24 54.62 54.94 55.36
56.51 56.86 58.72 64.19 63.96 63.39 61.37 60.41 56.89 54.23 52.99 51.64 49.81 50.11 49.25 48.94 48.56 46.99 45.57 45.16 45.59 44.24 42.97 43.18 41.59 41.14 41.14 41.03 42.69 43.26 41.45 42.34 44.67 45.02 42.58 44.31 46.60 46.28 46.48 51.58 52.28 52.26 52.97
55.91 56.28 58.11 63.22 60.05 55.61 55.22 53.97 52.29 50.57 47.81 47.17 46.41 46.97 46.21 45.40 45.43 44.58 43.24 43.30 43.77 42.15 41.11 40.60 39.54 40.32 40.52 39.84 43.64 42.29 39.81 42.49 41.23 40.08 41.11 43.93 42.70 42.27 43.59 42.65 42.32 44.43 51.26
56.49 56.71 59.28 58.56 53.88 53.64 53.08 51.52 50.03 46.24 45.13 44.34 44.23 44.03 43.72 43.37 43.20 42.34 41.77 41.47 41.89 40.28 38.95 39.81 39.24 39.21 39.30 39.80 38.17 38.02 39.75 40.22 38.60 40.15 40.45 39.37 40.87 40.67 42.01 41.93 43.16 42.85 42.73
56.20 57.05 57.55 55.69 53.38 53.09 52.26 49.25 48.08 46.47 44.70 43.54 42.33 41.31 41.69 41.89 42.26 42.07 40.34 39.87 39.68 39.18 37.99 37.96 37.69 37.56 38.50 38.53 35.93 35.37 33.80 36.05 38.12 39.48 38.86 39.44 38.38 39.75 40.72 41.57 41.12 41.47 41.32
54.06 54.19 55.20 53.88 52.83 52.45 50.90 49.48 47.26 46.68 45.04 42.74 41.23 40.13 40.08 40.71 41.05 40.62 39.60 38.83 38.35 37.76 36.57 36.37 36.03 35.88 34.89 36.65 36.70 35.37 31.97 30.35 34.61 36.22 37.12 36.50 38.25 37.07 38.91 39.27 40.80 40.48 39.30
50.92 51.95 52.66 52.84 51.71 51.00 50.16 48.10 46.71 44.24 42.86 43.05 41.74 39.35 38.66 39.35 39.37 39.58 38.99 37.89 37.07 36.78 35.21 35.55 37.00 35.24 34.50 33.19 35.36 38.61 35.31 34.12 30.10 29.30 33.99 36.43 35.09 37.03 36.53 37.27 38.35 38.28 38.64
50.00 50.08 50.59 50.67 50.15 48.77 48.03 46.37 44.98 43.75 43.15 42.05 39.77 37.62 37.07 37.20 38.05 38.18 37.62 36.48 35.82 35.73 34.55 34.11 33.73 33.11 33.91 32.85 33.16 33.55 32.40 32.81 32.23 29.95 28.15 30.54 34.75 36.12 37.50 36.87 35.83 37.23 37.26
46.52 46.77 47.16 48.04 46.57 46.81 46.16 45.10 44.35 42.47 40.37 38.89 37.46 36.65 36.42 36.22 36.44 36.28 36.69 35.18 34.60 34.36 33.93 33.81 33.16 32.60 32.07 32.22 32.08 31.57 31.59 30.32 30.50 29.61 29.12 29.95 30.00 33.07 34.28 35.95 34.85 35.90 35.86

GFSSE_sfc_wetblb_009.txt.gz
Wetbulb
65.32 68.56 74.60 75.21 74.81 74.20 73.48 71.84 70.94 69.80 69.12 68.69 68.69 69.62 70.36 70.45 69.59 68.66 68.12 67.30 66.73 65.49 64.95 66.68 68.15 69.07 70.22 69.68 69.41 68.46 67.79 66.43 65.35 65.81 65.46 64.97 65.44 65.63 65.79 66.72 67.25 64.21 67.58
67.02 70.37 75.18 75.05 74.67 74.14 73.26 71.84 70.65 69.19 68.70 68.40 68.14 69.55 69.92 69.07 67.85 67.58 67.18 66.56 65.99 65.52 64.71 65.09 65.98 66.58 67.46 68.11 67.79 67.23 67.44 67.50 65.55 65.44 65.53 64.84 65.00 65.37 66.02 67.16 65.70 63.47 67.30
68.95 71.85 73.63 74.99 75.13 74.10 72.91 71.68 70.20 68.83 67.86 67.35 66.97 68.26 67.44 66.78 67.80 67.28 66.80 66.40 65.65 65.36 64.61 64.45 64.64 64.94 65.89 66.28 66.68 66.81 66.88 66.23 65.29 65.27 65.58 61.94 61.21 65.23 66.12 67.19 65.99 66.06 66.90
70.57 71.68 71.97 74.85 74.23 73.90 72.73 71.48 70.23 68.91 67.69 67.11 66.90 66.96 67.07 67.08 67.22 66.94 66.65 66.30 65.43 65.48 64.90 64.32 64.16 63.88 63.79 64.64 65.51 66.16 66.29 66.14 65.96 66.10 62.05 61.72 61.79 65.33 66.71 67.30 67.09 66.95 66.60
69.91 71.31 71.88 74.55 74.36 74.05 72.56 71.37 70.36 69.41 68.32 67.42 67.28 67.03 67.09 67.36 67.73 67.50 68.14 67.46 66.91 66.25 65.22 64.57 64.27 64.63 65.18 65.39 65.33 65.05 64.94 65.35 66.96 65.63 61.22 60.19 59.96 62.70 66.21 66.85 67.46 66.98 67.12
68.77 69.80 72.30 74.45 74.60 73.98 72.89 71.38 70.51 69.51 68.66 67.40 67.30 67.00 67.17 68.52 69.00 69.38 69.20 69.81 68.48 67.00 65.80 64.80 64.67 64.64 64.99 65.90 66.67 67.34 66.98 66.67 67.06 61.91 61.00 60.50 60.59 63.69 66.19 66.40 66.44 67.08 66.42
67.52 69.05 71.88 74.58 74.61 74.08 72.71 71.79 70.94 70.06 69.07 67.97 67.15 67.68 68.14 68.21 69.13 69.91 70.53 70.15 67.74 66.96 65.72 65.36 65.62 66.09 66.21 65.87 66.43 66.98 67.67 68.02 64.00 60.95 60.00 59.27 58.07 64.54 65.63 66.59 66.89 66.83 66.72
67.38 69.40 72.11 73.63 74.18 73.98 72.76 72.20 71.49 70.50 70.35 68.82 67.98 67.73 68.52 67.55 68.29 69.36 69.25 68.61 67.68 66.62 66.29 66.36 66.87 67.09 67.10 66.78 66.67 66.36 67.42 67.50 64.84 61.65 60.75 59.66 61.88 65.85 66.56 66.49 66.84 67.48 67.60
68.16 69.79 70.88 71.91 72.84 72.40 72.16 72.09 71.86 71.42 71.28 70.08 68.90 68.32 68.64 68.33 66.80 68.24 69.64 68.64 67.96 67.14 66.86 67.13 67.54 66.89 66.48 66.84 67.17 67.33 67.68 67.10 64.05 62.46 62.50 61.38 63.93 66.93 67.85 67.86 67.66 67.68 67.88
68.90 70.07 70.15 70.73 71.01 70.57 70.52 71.53 71.39 71.04 70.48 69.98 69.08 68.24 68.16 67.59 67.17 67.51 69.19 68.46 67.74 67.59 67.58 67.53 66.88 67.12 67.48 67.64 67.55 68.04 67.43 66.74 63.19 61.95 62.02 62.00 65.83 67.76 68.68 68.68 68.71 68.51 68.51
68.59 69.10 69.94 69.91 69.96 69.64 69.81 69.97 70.54 70.32 69.70 69.13 67.88 66.96 65.78 62.40 62.04 63.41 65.49 66.51 67.45 67.91 67.39 67.53 67.88 68.08 68.35 67.58 67.48 67.22 66.25 63.88 62.74 61.05 61.60 64.08 66.44 68.11 68.87 69.05 68.98 68.96 69.02
65.86 66.76 69.23 68.73 68.62 68.19 69.53 68.00 67.44 67.79 67.12 66.40 65.28 63.63 62.94 61.67 60.88 61.99 62.91 65.66 67.23 67.70 67.71 67.60 68.15 67.74 65.12 63.79 62.68 63.49 61.41 60.89 60.10 60.43 61.30 64.86 66.89 67.74 67.49 68.02 68.46 68.53 68.60
64.61 65.68 67.45 67.65 67.68 67.81 67.71 66.20 65.88 65.42 65.34 64.60 63.87 62.87 62.62 61.98 60.03 61.15 60.69 61.10 61.14 62.41 61.98 63.13 62.57 62.88 59.67 59.05 58.28 57.25 56.53 57.07 57.50 58.91 60.77 63.53 63.36 64.26 64.83 66.20 66.65 67.30 68.28
60.53 63.57 66.00 66.64 66.29 66.59 65.84 65.62 64.98 64.13 63.78 63.07 63.40 63.12 61.83 59.88 59.93 60.12 60.64 63.60 63.25 61.96 61.48 58.54 55.79 52.39 51.31 51.35 50.63 50.49 51.12 51.96 52.37 54.52 55.54 59.44 61.55 62.78 63.82 64.13 64.86 65.88 67.43
58.19 62.12 63.88 65.55 65.84 66.06 64.90 64.44 63.88 63.37 63.32 62.88 62.73 62.79 61.14 60.54 60.67 61.20 61.24 58.33 55.33 55.28 52.45 49.41 48.89 47.74 47.21 47.46 47.28 47.54 47.28 47.65 47.90 49.47 50.66 56.67 59.42 59.10 60.04 61.64 63.58 62.13 62.12
53.24 60.68 63.18 64.72 65.38 65.02 64.15 63.44 62.61 62.29 62.53 62.20 61.34 61.47 62.68 61.85 59.47 52.95 53.84 53.74 51.73 49.24 48.10 46.26 45.09 44.70 44.08 44.32 44.52 44.82 44.15 42.80 44.61 46.15 48.40 47.86 55.60 54.94 58.13 59.41 58.65 58.36 58.67
56.00 59.92 62.86 64.16 64.96 64.47 63.89 63.51 62.90 63.32 63.56 63.01 61.45 61.56 59.77 56.09 53.49 52.50 51.40 49.85 47.29 45.88 45.05 43.29 42.95 43.25 42.25 42.78 41.00 42.72 42.83 41.88 44.42 42.97 44.88 45.38 47.60 51.08 54.49 54.52 55.15 55.35 56.36
56.29 60.48 62.59 65.60 64.73 64.23 63.67 64.01 63.03 62.48 57.78 54.61 54.19 53.95 53.49 52.47 51.52 49.83 48.30 45.48 44.02 43.01 42.71 41.43 41.03 41.15 40.28 39.47 39.18 41.12 40.40 41.64 42.00 40.12 41.88 43.04 44.64 43.94 47.68 50.65 51.74 51.94 53.96
55.71 59.28 62.34 64.30 64.20 63.57 62.06 59.27 56.15 54.01 52.63 51.71 51.57 50.95 49.90 49.57 47.26 44.94 44.06 43.18 42.14 41.44 40.68 40.35 39.37 39.12 38.62 39.09 40.72 41.20 38.80 40.69 39.83 39.66 39.08 39.95 41.66 40.36 42.40 45.76 48.36 48.51 49.92
55.42 56.92 62.32 63.73 62.08 57.48 54.52 53.22 51.63 50.33 49.00 48.99 48.03 46.93 45.10 44.34 43.43 42.36 41.88 41.57 41.06 40.14 39.29 38.40 37.67 38.01 38.59 37.47 41.24 40.47 37.64 40.87 37.43 36.92 37.78 38.97 38.26 38.07 40.40 39.01 39.93 41.14 47.45
54.50 55.96 61.07 59.70 55.17 54.50 52.67 51.03 49.99 47.33 46.49 45.16 44.56 42.84 42.24 41.98 41.69 40.82 40.54 40.21 39.70 38.19 37.06 37.46 37.42 36.87 37.21 37.46 36.13 36.59 37.43 37.76 36.39 37.20 37.24 36.20 36.71 38.16 38.26 38.98 40.16 40.00 39.50
54.73 56.23 56.72 54.25 53.16 53.44 52.62 48.63 48.94 47.21 44.51 41.05 40.48 40.11 40.78 40.96 41.00 40.64 39.34 38.46 37.71 36.99 35.99 35.42 35.58 35.35 35.51 36.64 34.27 33.78 31.81 34.02 36.07 38.11 35.61 36.81 35.11 36.88 37.50 38.85 38.57 38.60 38.06
54.10 54.96 53.08 52.44 51.50 50.82 49.13 48.14 47.04 45.49 42.38 39.91 38.64 38.32 38.86 39.88 39.95 39.20 38.16 37.32 36.37 35.77 34.67 34.17 33.94 33.52 32.60 33.87 34.95 32.53 28.53 28.20 31.61 33.92 34.77 34.08 35.62 34.20 35.95 36.61 37.86 38.01 37.37
53.12 53.98 52.44 52.27 50.98 49.52 49.09 48.55 46.11 42.15 40.15 39.82 38.49 37.11 37.34 38.35 38.21 38.34 37.45 36.32 35.45 35.03 33.60 33.64 34.92 32.81 32.41 31.04 33.25 36.17 33.19 31.98 28.68 27.35 31.92 34.11 32.91 34.95 33.23 33.93 36.35 36.29 36.21
51.44 52.07 51.72 50.79 49.61 47.46 46.75 46.09 44.32 42.29 41.54 39.51 36.93 35.81 35.73 36.10 36.78 36.87 36.16 35.02 34.42 34.19 32.92 32.36 31.76 31.05 31.86 30.62 30.96 31.13 30.03 30.83 30.39 28.14 26.18 28.27 32.67 33.67 33.85 34.41 33.92 35.45 34.66
49.31 50.11 49.98 49.43 47.02 46.40 45.68 44.21 43.91 41.91 39.84 37.65 35.41 34.93 34.94 35.03 35.16 34.99 35.22 33.92 33.25 32.90 32.22 31.88 31.18 30.73 30.22 30.15 29.82 29.22 29.20 28.08 27.53 26.32 25.94 27.46 27.45 30.00 31.25 33.52 34.08 33.31 33.62

GFSSE_sfc_wetblb_012.txt.gz
Wetbulb
64.35 67.87 75.09 75.36 74.78 73.97 73.27 71.88 70.81 69.79 69.26 68.69 68.30 69.20 70.00 70.59 69.59 68.98 67.68 67.36 66.74 65.81 65.26 66.98 68.14 69.45 69.97 69.64 70.07 69.14 67.92 66.61 66.16 66.27 65.82 65.19 65.01 65.41 66.04 66.16 66.71 64.66 65.94
65.54 68.25 73.88 75.16 74.97 73.91 73.11 71.79 70.70 69.61 69.34 68.26 68.16 69.15 69.95 70.01 68.83 68.78 67.49 66.51 66.33 65.37 64.67 64.98 66.08 66.75 67.70 68.61 68.36 67.68 67.37 67.65 65.88 65.71 65.79 64.89 64.14 64.61 65.80 66.59 66.16 63.52 66.05
66.42 69.41 73.14 75.28 75.14 74.22 72.76 71.76 70.22 68.84 68.80 67.94 68.10 69.81 69.19 66.62 67.93 67.20 66.86 66.15 65.20 65.34 65.25 64.65 64.55 64.74 65.80 66.45 66.61 66.58 66.68 66.68 66.07 65.89 65.77 60.97 60.80 65.12 65.89 66.46 65.95 65.71 66.14
69.00 71.31 72.20 75.05 74.96 74.09 72.64 71.59 70.00 68.71 67.53 67.27 66.83 67.68 67.13 67.09 67.31 67.02 66.26 66.39 65.54 65.29 65.14 64.53 64.38 64.30 64.01 64.08 64.36 65.20 65.54 65.74 65.91 66.47 61.68 61.15 61.22 64.94 65.98 65.96 67.17 67.10 66.69
69.54 71.13 71.84 75.00 74.54 73.72 72.52 71.40 70.27 68.86 67.75 67.20 67.18 67.10 67.07 67.47 67.84 67.67 67.71 67.37 66.67 66.10 65.14 64.59 64.35 64.69 65.17 65.45 65.74 65.72 65.58 65.02 66.42 64.76 60.91 60.12 59.84 63.19 65.95 66.54 67.10 67.61 66.40
68.50 69.94 72.49 74.36 74.40 74.21 72.89 71.46 70.50 69.52 68.42 67.40 67.56 67.35 67.24 67.96 68.87 68.39 69.57 69.56 68.75 66.86 65.58 64.70 64.76 64.70 64.73 65.40 66.18 66.78 67.42 66.55 67.28 60.77 60.43 60.40 60.47 63.12 64.74 65.97 66.73 66.19 67.09
67.35 69.09 71.61 74.42 74.35 73.93 72.63 71.64 70.64 69.63 68.82 67.52 67.24 67.31 67.59 68.13 68.79 69.09 70.73 69.94 67.78 66.93 65.65 65.38 65.59 66.23 66.42 66.49 66.29 66.59 67.03 67.46 63.42 61.03 60.47 60.02 59.48 65.02 65.93 66.02 66.43 67.30 67.37
67.45 69.10 71.14 73.37 74.16 73.75 72.85 72.14 71.25 70.09 69.37 68.14 67.30 67.51 67.95 67.73 68.06 69.87 70.19 69.01 67.84 66.76 66.28 66.32 66.93 67.14 67.03 66.79 66.95 67.06 67.15 67.27 64.54 61.54 61.14 60.45 62.66 66.80 67.61 67.54 67.00 67.14 67.51
67.44 68.57 70.31 71.75 72.75 72.99 72.37 72.03 71.79 71.01 70.85 69.78 68.44 68.15 68.86 68.43 66.92 69.10 69.35 68.52 67.69 67.29 66.73 67.25 67.55 67.19 66.90 67.24 67.46 67.64 67.93 67.26 63.91 62.10 62.19 61.63 64.32 67.33 68.18 68.31 68.53 68.28 68.13
66.88 68.47 69.23 70.31 71.12 70.81 70.13 71.28 71.15 71.02 70.40 70.26 69.33 68.41 67.84 67.75 67.28 66.83 68.85 68.64 67.53 67.22 67.41 67.47 67.45 67.71 67.85 67.95 67.89 67.92 67.17 66.55 62.35 61.23 61.09 61.19 65.93 68.31 68.91 68.92 69.08 69.27 69.26
67.52 67.84 69.38 69.79 69.56 69.16 69.13 69.71 70.51 70.35 69.44 68.63 67.48 66.70 65.59 61.96 61.30 62.44 65.10 66.44 66.94 67.30 67.46 67.68 68.27 68.43 67.24 65.82 65.90 65.43 64.00 61.65 60.08 59.91 60.24 63.85 66.45 67.78 67.80 67.67 68.16 68.53 68.76
66.50 68.10 69.55 69.61 69.46 68.08 69.98 68.36 67.61 67.86 67.00 65.95 64.84 63.32 62.04 60.38 59.68 61.52 62.23 64.82 66.37 66.19 65.71 66.54 66.72 64.95 61.63 59.72 58.52 58.70 56.43 55.95 56.10 57.57 59.44 63.15 63.54 64.56 64.82 65.25 66.61 66.77 66.87
64.02 66.76 68.66 68.60 67.95 67.22 67.48 66.34 65.86 65.62 65.19 64.58 63.49 62.21 61.82 61.14 59.44 60.39 60.36 60.60 60.60 62.32 61.74 61.87 54.54 52.50 51.11 50.98 50.81 50.05 50.87 51.20 51.02 52.69 55.43 60.67 62.39 63.03 63.35 64.12 64.92 66.52 66.41
60.74 64.46 66.97 67.94 67.33 66.50 66.04 65.53 65.15 64.30 64.05 63.16 63.00 62.29 61.40 59.69 59.24 59.34 60.40 62.34 60.94 60.37 52.78 50.48 48.62 47.65 47.11 46.58 46.13 45.92 46.48 45.98 46.28 48.94 50.46 59.25 59.84 61.04 62.16 63.49 62.71 62.17 62.35
58.42 60.60 64.40 66.42 66.44 66.47 65.13 64.58 64.13 63.44 63.29 62.87 62.58 62.56 61.62 59.69 59.88 60.12 56.93 54.58 52.71 49.15 47.55 45.82 44.93 44.30 43.11 43.38 43.42 43.56 42.38 41.60 44.13 46.07 45.79 56.22 55.52 59.04 60.19 59.55 59.19 59.57 60.52
52.68 56.53 62.36 65.38 65.91 65.59 64.73 63.58 63.62 63.02 63.05 62.06 61.50 61.43 61.42 62.68 56.37 54.39 53.22 51.29 49.33 46.52 44.20 43.00 42.35 41.61 40.40 40.74 41.01 41.61 40.12 41.62 41.10 41.75 43.64 45.21 52.06 54.67 55.33 56.37 56.33 56.95 58.23
51.67 51.75 61.12 64.09 65.40 65.13 64.18 63.82 62.86 63.41 63.31 62.87 62.74 63.34 61.16 55.04 53.20 52.10 49.88 47.30 44.10 43.13 41.65 41.02 40.91 40.68 39.31 39.93 38.22 40.54 39.78 40.79 38.31 39.35 40.59 42.86 43.49 48.62 51.26 53.18 53.33 54.43 54.67
53.04 57.27 60.76 64.41 64.70 64.27 63.67 63.53 63.74 63.45 59.00 57.10 55.86 54.99 53.48 52.11 50.86 49.49 47.20 44.02 41.34 40.85 40.19 39.30 39.02 39.38 37.39 37.02 36.43 38.77 37.89 41.17 36.99 37.55 38.62 40.16 39.59 40.50 44.31 49.35 49.76 50.77 51.64
54.15 58.07 61.01 63.23 63.64 63.68 62.67 60.36 56.77 54.93 54.03 52.94 52.12 51.35 49.97 48.16 47.60 46.28 42.34 40.47 40.29 39.55 38.55 38.58 37.74 37.75 36.12 36.48 37.95 38.62 36.96 39.54 36.53 38.70 36.40 38.09 37.30 38.26 38.92 44.16 46.06 46.69 48.05
54.89 58.88 61.84 63.23 62.93 59.66 55.86 54.06 52.37 50.32 49.81 49.18 48.22 47.15 46.33 45.31 43.32 41.59 40.16 39.32 39.25 38.42 37.15 36.58 35.99 35.90 37.06 35.36 38.77 38.23 36.46 39.45 36.18 35.49 35.91 38.28 36.13 37.45 37.32 37.36 37.36 39.09 45.67
53.88 59.52 62.20 62.03 57.32 55.32 55.08 52.37 50.97 47.77 46.62 45.24 44.95 44.44 43.66 41.31 40.86 39.94 39.27 38.43 37.64 36.68 34.86 35.56 35.19 34.64 35.01 35.89 34.32 35.08 35.68 36.45 36.26 35.83 35.57 35.23 35.08 36.25 36.18 36.33 36.65 37.18 37.69
53.13 58.02 60.01 57.36 54.97 55.08 55.22 50.72 47.96 46.93 43.75 42.99 42.96 42.18 40.42 39.97 39.95 39.61 37.95 36.83 36.13 35.29 34.21 33.58 33.36 33.20 33.06 34.17 31.65 31.97 29.81 32.20 34.33 35.71 33.81 35.10 32.75 34.77 35.37 36.78 35.67 36.83 36.21
52.32 55.87 55.26 53.99 55.06 53.46 49.33 46.60 44.59 43.72 42.59 41.36 39.95 37.93 38.28 38.94 38.66 37.85 36.83 35.91 34.88 34.50 33.20 32.55 32.39 32.01 31.19 31.90 33.56 30.38 26.68 25.74 29.52 32.65 33.28 33.07 32.84 32.54 33.72 34.15 35.24 35.84 36.15
52.41 53.26 52.17 52.09 52.77 50.35 49.64 46.36 44.46 42.94 41.77 38.94 36.94 36.17 36.56 37.37 37.21 37.02 36.18 35.14 34.27 33.72 32.36 32.85 33.16 31.21 30.98 29.61 31.35 34.33 31.04 30.04 26.72 25.99 30.32 32.49 30.92 33.04 31.49 31.25 33.17 34.05 35.01
52.78 50.98 51.49 51.80 51.74 49.33 48.16 47.48 44.47 42.29 39.82 36.81 35.54 34.83 34.67 34.97 35.70 35.72 35.09 34.02 33.27 33.08 31.72 31.17 30.43 29.71 30.35 29.13 29.34 29.35 28.31 28.91 28.41 26.71 24.66 26.27 30.74 31.63 31.66 30.44 31.26 32.54 33.40
51.06 50.18 50.63 51.51 48.86 47.02 45.50 45.53 43.84 41.00 37.87 35.99 33.87 33.79 33.97 34.02 34.21 34.12 34.36 32.76 32.13 31.86 31.08 30.65 29.99 29.52 29.01 28.73 28.28 27.73 27.65 26.55 26.15 24.92 23.50 25.92 26.08 28.11 30.53 31.68 30.77 30.97 32.18

GFSSE_sfc_wetblb_015.txt.gz
Wetbulb
67.37 70.61 74.92 75.39 74.86 73.99 72.84 71.86 70.81 69.96 69.47 69.07 68.76 69.39 71.07 70.63 70.04 68.98 68.10 67.39 66.86 66.35 65.80 67.44 68.36 69.91 69.28 69.19 70.37 69.49 68.18 66.94 66.92 66.32 66.06 65.41 64.60 65.02 65.75 65.63 66.45 66.12 65.95
68.86 70.90 75.45 75.58 74.97 73.82 72.87 71.86 70.72 69.99 69.34 68.73 68.55 69.30 70.20 70.38 69.77 69.04 67.87 66.49 66.70 65.54 65.28 65.28 66.46 67.39 68.53 69.31 68.92 68.30 67.99 67.42 66.22 66.16 66.24 64.53 63.99 64.79 65.34 66.15 66.08 65.43 66.01
69.24 71.29 73.87 75.45 75.08 74.43 72.74 71.81 70.50 69.74 68.98 67.79 68.33 69.53 69.50 67.61 68.29 67.45 67.12 66.43 65.24 65.97 65.61 64.79 65.02 65.23 66.04 66.73 66.84 66.68 66.39 66.37 66.11 66.08 64.90 64.94 64.77 65.33 66.01 66.01 66.32 65.77 65.62
69.61 71.19 73.23 75.32 75.13 74.36 72.79 71.66 70.10 69.07 68.49 67.57 68.43 69.19 67.59 68.26 67.22 66.30 66.69 66.30 65.82 65.94 65.34 64.67 64.68 64.89 64.44 64.41 64.37 64.53 64.82 64.92 65.43 66.29 65.60 65.00 64.31 64.41 65.90 66.73 66.73 67.74 67.24
69.64 71.81 73.40 75.17 75.11 74.20 72.76 71.46 70.07 68.84 67.78 67.46 67.40 67.76 67.26 67.88 68.08 67.43 66.98 66.79 66.22 66.18 65.21 65.02 64.93 65.19 65.38 65.64 66.01 66.29 66.26 65.79 65.73 65.37 65.39 65.27 64.80 63.68 65.25 66.55 67.03 68.41 67.57
70.66 72.54 73.71 74.78 74.80 73.83 73.08 71.41 70.35 68.92 68.01 67.60 67.38 67.03 66.90 67.82 67.84 68.69 69.48 69.40 68.37 66.64 65.38 64.93 65.25 65.76 66.05 65.97 66.06 66.68 67.61 66.94 66.83 66.42 66.20 65.47 65.37 64.27 65.51 65.06 66.28 66.62 66.36
70.74 72.34 73.26 74.50 74.63 73.92 73.11 71.73 70.67 69.73 68.66 67.72 67.95 67.58 67.03 68.18 68.68 69.45 70.30 70.08 67.82 66.86 65.71 65.63 66.36 66.96 67.09 66.95 66.82 66.64 66.62 67.63 66.50 66.45 66.18 65.94 65.81 66.09 67.21 67.15 66.58 66.96 67.67
70.40 71.73 72.72 73.20 74.16 73.75 73.01 72.18 71.17 69.86 69.13 67.83 67.40 67.37 67.61 68.06 67.93 70.22 70.47 69.27 68.11 66.95 66.46 66.44 67.14 67.38 67.06 66.73 67.02 67.26 67.39 67.55 66.08 66.05 65.96 65.91 65.41 66.91 68.22 68.29 68.08 67.93 67.88
70.24 70.75 71.89 72.82 73.16 72.75 72.42 71.96 71.64 70.93 70.26 69.25 68.50 68.20 68.78 68.32 67.27 69.78 69.60 68.72 67.90 67.33 66.86 67.28 67.69 67.55 67.63 67.93 68.09 67.92 67.79 67.23 67.11 66.72 65.71 66.04 64.74 67.46 68.59 68.66 68.77 69.27 69.13
68.86 70.10 71.29 72.53 73.01 72.83 72.02 71.30 71.14 70.94 70.54 70.23 69.25 68.37 67.82 67.59 66.97 67.17 68.51 68.69 67.72 67.23 67.44 67.62 68.14 68.52 68.30 67.84 67.40 66.45 65.26 64.79 64.99 65.05 65.32 65.57 66.12 68.01 68.42 68.17 68.33 68.87 69.07
67.48 69.13 70.56 71.53 72.39 72.35 71.71 70.66 70.60 70.21 69.43 68.90 67.90 66.59 66.69 66.49 65.13 65.09 65.43 66.34 66.79 67.20 67.47 67.68 67.83 66.18 64.73 63.13 62.10 60.89 61.22 60.35 60.82 61.83 63.28 63.97 65.31 66.23 66.24 65.64 66.05 67.44 67.41
66.98 68.17 69.76 70.71 70.84 71.63 70.78 70.78 70.56 69.93 69.51 68.11 67.25 67.07 66.20 64.75 63.87 64.16 63.59 64.73 65.52 65.24 65.64 64.85 60.46 58.48 58.15 57.81 57.54 57.45 56.95 57.27 56.81 57.25 59.23 61.74 62.94 63.93 64.43 64.57 65.27 66.53 66.76
66.72 68.15 68.83 69.85 70.40 70.24 70.73 70.19 69.87 69.37 68.73 67.84 66.94 66.41 65.84 64.82 64.74 65.09 65.49 65.65 66.05 63.65 61.13 57.38 55.73 54.44 53.87 53.86 53.83 53.67 53.29 52.97 54.67 56.17 58.89 61.07 62.26 63.36 63.66 64.68 63.72 63.26 64.16
64.80 67.64 69.04 69.33 68.70 69.78 70.40 69.77 69.25 68.20 68.16 67.66 67.18 66.01 65.77 64.16 64.25 64.72 64.96 61.73 56.90 55.39 53.72 53.75 52.55 51.18 50.48 50.11 50.75 50.56 49.16 51.55 54.00 53.92 56.45 57.92 60.39 62.59 62.01 61.61 60.93 61.42 62.75
62.22 64.69 68.19 69.47 68.32 68.85 69.23 69.03 68.70 67.79 67.61 67.48 66.72 65.88 65.68 64.33 64.75 63.00 57.44 53.52 51.93 52.55 51.68 50.99 50.07 48.43 48.02 47.95 48.76 48.77 49.42 50.01 50.11 51.52 53.34 55.53 57.19 57.59 58.46 58.52 58.30 59.78 59.39
60.17 62.21 64.79 68.15 68.67 68.57 68.71 68.09 68.01 67.70 67.34 66.74 66.28 66.03 65.16 63.95 59.54 55.63 52.76 51.61 51.32 49.62 49.14 49.14 47.92 46.75 46.03 46.05 47.17 47.50 47.87 47.18 48.14 48.31 49.42 49.88 52.76 54.00 55.10 55.50 56.03 56.24 56.24
56.93 57.02 59.79 65.26 68.38 68.41 68.39 67.90 67.35 67.32 66.47 65.60 63.94 63.83 63.28 56.94 55.33 52.42 50.01 49.27 47.92 47.53 47.02 47.13 47.22 46.05 45.06 44.70 44.87 46.54 47.09 45.46 46.08 47.03 46.64 47.04 47.65 48.87 51.44 52.11 52.18 52.93 53.41
55.86 56.06 57.41 63.18 66.68 67.75 67.56 67.21 66.77 66.23 64.08 62.66 61.85 59.34 55.32 53.48 52.13 49.53 47.10 46.51 46.70 46.43 46.33 45.35 45.39 45.50 43.77 43.59 43.87 45.70 45.88 46.03 44.72 44.90 45.34 45.12 46.19 45.52 46.22 48.11 48.36 49.29 50.20
56.10 57.03 60.25 64.25 65.55 66.33 66.39 65.88 63.57 60.07 58.68 56.48 55.18 53.51 51.79 51.09 49.62 46.94 46.40 45.67 45.48 44.80 44.41 44.44 43.31 44.38 42.59 42.93 43.44 44.78 45.05 46.10 43.83 43.98 44.21 44.07 44.26 44.56 44.21 44.22 44.73 44.95 46.47
56.76 58.16 62.00 64.56 65.05 65.14 60.99 56.81 53.89 52.47 51.48 51.81 50.41 49.00 48.27 47.53 47.01 45.89 44.95 44.40 44.45 43.52 42.84 43.05 42.24 42.31 41.99 41.36 41.84 42.19 45.02 46.74 44.47 44.64 43.10 43.82 42.95 42.92 43.29 42.71 42.76 42.58 43.69
57.32 60.09 62.88 62.88 62.66 59.99 57.69 54.56 52.73 49.74 48.09 47.08 46.81 46.06 45.58 44.88 45.36 44.85 43.75 43.18 42.88 41.78 41.14 41.20 41.99 40.46 40.20 41.26 40.95 41.89 43.27 43.97 44.36 44.60 42.69 43.58 41.76 41.47 41.92 41.84 41.48 41.34 41.49
56.91 60.74 62.37 61.64 59.85 60.19 58.99 57.84 53.20 49.24 45.81 45.08 44.73 43.92 43.79 44.00 44.35 43.61 42.89 41.88 41.57 40.91 40.33 39.90 39.99 40.11 39.29 40.08 37.60 38.61 37.01 40.15 41.99 41.48 41.86 41.46 40.38 40.99 40.59 40.17 40.17 40.08 40.74
55.87 59.77 60.67 59.36 58.58 58.97 54.05 49.60 45.70 44.26 43.49 42.63 42.22 41.88 41.96 43.46 42.76 42.33 41.80 41.27 40.63 40.81 39.28 38.90 39.12 38.75 37.43 38.44 38.91 37.32 35.30 34.21 35.23 39.84 40.71 40.92 39.44 39.06 39.05 39.08 38.85 39.21 39.20
55.61 59.09 58.64 57.81 57.04 53.08 52.34 49.63 47.93 47.72 45.30 43.95 41.93 41.24 41.87 42.16 41.56 41.30 40.86 40.45 39.91 39.44 38.82 38.29 38.04 38.02 38.33 35.97 38.21 37.43 37.75 36.59 33.02 32.20 37.81 38.36 38.16 36.79 37.27 37.71 37.71 37.96 38.54
55.12 56.84 56.28 55.90 54.14 51.88 51.44 50.31 47.76 47.48 44.59 41.49 39.95 40.27 40.21 40.33 40.59 40.03 39.84 39.29 38.75 38.41 37.65 37.54 37.08 36.89 37.10 36.43 35.93 35.97 35.65 35.65 35.46 32.96 30.38 33.58 35.60 36.92 36.97 36.78 36.56 37.12 37.64
54.88 54.51 54.49 54.40 52.11 51.58 50.15 47.98 47.54 44.59 41.60 39.21 39.22 38.81 38.92 39.08 38.92 38.70 38.15 37.92 37.73 37.37 37.08 36.89 36.61 36.27 35.95 35.51 35.66 35.06 34.52 33.20 32.75 31.89 30.49 31.68 31.68 34.22 35.26 35.80 36.15 36.63 37.26

GFSSE_sfc_wetblb_018.txt.gz
Wetbulb
69.56 74.20 75.42 75.22 74.40 73.88 72.83 71.86 70.68 70.24 69.77 69.30 69.18 70.79 71.21 70.68 69.87 68.97 68.21 67.63 67.09 65.86 66.16 67.74 68.80 70.34 68.38 68.71 70.20 69.41 68.06 67.13 67.05 66.48 66.25 64.91 64.36 65.15 65.95 65.65 66.34 66.98 66.05
71.29 74.43 75.74 75.66 74.88 73.51 72.58 71.66 70.70 70.00 69.47 68.79 68.97 69.65 71.07 70.74 70.10 68.95 68.08 66.93 66.05 66.15 65.46 65.75 66.96 67.96 69.14 69.62 69.18 68.47 68.36 67.33 66.43 66.27 65.14 63.82 63.84 65.39 65.52 66.27 66.32 66.45 65.63
71.23 73.91 74.46 75.48 75.01 74.01 72.58 71.62 70.71 69.98 68.63 68.22 69.20 69.38 70.38 69.51 69.20 68.32 67.13 66.58 65.91 66.44 65.38 65.04 65.59 65.67 66.32 66.75 66.96 66.67 66.32 66.20 66.00 66.19 65.06 65.61 64.82 64.83 65.67 66.32 66.41 66.02 65.32
71.57 73.96 74.02 75.34 75.03 74.05 72.74 71.56 70.42 69.93 68.40 68.31 70.33 69.21 68.12 68.23 67.27 66.93 66.69 66.33 66.13 66.39 65.38 65.07 65.29 65.57 65.22 65.17 65.18 64.70 64.87 64.80 65.55 65.93 65.23 63.54 63.85 63.68 66.05 67.20 66.47 67.89 67.40
71.77 73.60 74.20 75.16 75.02 74.05 72.62 71.34 69.95 68.95 68.21 67.62 68.89 68.76 68.33 67.92 66.88 66.25 66.53 66.36 66.58 66.40 65.38 65.51 65.61 65.55 65.60 65.91 66.37 66.72 66.87 66.01 65.79 66.15 65.99 65.98 65.93 64.06 64.50 65.82 67.28 67.44 68.48
71.29 72.95 74.16 74.91 74.84 73.98 73.01 71.13 69.98 68.67 67.95 67.78 68.10 68.16 66.88 67.71 67.57 68.03 68.15 68.28 67.32 66.68 65.41 65.43 65.75 66.55 66.72 66.63 66.26 66.57 67.39 67.47 66.96 67.06 66.96 66.84 66.81 65.83 66.63 66.79 65.88 66.27 67.09
70.90 72.69 73.89 75.00 74.72 73.94 72.57 71.21 70.06 69.00 68.15 67.91 67.83 67.66 67.01 68.44 68.57 69.47 68.96 69.42 67.73 66.86 65.82 65.89 66.84 67.07 67.05 66.83 66.96 67.13 66.87 66.86 66.50 67.26 67.41 67.60 67.55 66.49 67.60 68.11 67.86 67.53 67.37
70.83 72.39 72.94 73.56 73.88 73.65 72.75 71.86 70.91 69.77 68.61 67.99 68.10 67.69 67.36 68.25 68.02 70.26 70.12 68.77 68.03 66.96 66.67 66.68 67.38 67.66 67.28 67.39 67.72 67.72 67.59 67.50 67.18 67.61 67.72 67.87 66.63 66.93 68.29 69.01 69.09 69.12 68.92
71.16 72.09 72.25 72.86 73.37 72.64 72.39 71.92 71.42 70.36 69.57 68.59 67.80 67.60 67.73 68.09 67.86 69.81 69.92 68.84 67.84 67.37 67.05 67.47 67.74 67.84 68.00 68.30 68.29 67.84 66.96 66.18 67.54 67.14 66.26 67.25 66.10 67.79 68.50 68.86 69.01 69.22 69.40
70.68 71.38 71.61 72.36 72.25 72.90 72.48 71.24 70.98 70.76 70.47 69.84 69.16 68.54 68.29 67.58 66.78 68.63 69.02 68.67 67.79 67.20 67.62 67.98 68.72 68.35 67.41 66.83 65.54 63.92 62.97 64.17 65.38 65.64 66.04 66.42 66.24 67.74 67.76 67.19 66.46 67.15 68.25
69.28 70.51 71.49 71.41 72.50 72.79 72.15 70.84 70.56 70.26 69.73 68.87 68.05 66.90 66.65 67.56 66.57 65.98 65.48 66.35 66.77 67.46 67.14 67.38 65.11 63.54 63.19 61.08 60.39 59.55 61.24 63.33 62.57 62.34 62.97 62.28 63.50 65.03 65.48 65.12 65.32 66.40 67.08
68.31 69.36 71.13 71.63 71.47 72.03 71.60 71.72 70.47 69.46 69.37 69.12 68.90 68.51 67.51 66.62 65.09 66.23 64.97 65.37 65.74 65.68 64.83 61.74 59.58 58.37 62.55 61.86 61.62 60.07 60.84 59.70 59.35 59.82 60.90 61.97 63.00 63.51 63.81 65.53 64.44 64.52 65.31
68.57 69.74 70.43 70.92 71.70 71.95 71.33 71.28 70.61 69.97 70.11 69.59 69.19 68.51 66.22 65.37 66.00 66.48 67.24 67.49 68.34 64.65 65.50 62.46 61.45 59.38 57.88 57.72 57.62 57.25 55.42 55.66 57.30 58.30 59.28 60.20 61.72 62.58 64.38 62.81 62.51 63.55 62.88
67.21 69.22 70.48 70.88 71.48 71.36 71.58 70.90 70.21 69.64 69.97 69.54 69.18 68.42 66.56 65.83 66.30 66.64 67.52 66.43 63.41 61.25 60.39 60.00 58.76 56.37 54.94 53.55 53.60 53.42 52.83 54.50 55.95 57.11 57.36 59.28 60.60 61.47 61.33 60.36 61.04 61.01 60.69
65.63 67.99 69.83 70.99 70.65 71.00 71.37 70.69 70.48 69.81 69.39 69.57 69.26 68.14 67.33 66.62 66.73 67.02 63.03 59.72 56.34 58.18 58.60 57.63 56.01 53.60 52.15 51.16 51.80 51.49 51.80 52.66 54.25 55.65 55.88 56.23 57.18 57.78 58.16 58.43 58.90 58.48 58.57
64.40 65.86 68.39 70.33 71.00 70.31 71.38 71.04 70.50 70.14 69.48 69.55 69.21 67.69 67.94 67.51 67.17 60.38 57.85 54.83 56.61 56.19 55.14 53.75 51.84 50.93 50.52 49.69 49.98 50.19 50.56 51.85 52.64 53.74 54.10 53.24 53.17 54.05 54.58 54.90 54.97 55.07 55.68
62.26 62.71 64.38 67.85 70.60 69.33 71.18 71.21 70.59 70.09 69.29 68.69 68.65 68.34 67.86 65.35 61.77 56.12 52.75 52.74 54.15 52.84 51.31 51.70 51.41 50.52 49.87 48.82 48.36 49.51 50.17 50.39 51.10 51.33 51.32 51.50 50.59 49.85 50.43 51.19 51.31 51.73 52.27
62.03 61.88 61.82 61.81 66.74 69.78 70.46 70.68 70.35 69.73 69.17 69.14 68.38 67.45 62.73 58.45 55.78 52.03 50.48 50.79 51.69 51.25 50.91 49.96 49.57 49.62 48.39 48.00 48.28 49.26 48.99 49.38 49.18 49.26 48.79 49.15 49.26 48.59 47.62 47.49 47.93 48.30 49.18
61.50 61.68 61.44 62.83 63.79 66.96 69.36 69.84 69.78 69.42 68.26 65.46 63.59 59.87 57.68 54.46 51.61 49.45 49.32 50.30 50.26 49.61 49.24 48.18 47.71 47.25 46.65 46.98 46.51 47.24 48.21 49.55 48.40 47.51 47.82 47.83 47.51 47.52 47.17 45.29 45.20 44.93 45.87
60.93 61.38 61.98 63.62 65.49 67.06 67.95 68.42 67.94 65.73 62.38 58.98 57.49 55.50 54.90 51.25 49.84 51.92 50.76 49.55 49.30 48.36 47.41 47.19 46.06 46.02 45.26 45.28 44.87 45.96 50.02 50.31 48.65 48.68 48.38 46.92 47.00 45.97 46.10 45.49 45.27 45.32 44.64
60.33 60.88 62.19 63.82 65.87 66.45 65.96 63.82 60.75 55.55 56.57 52.60 51.51 50.97 49.94 48.72 49.45 51.08 49.95 48.77 48.40 47.11 45.82 45.33 45.48 44.58 44.15 44.82 44.95 47.03 47.18 47.86 48.14 48.79 48.10 45.76 45.73 44.87 44.76 44.40 44.07 43.96 43.91
59.99 61.13 62.98 64.63 64.78 66.33 64.69 63.73 60.76 55.24 52.99 48.83 47.41 46.65 46.52 46.96 48.38 50.13 49.20 47.78 46.97 45.80 45.11 44.64 44.54 44.58 43.68 43.75 41.84 43.19 42.42 43.88 45.72 46.49 45.22 45.39 43.94 44.16 43.71 43.13 43.13 42.91 43.07
59.36 61.05 63.23 64.52 64.27 64.71 64.02 60.84 56.23 52.21 46.90 44.87 43.56 43.64 44.49 45.96 47.19 48.63 47.81 46.71 45.96 45.77 44.29 44.09 43.88 42.97 42.40 42.84 42.20 40.67 40.02 39.81 39.69 44.46 44.16 43.30 43.45 42.57 42.51 42.39 42.10 42.05 41.89
59.21 61.69 63.76 62.88 64.21 63.17 58.14 55.01 54.68 55.47 50.95 45.62 44.25 42.93 43.82 45.46 47.25 46.81 46.31 45.90 45.18 44.73 43.74 42.80 42.58 42.38 42.63 40.81 43.02 41.08 40.92 39.67 37.24 36.64 42.20 42.19 42.15 40.76 41.46 41.53 41.27 41.16 41.28
59.07 61.17 62.28 62.13 63.10 59.80 57.03 57.00 58.70 53.93 52.90 46.52 43.05 42.39 43.31 45.40 46.22 45.50 45.23 44.64 43.81 43.36 42.83 42.39 41.71 41.74 41.93 41.07 40.28 39.97 39.90 39.63 39.30 36.63 35.04 38.47 40.47 41.44 41.31 40.54 40.20 40.36 40.56
59.06 60.90 61.33 62.19 61.14 58.18 55.20 54.29 52.98 48.14 43.95 42.12 42.34 41.96 43.45 45.12 44.51 44.20 43.84 43.73 43.19 42.56 42.12 41.78 41.50 40.62 41.42 40.85 40.17 39.36 38.13 37.14 36.86 36.40 35.41 36.22 36.22 38.77 40.22 40.13 39.33 39.37 39.79

GFSSE_sfc_wetblb_021.txt.gz
Wetbulb
70.09 73.84 75.32 74.53 73.94 73.43 72.59 71.71 70.81 70.25 69.71 69.66 70.84 71.63 71.30 70.65 69.65 68.88 68.67 67.96 66.63 66.32 66.37 68.23 69.51 70.61 69.18 69.43 70.54 69.59 68.39 68.08 67.49 67.08 65.74 64.12 64.39 65.85 66.74 66.39 66.74 67.35 66.85
72.11 74.47 75.56 75.20 74.35 73.30 72.60 71.31 70.65 70.10 69.39 68.87 69.23 70.81 71.09 70.74 69.75 69.08 68.09 67.66 66.95 66.62 66.09 66.90 67.92 68.28 69.59 69.88 69.40 69.20 68.34 67.70 67.01 66.70 65.75 64.60 64.64 66.10 66.55 66.37 67.37 66.62 65.65
72.69 74.74 74.62 75.22 74.90 73.87 72.41 71.23 70.50 69.70 68.62 68.47 69.08 70.25 71.20 70.74 69.60 68.38 67.80 66.50 67.39 66.26 66.01 66.07 66.60 66.44 66.65 66.79 67.00 67.04 66.71 66.46 66.35 66.66 66.32 65.51 64.68 65.21 66.08 66.90 66.84 67.12 66.51
72.59 74.12 74.28 75.16 74.66 73.69 72.29 71.29 70.58 69.18 68.31 69.16 69.96 69.92 68.95 69.25 68.53 67.68 67.16 66.97 67.43 66.15 65.86 65.93 66.14 66.18 66.28 66.59 66.62 66.11 65.86 65.32 65.53 65.95 65.72 63.65 63.50 64.84 64.30 66.45 67.61 67.20 67.94
72.21 73.85 74.62 75.10 74.75 73.86 72.43 71.10 70.29 69.37 67.88 70.07 69.63 68.93 68.68 67.20 66.72 66.49 66.97 66.78 67.42 66.24 66.18 66.38 66.60 66.60 66.60 66.55 66.72 67.15 67.96 66.41 66.73 67.07 66.45 66.70 65.96 66.44 65.92 65.36 66.09 67.18 67.96
71.89 73.95 73.94 74.80 74.63 73.92 72.67 70.80 69.71 68.63 67.95 69.06 68.93 67.98 67.62 67.28 67.05 67.39 67.38 67.36 67.53 66.64 65.93 66.09 66.82 67.03 67.11 67.04 66.99 66.79 67.26 67.34 66.97 67.04 66.82 66.99 66.98 67.52 67.65 67.52 67.34 66.76 66.73
71.15 73.69 74.25 74.84 74.43 73.85 72.35 70.89 69.68 68.61 68.19 68.05 68.55 67.94 68.15 68.82 68.41 68.61 68.65 68.87 67.75 66.87 66.14 66.42 67.28 67.37 67.29 66.96 67.30 67.54 67.51 67.25 66.76 67.40 67.19 67.42 67.03 67.61 68.24 68.66 69.09 68.94 68.44
70.65 72.56 73.93 73.75 73.88 73.51 72.43 71.36 70.32 69.06 68.35 68.37 68.20 67.85 68.10 68.15 68.46 70.12 70.29 68.78 68.15 67.07 66.98 67.06 67.71 67.82 67.67 68.03 68.38 68.02 67.70 67.55 66.92 66.65 66.89 66.61 67.28 67.32 68.40 68.74 69.27 69.45 69.70
70.97 71.79 72.92 73.87 73.09 72.30 72.05 71.77 71.21 70.16 69.26 69.00 68.95 68.16 68.45 67.64 69.48 70.28 69.73 69.07 68.25 67.58 67.38 67.86 68.31 68.30 68.60 68.46 67.83 66.94 66.30 66.44 65.90 66.31 65.67 66.18 66.97 68.02 68.24 68.12 67.68 67.45 68.23
70.56 71.16 71.68 73.06 73.45 72.19 71.84 71.10 70.75 70.56 69.97 69.39 69.00 68.82 68.73 67.46 68.81 69.37 69.80 68.96 68.23 67.67 67.94 68.53 68.05 67.46 67.03 65.67 63.49 62.09 62.89 64.51 64.25 64.02 63.88 62.97 64.65 66.37 66.76 66.23 65.93 66.52 67.67
69.31 70.44 71.10 71.40 72.31 71.60 71.95 70.56 70.27 70.03 69.46 68.70 67.94 67.30 66.76 66.95 66.33 66.46 65.87 67.17 67.57 67.53 67.58 65.70 63.69 63.26 63.13 62.00 60.30 59.43 61.10 62.59 61.70 60.71 61.21 62.92 63.69 64.46 64.90 65.54 66.24 65.64 66.07
67.97 69.25 70.55 70.97 71.46 71.72 70.93 70.92 69.80 69.07 69.38 68.28 68.02 67.19 67.13 66.06 65.64 66.16 65.09 66.35 66.52 66.63 64.08 62.10 59.67 59.62 61.60 62.24 61.47 60.79 59.71 58.16 58.06 58.81 60.02 61.75 63.15 63.81 65.85 64.16 63.81 64.96 63.98
68.26 69.09 70.20 71.00 71.37 71.36 70.10 70.47 70.16 69.54 68.50 68.83 68.51 68.12 65.66 64.78 64.36 65.50 66.04 65.60 66.04 65.05 64.61 61.74 61.16 60.27 59.21 58.31 57.86 56.99 55.46 55.50 56.12 57.70 58.61 61.41 62.70 64.00 63.45 62.25 62.96 62.29 62.35
67.12 68.68 69.86 70.98 71.34 71.45 71.48 70.23 70.22 69.32 69.45 68.90 68.61 68.12 65.33 64.40 65.02 65.23 66.09 67.04 65.15 63.65 62.02 61.27 60.06 58.02 56.68 54.85 53.89 53.65 53.19 54.42 54.41 55.93 56.57 58.82 60.78 61.42 60.84 61.50 60.20 60.00 60.45
65.54 67.59 69.54 70.54 71.27 71.57 71.48 70.79 70.04 69.69 69.13 68.87 68.79 68.39 66.39 65.18 65.19 65.95 65.64 63.53 61.47 61.30 60.37 59.17 57.50 55.04 52.94 51.93 51.73 51.85 51.12 52.30 52.70 54.22 55.53 56.57 57.31 57.69 58.00 58.13 57.75 57.54 57.85
65.10 66.12 68.60 69.64 70.82 71.45 71.15 70.61 70.46 69.95 69.33 69.28 68.07 68.03 66.78 66.44 66.47 65.58 62.54 60.12 59.84 59.06 57.32 55.41 52.48 51.63 51.32 50.79 50.09 50.60 50.10 50.91 51.59 52.82 53.87 52.44 53.58 53.73 54.08 54.30 54.09 54.09 54.38
62.78 64.54 66.04 68.65 70.16 70.50 70.63 71.18 70.51 70.09 69.68 68.71 67.86 67.87 67.03 67.39 65.59 62.14 59.33 57.62 56.94 55.59 53.52 52.57 51.98 51.52 50.56 49.85 49.46 49.55 49.41 49.51 50.44 51.10 51.57 52.47 50.57 50.34 50.13 50.56 50.81 51.10 51.61
62.96 62.92 63.51 65.01 68.23 70.08 69.88 70.84 70.10 69.50 69.48 68.06 68.10 67.38 67.21 66.56 63.27 58.59 55.51 54.72 55.21 53.43 52.36 51.02 50.04 49.96 49.35 48.98 48.50 49.42 49.08 49.65 49.10 49.46 49.61 49.43 50.14 48.82 48.83 47.47 47.56 48.17 48.73
62.53 62.64 63.06 63.18 64.12 67.20 69.87 70.12 69.71 69.03 68.01 67.40 68.10 67.91 65.78 59.85 56.98 54.11 52.06 52.96 52.98 51.88 50.93 49.17 48.63 47.97 47.64 47.96 47.44 48.07 49.02 49.36 49.10 48.14 48.18 48.05 48.19 48.24 48.11 48.37 45.97 47.05 46.17
61.42 62.44 62.73 62.99 62.99 64.18 68.27 69.27 69.35 67.55 67.19 66.99 66.77 63.18 58.84 55.30 52.38 50.72 51.78 52.38 51.73 50.42 49.32 48.69 47.76 47.73 46.46 46.19 45.60 46.89 49.69 50.43 49.88 48.89 48.27 47.72 47.42 46.89 47.16 46.87 46.14 46.17 47.31
60.25 61.28 61.59 62.21 63.67 64.89 66.35 67.80 67.11 64.89 63.63 62.87 60.76 58.00 55.19 51.81 51.32 52.47 52.80 51.30 51.14 49.51 48.08 47.78 47.15 46.29 45.46 45.66 46.78 47.40 48.31 47.36 48.67 48.81 49.62 47.64 47.20 46.27 45.86 45.73 44.71 44.50 44.23
59.95 60.78 61.13 62.01 63.82 65.77 67.57 67.97 65.95 63.02 59.38 55.98 55.03 50.87 50.14 50.06 50.46 51.24 51.65 50.54 49.36 48.16 47.20 46.83 46.72 45.89 45.05 44.68 42.15 44.70 43.54 44.60 46.01 46.67 47.27 45.83 45.14 45.62 44.65 44.18 43.49 43.39 43.39
59.15 60.63 61.17 62.69 65.01 66.26 67.47 65.01 59.28 52.90 49.34 48.91 48.11 47.70 46.36 47.53 48.94 50.09 50.80 49.50 48.74 48.60 46.77 46.31 45.81 45.04 44.11 44.13 43.19 40.93 40.90 40.47 40.10 45.61 45.08 44.91 44.28 44.58 43.67 43.62 43.14 42.90 42.46
59.18 61.85 62.64 63.78 65.32 66.13 66.45 62.52 56.45 54.40 50.46 50.49 48.85 46.54 45.71 46.40 47.69 48.63 49.11 48.56 47.67 47.17 45.89 44.70 44.57 44.15 44.56 42.14 43.54 41.86 41.47 40.06 37.13 36.56 43.36 43.63 44.15 41.67 42.80 42.91 42.34 41.84 41.66
58.51 61.33 62.84 64.04 64.86 65.56 64.79 60.94 58.50 58.02 55.43 51.42 46.82 44.08 43.99 45.97 46.46 47.22 47.82 47.27 46.41 46.07 44.97 44.17 43.74 43.04 42.69 41.48 40.99 40.47 40.47 40.76 40.11 37.27 35.01 38.78 41.39 42.31 42.28 42.17 41.50 41.17 40.98
56.96 61.41 62.81 63.67 63.30 64.49 62.93 59.80 59.58 58.73 51.75 47.49 43.98 42.36 42.95 44.43 45.10 46.64 46.50 46.20 45.60 44.60 43.92 43.45 43.11 42.51 41.76 41.09 40.55 39.89 38.67 37.40 37.00 36.64 35.53 36.22 36.13 38.91 40.90 41.00 40.76 40.13 40.44

GFSSE_sfc_wetblb_024.txt.gz
Wetbulb
70.49 72.81 74.99 74.19 73.68 73.08 72.46 71.64 71.03 70.51 70.48 71.37 72.11 71.94 71.46 70.39 69.84 69.61 68.91 67.65 67.32 66.53 67.63 69.13 70.30 71.12 70.81 71.21 70.76 69.68 69.22 68.53 67.91 67.10 65.46 64.22 65.56 66.76 67.06 67.44 67.52 66.54 67.08
71.63 73.20 74.76 74.65 73.90 73.07 72.25 71.27 70.82 70.37 69.88 69.52 70.77 71.58 71.31 70.47 69.97 68.93 68.08 67.56 66.76 66.42 66.93 68.10 68.57 69.05 70.02 69.97 69.72 68.88 68.48 67.86 67.13 66.66 66.41 66.17 66.20 66.20 66.74 67.01 67.01 66.67 66.42
71.59 73.47 73.58 74.79 74.30 73.70 71.81 71.10 70.48 69.89 68.95 69.24 69.53 71.10 71.53 70.62 69.64 68.52 67.61 67.66 66.50 66.34 66.55 67.32 67.52 67.44 67.61 67.36 66.95 66.75 66.38 65.93 65.64 66.24 67.37 64.15 62.96 65.85 66.58 67.37 67.13 66.70 67.32
72.79 72.46 72.88 74.87 74.40 73.37 71.79 71.04 70.17 68.75 69.55 70.01 70.60 70.44 70.30 69.66 68.93 68.15 67.89 68.01 66.69 66.56 66.49 66.62 66.65 66.56 66.82 66.99 67.01 67.24 67.08 66.02 65.82 67.28 64.52 63.79 63.74 65.79 64.54 65.10 66.73 67.33 68.39
72.10 72.14 73.53 74.55 74.25 73.39 71.92 71.15 70.19 68.72 70.11 70.80 70.69 70.00 68.85 68.29 67.73 68.15 67.74 68.03 67.05 66.55 66.79 67.15 67.30 67.21 67.04 66.91 67.04 67.48 68.43 66.96 68.23 67.29 64.38 62.94 62.65 67.31 67.75 67.05 66.20 66.44 66.89
71.23 72.64 73.77 74.25 74.13 73.47 72.41 70.94 70.18 68.68 69.66 70.40 70.51 69.82 68.70 68.13 68.00 67.60 68.16 68.12 67.48 66.62 66.69 67.40 67.73 67.56 67.47 67.30 67.18 67.06 66.98 66.95 67.68 62.82 63.52 65.75 65.01 68.38 68.21 67.60 67.92 67.92 67.27
71.38 72.53 73.32 74.45 74.23 73.49 72.07 71.06 69.69 68.64 68.97 69.55 68.79 68.67 69.04 69.30 68.61 68.44 69.77 68.72 67.81 67.08 67.01 67.47 67.81 68.27 67.69 67.60 67.88 67.70 67.47 67.81 65.37 65.13 64.47 65.52 66.59 68.36 68.20 68.24 69.34 69.62 69.55
71.50 72.39 73.06 73.56 73.68 73.14 72.09 71.37 70.38 68.98 68.61 69.04 69.09 68.59 69.26 68.41 68.79 69.74 69.95 68.79 68.12 67.63 67.47 67.95 68.33 68.19 68.22 68.64 68.38 68.03 67.76 67.49 65.20 64.07 63.93 64.90 67.94 68.16 68.15 68.04 68.23 67.95 68.45
70.23 71.85 72.02 72.31 72.41 72.04 71.60 71.06 70.64 70.06 69.70 69.73 69.73 69.45 69.48 69.06 70.74 70.59 69.96 69.03 68.35 67.72 68.00 68.56 68.80 68.73 68.58 67.88 67.01 66.12 66.23 65.95 62.83 62.19 63.13 61.78 66.65 67.08 67.30 66.81 66.44 67.10 68.40
67.99 70.75 71.50 71.71 71.39 70.51 70.08 70.55 70.33 70.02 69.25 69.50 69.14 68.95 68.00 67.59 69.57 70.26 69.48 69.32 68.27 68.07 68.47 68.31 67.64 67.50 66.94 65.13 62.76 62.26 63.14 63.28 59.73 57.84 59.09 61.10 64.56 65.24 65.60 65.80 67.13 66.66 66.88
67.45 67.48 70.35 71.19 71.00 70.30 69.64 69.46 69.86 69.61 68.73 68.19 67.49 67.45 66.54 64.75 66.20 67.44 67.06 67.47 68.47 67.94 67.71 65.93 64.48 65.27 64.40 63.65 62.82 62.22 61.57 56.03 54.32 56.18 57.92 63.14 63.99 64.32 66.53 65.59 65.90 66.00 65.07
64.75 66.31 67.63 70.65 70.75 70.67 70.33 68.61 67.38 67.95 66.86 65.50 64.63 64.84 64.53 63.30 62.90 65.11 64.55 66.94 67.60 67.40 65.57 63.62 61.68 62.57 62.07 57.62 56.83 59.58 52.13 51.11 51.61 54.94 57.87 63.04 62.38 65.52 64.67 64.70 64.03 63.71 63.55
64.90 65.72 66.86 67.38 69.36 69.36 69.65 68.43 67.54 66.92 67.08 66.01 65.25 64.37 63.44 61.84 61.98 63.04 62.49 63.93 63.68 63.47 60.50 59.86 57.42 55.67 54.00 52.80 51.64 50.39 49.80 49.91 49.40 54.37 58.83 62.50 64.08 64.33 62.57 62.91 61.76 61.73 62.37
64.33 65.37 66.81 67.58 67.66 69.67 69.41 69.01 68.46 66.72 66.87 66.15 65.19 64.93 60.31 59.62 59.75 60.72 62.58 63.51 64.23 62.21 57.77 56.25 54.47 53.02 50.92 48.55 47.58 47.49 46.97 47.92 47.52 52.63 56.10 60.39 60.85 61.32 61.63 60.63 59.90 59.57 59.71
62.40 64.98 66.06 67.15 67.57 69.07 68.67 69.21 68.16 66.80 66.92 65.88 65.19 64.87 61.67 60.63 60.70 61.22 62.96 58.80 57.19 56.61 55.35 53.57 50.36 48.29 46.76 46.52 45.94 46.01 45.05 45.40 46.40 51.05 51.17 57.74 57.59 57.78 57.84 57.57 57.31 56.66 56.43
59.66 63.38 66.39 67.19 67.87 68.31 68.46 68.55 68.28 67.88 66.79 66.42 66.40 66.18 63.35 61.77 61.53 61.99 57.67 56.51 55.61 53.52 51.28 48.42 46.46 45.79 45.06 44.90 44.95 44.81 43.81 44.03 44.94 47.73 49.03 51.00 54.62 54.14 54.00 53.93 53.75 53.76 54.05
58.26 62.13 64.38 66.46 68.17 68.49 67.95 68.28 68.77 68.27 67.44 66.19 66.47 66.51 64.31 63.52 61.73 59.09 55.93 54.10 52.30 49.89 48.25 47.59 46.49 45.78 44.61 45.12 43.36 44.00 43.85 43.44 44.44 45.26 46.76 46.91 48.70 51.78 50.86 50.70 50.92 51.22 51.56
58.25 58.78 62.28 67.14 67.08 67.66 68.20 68.21 68.19 68.08 67.51 66.79 66.62 66.25 64.78 63.10 59.29 54.75 53.07 51.65 50.18 48.34 47.19 45.16 43.97 43.83 42.95 42.56 41.71 42.27 42.76 43.99 43.58 43.82 44.39 44.13 44.37 45.66 48.26 48.28 48.48 49.25 48.98
57.38 58.59 58.91 62.39 66.31 67.04 67.42 67.64 67.15 67.83 66.73 66.35 66.51 65.45 64.44 59.71 55.19 51.66 49.88 50.11 50.30 47.09 45.16 44.27 42.63 42.04 40.76 41.02 41.88 40.73 42.49 42.48 42.93 44.66 42.22 43.18 43.06 43.11 42.60 47.34 48.49 48.39 47.76
56.32 57.16 58.45 59.26 59.93 63.13 67.76 67.35 66.01 66.50 66.11 66.42 65.90 63.19 57.55 55.03 52.91 49.27 49.21 50.17 48.86 45.57 43.63 43.00 41.81 41.77 40.28 39.91 43.33 43.13 43.14 43.56 42.77 41.94 41.88 44.20 42.12 41.96 41.19 41.32 39.86 40.96 47.07
54.81 54.46 57.06 58.06 57.95 58.95 62.30 65.64 65.31 63.76 63.86 63.13 60.62 57.71 52.83 50.99 50.35 48.22 50.14 48.89 46.39 44.00 42.36 42.50 41.45 40.74 39.38 39.59 39.93 40.44 41.50 41.18 42.47 42.63 43.29 42.77 41.56 41.40 40.14 39.62 38.73 38.56 39.17
54.68 54.78 55.00 56.92 59.01 59.63 60.46 64.81 65.34 61.58 59.38 57.32 56.41 52.78 49.06 48.87 50.65 50.72 49.31 47.24 43.98 42.60 41.99 41.30 41.03 40.22 39.39 38.80 36.12 36.97 35.95 38.63 40.04 40.71 40.51 40.71 39.09 39.21 39.59 39.45 38.29 38.40 37.17
54.89 55.50 55.70 56.39 57.45 60.79 61.98 62.88 52.52 51.30 49.10 49.07 48.33 46.98 46.24 47.23 48.90 49.50 48.38 46.64 43.44 42.82 41.19 40.36 39.75 39.18 38.19 37.93 37.25 35.29 32.97 32.47 33.36 37.72 38.26 38.20 38.05 37.53 37.07 38.31 38.82 38.50 37.52
52.64 55.88 55.65 56.42 57.39 61.02 65.03 58.80 55.38 55.96 50.66 48.67 47.72 47.47 48.83 46.32 46.92 48.33 47.42 46.00 42.90 42.13 40.25 39.52 40.55 38.47 38.07 36.46 37.63 39.24 35.53 34.16 30.98 30.16 35.52 36.44 37.32 37.42 36.39 36.29 36.74 37.13 37.19
49.79 52.26 55.83 56.73 58.62 62.08 63.92 58.42 55.96 52.60 50.00 47.41 44.94 45.29 45.13 45.86 46.74 46.43 46.60 44.87 41.79 41.07 38.83 38.87 38.41 37.49 37.15 35.87 35.57 35.07 34.01 34.29 33.68 31.14 28.97 31.65 34.63 36.12 36.28 36.28 35.61 35.61 36.44
49.10 50.13 55.50 56.92 60.14 61.54 62.15 56.91 56.45 53.32 48.14 43.93 43.73 43.06 44.17 45.46 45.44 45.63 44.81 43.73 40.56 39.67 38.95 38.37 37.90 37.33 36.47 36.01 35.56 34.73 33.76 32.14 31.21 30.23 28.40 29.05 29.81 32.80 34.25 35.19 34.99 34.74 35.19

GFSSE_sfc_wetblb_027.txt.gz
Wetbulb
70.18 72.27 74.85 74.09 73.42 72.95 72.58 72.17 71.96 72.35 72.97 72.89 72.77 72.10 71.19 70.64 70.13 69.23 68.33 67.62 66.87 67.81 68.99 70.28 70.51 71.38 71.67 71.38 70.81 70.01 69.20 68.63 67.71 66.41 65.23 65.13 66.30 67.07 67.27 67.21 67.64 66.30 66.61
71.38 72.41 74.47 74.52 73.47 72.83 71.89 71.23 70.89 70.74 71.63 71.90 72.07 71.87 71.01 70.59 69.62 68.20 67.89 66.92 66.70 67.32 68.34 69.18 69.89 70.71 70.82 70.31 69.67 69.02 68.33 67.39 66.29 65.97 65.92 65.48 66.13 66.29 66.75 67.44 66.90 66.45 65.75
71.68 72.66 73.06 74.40 74.08 73.21 71.72 71.15 70.56 69.87 69.68 70.47 71.47 71.62 71.20 70.63 69.23 68.42 67.42 66.75 66.63 67.03 67.72 68.28 68.27 68.53 68.43 67.89 67.35 66.87 65.97 65.02 65.06 65.60 66.93 63.08 62.36 65.49 66.70 67.21 66.84 66.33 66.96
72.35 72.47 72.68 74.32 74.08 72.80 71.55 70.98 69.78 69.43 69.94 70.32 71.71 72.13 71.10 69.65 68.48 68.49 68.29 66.99 66.86 66.79 66.88 66.95 66.89 67.16 67.35 67.31 67.42 68.27 67.17 66.22 66.36 67.75 64.49 62.75 63.03 66.62 65.32 64.69 65.87 67.25 68.04
71.81 72.31 73.23 74.27 73.81 72.73 71.54 70.63 69.54 70.44 70.53 71.53 71.06 70.74 69.88 69.32 68.88 68.81 68.69 67.38 67.00 67.14 67.47 67.43 67.40 67.19 67.09 67.09 67.48 67.87 67.89 67.07 67.96 66.42 63.53 61.68 63.86 67.49 67.86 67.18 66.36 66.16 66.32
70.68 71.92 73.46 73.97 73.68 73.01 72.37 70.83 69.45 70.84 71.24 70.11 70.84 70.39 70.05 68.58 68.67 68.73 68.67 67.82 67.04 67.13 67.68 67.95 67.78 67.66 67.50 67.61 67.52 67.10 66.82 66.69 67.69 63.78 63.64 67.15 65.09 68.51 67.75 67.27 68.52 68.46 68.00
70.63 72.40 72.80 73.97 73.79 73.07 72.34 71.73 70.02 70.38 70.60 70.01 69.32 69.00 69.03 69.42 69.28 69.00 68.87 68.23 67.57 67.27 67.64 68.08 68.61 68.16 67.97 68.21 68.08 67.74 67.60 67.89 64.83 62.94 64.25 65.71 66.52 68.57 68.00 68.80 68.75 68.77 69.01
71.08 72.02 72.53 73.17 73.39 72.76 72.02 71.17 70.44 70.22 70.48 70.19 69.80 69.85 69.86 69.08 69.06 69.68 69.30 68.59 68.00 67.81 68.00 68.59 68.55 68.52 68.75 68.72 68.30 67.83 67.63 67.24 64.57 61.85 63.44 63.37 68.08 67.64 67.18 67.63 66.96 67.55 68.90
71.68 71.69 72.02 72.14 71.97 71.66 71.26 70.59 70.27 70.13 70.46 70.50 70.11 70.10 69.18 70.31 71.08 70.71 69.60 68.90 68.45 67.88 68.49 68.91 68.91 68.87 68.56 67.77 66.41 65.18 65.31 64.47 59.99 59.95 60.85 60.94 66.81 66.04 66.16 66.07 67.10 67.96 67.31
71.00 71.42 71.24 71.20 71.09 70.05 69.49 70.12 69.75 69.53 69.73 69.93 69.75 69.60 67.84 69.12 69.84 70.29 69.66 69.33 68.27 68.40 69.03 68.62 68.49 68.06 67.29 65.59 63.17 63.72 62.72 61.01 55.72 57.82 59.26 61.52 65.15 64.36 65.86 66.89 66.69 66.59 66.11
70.04 70.46 70.71 70.48 69.93 69.13 68.54 68.51 69.41 69.15 68.77 68.82 67.99 67.49 65.85 65.58 67.48 67.38 67.24 68.05 68.72 68.51 68.18 67.26 66.94 66.52 65.18 64.00 62.87 62.24 58.58 50.33 53.51 56.00 58.01 64.21 63.96 67.09 65.93 66.41 65.37 65.07 65.05
66.02 69.24 70.32 70.12 69.49 68.95 69.53 67.79 66.90 67.20 65.60 64.88 64.84 65.19 64.34 62.97 64.69 66.37 65.29 67.04 68.34 68.28 66.94 65.40 63.46 63.18 62.17 56.29 55.05 55.48 48.97 48.94 52.82 56.40 59.84 64.61 64.53 65.33 65.36 64.00 63.42 63.25 63.50
64.11 66.79 70.12 69.88 69.77 68.98 68.66 67.51 66.38 65.96 64.86 63.59 62.99 63.61 62.79 61.79 62.51 62.43 63.14 64.38 63.89 63.77 61.73 60.16 56.72 53.99 51.73 50.06 48.43 46.93 47.23 48.05 52.99 55.16 60.83 64.89 64.64 63.48 63.27 61.96 61.61 61.75 61.43
63.43 65.10 67.84 69.95 69.55 69.11 68.43 67.18 66.35 65.73 65.70 64.30 63.57 63.34 60.24 59.29 61.04 60.63 61.11 61.90 62.02 61.34 58.66 55.50 51.71 49.69 46.77 45.67 45.20 44.95 44.80 45.40 50.86 52.85 57.87 61.80 61.59 62.08 61.17 60.21 59.53 58.98 58.64
62.76 64.45 65.51 68.55 69.05 68.70 67.65 66.92 67.21 65.59 66.12 65.90 64.82 64.35 59.86 58.87 58.51 59.61 61.08 61.46 58.63 56.08 53.50 49.80 46.46 45.49 44.50 44.20 43.84 43.81 43.10 43.24 49.49 50.87 52.71 58.99 58.77 58.35 58.03 57.22 56.41 56.08 55.87
61.28 63.78 65.96 66.26 67.54 68.33 67.89 67.76 67.45 66.88 66.35 66.37 64.52 64.08 60.08 60.03 59.13 59.44 57.16 55.85 53.87 51.00 47.93 45.83 44.91 44.06 43.08 42.80 43.17 42.55 41.82 42.23 46.03 48.22 49.45 52.44 56.10 54.75 54.38 53.98 53.74 53.54 53.77
55.77 63.10 65.23 66.34 67.22 67.81 67.29 68.06 67.28 67.70 66.30 66.24 66.12 65.07 62.49 60.92 60.00 56.62 54.82 53.15 50.25 47.32 46.71 45.64 44.76 43.22 42.70 43.14 41.34 42.05 41.94 41.70 42.45 46.02 46.39 46.58 48.26 53.46 51.99 51.44 51.45 51.63 51.60
55.61 57.54 65.28 67.33 67.43 67.59 67.68 66.51 67.28 67.82 65.75 65.62 65.95 65.73 63.56 60.92 57.91 54.67 52.77 50.03 47.69 46.43 45.12 43.36 42.45 41.71 40.75 40.28 39.28 39.84 40.77 42.11 41.56 41.78 43.98 44.25 43.73 45.38 47.83 48.92 49.41 49.73 49.54
53.53 55.99 59.73 66.02 66.74 67.60 67.58 67.29 65.74 65.74 64.78 64.89 64.98 65.29 62.23 58.47 56.56 53.69 50.79 48.58 46.75 45.19 43.63 43.36 40.89 40.45 38.80 39.06 40.41 39.34 40.87 41.05 41.42 42.92 40.47 41.14 41.71 41.49 40.89 46.86 48.26 47.90 48.25
54.82 53.68 55.74 62.23 66.04 67.54 67.50 67.53 64.73 65.16 64.99 65.72 65.62 64.12 58.48 56.26 54.53 52.40 49.16 47.16 46.86 44.72 42.29 41.52 40.29 39.57 38.48 37.90 41.70 41.99 41.07 42.14 41.42 40.23 40.43 42.34 40.94 40.64 40.16 39.88 38.56 39.92 46.19
51.06 51.40 52.83 56.41 64.27 65.91 65.89 65.19 62.47 63.61 63.81 64.28 62.88 58.78 55.55 52.21 51.55 51.35 49.27 46.52 46.44 43.84 41.42 41.01 40.12 38.77 37.92 37.28 37.50 38.20 39.94 40.12 40.75 41.08 41.65 41.04 40.84 40.44 38.70 37.73 37.33 37.09 37.86
52.28 52.74 52.03 54.26 58.45 64.44 66.31 66.18 63.88 61.25 59.51 58.70 56.51 55.03 53.22 52.19 51.26 49.65 47.54 46.76 45.49 41.96 40.49 40.17 40.09 38.74 37.71 36.71 35.34 35.78 34.48 37.17 37.57 39.08 38.83 39.42 37.31 37.69 38.27 38.33 37.01 37.02 35.91
49.83 51.83 53.31 52.93 55.37 58.35 62.72 58.95 54.23 53.04 51.82 49.86 49.30 50.65 50.32 50.64 50.01 48.49 48.28 46.12 44.52 43.31 39.89 38.98 38.67 38.97 36.87 36.54 35.29 35.10 32.75 32.38 31.68 35.84 36.28 36.02 36.10 35.72 35.33 36.32 37.40 37.27 36.29
47.23 50.43 53.11 53.70 54.26 56.75 61.05 60.04 59.09 59.57 56.43 51.92 48.57 49.36 48.55 49.92 48.38 46.52 45.31 45.63 44.49 42.43 39.42 38.53 39.31 37.27 37.52 35.63 36.46 37.66 34.00 33.03 30.55 29.94 33.88 34.53 35.00 35.63 34.25 34.41 34.93 35.52 35.78
46.24 47.39 51.16 52.89 53.84 56.89 61.08 60.64 60.93 57.75 50.79 48.59 47.42 47.58 47.54 47.39 48.33 46.82 45.09 44.73 43.04 42.36 40.29 37.90 37.00 36.29 36.03 35.00 34.96 34.05 32.98 32.87 31.69 30.25 28.37 30.80 32.70 34.10 34.45 33.75 33.84 33.69 34.53
47.47 46.61 47.94 52.00 52.98 60.10 59.97 59.37 59.77 52.54 47.11 46.39 46.21 45.62 46.65 46.38 46.39 46.04 45.01 42.02 41.73 40.82 40.11 37.14 36.34 35.82 35.23 34.83 34.23 33.54 32.87 31.49 30.35 29.28 27.39 27.45 28.24 30.89 32.66 33.58 32.92 32.67 33.03

GFSSE_sfc_wetblb_030.txt.gz
Wetbulb
69.93 72.09 74.79 73.98 73.78 73.65 73.55 73.74 73.77 73.74 73.62 73.22 72.51 71.33 70.97 70.31 69.29 68.75 67.82 67.13 68.23 68.96 70.70 70.33 69.47 70.06 71.20 71.11 70.61 69.88 69.21 68.07 66.61 65.81 65.60 66.45 66.71 66.95 67.12 67.46 67.14 65.36 66.80
70.89 72.35 74.32 74.12 73.32 72.97 72.61 72.31 72.63 73.02 73.17 72.83 72.17 71.27 70.76 69.97 68.48 68.01 67.08 66.80 67.41 68.31 69.75 70.68 71.53 71.92 71.59 70.98 69.72 69.00 68.00 66.34 65.87 65.81 65.63 65.22 66.10 66.20 66.96 66.71 66.77 65.21 65.75
71.07 72.07 72.52 73.97 73.74 72.65 71.41 71.09 70.71 71.10 71.93 71.96 71.74 71.05 70.79 69.59 68.57 67.07 66.66 66.59 67.28 67.70 68.91 69.18 69.43 69.14 68.91 68.19 67.35 66.26 65.33 64.97 65.70 65.76 66.19 61.59 61.56 65.60 65.91 66.51 66.21 66.51 66.56
71.26 71.93 71.94 73.88 73.36 71.95 71.31 70.89 70.28 69.97 70.62 71.63 71.66 71.37 70.62 69.26 68.46 67.28 66.86 66.62 66.95 67.30 67.69 67.61 67.69 67.81 67.70 67.47 67.83 67.86 66.66 66.56 66.96 67.76 63.04 62.52 62.67 66.73 65.61 64.75 65.68 66.61 67.31
71.07 71.73 72.14 73.86 73.22 72.00 71.26 70.12 69.55 69.88 70.19 71.44 72.22 71.33 69.55 68.84 68.70 68.30 67.14 67.11 67.01 67.03 66.96 66.93 66.72 66.68 66.89 67.14 67.71 67.74 67.38 67.02 67.54 64.07 62.17 61.02 63.12 67.13 67.51 67.02 66.68 66.37 65.91
70.56 71.35 72.88 73.61 73.23 72.53 71.69 70.59 70.80 70.55 71.20 70.95 71.75 71.26 70.13 69.24 69.09 68.94 67.68 66.94 67.09 67.48 67.60 67.55 67.45 67.34 67.38 67.39 67.10 66.91 66.78 67.39 66.27 64.08 62.33 64.29 65.27 67.99 67.34 67.90 68.83 68.57 68.43
70.27 71.62 72.39 73.66 73.19 72.48 71.19 70.95 71.43 71.08 70.59 69.84 69.98 69.53 69.16 69.11 69.19 69.11 68.29 67.38 67.19 67.60 67.91 68.26 68.27 68.06 68.12 68.30 67.96 67.63 67.71 67.48 62.88 61.90 62.70 65.22 65.25 68.08 67.66 68.37 68.02 68.08 68.60
70.54 71.73 72.06 72.73 73.01 72.66 71.91 70.88 71.26 71.92 71.10 70.58 70.23 70.06 69.35 69.38 69.29 69.22 68.90 68.01 67.42 67.60 68.26 68.74 68.47 68.62 68.78 68.40 67.97 67.46 66.81 65.88 61.38 60.57 61.25 62.38 67.48 66.98 67.10 66.41 67.06 68.82 68.72
71.19 71.25 71.41 71.64 71.66 71.61 71.39 70.51 70.64 71.56 70.64 70.48 70.53 70.73 70.36 70.06 70.20 69.88 69.26 68.49 68.02 67.77 68.45 68.52 68.62 68.83 68.33 67.45 66.21 64.56 63.94 63.56 58.30 59.17 60.57 60.35 66.95 65.61 66.13 66.59 67.64 66.99 66.94
70.60 70.93 70.85 71.02 70.64 69.60 68.96 69.84 69.57 70.50 70.11 69.97 70.32 69.63 68.47 69.14 70.07 70.31 69.47 69.28 68.08 68.34 68.92 68.90 68.74 68.02 67.18 65.32 62.96 63.08 60.22 60.95 56.16 57.79 58.79 60.71 65.37 65.56 67.09 67.01 66.53 66.38 65.63
69.95 70.45 70.91 70.63 69.42 68.41 67.69 68.07 69.04 69.24 69.23 69.06 68.80 67.10 66.63 66.73 67.47 67.79 67.18 68.21 68.66 68.74 68.56 67.83 67.66 66.68 64.78 62.67 62.27 60.55 54.95 53.02 54.21 55.94 57.27 64.60 66.95 66.61 66.68 65.62 65.01 65.01 64.14
68.12 68.96 69.84 69.96 68.88 68.15 68.43 66.84 66.06 66.44 65.93 65.71 65.65 64.89 63.18 64.80 65.63 66.41 65.81 67.02 68.64 68.67 67.80 66.28 65.10 64.26 59.92 54.89 50.05 53.00 47.66 51.68 54.90 57.27 59.59 65.35 65.65 65.96 64.69 63.48 63.46 63.39 62.64
68.18 69.07 69.46 69.47 68.99 68.09 67.63 66.76 65.69 64.75 63.57 63.80 63.69 64.12 62.94 62.47 63.53 63.83 63.43 64.59 64.13 64.77 62.14 59.36 55.35 52.44 49.18 48.00 46.16 44.70 46.12 51.89 53.59 56.34 62.33 65.81 63.96 64.38 62.86 61.60 61.54 61.43 60.86
66.31 68.50 69.47 69.54 68.73 68.12 67.97 66.76 66.01 65.01 63.59 62.23 62.50 62.94 61.45 59.91 61.25 61.09 61.64 61.91 61.79 60.67 57.21 54.87 50.79 46.50 44.85 44.09 43.68 42.69 43.88 49.98 51.72 54.14 59.25 62.78 62.92 61.95 60.63 59.79 58.73 58.14 57.56
63.22 66.66 69.09 69.33 68.72 68.35 67.30 66.52 65.67 65.14 64.61 63.41 62.59 62.39 60.91 59.63 60.84 60.59 60.35 60.71 60.74 60.00 54.07 49.21 45.03 44.48 43.33 42.63 42.64 42.08 42.11 47.89 49.84 52.16 54.02 59.83 59.98 59.02 58.07 57.15 56.54 56.02 55.52
61.34 63.73 68.31 69.03 68.99 68.62 67.47 66.15 65.35 64.97 65.21 64.79 64.00 63.35 60.41 60.63 60.63 60.09 59.83 60.12 55.88 53.70 49.10 45.02 43.92 43.17 41.89 41.69 41.70 41.05 40.53 44.61 48.00 49.25 50.48 53.58 57.10 55.56 54.78 54.01 53.61 53.40 53.70
54.65 63.11 64.13 68.80 69.24 68.22 67.41 66.24 65.87 65.31 65.53 65.22 64.58 64.12 61.19 59.77 58.33 59.05 57.33 54.45 50.51 46.65 45.21 44.48 43.10 41.99 41.58 41.86 40.07 40.60 40.63 41.06 46.26 46.26 47.14 46.16 48.65 54.54 52.60 51.91 51.70 51.55 51.96
53.28 55.77 63.71 66.53 67.92 67.88 67.39 66.99 66.72 66.23 65.53 65.03 65.08 64.70 62.09 59.84 58.75 55.98 54.45 50.41 46.93 45.57 44.33 43.25 42.28 40.57 39.65 39.07 38.11 38.49 39.77 40.27 42.47 43.94 44.29 43.23 43.64 45.12 48.58 49.71 49.09 49.51 50.28
51.70 53.17 59.84 64.44 65.64 67.13 67.40 67.46 66.18 66.04 65.23 64.90 65.21 64.73 62.08 59.54 57.09 55.38 52.16 47.43 45.78 44.34 43.10 42.79 40.21 39.58 37.96 38.07 39.29 38.53 39.57 39.71 39.75 42.55 41.51 40.96 41.62 41.44 40.28 48.26 48.11 47.65 47.67
53.07 51.08 55.16 63.31 65.30 66.56 66.55 66.10 64.63 64.67 64.05 64.77 64.35 65.03 61.42 57.51 57.01 54.96 49.34 47.23 46.02 43.28 41.80 41.09 39.47 38.08 37.40 36.91 41.02 40.76 39.85 40.17 39.10 38.62 38.92 41.07 40.02 39.57 38.87 38.76 38.00 39.99 45.78
49.12 49.02 50.45 57.05 64.11 65.64 65.59 64.25 63.43 63.45 63.51 63.03 63.97 62.17 59.09 57.49 56.19 53.77 48.98 47.57 44.60 43.03 41.21 40.66 39.25 37.93 36.78 36.08 37.09 37.76 38.91 38.44 39.01 39.40 39.48 39.17 39.44 38.83 37.59 36.81 36.18 36.01 37.06
50.42 49.90 49.24 52.13 59.97 64.71 65.86 65.78 63.90 64.45 61.37 62.92 59.43 58.43 57.97 56.27 54.42 52.27 49.23 47.36 44.09 42.15 42.39 39.98 39.42 37.81 36.62 35.20 35.19 35.35 34.20 36.56 36.75 36.97 37.36 37.98 35.84 36.53 36.70 36.86 35.60 35.90 35.07
46.95 48.98 50.88 50.99 53.64 62.89 65.50 59.34 55.26 55.27 54.49 53.57 53.09 52.60 52.90 54.74 53.41 51.53 49.14 47.05 45.17 44.52 42.67 40.80 39.04 38.86 36.29 35.38 34.46 35.23 32.19 32.67 31.38 34.41 35.09 34.50 34.39 34.25 34.34 34.93 35.37 35.50 35.07
45.93 46.90 49.33 50.98 51.88 56.48 61.73 61.85 60.29 59.74 57.19 54.21 56.01 53.56 52.35 53.15 51.53 49.68 48.20 46.27 44.69 44.06 42.42 38.87 39.50 37.97 37.20 35.13 35.27 36.30 33.04 32.64 30.61 30.36 33.05 33.39 33.46 34.31 32.68 32.99 33.47 33.97 33.74
45.11 44.50 45.39 48.21 50.56 52.92 60.07 62.28 61.08 60.74 59.67 50.25 50.06 50.26 49.86 49.97 49.65 47.94 46.67 44.90 44.05 41.29 40.60 40.42 37.93 37.82 36.12 35.31 34.89 33.37 32.26 31.79 30.85 30.00 28.70 30.33 32.07 32.57 32.97 32.72 32.47 31.78 32.50
46.17 46.39 46.14 46.82 48.36 50.95 57.64 60.94 60.92 60.38 50.38 48.83 48.84 47.99 47.45 47.09 46.53 46.88 46.21 44.85 43.73 41.26 40.24 38.07 38.00 37.41 34.90 34.21 33.59 32.97 32.47 31.30 29.99 28.98 27.53 27.40 27.82 30.55 31.74 32.24 31.58 30.65 30.89

GFSSE_sfc_wetblb_033.txt.gz
Wetbulb
68.81 71.23 74.86 74.31 73.51 73.39 74.13 74.25 74.17 74.23 73.58 72.53 71.78 71.53 70.83 69.79 69.19 68.32 67.60 68.25 68.94 69.86 69.77 69.08 69.95 71.07 71.01 70.87 70.34 69.83 68.48 66.71 65.96 66.35 66.64 67.00 66.94 66.94 67.55 67.32 67.17 64.13 66.84
70.45 71.93 74.08 73.79 73.37 73.32 74.23 74.09 74.35 74.14 73.82 72.55 71.63 70.83 70.17 69.29 68.68 67.65 67.12 67.50 68.34 69.41 70.43 71.35 70.69 70.90 71.25 70.80 69.86 68.76 66.78 65.96 66.03 65.83 65.44 66.16 66.52 66.74 66.91 66.51 66.89 63.95 65.91
70.79 71.81 72.12 73.85 73.74 73.49 73.21 73.37 73.32 73.18 73.00 72.32 71.53 70.99 69.79 68.77 67.52 66.83 66.65 67.15 67.75 68.92 69.69 70.23 70.44 70.50 69.81 68.58 67.25 65.58 65.31 65.94 66.48 66.60 66.08 60.72 60.99 66.04 65.44 66.44 66.04 66.68 65.90
71.06 71.40 71.34 73.75 73.23 72.40 71.72 71.50 72.10 72.43 72.44 72.05 71.18 70.56 69.90 68.81 67.20 66.79 66.72 67.07 67.41 68.50 68.49 68.65 68.58 68.31 67.86 67.64 67.68 66.91 67.29 67.54 67.43 66.32 61.65 61.75 62.08 67.28 65.93 65.12 65.45 66.27 67.12
70.46 71.06 71.41 73.53 72.94 71.57 71.20 70.76 70.55 70.98 71.45 71.74 71.81 71.00 69.62 68.52 67.47 67.19 66.87 66.79 66.89 67.05 66.95 66.86 66.90 66.80 66.87 67.47 67.78 67.64 67.44 67.27 66.67 63.81 60.93 60.51 62.22 66.89 67.46 67.24 67.03 66.80 65.98
70.02 70.47 72.41 73.16 72.97 72.32 71.24 69.81 69.65 69.85 70.95 71.42 71.89 70.51 69.16 68.78 68.50 67.38 67.08 67.13 67.14 67.08 67.06 67.01 66.92 67.09 67.10 67.03 67.03 67.18 67.77 67.42 65.06 61.73 61.20 61.83 64.88 67.79 68.13 69.30 69.04 68.83 68.65
69.47 70.48 71.71 73.24 72.53 71.60 70.46 70.87 70.99 70.64 71.57 72.20 71.38 69.99 69.58 69.17 69.09 68.11 67.10 66.92 67.17 67.57 67.66 67.55 67.50 67.67 67.97 68.00 67.87 67.97 67.52 65.46 61.88 61.74 62.17 63.61 64.55 67.85 68.09 67.70 68.09 69.10 69.28
69.91 70.93 71.55 72.33 72.54 71.98 70.83 71.32 71.67 71.82 70.78 71.12 71.20 70.54 69.80 69.33 69.30 69.02 67.93 67.16 67.26 67.71 68.09 68.29 68.26 68.35 68.32 68.09 67.54 66.54 64.99 63.77 60.70 59.83 60.94 61.56 67.18 67.01 66.81 66.49 68.25 68.04 67.94
70.50 70.54 70.91 70.97 71.22 71.46 70.84 70.78 71.64 71.43 70.70 70.44 70.45 70.19 70.04 69.99 70.14 69.55 68.76 67.99 67.43 67.86 68.46 68.42 68.50 68.53 68.00 66.87 64.86 63.06 62.81 62.86 58.05 58.47 60.06 59.43 66.60 66.06 66.40 67.99 67.08 67.12 66.37
69.91 70.27 69.85 69.98 70.15 69.45 69.10 69.80 70.51 70.45 70.23 70.13 69.78 69.88 69.07 68.69 69.29 70.13 69.40 68.91 68.00 68.13 68.44 68.59 68.58 68.00 66.97 63.60 62.46 60.63 62.98 60.38 56.31 57.41 57.99 59.33 65.99 66.98 67.45 66.87 66.57 65.78 65.11
69.69 70.10 70.39 70.26 69.05 68.01 67.39 67.75 69.12 69.84 69.24 69.19 68.92 67.63 66.61 66.36 67.47 67.70 67.23 68.16 68.50 68.62 68.86 68.41 68.03 66.87 63.63 62.16 61.86 57.82 57.31 53.96 54.28 55.43 56.34 64.72 66.69 67.26 66.19 65.18 65.17 64.45 63.26
67.82 69.39 69.87 69.69 68.63 67.57 67.97 66.16 65.55 66.68 66.48 65.99 66.22 64.41 64.59 65.02 65.72 66.79 65.58 67.20 68.59 68.90 68.44 67.38 66.75 63.49 56.80 51.46 48.19 51.21 49.95 53.33 55.30 56.81 58.18 66.58 66.19 65.51 64.36 64.01 63.41 62.61 61.56
68.31 68.78 69.07 68.92 68.77 67.63 66.87 65.73 64.68 64.32 63.99 64.13 64.19 63.49 62.25 64.16 64.03 64.11 63.92 64.59 64.22 65.20 62.55 58.75 53.93 50.84 47.69 46.50 44.57 43.91 50.28 52.38 53.89 56.70 62.99 65.37 64.60 63.82 62.93 61.60 61.52 60.91 60.27
67.56 68.11 68.82 69.01 68.34 67.56 66.98 66.00 65.30 64.32 63.05 62.29 62.92 63.37 61.41 60.48 61.96 61.96 62.13 62.23 61.87 60.87 57.62 53.16 49.44 45.03 43.72 43.48 42.36 42.58 48.80 51.14 52.75 54.82 59.48 63.47 62.83 61.96 60.89 59.49 58.59 57.99 57.44
66.81 67.88 68.47 68.65 68.12 67.85 66.63 66.02 65.34 64.57 63.62 63.19 62.36 62.69 62.14 59.86 60.70 60.92 60.73 60.61 60.22 58.86 55.40 50.56 44.75 43.39 42.02 41.88 41.55 41.61 46.39 49.24 50.76 52.92 54.46 60.32 60.91 59.41 58.45 57.54 56.69 55.87 55.67
64.32 67.49 68.86 68.46 68.49 68.07 67.04 66.02 65.26 64.98 63.96 62.78 62.12 62.09 61.86 60.32 59.88 60.72 59.53 59.55 59.39 58.38 50.69 45.06 43.07 42.39 41.15 41.02 40.44 40.05 43.37 47.51 48.94 50.33 51.19 53.88 58.43 56.73 55.47 54.56 54.24 53.97 54.30
57.94 63.07 67.76 68.66 68.87 67.86 67.31 66.48 65.38 64.92 64.44 63.33 62.70 62.28 61.45 59.88 59.71 60.46 59.27 58.32 56.65 52.27 45.15 42.98 41.97 41.39 41.05 40.93 39.23 39.07 40.38 45.55 46.82 47.61 47.68 46.20 49.53 55.27 53.71 52.82 52.26 52.01 52.75
52.48 55.59 63.03 69.12 68.49 68.06 67.54 66.85 65.80 64.82 64.36 64.06 63.91 63.46 62.06 59.94 59.30 58.48 57.39 55.96 49.57 45.10 44.08 42.75 41.64 40.29 39.15 38.52 37.66 37.85 38.81 42.01 44.67 44.59 44.36 42.77 43.85 44.45 49.21 50.29 50.34 50.13 50.12
50.63 52.32 57.81 64.17 67.68 67.95 67.48 66.93 66.09 65.23 64.29 64.12 64.47 63.98 62.35 59.57 58.23 57.47 56.12 51.26 45.79 44.15 44.97 43.14 40.20 39.72 37.78 37.38 38.44 37.60 38.16 38.21 42.23 44.23 41.68 41.17 41.88 40.47 40.49 48.57 48.60 47.71 47.64
50.25 49.93 52.75 61.49 64.96 67.26 67.52 66.56 65.85 64.73 64.65 63.93 64.32 64.10 62.21 59.70 57.72 56.46 53.28 47.78 46.23 46.13 44.36 42.72 39.48 37.63 37.02 36.80 40.69 39.54 39.03 38.61 37.78 39.28 39.66 40.18 40.11 39.07 37.94 38.13 36.64 38.16 46.69
48.18 47.65 49.22 55.74 62.87 64.92 65.25 64.60 64.09 63.16 63.38 63.26 63.63 63.72 59.49 58.87 57.95 56.55 52.86 48.53 47.21 46.14 44.26 40.64 38.72 37.49 35.91 35.87 37.14 37.65 37.88 37.70 37.36 37.74 37.46 37.49 38.24 37.62 36.52 35.93 35.42 35.24 35.98
49.22 48.75 47.52 49.55 59.01 63.86 65.27 65.46 64.05 64.32 64.35 63.41 62.74 61.40 60.10 57.98 57.39 55.45 51.84 48.48 46.50 44.20 41.65 40.39 39.60 37.61 35.83 34.55 35.19 35.33 34.63 36.23 35.86 35.90 36.48 37.65 35.29 35.72 35.54 35.75 34.72 34.74 34.04
46.57 47.92 49.77 48.92 51.17 61.31 64.90 61.72 56.58 56.78 56.09 55.37 55.68 55.94 56.98 57.64 56.46 55.44 51.96 49.89 46.83 45.66 43.51 43.25 42.25 39.24 35.95 34.06 34.10 35.78 32.01 32.49 31.92 33.53 33.68 33.54 33.73 33.28 33.52 34.15 34.33 34.17 33.33
44.75 46.17 47.24 48.73 49.88 52.90 60.80 62.42 60.62 60.97 59.68 59.95 60.56 57.85 55.08 55.85 55.47 54.01 52.20 49.86 48.47 45.86 44.32 43.39 42.26 39.66 37.13 34.69 34.20 35.23 32.27 32.86 31.16 30.17 32.37 32.81 32.71 33.37 31.93 32.69 32.41 32.85 32.65
44.05 43.76 44.43 45.68 47.43 49.77 56.47 62.14 61.84 61.13 61.02 57.23 53.45 53.69 54.37 53.48 53.14 50.69 50.34 49.90 47.65 45.43 44.81 42.60 40.05 37.82 37.09 35.47 34.99 32.93 31.70 31.12 30.45 30.13 28.93 30.07 31.66 32.01 32.16 31.86 31.29 30.68 31.44
43.97 44.45 44.77 45.73 46.65 47.67 51.49 59.41 61.22 61.13 53.92 51.39 50.33 53.67 52.25 51.37 49.28 48.49 47.89 46.84 46.72 44.69 43.90 42.87 40.59 38.61 35.92 35.45 36.23 32.76 32.52 31.60 30.07 29.25 27.76 27.37 27.41 29.92 30.97 31.16 30.44 29.72 30.11

GFSSE_sfc_wetblb_036.txt.gz
Wetbulb
66.07 70.70 75.27 74.84 74.62 74.54 74.81 74.76 74.61 74.20 73.39 72.69 72.07 71.70 70.69 69.97 69.18 68.48 68.73 69.24 69.49 70.03 69.52 69.90 70.83 71.27 70.99 70.76 70.43 69.16 67.37 66.69 67.10 67.08 67.40 67.42 67.27 67.96 67.86 67.50 66.34 64.34 66.90
69.10 71.49 74.83 74.75 74.41 74.14 74.50 74.67 74.75 74.31 73.56 72.05 71.44 71.19 70.01 69.49 68.55 67.89 67.77 68.62 69.65 70.46 70.48 70.05 70.69 71.08 70.98 70.59 69.42 67.38 66.65 66.91 66.54 66.19 65.84 65.75 67.92 66.68 66.78 66.75 67.01 64.40 67.18
70.22 71.17 72.29 74.45 74.09 74.24 74.90 74.15 73.99 73.65 73.05 72.53 71.41 70.62 69.35 68.71 67.47 67.17 67.36 68.03 68.63 70.19 70.92 71.56 71.25 70.93 69.94 68.32 66.46 65.93 66.94 67.34 67.30 66.68 65.03 60.68 61.46 65.88 65.33 66.67 66.87 67.59 65.65
70.72 70.67 71.00 74.11 74.15 74.14 73.86 73.74 73.58 73.40 72.84 71.98 71.52 69.96 69.38 67.88 67.00 66.93 67.39 67.72 68.52 69.69 69.47 69.23 69.21 68.64 68.30 68.02 67.02 67.68 68.12 67.86 66.98 65.37 61.22 61.25 62.58 67.83 66.58 65.68 65.55 66.45 67.08
70.05 70.46 71.10 73.85 73.78 72.96 72.57 72.67 72.90 72.85 72.72 71.87 71.37 70.42 69.36 67.55 67.26 67.16 67.43 67.47 68.12 68.03 67.72 67.76 67.73 67.53 67.67 68.06 67.90 67.97 68.00 67.62 66.50 63.61 60.25 60.31 62.65 66.74 68.37 68.73 67.68 67.56 66.37
68.80 69.31 72.13 73.36 73.15 72.38 71.72 70.91 71.09 71.65 71.82 71.51 71.48 70.45 69.05 67.90 67.62 67.40 67.11 67.04 67.15 67.15 67.02 66.79 67.01 67.09 67.34 67.52 67.53 68.21 67.95 66.57 64.09 61.33 60.27 60.87 64.49 68.42 69.11 68.62 68.94 69.35 69.47
68.49 69.48 71.31 73.13 72.40 71.69 71.12 70.48 70.35 70.56 71.35 71.60 71.77 70.08 69.28 68.76 67.83 67.34 67.25 67.40 67.44 67.45 67.42 67.54 67.74 68.21 68.41 68.38 68.40 68.10 66.52 65.59 61.76 60.72 62.55 63.07 63.85 67.81 67.66 68.44 69.26 69.29 69.47
69.44 70.27 70.80 72.04 72.28 71.95 70.93 70.83 71.17 71.17 71.58 72.08 71.81 70.26 69.72 69.29 68.80 67.83 67.09 67.24 67.64 67.92 68.04 68.30 68.50 68.64 68.65 68.12 67.12 65.74 64.84 63.44 60.48 60.51 60.71 60.87 67.22 67.16 66.59 68.21 68.15 67.49 67.44
70.01 69.80 69.79 70.15 70.77 71.18 70.71 71.46 71.45 71.36 71.62 72.06 71.45 71.03 70.31 70.05 69.66 68.63 67.82 67.19 67.54 67.95 68.63 68.45 68.66 68.80 67.83 65.44 63.79 62.98 64.02 62.70 57.09 58.22 59.51 58.85 66.57 66.66 68.39 67.79 67.16 66.45 65.92
69.33 69.59 68.75 68.94 69.29 68.76 68.20 70.46 70.82 70.69 70.30 70.58 70.40 69.64 68.83 68.63 68.98 69.78 68.94 68.45 67.66 68.08 68.44 68.40 68.77 68.02 65.32 63.07 61.81 64.05 62.06 60.20 55.46 56.08 56.55 58.21 67.06 67.80 67.65 66.98 66.20 65.17 64.13
68.62 69.55 69.25 68.68 68.46 67.95 67.45 67.51 69.58 69.76 69.28 68.97 68.39 67.81 66.98 65.50 65.79 66.93 67.02 67.87 68.43 68.46 68.74 68.79 68.22 66.13 62.54 62.63 59.54 60.59 57.82 53.37 53.70 54.27 56.16 67.05 67.40 66.66 65.78 65.57 64.81 63.71 62.69
66.51 68.70 69.39 69.44 68.72 67.23 68.39 66.18 66.45 67.13 66.35 66.12 66.21 65.22 64.29 64.43 65.07 66.68 65.50 67.19 68.38 68.79 68.35 67.81 66.88 61.97 56.89 47.39 47.95 53.31 52.22 53.71 54.97 56.30 57.86 67.04 66.08 65.06 64.67 64.03 62.87 62.05 61.49
67.16 67.65 69.14 69.53 69.33 67.20 66.82 65.05 64.17 64.99 64.79 64.63 64.95 63.68 62.76 64.35 64.08 64.33 63.99 64.60 64.10 64.80 62.31 57.78 52.64 49.04 46.63 45.24 43.69 47.47 51.44 52.74 54.42 56.99 62.72 65.76 64.30 63.31 62.55 61.80 61.26 60.68 59.87
67.21 67.83 68.63 69.26 68.70 67.96 66.49 65.26 64.60 64.27 64.05 64.34 64.06 63.31 61.05 62.00 62.55 62.49 62.68 62.46 62.12 60.92 57.75 52.24 48.36 43.39 43.34 42.60 42.31 46.02 50.04 51.88 53.27 55.09 60.30 63.55 62.97 62.24 61.05 59.74 58.85 58.23 57.76
66.68 67.41 68.37 69.01 68.56 68.17 65.96 65.36 64.49 63.93 63.87 65.01 63.76 63.08 61.65 60.52 61.45 61.42 61.41 61.13 60.42 58.85 55.13 49.82 43.98 42.49 41.48 41.48 41.07 44.18 48.62 49.99 51.33 53.15 55.00 60.95 61.81 59.93 59.10 58.23 57.08 56.44 56.30
66.64 67.45 68.32 68.57 68.66 68.21 67.06 65.32 64.79 64.32 63.45 62.85 62.53 62.72 62.14 60.45 60.40 61.11 60.14 59.92 59.35 58.16 53.08 46.79 43.03 41.67 40.70 40.49 39.83 41.65 47.16 48.47 49.43 50.59 51.37 54.30 59.31 57.98 56.49 55.59 55.16 54.90 55.36
62.82 67.34 68.09 68.17 68.52 67.97 67.34 66.02 65.10 64.76 64.16 62.79 62.19 61.71 62.37 60.75 59.72 60.73 60.04 58.94 58.60 56.74 46.84 42.70 41.53 40.76 40.48 40.54 38.56 39.14 44.49 46.30 47.76 48.02 47.21 46.82 49.91 55.97 54.97 53.65 53.72 53.48 53.47
53.13 60.70 66.79 68.99 68.55 67.66 67.18 67.15 65.95 65.17 64.41 63.15 62.11 61.69 61.74 61.06 60.24 59.25 59.34 58.95 56.34 50.08 44.16 42.40 41.27 39.99 39.11 38.82 37.33 37.68 39.03 45.05 45.57 45.73 44.05 42.99 43.66 43.81 49.75 51.48 51.33 50.72 50.73
49.72 51.30 57.98 65.40 68.03 68.05 67.81 67.63 66.50 65.05 64.12 63.54 62.86 62.26 61.46 60.23 59.84 59.39 59.03 57.92 50.35 45.95 43.47 43.82 40.70 39.83 38.10 37.31 37.67 36.99 37.21 39.39 43.35 44.39 41.36 40.74 42.00 40.09 40.28 49.89 49.31 48.48 48.10
48.81 49.00 50.55 58.57 66.35 67.59 67.84 67.44 66.25 64.89 64.13 63.79 63.48 63.28 62.17 60.84 58.93 58.80 57.61 53.94 47.92 44.75 43.27 44.38 42.48 39.99 37.58 37.14 40.02 39.04 37.93 37.44 38.91 40.39 40.20 40.28 40.08 38.41 37.41 37.15 36.03 37.55 46.79
48.10 47.52 48.16 50.78 60.23 66.22 66.96 65.74 64.95 64.05 64.07 63.41 63.51 63.57 62.86 61.49 59.12 58.04 57.11 52.52 48.49 46.72 45.62 44.35 41.32 39.65 36.10 36.55 37.45 37.21 36.66 36.81 35.97 36.62 36.85 36.68 38.01 36.97 35.79 35.20 34.74 34.51 35.49
48.09 47.59 46.88 48.51 53.77 61.62 65.84 65.92 65.23 65.20 64.85 64.45 63.44 63.33 62.64 61.00 59.21 57.63 56.02 52.43 49.26 46.77 42.94 41.62 41.32 37.79 36.08 35.95 35.61 35.50 34.49 35.66 35.09 35.13 35.90 37.48 35.41 35.26 34.87 34.84 33.94 33.86 33.35
44.94 46.70 48.03 47.26 49.24 57.46 62.95 64.26 57.68 58.38 57.92 58.22 59.51 61.74 60.39 59.48 59.00 58.02 55.68 53.24 50.05 47.54 44.86 42.93 43.05 41.65 36.16 34.42 34.43 36.49 31.93 33.17 32.65 32.71 32.83 33.11 33.25 32.94 32.87 33.55 33.47 33.41 32.51
43.89 44.52 46.14 47.77 48.19 50.62 59.53 62.09 62.07 62.08 61.07 60.94 61.91 62.08 59.56 58.17 57.99 57.36 54.09 52.99 49.63 48.52 46.31 45.66 43.71 43.12 39.35 34.82 34.02 34.83 32.23 33.70 32.24 30.00 31.78 32.05 31.82 32.68 31.45 32.18 31.66 31.91 31.95
42.61 42.58 43.47 44.99 46.63 48.72 52.47 62.24 61.91 61.22 61.70 58.01 58.41 59.50 58.86 57.22 57.20 56.29 54.22 52.61 49.02 47.94 48.20 45.74 43.23 41.39 40.66 37.49 35.07 32.62 31.96 31.02 30.15 30.49 28.87 30.16 31.14 31.63 31.53 31.38 30.84 30.23 30.66
44.36 44.79 44.22 42.97 43.99 45.59 48.42 57.97 61.36 60.96 60.03 54.10 53.10 56.16 55.85 55.37 55.03 54.13 53.09 51.07 50.16 47.95 46.70 44.88 43.93 43.11 39.60 38.88 37.49 34.09 33.53 32.91 31.11 29.59 28.29 27.59 28.68 29.81 30.43 30.69 29.85 29.34 29.57

GFSSE_sfc_wetblb_039.txt.gz
Wetbulb
69.01 73.55 75.91 75.84 75.26 75.12 75.30 75.11 75.33 74.85 74.10 73.31 72.53 71.70 71.07 70.43 69.94 69.97 69.96 69.52 69.87 69.79 70.05 70.24 71.17 71.33 70.82 70.41 69.82 68.20 67.64 67.89 67.77 67.87 67.98 68.54 68.16 68.10 68.04 66.81 65.88 66.47 67.22
70.40 73.90 75.26 75.41 75.38 75.17 75.46 75.46 75.05 74.45 73.68 72.72 72.04 71.02 70.49 69.70 68.92 68.50 69.30 69.65 70.17 70.49 69.85 70.38 71.08 71.15 70.91 69.80 68.22 67.28 67.67 67.33 66.86 66.48 66.41 67.29 68.29 67.04 67.05 67.60 66.71 67.02 67.37
71.20 73.33 73.67 75.07 74.79 75.34 75.29 74.89 74.55 73.86 73.30 72.10 71.87 70.92 69.71 68.59 67.74 67.94 68.74 68.99 70.54 71.68 71.19 71.10 71.50 71.02 69.44 67.55 66.82 67.60 67.87 67.84 67.07 66.11 65.42 66.61 66.46 65.72 66.95 67.04 67.75 66.95 65.71
72.11 72.72 72.12 74.19 74.20 75.11 75.10 74.55 74.23 73.50 72.66 72.58 71.61 70.18 69.15 67.75 67.13 67.38 68.01 68.44 70.48 70.79 70.55 70.18 69.61 69.11 68.44 67.34 67.87 68.48 68.30 67.67 66.61 65.28 66.24 67.38 67.93 68.10 66.74 66.03 65.84 66.87 67.12
71.62 71.93 71.86 73.69 73.93 74.73 74.20 73.99 74.01 73.56 72.66 72.10 71.64 70.48 68.92 67.46 67.34 67.71 67.94 68.52 69.06 68.84 68.72 68.69 68.51 68.37 68.34 68.03 68.36 68.46 68.27 67.65 66.49 65.54 65.85 67.16 68.60 68.59 69.65 69.59 68.33 67.99 66.69
71.14 71.72 72.59 73.57 73.98 73.84 73.62 73.19 73.16 73.34 72.74 71.88 71.84 70.27 68.50 67.68 67.59 67.71 67.71 68.09 68.10 67.74 67.44 67.37 67.37 67.81 67.84 68.00 68.39 68.54 67.69 66.50 64.93 66.42 65.37 66.59 68.15 68.64 68.33 69.43 69.74 69.69 69.95
70.65 71.67 71.88 73.53 73.14 72.30 71.86 71.86 72.32 72.28 72.50 71.53 71.38 70.21 68.86 68.04 67.92 67.64 67.45 67.48 67.57 67.52 67.49 67.62 68.17 68.65 68.66 68.57 68.65 67.42 66.82 65.54 66.09 66.25 67.11 67.87 67.88 67.88 67.63 69.38 68.70 68.79 69.52
70.48 71.47 71.30 72.11 72.45 72.18 71.84 71.42 71.55 72.04 72.25 72.33 71.95 70.32 69.54 68.70 67.88 67.57 67.61 67.80 68.02 68.04 68.30 68.57 68.85 69.03 68.67 67.80 66.75 65.95 65.15 64.36 65.68 66.68 66.38 66.67 68.07 66.66 68.37 68.38 67.53 66.96 67.31
70.88 71.14 71.42 71.47 71.34 71.39 70.89 70.93 71.06 71.42 71.66 72.38 71.73 71.04 70.47 70.05 69.11 67.81 67.39 67.72 68.11 68.46 68.64 68.83 69.21 68.49 66.62 64.96 64.04 64.37 64.33 62.43 64.59 64.32 63.65 65.44 67.78 68.14 68.60 67.48 66.55 65.88 65.79
70.52 70.82 70.98 71.23 71.04 70.47 69.67 70.82 70.63 70.75 71.31 71.87 70.80 69.93 68.96 68.71 69.06 69.23 68.50 68.11 68.04 68.52 68.85 68.76 68.83 66.99 64.01 63.26 64.91 64.29 62.55 60.62 62.12 62.02 63.77 65.62 68.00 68.25 67.64 66.65 65.71 64.53 64.09
68.39 70.14 70.75 70.62 70.69 70.05 69.48 69.79 70.21 69.91 69.39 69.40 69.21 67.82 67.67 68.98 68.97 68.54 67.27 67.71 68.46 68.60 68.60 68.97 68.15 64.43 62.60 61.45 62.37 60.62 59.12 60.24 60.05 62.47 66.46 67.90 67.04 66.73 66.17 65.27 64.13 63.48 62.68
66.49 67.87 69.75 70.30 70.21 69.94 68.76 69.07 70.07 69.89 68.96 68.70 68.85 68.98 68.67 68.73 68.81 68.47 66.76 67.19 68.41 68.73 68.67 68.45 65.92 61.82 56.17 55.47 56.22 57.69 59.55 60.07 60.91 64.12 65.91 67.18 65.69 65.78 64.85 63.84 62.72 62.17 61.78
66.85 67.37 68.40 68.64 69.86 69.79 69.22 68.41 67.89 69.01 68.20 68.45 68.32 68.40 68.08 67.69 68.14 68.44 68.68 68.17 68.06 66.22 66.35 64.22 59.63 56.48 54.72 52.96 54.06 57.47 58.30 60.00 62.74 64.83 65.64 65.71 64.38 63.59 62.62 62.37 61.37 60.50 59.87
66.88 67.69 68.29 69.50 70.11 69.60 69.58 68.41 67.17 67.59 67.48 67.20 67.70 67.74 66.88 66.87 67.55 68.02 67.81 67.77 67.32 67.15 63.93 60.12 56.32 52.69 51.46 50.34 52.30 55.65 57.24 59.91 62.46 63.47 64.14 63.72 63.29 62.39 61.33 60.30 59.29 58.72 58.43
66.17 67.31 68.61 69.24 69.14 69.04 68.51 68.33 67.45 66.44 67.68 67.21 67.10 67.03 66.37 66.16 66.96 67.43 67.22 66.93 66.43 65.54 63.12 57.81 53.28 50.84 50.09 49.35 50.33 54.30 56.17 58.60 60.12 61.41 62.64 61.61 62.37 60.54 59.83 58.97 57.66 57.20 57.35
67.49 67.82 68.63 69.02 69.47 69.30 68.33 67.34 67.53 66.88 66.54 67.57 67.21 66.77 66.33 65.47 66.48 66.54 66.21 65.93 65.37 64.65 61.72 56.72 52.21 50.09 49.47 48.96 48.55 52.50 55.16 57.44 58.39 58.74 59.75 59.92 60.39 59.54 57.58 56.79 55.89 56.04 56.06
66.13 68.45 68.79 68.87 69.50 68.86 68.54 67.51 67.60 67.11 66.40 65.81 66.15 66.56 66.22 65.31 65.14 65.98 65.58 65.02 64.82 63.70 59.49 52.85 49.64 48.70 48.29 47.40 47.52 50.31 53.84 55.58 56.29 56.43 55.97 56.56 56.59 56.86 56.42 55.40 54.47 54.19 54.59
57.27 64.74 68.58 69.34 69.25 68.96 68.71 68.24 67.11 67.80 66.89 66.30 65.45 65.44 65.79 65.42 64.74 64.60 64.65 64.47 64.33 61.89 55.80 51.68 49.00 48.15 47.99 47.67 46.56 47.31 51.49 53.43 54.28 54.19 52.80 52.68 52.60 52.49 53.17 53.46 52.50 51.83 51.35
53.77 54.73 62.84 68.40 68.95 68.79 68.69 68.73 67.39 67.30 67.17 66.99 65.67 64.82 64.74 64.87 64.64 63.99 63.62 64.17 63.27 59.90 53.77 50.22 48.12 48.59 47.12 46.19 45.58 46.04 46.82 51.23 52.25 51.25 50.25 49.84 50.14 49.67 50.28 51.19 50.27 49.14 48.76
52.80 52.95 54.01 60.88 67.88 69.38 69.44 68.33 67.41 66.42 66.35 67.15 65.85 64.92 64.19 63.97 63.95 63.71 63.18 63.18 61.31 57.96 53.48 49.77 48.70 46.05 45.76 45.62 43.80 44.91 46.32 46.29 50.01 50.09 48.94 47.47 48.38 46.96 48.28 47.35 45.74 45.74 47.57
51.74 51.59 51.95 52.61 58.84 66.91 67.11 66.40 65.78 64.85 65.15 64.82 65.86 65.50 64.30 63.56 62.48 62.66 62.88 61.79 59.37 57.08 54.29 51.04 47.79 44.62 42.82 43.63 44.74 45.02 45.27 45.07 45.13 47.43 47.89 46.70 46.39 45.24 45.08 44.49 44.45 44.67 44.31
50.02 50.91 51.30 51.35 53.26 59.04 65.90 66.72 66.60 65.92 65.64 65.77 65.58 65.21 65.19 63.97 62.55 62.01 61.72 59.89 57.74 56.50 53.77 49.58 47.46 43.97 42.33 44.42 45.07 44.93 42.99 43.42 43.43 43.47 44.61 44.75 44.94 44.21 43.08 42.51 42.50 42.41 43.14
46.93 48.47 49.90 51.12 51.92 54.14 61.69 66.26 64.14 63.52 62.52 63.88 63.86 63.79 64.56 64.59 63.05 62.41 61.73 60.64 57.28 56.36 52.38 49.76 47.97 46.77 43.32 42.15 43.89 45.85 40.78 42.62 42.05 41.18 41.47 42.96 43.18 42.60 42.52 41.66 41.11 40.98 41.03
46.48 47.00 47.42 48.80 50.59 51.94 57.41 64.07 63.81 62.78 61.99 63.24 63.71 63.91 64.17 63.92 63.13 62.21 61.09 60.59 58.21 55.89 54.29 51.06 48.23 47.72 45.61 41.58 40.68 40.08 40.83 42.86 41.77 38.77 39.78 40.23 40.51 40.64 40.87 40.80 40.51 39.71 39.97
48.41 48.61 47.87 46.86 47.44 49.89 51.75 59.71 63.58 62.87 63.54 64.25 63.98 63.88 63.48 61.50 62.36 61.84 60.84 59.53 58.15 55.79 55.16 52.21 49.34 48.06 46.64 44.47 43.74 38.42 38.46 39.07 39.20 41.05 38.98 38.21 38.31 39.36 39.85 39.77 39.83 39.23 38.43
48.93 49.41 49.66 49.52 49.58 48.91 49.18 52.27 60.26 62.45 62.76 61.45 61.56 61.98 62.25 60.94 60.39 60.50 59.73 58.53 58.36 56.34 54.49 51.39 50.88 48.93 47.20 45.45 43.68 40.88 39.66 37.75 37.50 38.67 38.82 37.66 38.82 37.98 38.71 38.64 38.52 38.13 37.86

GFSSE_sfc_wetblb_042.txt.gz
Wetbulb
71.98 74.33 76.22 75.69 75.25 75.45 75.26 75.70 75.64 75.03 74.33 73.57 72.80 72.25 71.66 71.29 71.05 70.51 69.85 69.25 69.66 69.84 70.59 70.90 71.56 71.07 70.74 69.84 68.81 68.41 68.32 68.24 68.07 68.37 68.34 68.52 68.13 67.83 67.17 66.20 65.43 67.78 68.14
73.28 74.83 75.76 76.18 75.81 75.66 75.83 75.57 75.39 74.84 74.06 73.04 72.12 71.34 70.69 69.83 69.41 69.87 69.19 70.01 70.28 70.04 70.00 70.96 71.34 71.05 70.33 68.98 68.02 68.02 67.68 67.05 66.85 67.11 67.57 68.06 68.26 67.11 68.09 67.98 67.96 67.37 68.20
73.22 74.62 74.61 75.82 75.80 76.01 75.87 75.02 74.62 73.70 73.21 72.67 71.67 70.86 69.94 69.09 68.46 69.08 69.17 70.79 71.59 71.12 70.54 71.22 71.35 70.50 68.97 67.68 67.99 67.86 67.85 67.16 66.42 66.26 65.71 67.13 65.97 66.68 67.08 67.00 67.85 66.22 66.96
73.41 74.22 74.00 74.84 75.65 75.84 75.21 74.46 74.01 73.52 72.68 72.33 71.49 70.19 68.85 67.87 67.87 68.62 68.86 70.72 71.51 71.72 71.15 70.39 69.65 68.54 67.52 67.92 68.36 68.31 68.07 67.28 66.26 65.24 67.85 68.18 67.94 68.22 67.40 66.66 66.26 67.06 67.13
73.20 73.47 73.30 73.97 75.27 75.39 75.07 74.54 73.84 73.52 72.76 72.13 70.99 70.00 68.05 67.61 67.85 68.20 68.58 69.63 69.97 69.78 69.59 69.42 68.89 68.43 67.92 68.42 68.46 68.45 68.07 67.36 65.58 66.84 68.43 69.35 69.40 69.02 69.71 69.34 68.67 67.24 66.42
72.99 73.21 72.30 73.16 74.44 75.04 74.91 74.60 74.32 73.22 72.70 71.63 71.52 69.79 67.97 67.81 68.03 68.06 68.69 68.88 68.46 68.21 68.07 67.98 68.15 68.13 68.29 68.42 68.74 68.06 67.26 66.28 66.25 67.21 68.29 68.11 68.72 67.86 69.65 69.74 70.01 69.81 69.46
72.12 72.70 72.39 73.34 74.32 73.96 73.84 73.52 73.70 73.42 72.86 71.32 70.83 69.57 68.13 68.03 67.92 67.79 67.90 68.08 67.82 67.52 67.53 67.82 68.19 68.45 68.49 68.65 68.21 67.16 66.76 65.17 67.44 67.22 67.77 67.77 68.47 67.10 69.40 68.86 69.22 69.04 69.33
71.78 72.16 71.98 72.29 73.00 72.59 72.34 72.51 72.72 72.82 72.62 71.79 71.43 69.80 68.64 68.30 68.07 67.82 67.70 67.75 67.73 67.89 68.22 68.67 69.01 69.00 68.57 67.76 66.84 66.01 65.44 66.49 66.78 67.60 67.33 67.79 67.36 67.26 68.67 67.74 66.85 67.42 67.91
72.27 71.88 71.97 72.03 71.96 71.63 71.73 71.67 71.84 72.32 72.52 72.55 71.73 70.96 70.17 69.39 68.39 67.83 67.91 68.19 68.23 68.36 68.63 68.96 69.11 67.98 66.43 65.10 64.54 65.13 63.82 63.00 67.52 66.94 65.82 66.73 67.67 68.49 68.23 66.91 65.92 65.82 65.27
71.95 71.61 71.38 71.75 71.69 70.90 70.75 70.47 70.58 71.00 71.19 72.11 70.83 69.93 69.12 68.76 68.70 68.24 68.48 68.48 68.50 69.20 68.98 69.43 68.40 65.31 64.37 65.00 65.11 64.50 62.60 62.88 64.94 64.68 65.13 66.12 67.97 68.33 67.35 66.10 65.08 64.50 64.05
70.42 71.31 71.37 71.03 70.79 70.56 70.20 69.91 70.04 70.19 70.53 70.56 69.38 68.10 68.04 69.09 69.20 68.23 67.09 67.80 68.89 68.87 68.85 69.13 66.88 63.83 62.41 63.73 62.75 61.07 60.64 63.94 62.95 63.81 65.73 67.70 67.05 66.97 66.15 64.78 63.82 63.28 63.07
67.19 69.84 70.82 70.83 70.39 70.57 69.47 70.34 69.94 69.91 71.01 71.77 70.98 70.38 69.65 68.79 69.06 68.58 66.81 67.25 68.49 68.81 69.34 68.53 65.12 61.33 60.57 60.96 60.71 59.01 62.64 62.38 62.44 64.48 65.42 67.20 66.37 65.88 64.59 63.52 62.74 62.15 61.71
67.59 68.70 69.87 70.17 70.80 70.55 69.91 69.71 69.72 70.11 69.96 69.65 70.14 69.87 68.85 68.55 69.33 69.16 68.86 68.33 67.35 66.89 68.49 67.40 64.42 63.40 61.36 60.23 60.02 61.18 61.18 61.21 61.97 63.63 65.68 65.96 64.91 64.27 63.21 62.44 61.49 60.54 59.92
67.58 68.10 68.96 69.59 69.51 70.63 70.82 70.17 69.45 69.37 69.73 69.01 68.46 68.29 68.09 67.99 68.35 68.46 68.62 68.14 67.91 67.52 67.59 66.98 64.99 61.36 59.28 57.87 58.52 58.52 58.63 60.18 61.64 63.07 64.49 64.32 63.79 62.67 61.63 60.63 59.75 59.17 58.90
67.46 68.38 68.84 69.19 69.51 70.55 70.63 70.87 70.51 69.23 69.39 69.38 68.81 68.38 67.97 67.59 67.53 68.36 68.29 67.59 67.94 67.36 66.76 65.39 62.70 59.49 57.80 56.01 56.07 57.01 57.45 59.06 60.86 62.31 63.40 62.33 63.03 61.20 60.45 59.44 58.49 58.12 58.05
69.06 69.03 69.05 68.96 69.79 69.88 69.48 69.76 70.63 70.62 69.70 69.59 69.08 68.68 68.40 67.59 67.37 68.17 68.15 67.19 67.89 67.65 66.50 65.04 62.33 59.14 57.07 55.64 54.58 55.99 56.82 58.42 59.69 60.64 61.65 61.68 61.38 60.70 58.97 57.77 57.07 57.39 56.86
65.31 68.55 70.19 70.41 71.07 69.94 69.61 69.64 69.24 70.64 70.33 69.40 69.41 69.21 68.48 67.97 67.36 67.72 67.94 67.86 67.85 67.72 66.15 64.39 61.02 58.12 55.94 54.44 54.09 54.95 56.18 57.54 58.51 59.09 59.50 59.81 58.50 57.74 57.83 56.69 55.87 55.69 55.64
59.30 61.78 66.21 69.34 70.77 70.87 69.94 69.41 69.53 69.45 69.79 70.12 69.47 69.30 68.73 67.93 67.48 67.15 67.14 67.27 67.71 67.25 65.70 62.21 59.19 56.43 55.65 54.29 53.52 53.24 54.90 56.41 57.17 57.47 57.50 57.45 57.01 55.81 54.80 55.55 54.31 53.68 52.73
58.83 59.07 60.01 65.14 68.59 70.14 70.88 69.68 69.17 70.50 69.76 70.63 70.21 69.07 68.69 68.12 67.55 66.63 66.36 66.77 67.19 66.44 64.43 61.85 58.78 57.37 55.12 53.93 52.87 51.94 52.90 54.43 55.70 55.57 55.32 55.10 55.04 54.30 53.65 52.82 52.63 50.45 50.32
58.51 58.86 59.11 59.90 64.13 67.99 69.91 69.61 69.02 68.30 69.27 68.97 69.92 69.69 68.90 68.14 67.65 66.87 65.88 66.01 66.38 65.66 63.72 61.06 58.43 56.41 55.86 54.57 50.02 49.52 50.59 52.19 54.33 54.53 53.94 52.84 52.81 52.42 52.30 52.28 50.63 49.20 48.47
56.53 57.17 57.75 57.94 58.95 62.49 65.98 67.70 67.38 66.52 66.91 67.21 67.47 69.51 69.37 68.38 67.50 66.72 65.87 65.44 65.48 64.52 63.55 60.86 58.81 54.84 51.76 52.89 49.67 49.72 49.30 49.49 50.28 52.78 53.48 51.82 51.21 50.53 50.86 50.54 48.94 48.23 47.21
53.92 54.82 55.76 56.85 57.50 58.24 61.56 66.13 68.30 67.89 67.57 67.79 66.80 66.48 67.79 68.34 67.44 66.59 66.01 65.51 65.05 63.94 63.26 61.27 58.69 54.24 53.47 50.43 50.74 51.09 47.07 46.92 47.62 49.21 51.25 50.90 50.25 49.95 48.77 48.51 47.83 47.30 47.34
52.39 52.69 53.16 54.27 55.58 56.57 58.09 61.67 65.95 67.80 68.15 66.58 65.95 65.94 65.85 67.61 67.61 66.69 65.93 65.67 64.82 63.74 62.88 62.41 58.61 55.24 51.27 48.99 51.40 53.18 46.58 47.25 46.81 47.44 47.53 48.99 48.63 48.44 48.30 47.65 46.74 46.17 45.97
53.97 55.07 54.05 52.94 53.35 54.67 56.23 57.12 60.64 63.25 63.42 64.76 65.46 66.48 66.84 65.67 66.08 66.53 65.88 65.31 64.10 63.26 62.10 61.85 58.85 56.63 55.42 49.76 48.04 47.42 47.48 49.74 46.79 42.86 44.63 45.92 47.61 46.83 47.32 46.55 45.79 45.05 44.54
54.30 54.64 55.12 54.97 54.45 53.40 54.07 55.46 58.20 61.40 63.28 63.98 65.17 65.43 65.90 66.24 64.86 64.88 64.62 64.99 64.25 62.83 62.25 61.31 58.22 56.65 56.30 53.63 49.46 44.89 44.82 45.12 45.59 47.05 44.40 42.39 44.34 45.36 46.45 46.04 44.93 44.19 43.51
54.38 54.67 55.10 54.70 54.76 55.12 54.17 54.31 55.75 58.28 61.53 62.15 63.75 64.36 65.01 64.98 63.85 63.61 63.24 63.63 63.82 63.36 61.99 61.38 58.98 56.17 54.86 54.68 50.29 46.44 46.08 45.51 44.01 44.38 45.58 45.15 43.57 43.90 44.40 44.34 43.58 43.28 42.33

GFSSE_sfc_wetblb_045.txt.gz
Wetbulb
72.28 73.97 76.35 76.04 75.46 75.71 75.65 75.58 75.56 75.35 74.60 74.12 73.50 72.91 72.15 71.65 71.25 70.49 69.61 69.57 69.52 70.04 70.63 71.90 71.59 70.86 70.53 69.53 69.25 68.82 68.52 68.32 68.57 68.68 68.64 68.70 67.97 67.78 67.39 67.37 69.00 67.71 67.59
73.59 73.94 75.78 75.90 75.70 75.71 75.74 75.94 75.41 74.95 73.85 73.12 72.43 71.54 70.78 70.33 70.17 69.69 69.52 70.47 70.10 69.81 70.55 71.42 71.30 71.03 69.71 68.85 68.61 68.04 67.47 67.47 67.44 67.13 68.33 68.29 68.63 68.20 68.69 68.80 67.64 67.22 67.96
73.59 74.19 73.86 75.72 75.96 76.10 75.83 74.93 74.64 74.00 73.30 72.61 71.86 70.86 70.10 69.28 68.97 69.13 70.58 71.45 71.33 70.13 71.26 71.62 71.25 70.01 68.57 68.51 68.16 67.93 67.36 66.84 66.45 66.04 67.68 66.19 65.86 67.07 66.86 67.40 67.21 67.66 67.90
73.82 73.99 73.92 75.36 76.06 75.99 75.49 74.54 74.05 73.47 72.94 72.08 71.42 70.37 68.88 68.37 68.86 68.98 70.98 71.80 72.02 71.83 71.47 70.49 69.07 68.01 68.16 68.41 68.37 68.31 67.73 66.63 65.56 66.43 67.29 67.44 68.69 69.73 69.05 67.91 66.82 67.31 67.34
73.60 73.90 74.51 75.29 75.89 75.68 75.10 74.37 73.70 73.47 72.84 72.25 70.49 69.42 68.07 67.76 68.36 68.95 70.69 70.77 70.71 70.38 70.17 69.58 68.78 68.18 68.44 68.51 68.58 68.35 67.85 66.20 65.85 67.39 68.06 68.88 68.54 68.76 70.25 70.55 69.30 66.43 67.34
73.02 73.41 72.70 74.27 75.36 75.23 75.01 74.50 73.46 72.84 72.55 71.37 70.47 68.61 68.03 68.14 68.41 68.85 69.61 69.19 69.08 69.01 68.91 68.77 68.40 68.49 68.51 68.70 68.59 68.08 67.24 66.32 67.02 67.40 67.77 68.08 66.84 69.54 69.95 70.23 70.10 70.06 69.66
72.07 73.12 72.28 73.26 75.04 75.08 74.87 74.74 74.27 73.36 72.44 71.01 70.40 68.62 68.28 68.23 68.29 68.65 68.75 68.52 68.17 67.99 67.93 67.95 68.23 68.35 68.67 68.76 67.83 67.36 66.58 66.08 66.96 66.97 67.02 67.44 66.55 68.83 69.44 68.94 69.21 69.14 68.92
71.81 72.47 71.90 72.20 73.82 74.17 73.90 73.70 74.01 73.77 72.27 71.50 70.68 68.78 68.56 68.21 67.88 67.97 68.23 68.02 67.78 67.78 68.07 68.60 68.89 68.79 68.53 67.74 66.86 66.23 65.47 66.18 66.37 66.68 66.55 66.97 67.38 68.73 68.37 67.41 67.06 67.43 67.36
72.04 71.84 71.55 71.78 71.77 71.86 72.17 72.57 72.93 73.21 72.74 72.05 71.32 70.30 69.76 69.09 68.32 67.90 67.92 68.02 68.10 68.27 68.79 69.06 68.87 67.91 66.41 65.39 65.39 65.06 63.89 64.73 66.04 65.83 64.85 65.89 68.55 68.91 67.73 66.54 65.81 65.25 65.17
71.83 71.55 71.34 71.72 71.55 71.45 70.89 70.84 71.07 71.76 72.02 72.18 70.56 69.81 68.81 68.11 68.29 68.36 68.71 68.69 68.36 69.15 69.05 69.34 67.75 65.69 64.71 65.24 65.21 64.23 63.48 64.03 64.64 64.17 63.77 66.55 68.60 68.08 67.01 65.83 65.02 64.28 64.26
71.06 71.16 71.22 70.82 70.88 70.17 69.63 69.52 69.78 70.19 70.35 70.63 69.33 67.94 67.58 67.94 67.45 66.75 66.99 68.09 68.66 69.63 69.12 68.76 66.01 64.39 64.88 64.54 63.69 62.50 62.92 63.25 62.14 62.51 66.16 68.01 67.49 67.26 65.87 64.67 63.62 63.00 62.94
69.37 70.51 70.85 70.65 70.32 69.95 69.46 70.02 68.56 68.32 69.81 70.28 69.58 68.59 69.11 68.05 67.93 67.39 66.06 67.24 68.51 68.86 69.13 68.50 65.48 63.35 62.53 61.91 61.33 60.07 61.42 61.88 61.24 63.03 66.21 67.34 66.56 65.98 64.65 63.72 63.01 62.34 61.55
68.37 70.54 70.71 70.75 70.42 70.02 69.42 69.90 69.28 69.36 69.63 70.75 70.47 69.82 69.26 67.82 68.49 68.14 68.06 66.75 66.82 66.54 68.04 67.56 64.62 62.16 61.99 61.59 61.19 61.47 61.41 60.45 60.70 62.74 65.59 66.75 65.71 65.07 63.67 62.63 61.63 60.79 60.11
68.63 68.69 69.49 70.87 70.62 70.43 70.34 69.37 69.55 69.36 69.35 68.86 69.70 69.88 68.90 67.77 68.09 67.81 67.56 67.09 66.41 66.86 67.15 67.51 66.01 64.38 62.66 60.99 60.64 60.53 59.12 59.48 60.38 62.38 64.29 64.53 64.75 63.45 62.49 61.23 60.34 59.72 59.27
68.45 69.65 69.38 70.22 70.24 70.48 70.54 70.35 69.85 69.39 69.42 69.33 68.47 68.30 68.00 67.43 67.28 67.95 68.09 67.85 67.26 66.83 66.74 66.39 65.62 62.84 60.93 59.67 58.79 58.71 58.22 58.76 60.15 61.53 63.60 62.73 63.57 62.30 61.18 60.22 59.40 59.11 58.52
68.82 69.49 70.38 69.61 69.47 69.91 70.18 70.78 71.00 70.85 70.11 69.92 69.33 68.51 67.61 67.49 67.31 67.68 67.60 67.75 67.10 67.38 66.57 65.96 64.43 61.93 60.19 58.41 57.25 57.94 57.94 58.48 59.56 60.62 62.65 61.37 62.08 62.11 60.54 59.26 58.59 58.58 57.81
68.32 69.45 69.85 70.20 70.59 70.37 69.74 69.89 70.28 71.10 70.59 70.06 69.94 69.47 68.36 67.70 67.24 67.00 67.50 67.45 66.47 67.98 66.83 65.78 64.13 62.20 59.88 57.94 56.61 56.90 57.37 57.75 58.33 59.00 60.37 60.87 59.16 59.40 60.05 58.30 57.66 57.55 57.21
62.35 63.42 66.96 70.00 70.63 70.67 70.58 69.42 69.49 69.51 70.54 70.75 70.28 70.12 69.34 68.42 67.84 67.12 67.14 67.53 67.57 68.03 67.07 65.56 63.61 60.32 58.73 56.92 56.16 55.90 56.46 56.95 57.27 57.84 58.60 58.91 58.59 56.95 57.27 58.17 56.72 56.45 55.20
59.94 60.54 61.24 63.77 67.17 69.93 70.84 71.02 69.62 69.28 69.06 69.97 70.92 70.31 69.91 69.29 68.28 67.39 66.99 67.24 67.31 67.19 66.35 65.49 62.62 59.73 57.92 57.09 56.43 55.74 55.30 55.89 56.03 56.33 56.51 56.83 57.10 56.33 55.04 56.45 55.93 54.63 53.46
59.01 59.41 59.94 60.61 61.08 64.24 68.09 69.76 71.35 68.84 69.18 69.45 70.76 70.83 70.12 69.63 69.16 68.14 67.09 66.60 66.82 66.34 65.66 64.91 62.40 60.10 58.65 57.23 54.89 53.36 53.76 54.50 55.54 55.59 55.07 54.73 54.88 54.56 54.35 52.60 51.04 49.76 51.51
57.88 58.13 58.76 59.08 59.78 60.24 62.99 65.38 68.93 67.97 67.82 68.19 68.94 70.38 70.30 69.88 69.24 68.40 67.62 66.61 66.49 65.70 65.47 64.62 62.50 59.47 57.77 58.15 53.81 52.04 52.52 52.07 52.18 53.89 54.34 53.46 52.59 52.35 52.22 52.04 50.67 49.45 48.41
55.15 56.58 57.19 57.96 58.95 59.55 60.21 62.31 65.30 68.82 67.64 67.49 67.41 67.50 68.94 69.79 69.04 68.54 67.80 66.87 66.10 65.05 65.17 64.31 62.06 59.00 56.87 56.01 51.84 52.37 48.69 48.37 48.87 49.97 52.24 52.06 50.90 51.06 50.32 50.59 49.41 48.59 48.80
54.18 54.60 54.36 55.32 56.44 58.02 59.60 60.05 61.45 65.65 68.25 67.89 67.52 66.75 66.60 67.99 69.04 68.60 67.74 67.02 66.50 65.46 64.27 64.12 62.40 59.45 54.54 53.73 54.02 53.43 50.86 48.71 46.71 48.24 48.79 50.51 50.30 49.46 48.94 48.63 48.11 47.89 47.93
55.21 56.75 56.46 55.94 54.84 55.38 57.22 57.07 57.68 59.41 62.18 65.69 66.31 67.15 67.15 67.24 65.78 67.54 66.90 66.39 66.04 65.63 64.65 63.88 63.04 60.60 57.31 51.81 51.48 52.15 52.59 51.29 47.60 42.63 46.75 47.26 49.15 48.08 48.16 47.85 46.89 46.69 46.29
55.67 56.10 56.67 56.67 56.58 56.49 55.13 55.55 56.26 56.91 59.70 63.15 64.68 64.70 64.91 66.53 67.11 65.61 65.86 65.80 65.19 64.79 64.83 63.49 62.52 60.70 57.58 55.75 51.99 50.52 49.26 47.55 47.86 47.09 41.83 42.13 45.43 47.25 47.72 47.25 46.13 45.23 44.66
55.90 55.76 56.10 55.19 55.45 56.59 56.62 55.95 54.89 55.76 57.02 59.87 62.39 62.90 63.88 65.19 65.93 66.28 64.18 64.20 64.33 64.03 63.52 62.61 62.53 61.14 57.78 57.84 53.43 51.19 49.12 47.27 44.68 44.19 45.19 43.45 42.62 43.98 45.56 46.35 45.42 44.55 43.88

GFSSE_sfc_wetblb_048.txt.gz
Wetbulb
69.96 72.72 75.97 76.31 76.67 76.77 76.27 75.91 75.42 75.58 75.31 74.43 73.91 73.15 72.31 71.89 71.31 70.35 70.15 69.97 70.33 70.79 72.14 72.25 71.50 71.09 70.29 70.21 69.61 69.03 68.68 68.87 68.67 68.77 68.98 68.94 68.92 68.68 69.19 68.98 69.90 66.40 69.28
71.20 72.39 75.62 76.09 76.35 76.34 76.29 75.81 75.53 75.02 74.44 73.60 72.86 72.13 71.20 70.86 70.44 69.79 70.86 70.69 70.24 70.92 71.73 71.88 71.52 70.09 69.78 69.30 68.69 67.98 67.97 67.69 67.43 68.02 68.77 68.53 69.10 68.86 68.71 68.00 69.19 66.64 68.29
71.18 73.18 74.22 75.78 76.02 76.14 76.13 75.55 74.93 74.29 73.83 72.82 72.15 71.28 70.17 69.70 69.59 70.12 71.80 71.56 70.55 71.68 71.97 71.87 70.46 69.47 69.13 68.61 68.30 67.70 67.14 66.77 66.54 67.48 68.53 63.78 65.13 68.23 67.63 67.93 67.73 68.47 68.04
71.94 71.95 72.62 75.86 76.10 76.06 75.60 75.00 74.46 73.62 72.86 72.23 71.49 70.32 69.01 68.82 69.38 71.48 72.31 72.32 72.02 72.01 71.39 69.89 68.90 68.82 68.64 68.54 68.48 68.05 66.86 65.88 66.68 67.85 66.64 67.99 67.79 70.55 70.25 69.09 67.59 68.10 68.64
71.48 71.85 74.02 75.73 76.03 75.80 75.25 74.82 74.20 73.22 72.38 71.31 70.36 69.18 68.30 68.75 69.33 71.51 71.64 71.48 70.96 70.77 70.29 69.29 68.69 68.66 68.59 68.76 68.63 68.17 66.96 66.36 67.61 67.32 65.48 65.79 65.52 69.88 71.06 71.09 69.39 68.68 68.78
71.01 72.27 73.91 75.37 75.69 75.21 74.83 74.42 74.01 73.33 72.26 70.90 69.59 68.56 68.31 68.69 69.50 70.66 70.12 69.99 69.87 70.07 69.54 69.00 68.54 68.69 68.93 68.92 68.58 67.95 67.06 67.22 67.89 65.32 66.25 67.39 66.29 70.21 70.57 70.51 70.47 70.31 70.08
70.74 71.49 72.24 75.13 75.31 75.01 74.68 74.23 73.92 73.57 71.82 70.99 69.26 68.55 68.65 68.76 69.28 69.59 69.13 68.87 68.74 68.70 68.59 68.42 68.46 68.80 69.02 68.42 67.92 67.16 66.52 67.14 64.44 63.81 63.84 63.90 65.23 69.18 68.95 69.42 69.13 68.94 68.72
69.88 70.45 70.57 73.21 74.34 74.48 74.62 74.40 73.96 73.49 72.29 71.29 69.76 68.81 68.64 68.57 68.63 69.02 68.71 68.42 68.29 68.35 68.49 68.86 68.87 68.84 68.47 67.74 66.89 66.24 66.25 66.38 64.71 62.78 62.98 62.71 68.68 68.93 68.07 67.39 66.78 66.77 66.74
70.19 69.46 68.72 71.36 72.34 72.60 73.05 73.08 73.48 73.25 72.18 71.68 70.53 70.06 69.73 68.99 68.35 68.58 68.41 68.20 68.26 68.64 69.27 69.39 68.90 67.93 66.73 66.10 65.87 64.85 65.34 65.19 61.66 61.44 64.13 64.51 69.40 68.64 67.45 66.51 65.81 65.31 65.42
68.41 69.11 67.96 69.50 70.33 69.55 69.77 71.39 71.64 72.26 71.44 71.19 70.27 69.30 68.25 67.89 68.16 68.65 68.59 68.91 69.11 69.70 69.41 69.10 67.56 66.18 65.37 65.57 65.24 64.35 64.34 64.15 59.23 60.27 64.50 66.91 68.73 67.97 66.74 65.62 64.73 64.12 64.05
68.22 68.59 68.55 69.06 68.80 68.66 68.48 69.01 69.98 70.63 70.69 70.41 68.98 67.35 66.37 64.81 65.42 65.97 66.43 67.78 68.88 69.81 70.08 68.76 66.31 65.26 65.72 65.20 64.67 64.46 63.43 59.09 56.82 59.83 65.25 68.42 67.98 67.07 65.69 64.57 63.72 63.15 62.88
66.21 67.12 68.39 67.69 67.54 66.60 68.02 66.99 66.14 68.13 68.30 68.86 68.13 66.74 65.65 64.66 64.42 65.02 65.44 67.02 68.32 68.99 69.54 68.51 66.07 64.77 64.10 59.31 58.22 61.05 56.69 57.10 55.99 61.83 64.17 67.68 66.88 66.00 64.85 63.96 63.19 62.63 61.81
66.16 67.23 67.48 66.89 66.84 66.17 65.96 66.29 64.67 65.51 66.44 67.96 67.68 67.64 66.27 65.63 64.16 64.37 63.97 64.53 64.67 65.49 65.73 66.16 62.96 59.42 56.58 56.84 56.34 55.24 56.43 55.23 54.87 61.04 65.29 67.04 66.30 65.49 64.05 63.11 62.17 61.33 60.87
65.92 66.71 67.78 67.49 66.62 66.24 66.34 65.98 65.83 66.18 66.46 67.77 68.50 67.50 66.66 64.22 64.70 64.46 64.56 63.53 62.56 63.78 63.94 65.01 62.46 60.09 58.48 57.02 55.49 55.82 54.91 54.03 54.36 61.57 63.66 65.33 65.89 64.50 63.43 61.98 61.21 60.61 60.06
66.01 66.79 67.31 67.63 66.99 66.95 66.37 65.80 65.42 65.32 65.89 65.42 67.64 67.94 67.26 63.89 63.41 64.19 64.24 64.23 63.74 63.61 63.53 64.55 62.69 60.57 57.27 56.00 54.94 54.18 53.22 53.44 54.42 60.68 60.06 62.75 64.31 63.72 62.15 61.42 60.71 60.26 59.52
65.57 66.82 67.58 67.59 67.54 67.35 66.88 66.72 67.33 66.21 66.14 66.16 65.18 64.58 64.61 63.67 63.43 63.75 63.59 65.10 63.61 63.31 62.63 62.40 61.45 58.21 56.05 54.52 52.73 53.02 52.72 52.68 54.09 58.45 59.29 59.83 62.64 62.92 61.66 60.86 60.24 60.02 59.10
65.24 66.98 67.78 67.96 68.02 67.92 67.22 67.65 67.54 67.97 68.75 66.31 66.45 65.80 64.89 63.91 63.37 63.20 63.30 63.84 63.67 63.94 63.50 61.84 60.57 58.16 55.33 53.65 51.71 51.73 52.34 52.20 53.27 54.56 58.43 57.01 58.61 60.77 61.67 60.04 59.54 59.61 58.87
58.59 60.79 67.75 69.36 68.58 67.92 67.96 68.64 68.38 67.81 67.52 67.65 67.31 66.98 65.88 65.01 64.07 62.90 62.76 63.70 64.14 63.78 63.49 61.38 59.58 56.75 54.26 51.83 50.50 50.43 51.21 51.90 52.63 53.11 55.00 56.64 55.13 54.84 58.38 60.31 59.10 58.73 58.21
56.40 56.63 57.41 59.23 65.79 68.08 68.24 68.23 67.61 68.20 68.36 67.79 67.86 68.29 67.13 66.41 65.17 63.84 62.59 63.03 64.73 63.90 63.86 61.97 59.37 55.79 52.78 51.20 50.91 49.99 50.03 50.44 51.27 53.21 52.62 53.23 54.14 52.69 51.57 58.31 58.30 58.35 56.98
54.35 55.25 55.90 57.42 58.08 58.55 63.13 67.59 67.55 66.51 67.52 67.88 68.03 68.00 67.25 66.47 65.42 64.37 63.35 62.82 63.01 63.29 62.06 61.38 58.96 56.07 53.61 52.13 52.68 50.66 48.44 49.13 50.19 50.21 50.54 52.11 51.12 50.99 50.29 49.62 48.90 48.62 55.07
52.16 52.85 53.60 54.24 55.17 55.23 55.73 57.83 63.54 65.99 65.81 66.29 67.01 68.23 68.19 68.53 66.80 65.14 64.00 63.15 62.40 61.92 62.55 61.18 59.42 56.02 53.41 52.62 48.96 46.32 46.51 46.87 47.07 49.13 49.76 48.85 49.50 49.69 48.46 47.62 46.16 45.06 47.15
49.12 50.42 51.57 52.53 53.74 54.90 54.97 55.10 57.61 64.52 66.75 66.77 65.76 66.85 67.43 66.13 67.16 66.66 64.86 63.08 63.23 62.12 60.94 61.62 60.34 56.54 53.27 51.95 46.69 45.34 42.54 44.20 44.88 45.91 48.10 48.90 47.32 48.04 47.64 47.57 46.62 44.70 44.16
50.30 51.24 51.92 51.37 50.91 51.67 52.89 54.23 54.18 55.00 62.36 63.72 63.66 64.71 65.80 66.86 66.15 66.93 66.50 65.49 62.67 62.03 61.50 61.15 60.68 57.86 54.15 50.68 49.83 47.75 44.85 43.33 41.27 44.15 44.78 47.10 46.47 45.97 46.17 46.14 45.94 45.02 43.43
50.88 52.58 53.26 53.43 52.81 51.92 51.23 51.15 51.03 51.18 52.31 58.85 63.73 65.43 65.25 65.45 65.29 65.98 65.61 64.71 65.05 64.42 62.92 61.24 60.89 58.76 54.94 50.87 49.04 51.31 48.94 46.06 42.31 38.74 43.19 44.74 46.14 45.44 45.30 44.50 45.07 44.44 43.61
51.75 51.57 52.59 52.77 52.56 52.69 51.63 50.16 49.47 49.98 51.45 53.20 56.36 60.22 61.79 63.89 64.80 64.26 63.99 64.07 64.28 64.35 64.12 62.22 61.15 60.05 57.55 53.82 51.15 48.68 47.87 44.36 42.77 41.92 37.76 41.15 43.66 44.30 44.63 44.89 44.23 42.92 41.79
51.59 51.41 51.33 51.04 51.42 51.88 51.89 51.87 50.52 49.42 49.52 49.79 51.74 55.70 58.45 59.58 61.01 63.60 63.29 63.88 63.73 63.32 63.26 63.05 62.03 60.95 59.15 55.46 51.23 50.69 49.55 48.68 44.16 42.13 43.60 41.30 41.95 42.57 44.00 44.51 43.46 42.30 40.83

GFSSE_sfc_wetblb_051.txt.gz
Wetbulb
69.01 73.34 76.39 77.12 76.55 76.36 76.05 75.87 75.70 75.45 75.17 74.32 73.76 73.09 72.42 71.70 70.74 70.54 70.37 70.71 70.98 72.36 72.65 72.03 71.01 70.86 70.63 69.98 69.38 69.00 68.84 68.71 68.25 68.55 69.26 69.48 69.17 69.44 69.90 68.95 68.14 67.43 71.04
71.22 73.58 76.02 76.70 76.71 76.67 76.28 75.57 75.75 75.30 74.90 74.44 73.26 72.48 71.50 70.94 70.17 71.17 71.11 70.62 71.35 72.30 72.10 71.33 70.40 70.19 69.65 68.98 68.34 68.15 68.31 68.08 67.71 68.28 68.80 68.65 69.16 68.57 68.19 68.14 68.14 66.91 69.70
71.28 73.56 75.03 76.05 76.24 76.36 75.98 75.46 74.98 74.22 74.34 73.64 72.52 71.42 70.24 70.02 70.09 71.59 71.74 71.09 71.94 72.17 72.15 70.55 70.11 69.32 68.87 68.27 67.70 67.31 67.82 67.78 67.32 67.42 68.29 64.23 67.23 68.63 68.15 68.10 68.84 68.61 67.61
72.21 72.96 73.99 75.75 76.23 76.20 75.59 74.96 74.59 74.14 73.74 72.73 71.37 70.25 69.36 69.52 71.85 72.76 71.95 71.58 72.25 71.99 70.54 69.62 69.21 68.63 68.49 68.42 67.86 66.98 66.87 66.87 66.98 68.37 66.53 66.85 68.57 70.75 70.54 68.02 68.83 69.74 69.87
71.06 72.20 74.56 75.70 76.03 75.65 75.31 74.79 74.11 73.27 72.08 71.08 70.19 69.27 69.14 69.81 72.13 72.22 72.05 71.97 71.58 70.63 69.52 69.22 68.60 68.40 68.67 68.57 68.06 67.40 67.13 67.49 68.60 66.65 64.25 64.77 66.76 70.18 71.22 70.25 69.55 70.15 70.56
69.88 72.42 74.66 75.51 75.58 75.15 74.86 74.54 73.95 72.46 71.34 70.25 69.21 68.59 69.00 70.13 71.40 71.28 70.99 70.76 70.41 70.59 69.33 68.89 68.67 68.94 68.92 68.73 68.09 67.58 67.43 67.83 66.62 64.86 65.33 67.73 66.64 70.41 70.59 70.46 70.24 70.10 69.74
70.84 72.21 74.13 75.49 75.37 74.95 74.58 74.19 74.07 73.07 71.40 69.87 68.90 68.75 69.06 69.90 70.36 70.06 69.67 69.48 69.42 69.27 68.79 68.70 68.74 69.06 68.68 68.15 67.53 67.09 67.16 67.16 63.50 62.42 62.52 63.89 65.74 68.83 69.25 68.75 68.52 68.52 68.67
70.40 71.61 73.45 74.07 74.42 74.40 74.23 74.01 73.81 73.11 72.01 70.13 69.35 69.01 69.02 69.47 69.65 69.38 69.06 68.92 68.78 68.66 68.61 68.76 68.97 69.03 68.29 67.59 66.56 66.02 66.37 66.09 62.53 61.47 61.66 64.29 68.96 68.28 67.83 66.92 66.78 66.73 66.30
69.47 69.64 71.10 71.74 72.71 72.99 73.46 73.34 73.15 72.74 72.23 70.79 70.25 69.85 69.33 69.22 69.28 69.12 68.80 68.63 68.57 68.71 69.05 69.23 68.93 68.20 67.30 66.71 65.67 64.85 65.53 65.07 59.36 61.37 64.97 65.75 69.12 68.17 67.15 66.18 65.66 65.17 64.94
67.77 68.00 68.59 69.85 71.63 71.60 71.02 71.76 71.88 71.45 71.27 70.29 70.00 69.31 68.19 67.82 68.37 69.19 68.76 68.99 69.23 69.55 69.45 69.04 67.94 66.61 65.80 65.77 65.10 65.40 64.99 63.70 57.85 63.31 65.42 66.49 68.67 67.89 66.05 65.20 64.48 64.25 64.00
67.10 67.28 68.55 68.17 68.00 68.37 69.30 69.88 70.72 70.48 70.07 69.31 68.44 67.15 66.36 64.93 65.87 66.42 66.41 67.74 69.14 69.99 69.72 68.55 66.85 65.97 66.19 65.59 65.10 64.51 63.76 57.79 55.71 63.66 65.02 68.69 68.04 66.94 65.39 64.40 63.71 63.49 62.93
64.72 66.17 67.85 67.88 67.29 67.42 69.37 67.76 67.54 69.25 68.77 67.92 66.58 65.11 64.10 63.48 63.70 65.12 64.64 66.78 68.39 69.50 69.63 68.36 66.57 65.92 63.82 59.07 58.72 61.79 56.57 55.18 57.98 63.18 64.79 68.20 67.37 66.41 65.01 63.75 63.34 62.63 62.17
64.39 65.70 66.70 67.56 67.04 66.76 66.61 65.82 64.76 65.59 66.56 67.42 66.17 64.99 64.17 64.26 62.63 62.53 63.49 64.68 64.65 65.46 66.50 66.26 63.88 60.20 57.17 56.51 55.76 53.82 54.53 53.81 57.06 62.39 65.05 67.50 66.62 65.89 64.61 63.48 62.45 61.77 61.38
64.31 65.32 66.65 65.96 65.55 64.14 65.94 64.08 63.83 64.16 64.74 65.98 67.02 66.23 64.84 62.93 62.45 62.43 62.89 62.80 62.79 63.86 62.84 63.36 61.44 59.13 56.26 55.24 55.25 53.80 54.28 53.19 55.59 61.33 63.74 65.93 66.46 65.57 64.16 62.96 62.06 61.24 60.71
64.57 65.59 66.30 66.52 64.73 64.70 65.21 64.57 63.78 64.30 65.23 66.01 67.63 66.79 65.93 63.13 62.84 63.36 62.84 62.20 61.72 62.40 62.65 63.49 62.11 60.64 57.76 55.81 54.04 53.63 52.17 52.16 54.85 60.75 61.14 63.75 65.50 65.09 63.46 62.35 61.97 61.23 60.38
65.05 65.65 66.59 66.71 66.71 66.07 65.36 63.95 64.30 64.80 65.69 65.09 67.47 67.16 66.50 64.67 63.41 63.29 63.39 62.90 62.12 62.09 62.67 64.14 63.39 60.76 57.14 54.90 53.68 51.81 51.29 51.19 52.34 59.02 59.25 60.84 63.85 64.24 62.88 61.96 61.70 61.38 60.64
65.20 66.32 66.46 66.86 67.04 66.22 66.08 66.25 66.48 67.02 65.96 64.76 64.46 64.41 65.65 63.17 62.49 62.64 62.20 62.83 62.98 62.26 62.10 60.60 60.96 58.01 54.90 53.86 51.53 50.76 50.94 50.41 52.09 57.74 58.12 58.14 60.33 61.75 62.69 61.78 61.29 60.99 60.31
60.88 64.72 66.97 68.58 67.24 66.37 66.02 66.50 66.68 66.80 66.75 67.39 66.81 64.99 63.82 63.41 62.56 61.83 61.88 62.20 63.78 62.91 62.29 60.32 58.93 56.72 54.05 52.04 49.62 49.21 49.74 50.28 50.59 55.81 56.90 56.59 56.23 57.29 61.00 61.98 61.09 60.80 60.12
54.62 55.54 60.83 66.69 66.79 66.75 65.29 66.95 66.75 66.82 66.25 66.58 66.71 66.60 66.25 64.57 63.39 62.10 61.41 61.74 63.50 62.99 62.11 61.60 59.11 56.30 52.92 50.56 49.62 48.92 48.71 49.45 50.22 52.10 55.26 55.02 54.05 53.74 53.44 59.77 60.27 60.31 60.12
51.26 52.16 53.35 55.84 62.91 67.08 67.28 67.11 65.85 64.70 65.07 65.82 66.52 66.05 66.84 65.27 64.55 63.09 61.96 61.53 63.37 62.79 62.36 60.75 58.96 55.59 53.28 51.62 51.56 50.24 48.16 48.65 49.28 49.36 50.38 55.30 54.08 52.52 51.22 52.70 53.58 53.60 58.83
49.63 49.31 50.28 52.19 52.67 53.66 54.24 61.87 64.38 65.13 64.69 63.54 64.92 66.81 65.83 65.54 65.63 64.72 62.16 61.61 61.27 62.76 62.86 61.96 59.36 56.31 52.63 51.61 48.41 45.97 45.44 45.69 46.90 48.23 48.84 49.16 51.90 51.62 49.58 49.99 48.29 46.69 51.34
49.31 49.96 50.21 49.70 49.60 50.46 52.33 52.56 55.13 63.45 64.83 66.04 66.32 66.18 66.67 65.97 65.09 65.05 64.97 63.57 61.48 60.57 59.90 60.68 59.71 55.65 54.92 52.66 48.71 43.84 42.10 43.76 44.77 45.44 47.20 48.53 47.88 48.67 49.17 48.70 46.71 44.81 45.15
49.67 49.96 51.11 50.89 50.72 50.15 49.74 50.26 50.76 51.72 57.05 62.40 62.48 63.04 64.37 65.22 65.25 64.54 64.68 63.63 63.27 61.88 60.51 59.40 59.37 57.34 54.78 52.83 49.65 47.54 42.51 42.28 41.35 43.28 44.49 47.51 46.49 46.52 47.26 48.42 47.22 45.75 44.38
49.75 51.06 51.75 51.85 51.38 51.92 50.00 48.69 47.91 48.40 48.62 53.69 61.06 63.37 63.85 64.24 64.57 64.84 64.49 62.94 62.53 62.68 62.10 61.69 60.01 58.69 56.21 52.60 51.19 50.33 49.24 45.83 42.01 40.68 42.03 44.21 46.08 46.36 46.47 46.06 46.83 45.75 44.71
50.91 50.61 50.71 50.98 50.66 50.89 51.00 49.73 47.35 46.89 48.07 49.41 50.49 52.12 58.56 63.27 64.29 64.32 64.24 63.19 61.93 60.98 63.09 62.02 61.23 59.03 57.26 56.04 53.09 49.96 48.34 47.05 43.15 41.60 39.21 42.28 44.23 45.53 47.34 46.93 45.11 44.32 42.53
50.23 50.28 50.10 49.81 50.22 50.21 49.43 49.16 48.99 48.11 47.30 47.19 47.64 48.09 50.25 55.05 59.30 62.58 62.94 62.71 61.98 61.72 61.22 61.22 60.34 60.37 59.57 58.05 55.20 51.52 48.78 48.07 47.70 42.49 43.34 42.86 43.56 44.52 45.13 45.17 44.29 43.82 42.32

GFSSE_sfc_wetblb_054.txt.gz
Wetbulb
71.12 73.89 76.70 76.42 75.79 75.71 75.56 75.45 75.48 75.20 74.95 74.19 73.58 72.98 71.97 70.93 70.56 70.02 70.41 70.79 72.21 72.43 71.94 71.34 71.17 70.94 70.34 69.67 69.35 69.13 68.97 68.23 68.57 68.99 69.14 69.62 69.35 69.78 68.72 68.34 68.91 69.19 70.70
71.63 74.29 76.32 76.38 76.29 76.19 76.13 75.90 75.51 75.20 74.76 74.19 73.46 72.42 71.19 70.31 70.78 70.82 70.55 71.90 72.50 71.61 70.92 70.46 70.07 69.82 69.26 68.68 68.54 68.94 68.50 68.07 67.77 67.87 68.19 68.52 69.33 68.07 67.83 67.76 68.36 68.40 69.80
72.03 74.21 75.46 76.24 76.32 76.24 75.85 75.43 75.34 75.00 74.35 73.64 72.15 71.43 70.43 69.66 71.38 71.52 71.25 71.99 72.33 71.65 70.88 70.30 69.36 68.88 68.27 67.70 68.20 68.74 68.42 67.49 67.41 67.37 67.46 65.98 65.82 68.25 68.44 68.69 68.38 67.53 67.60
72.26 74.04 74.39 76.11 76.20 75.92 75.39 74.91 74.43 73.53 73.32 72.54 71.21 70.24 69.48 71.16 72.54 71.40 71.61 72.30 72.35 71.10 70.21 69.31 68.58 68.34 68.13 67.69 67.69 67.94 67.67 67.11 66.79 67.73 64.96 67.08 68.57 70.32 68.42 69.43 69.78 69.87 69.49
71.66 73.15 73.87 75.80 75.98 75.69 75.09 74.55 73.95 73.41 71.82 71.09 70.27 69.63 69.80 72.25 72.71 72.10 71.80 72.30 70.98 69.87 69.51 68.43 68.13 68.15 68.17 67.94 67.91 67.89 68.06 67.85 68.18 66.28 64.75 65.86 66.89 69.97 69.75 69.83 70.01 70.76 71.04
70.17 72.39 74.28 75.40 75.45 75.06 74.77 74.10 73.59 72.07 70.88 70.10 69.36 69.28 70.32 72.13 72.33 72.00 71.78 71.34 70.21 70.23 69.11 68.45 68.61 68.77 68.67 68.06 67.75 67.80 67.88 67.58 66.77 64.34 65.78 68.00 66.59 70.31 70.56 70.28 70.02 69.57 70.05
70.88 73.08 74.16 75.26 75.18 74.83 74.53 73.95 73.10 71.59 70.54 69.30 68.62 69.17 70.52 71.42 71.06 70.87 70.60 70.15 69.79 69.35 68.77 68.59 68.86 68.77 68.29 67.75 67.21 67.47 67.22 66.67 62.48 62.48 64.06 64.50 65.07 69.42 68.89 68.59 68.47 68.37 68.18
70.76 73.04 73.98 74.07 74.44 74.34 74.18 73.99 73.13 72.29 70.49 69.29 68.87 69.09 69.74 70.32 70.33 70.08 69.77 69.58 69.36 68.86 68.62 68.73 68.90 68.66 68.08 67.22 66.51 66.52 66.36 65.16 62.72 60.88 63.00 64.62 68.49 67.77 67.33 66.88 66.73 66.35 65.92
71.22 72.20 72.87 73.03 73.18 73.01 73.13 73.31 72.96 72.43 71.16 70.40 70.15 69.99 69.89 69.87 69.45 69.40 69.20 69.10 68.90 68.67 68.72 68.83 68.81 68.36 67.75 66.87 65.80 65.43 65.45 64.33 59.91 61.36 65.19 64.99 68.88 67.87 66.68 66.08 65.25 64.83 64.50
69.52 70.75 70.51 70.92 71.86 71.67 71.33 71.88 71.64 71.63 70.41 70.07 69.68 69.24 68.19 67.94 68.62 69.10 68.98 69.18 69.09 69.19 69.22 69.10 68.52 67.51 66.70 66.25 65.61 65.27 64.19 62.50 60.17 63.56 64.89 65.14 68.43 67.37 65.68 64.94 64.25 64.16 63.81
66.74 68.06 68.57 68.64 70.14 70.74 69.92 70.44 70.52 70.45 69.51 69.06 68.47 67.13 66.23 64.82 66.21 66.62 66.45 67.71 69.20 69.81 69.36 68.66 67.47 66.53 66.86 66.02 65.60 64.62 62.71 56.34 59.51 63.44 64.51 68.76 68.28 66.94 65.45 64.35 63.79 63.16 62.90
63.98 65.88 67.87 67.26 67.31 68.34 70.25 68.77 68.59 68.73 67.69 66.39 65.74 64.82 64.04 63.30 63.88 65.60 64.70 66.68 68.77 69.47 69.45 68.66 67.20 66.64 64.72 59.12 58.60 61.91 56.23 54.08 60.69 62.90 64.51 68.47 67.50 66.60 65.13 63.69 63.35 62.57 62.25
63.69 65.21 66.86 66.83 66.74 66.96 67.45 66.72 66.31 67.03 66.71 65.88 64.64 64.00 62.92 63.07 62.22 62.74 62.44 64.22 64.44 65.41 66.48 66.70 64.12 60.97 58.36 56.12 55.14 54.20 53.75 53.09 59.94 62.58 65.32 67.96 67.30 66.36 64.84 63.71 62.65 62.11 61.45
64.39 65.01 65.52 66.40 65.75 65.70 65.26 65.80 65.27 65.69 65.67 66.06 65.38 64.32 62.88 61.88 61.17 61.39 61.62 62.41 62.73 63.74 63.88 63.59 61.58 59.80 56.34 54.80 54.08 53.86 52.94 51.58 58.59 61.24 62.98 66.29 66.88 65.98 64.88 63.50 62.64 61.89 61.35
63.68 65.00 65.45 65.15 64.48 64.62 64.21 63.44 62.74 63.37 64.99 65.99 66.58 65.82 64.60 63.01 61.92 61.82 61.75 61.62 61.94 62.47 62.31 62.06 61.46 60.65 58.23 55.32 54.57 53.54 52.87 50.84 54.58 60.39 61.16 63.79 66.05 66.13 64.50 63.33 62.71 61.95 61.47
64.07 64.63 65.85 65.60 64.24 63.14 63.98 62.79 62.75 63.09 63.85 64.56 66.76 66.68 66.05 64.57 62.56 62.38 62.15 61.66 61.13 61.50 62.67 62.30 62.52 61.56 59.95 56.80 54.25 52.13 51.74 50.19 52.47 59.02 60.07 61.58 64.78 65.43 64.73 63.31 62.73 62.13 61.54
64.36 64.94 65.20 65.97 66.26 64.57 63.84 63.22 62.73 62.67 63.84 64.06 65.72 66.93 66.42 65.51 62.93 62.80 62.69 62.29 62.03 61.35 61.48 61.23 62.12 61.59 59.45 56.74 53.61 53.45 51.92 50.15 50.02 57.79 58.97 59.06 61.52 62.91 64.07 63.34 62.74 62.29 61.56
63.85 64.70 65.49 67.34 66.30 65.81 65.30 65.70 65.95 66.10 65.74 64.44 64.05 65.33 66.32 65.98 63.54 62.12 62.57 62.68 63.13 61.92 61.23 60.04 59.92 59.48 57.34 55.02 52.28 50.82 50.03 49.53 49.43 56.18 57.60 57.91 57.92 58.65 61.87 63.36 62.67 62.13 61.60
58.26 61.03 64.48 65.95 66.11 65.73 65.48 65.49 65.69 66.06 65.75 66.30 66.25 65.17 63.49 63.67 63.40 62.36 62.10 62.14 62.60 62.47 61.78 60.98 58.82 57.46 54.74 52.25 51.10 49.80 48.54 48.50 49.08 52.55 56.02 56.08 55.89 56.14 56.27 60.67 61.77 61.62 61.88
49.16 50.82 52.34 61.53 65.60 65.52 65.47 65.22 65.14 64.52 64.53 65.39 65.85 66.12 66.48 65.21 63.17 61.75 61.40 61.17 61.93 61.77 61.58 60.23 60.40 56.65 54.84 54.92 52.86 50.33 47.79 47.88 48.17 48.28 53.52 56.38 54.64 54.27 54.03 54.10 56.57 56.73 60.66
47.72 47.49 48.14 49.87 50.04 56.54 60.60 62.84 63.14 63.83 64.08 63.27 64.33 65.59 65.18 66.02 65.64 62.74 61.80 60.70 60.68 61.76 62.10 61.17 59.81 57.98 55.72 52.21 50.61 47.22 45.68 46.24 46.22 47.50 47.92 53.24 54.33 53.82 52.20 52.26 53.18 51.63 55.75
48.90 48.93 49.07 48.94 48.85 49.61 51.16 51.55 55.74 62.27 63.70 64.45 63.75 64.39 64.95 64.74 64.39 63.99 62.70 62.12 60.83 61.67 61.92 60.40 58.93 56.23 55.46 52.80 50.94 45.74 46.75 45.44 45.14 46.64 46.13 48.19 51.06 53.21 52.03 51.84 50.31 48.46 49.52
48.96 49.44 50.58 50.61 50.32 49.78 49.25 49.53 49.96 51.12 53.63 61.02 61.56 62.26 63.58 64.54 64.34 63.28 63.45 62.57 61.72 60.21 59.73 59.02 59.35 57.81 58.10 52.72 51.84 51.70 42.21 43.03 42.16 43.13 43.91 46.19 47.35 47.84 51.10 51.54 49.65 48.46 46.58
49.05 49.71 50.50 50.50 49.85 50.74 49.51 48.28 47.11 47.10 47.40 50.61 56.12 59.69 60.92 62.90 63.30 63.93 63.78 62.57 62.72 61.69 60.97 60.74 59.96 59.12 57.07 54.41 52.29 52.42 49.60 46.51 42.99 43.56 42.07 42.39 46.52 46.04 46.23 46.87 48.33 48.10 46.69
49.90 48.85 48.53 48.81 49.39 49.07 48.89 48.73 47.35 46.51 46.39 47.40 48.08 48.28 49.25 54.10 59.35 62.41 62.72 62.42 60.75 61.03 61.39 60.57 59.54 57.68 57.90 58.63 52.85 50.66 49.32 47.90 44.94 43.77 43.18 42.23 45.76 44.60 45.80 46.55 47.11 46.86 46.64
49.22 48.40 48.19 48.71 48.89 49.09 48.65 47.98 47.41 46.81 46.99 46.92 46.90 47.34 48.13 49.53 52.88 56.26 59.29 60.95 61.22 60.51 59.92 59.84 59.62 57.67 58.24 57.74 57.66 56.32 52.97 49.57 50.00 43.74 43.53 43.65 42.06 44.96 45.65 47.10 46.26 46.19 44.29

GFSSE_sfc_wetblb_057.txt.gz
Wetbulb
70.17 73.14 76.27 75.78 75.49 75.36 75.25 75.13 75.02 74.86 74.46 73.81 73.27 72.47 71.31 70.74 70.02 70.00 70.32 71.82 72.18 72.05 71.68 71.30 70.94 70.56 70.05 69.61 69.86 69.11 68.61 68.61 69.05 69.21 69.13 69.59 69.38 68.26 68.88 69.52 70.33 68.88 70.41
71.84 73.98 75.77 75.89 75.86 75.65 75.81 75.61 75.48 75.09 74.48 73.69 73.06 71.97 70.77 70.49 70.75 70.21 71.84 72.51 71.45 70.91 70.45 69.97 69.86 69.64 69.12 69.17 69.40 68.92 68.72 68.48 68.10 67.70 67.99 68.42 68.93 67.62 68.06 68.23 69.27 68.43 69.66
72.33 74.29 74.74 75.72 76.03 76.08 75.83 75.02 74.93 74.67 74.18 73.20 72.28 71.46 70.10 71.12 71.19 70.61 72.15 72.31 71.43 71.02 70.28 69.29 69.04 68.68 68.21 69.02 69.12 68.54 68.16 67.82 67.46 67.89 68.08 65.87 64.75 68.22 68.42 68.25 67.39 67.47 67.94
72.80 74.07 74.31 75.86 76.07 75.83 75.33 75.02 74.85 74.18 72.62 71.74 71.21 70.34 69.30 71.67 71.38 71.43 72.10 72.37 71.09 70.64 69.55 68.46 68.44 68.08 67.80 68.36 68.52 68.18 67.75 67.01 66.37 67.40 64.83 67.14 68.31 68.57 69.37 69.90 70.12 69.49 68.50
72.74 73.69 74.54 75.76 75.80 75.45 74.96 74.69 73.93 72.90 71.71 71.01 70.24 69.51 71.13 72.97 71.26 71.74 72.58 72.03 70.69 69.86 68.58 67.91 67.75 67.81 67.78 67.97 68.20 68.20 68.05 67.96 68.47 66.47 65.16 65.96 66.83 68.14 69.92 70.35 70.21 71.01 70.37
70.98 71.72 74.77 75.36 75.55 75.06 74.50 74.16 73.32 71.99 71.12 70.21 69.66 69.67 71.79 72.48 72.17 71.70 72.24 70.73 70.29 69.64 68.21 68.05 68.22 68.32 68.17 68.19 68.13 68.18 67.67 68.06 66.47 64.45 65.33 67.61 66.54 70.51 70.36 70.12 69.73 69.63 70.10
70.89 71.90 73.82 75.18 75.15 74.76 74.07 73.62 72.87 71.25 70.30 69.28 68.95 69.70 71.72 71.58 71.82 71.49 71.32 70.19 69.54 69.16 68.28 68.35 68.64 68.41 67.99 67.83 67.89 67.72 67.38 67.22 62.84 63.35 63.96 63.89 65.66 69.23 69.06 68.36 68.57 68.34 68.16
71.30 72.41 73.02 73.87 74.41 74.31 73.78 73.17 72.50 71.01 69.95 68.84 68.83 69.56 71.37 71.16 70.77 70.34 70.29 69.90 69.36 68.87 68.18 68.21 68.44 67.94 67.39 66.90 66.90 66.74 66.19 65.69 62.26 62.00 62.83 63.52 68.12 67.51 67.11 66.78 66.43 66.05 65.79
71.87 72.19 72.56 72.62 72.95 72.97 73.21 72.67 72.35 71.59 70.65 70.02 70.04 70.22 70.18 70.28 69.69 69.43 69.61 69.35 68.85 68.33 68.22 68.25 68.33 67.79 67.14 66.52 65.77 65.71 65.47 65.12 59.42 61.75 64.63 64.28 68.73 66.74 66.21 65.57 64.72 64.41 64.25
70.45 71.63 71.61 71.54 72.07 71.50 71.13 71.92 71.52 71.04 70.35 69.97 69.75 69.41 68.84 68.26 68.57 69.16 69.04 69.24 68.93 68.43 68.37 68.33 67.98 67.45 66.79 66.16 65.52 65.24 63.69 63.53 59.23 62.03 63.99 64.23 68.20 66.55 65.39 64.39 63.93 63.76 63.31
68.41 69.59 69.32 69.42 69.59 70.30 69.76 70.38 70.77 70.22 69.41 69.02 68.37 67.25 66.26 64.56 65.97 66.42 66.50 67.52 68.83 69.45 69.05 68.61 67.81 66.66 66.69 65.53 65.52 64.74 60.79 56.57 59.52 62.44 63.50 67.43 67.96 66.64 65.32 64.10 63.50 62.87 62.45
64.82 66.84 67.95 67.88 68.05 68.64 70.26 68.91 68.11 68.62 66.96 66.03 65.53 64.47 63.40 62.89 63.78 65.60 64.58 66.51 68.60 69.28 69.16 68.74 67.62 66.98 64.81 58.26 57.40 59.51 55.59 53.44 57.08 61.99 63.41 68.63 67.65 66.65 65.08 63.67 63.10 62.43 62.08
64.25 65.75 67.40 66.50 66.70 67.63 68.29 67.50 66.98 66.69 65.63 64.77 64.05 63.47 62.59 62.66 62.11 62.91 62.03 63.27 63.66 65.36 65.46 66.97 64.22 61.54 58.91 55.89 55.02 53.93 53.45 52.70 57.86 61.79 64.45 68.13 67.87 66.88 65.25 63.82 62.78 62.10 61.52
63.21 64.41 66.10 66.29 65.66 65.99 66.11 66.64 66.06 66.23 65.56 64.39 63.89 63.35 61.76 60.79 60.42 60.59 60.42 61.41 62.04 62.90 63.25 63.63 61.59 60.25 57.69 55.23 54.33 53.79 52.31 51.90 54.94 60.94 62.40 66.43 67.86 66.79 65.60 64.43 63.06 62.16 61.43
63.21 64.09 64.86 65.51 65.10 65.27 64.54 64.65 64.29 65.34 65.76 65.74 64.47 63.78 62.82 61.27 60.30 60.43 60.59 60.87 61.54 62.06 62.22 62.21 61.37 60.33 58.83 56.53 53.87 53.66 53.34 51.44 51.15 59.79 60.50 63.49 66.29 67.01 65.68 64.53 63.46 62.49 61.83
63.50 64.34 65.33 64.69 65.28 64.17 63.89 62.84 63.17 63.46 64.73 64.99 65.73 65.31 64.05 63.05 61.77 61.23 60.96 60.88 60.80 61.21 62.13 61.50 61.54 60.64 59.82 58.71 56.75 54.10 52.43 52.40 49.97 56.85 59.58 60.70 64.71 66.28 66.10 64.69 63.87 63.05 62.36
63.07 64.27 64.88 64.99 64.95 63.66 64.15 63.19 61.50 62.08 62.99 63.50 64.90 65.77 65.54 64.69 62.91 62.32 61.79 61.11 61.23 60.71 60.79 60.93 60.85 60.87 60.06 59.27 56.72 54.75 52.03 50.75 49.43 53.36 58.41 59.20 61.21 63.52 65.32 64.84 64.17 63.35 62.52
63.15 64.18 64.61 66.84 65.33 63.50 63.92 64.01 63.05 62.67 62.06 63.12 63.51 64.89 65.94 65.70 64.33 62.54 62.16 61.88 61.97 60.74 60.06 59.61 59.83 59.82 59.43 58.54 57.07 55.09 51.94 50.27 49.26 49.87 56.80 58.19 58.55 60.09 62.71 64.84 64.75 63.66 62.96
61.27 62.89 64.05 64.83 64.98 64.78 64.13 64.20 64.08 64.48 64.44 63.72 63.17 63.56 64.80 65.77 65.10 63.64 62.53 62.40 61.87 61.78 60.89 60.29 58.83 58.71 57.10 57.12 56.22 55.51 51.58 49.34 49.07 50.22 54.29 56.54 56.96 58.05 57.30 60.77 62.88 62.92 63.22
49.08 53.32 58.45 62.86 64.87 64.75 64.83 64.86 65.01 64.03 64.27 64.92 65.25 64.96 63.95 63.73 63.31 62.70 62.26 61.31 61.20 61.61 61.05 59.48 59.95 56.97 56.86 56.69 55.82 53.69 49.57 48.38 47.68 47.92 50.47 56.18 56.74 56.72 55.85 55.61 57.15 58.61 61.46
46.45 46.75 47.45 50.93 50.07 62.49 62.98 62.84 62.49 62.56 62.87 62.85 63.93 65.31 65.02 65.09 64.82 61.84 61.49 60.56 60.22 60.60 61.03 60.51 59.61 58.56 56.47 51.84 50.86 49.78 47.57 47.12 46.72 47.39 47.60 51.60 55.04 56.13 54.98 55.07 54.74 54.43 56.36
47.48 47.49 47.87 48.08 48.16 48.59 51.30 52.82 59.34 61.62 62.61 63.01 63.09 63.56 64.45 64.60 64.48 64.19 62.58 61.60 60.58 60.23 60.08 60.67 60.83 57.04 55.88 53.21 52.06 46.55 48.96 48.66 45.58 47.02 46.58 48.17 50.10 53.70 53.78 53.87 53.52 53.14 52.94
48.36 48.78 49.49 49.19 49.22 48.54 48.03 48.12 48.54 49.45 51.39 57.59 59.65 61.14 62.44 63.53 64.06 63.79 63.61 62.37 61.19 59.95 59.88 59.56 58.46 57.72 58.48 52.13 52.36 55.06 47.30 46.32 43.74 44.91 43.69 45.02 47.19 48.65 51.91 52.22 52.46 52.35 51.72
47.96 49.04 49.12 48.65 48.89 49.30 48.39 47.32 46.34 46.35 46.91 48.38 52.05 53.17 51.93 54.59 59.51 62.00 62.50 61.91 61.31 60.25 59.32 59.34 59.18 58.92 56.78 55.87 50.01 52.12 49.40 46.81 46.41 45.78 44.64 42.18 42.96 45.39 46.23 49.08 51.06 51.03 50.75
48.43 47.70 47.21 48.25 48.58 48.25 47.80 47.78 46.86 46.28 46.57 47.36 47.90 47.81 48.39 50.10 51.62 55.55 58.75 60.63 60.30 60.27 60.59 59.81 58.49 56.93 57.54 57.47 54.30 49.72 51.25 50.70 47.60 46.27 49.68 49.27 46.04 45.08 46.02 46.17 48.24 49.82 49.37
47.03 46.76 47.24 48.05 48.14 48.40 48.39 48.04 47.36 46.78 46.81 47.22 47.24 47.69 48.75 49.50 52.10 52.75 54.00 55.18 59.18 60.28 58.99 58.81 58.36 57.27 56.99 56.51 58.26 55.93 53.43 51.09 49.46 47.11 45.50 48.47 46.16 47.72 47.65 47.59 45.95 47.05 47.84

GFSSE_sfc_wetblb_060.txt.gz
Wetbulb
67.79 72.23 76.03 75.68 75.51 75.34 75.31 75.03 74.57 74.60 74.22 73.35 72.83 71.92 71.22 70.41 70.14 70.10 71.78 72.10 72.24 71.89 71.23 70.89 70.45 70.52 70.35 70.26 69.65 69.26 69.32 69.03 69.12 69.10 69.06 69.34 68.33 69.52 70.39 70.68 70.30 69.12 70.14
70.43 73.50 75.58 75.67 75.54 75.43 75.39 75.13 75.03 74.84 74.41 73.23 72.47 71.46 70.68 70.51 70.04 71.39 72.43 71.93 71.02 70.57 70.09 70.07 70.32 69.69 70.00 69.89 69.72 69.53 69.59 69.19 68.19 67.98 67.82 68.09 69.03 68.33 69.08 69.02 69.50 68.47 69.40
71.71 73.88 74.22 75.49 75.74 75.88 75.82 75.05 74.61 74.32 73.60 72.86 71.93 70.92 70.62 71.16 70.67 72.50 72.58 71.52 71.20 70.50 69.36 69.14 69.17 68.89 69.64 69.33 68.94 68.79 68.64 68.34 68.57 68.23 68.41 65.77 64.70 68.60 69.05 67.81 67.28 67.99 68.28
72.78 73.40 73.33 75.71 75.98 75.89 75.35 74.56 74.34 73.52 72.31 71.91 71.34 69.99 70.61 71.12 71.24 72.55 72.44 71.50 71.02 69.95 68.52 68.81 68.31 68.10 69.13 69.00 68.71 68.33 68.00 67.21 67.06 67.49 66.31 67.03 67.27 69.43 70.57 71.02 70.41 69.41 68.14
72.39 73.37 73.90 75.63 75.81 75.53 75.06 74.91 74.02 72.33 71.52 70.91 70.18 69.35 71.85 71.43 71.57 72.28 72.54 71.39 70.43 69.11 68.07 68.10 67.97 67.87 68.35 68.46 68.44 68.55 68.36 68.67 68.16 66.52 65.18 65.96 66.12 68.95 70.57 70.78 70.86 70.71 70.00
71.67 72.49 74.50 75.24 75.43 75.20 74.74 74.01 73.09 71.82 71.14 70.18 69.42 70.22 72.51 71.40 71.53 72.92 71.88 70.63 69.86 68.56 67.76 67.81 67.92 67.99 68.33 68.35 68.40 68.30 68.34 68.21 66.30 64.39 65.07 66.91 67.81 70.70 70.47 70.23 69.67 69.64 69.96
70.66 72.44 74.14 75.27 75.09 74.60 74.30 73.51 72.94 71.55 70.58 69.90 69.21 70.46 72.85 72.46 71.82 72.64 71.19 69.92 69.44 68.51 67.95 68.33 68.51 68.24 68.15 67.97 68.05 67.86 68.37 66.87 63.43 63.28 63.13 63.59 65.43 69.05 69.03 68.64 68.29 68.05 67.65
70.26 71.71 73.08 74.01 74.32 73.98 73.65 73.15 72.35 70.80 69.86 69.33 69.44 70.50 71.74 71.14 71.33 70.62 70.23 69.51 69.12 68.51 67.96 68.24 68.29 68.02 67.74 67.41 67.27 66.81 66.69 65.43 62.96 61.94 62.35 63.19 67.90 67.44 67.47 66.83 66.28 65.96 65.76
70.98 70.63 72.16 72.36 72.77 72.65 72.59 72.28 71.87 71.25 69.99 69.64 70.29 71.09 71.52 71.07 70.50 70.33 69.98 69.46 68.73 68.24 67.84 67.80 68.02 67.79 67.44 67.07 66.22 65.55 65.50 64.24 59.69 61.90 64.08 63.87 68.63 66.66 66.12 65.25 64.72 64.49 64.41
70.41 70.47 70.17 70.66 71.44 71.07 70.71 71.22 70.93 70.71 70.02 69.96 69.62 69.33 68.46 68.57 69.16 69.79 69.28 69.31 68.74 68.11 68.01 68.01 67.74 67.44 66.89 66.48 65.80 64.67 63.48 63.12 58.94 61.39 63.23 63.67 67.60 65.79 65.32 64.26 63.94 63.68 63.19
69.73 69.84 70.42 69.66 69.73 69.76 69.80 69.95 70.29 69.90 69.15 68.84 68.14 67.22 66.53 64.67 64.73 64.96 66.49 67.63 68.87 69.12 68.57 68.52 67.83 66.58 66.05 64.14 64.43 64.02 59.95 56.52 58.83 61.33 62.79 65.82 67.74 66.29 65.00 63.72 63.10 62.38 62.10
66.74 67.85 68.73 68.29 68.12 68.47 70.05 68.89 68.11 67.98 66.55 65.69 65.14 64.23 63.30 62.71 63.53 65.42 64.43 66.29 68.41 69.08 69.14 68.58 67.79 67.03 63.71 57.71 56.77 59.39 55.66 53.39 55.81 60.82 62.48 66.55 68.11 66.71 65.08 63.45 62.68 61.92 61.51
65.10 66.54 67.59 67.19 67.24 67.52 67.98 67.35 66.67 66.36 65.10 64.48 63.77 63.02 62.07 62.07 61.84 62.84 61.93 62.68 63.03 64.86 64.58 66.21 63.89 61.46 58.61 56.15 54.60 53.76 54.15 52.40 53.32 60.02 63.41 66.73 68.18 67.31 65.92 63.95 63.12 62.07 61.37
63.55 65.06 66.45 66.68 66.15 66.20 66.64 66.93 66.11 65.75 64.52 63.57 63.38 62.82 61.31 60.43 60.02 60.09 60.05 60.37 61.06 61.93 62.16 62.71 61.96 60.53 58.52 55.79 54.16 53.25 52.77 51.77 51.43 58.52 61.24 65.36 68.01 67.53 66.34 64.74 63.70 62.53 61.66
62.78 63.88 65.15 65.67 65.08 65.34 64.97 65.31 65.13 65.13 65.02 64.16 63.31 62.81 61.91 60.39 59.58 59.45 59.33 59.35 60.28 61.06 61.54 61.60 61.62 60.47 59.02 57.77 55.04 52.88 52.47 52.03 50.75 55.49 59.79 62.41 66.05 67.70 66.59 65.79 64.65 63.49 62.52
62.88 63.54 64.54 65.17 65.11 64.70 64.15 63.91 64.19 64.46 64.99 64.60 64.06 63.59 62.54 61.61 60.68 60.14 59.71 59.81 59.72 60.81 61.22 61.23 61.09 60.67 59.80 58.81 58.38 56.59 53.69 51.87 50.87 50.75 57.76 59.77 64.07 66.31 67.26 66.13 65.17 64.41 63.46
62.66 64.04 64.31 64.62 65.26 63.95 63.92 63.67 62.69 63.37 64.17 64.75 65.29 64.84 64.09 62.98 61.93 61.57 60.75 60.14 60.47 60.42 60.52 60.31 60.19 59.96 59.42 59.31 58.28 58.28 55.54 52.76 50.62 49.67 53.86 58.05 60.02 63.34 65.84 66.34 65.70 64.93 63.92
62.38 63.28 64.19 66.43 64.66 63.78 63.79 63.69 62.74 61.66 61.68 62.63 63.13 64.12 65.03 64.68 63.54 61.96 61.25 60.96 61.14 60.28 59.84 59.04 59.07 58.51 58.63 58.43 57.95 58.33 56.85 53.39 51.38 49.69 51.49 56.50 58.23 60.39 63.25 65.85 66.19 65.31 64.53
61.80 62.30 63.16 64.13 64.64 63.32 63.21 63.70 62.91 62.36 61.32 61.59 62.02 62.55 64.01 65.06 64.71 63.69 62.54 62.43 61.22 60.52 59.74 59.46 58.64 58.42 57.10 57.53 58.20 58.06 56.32 54.29 52.17 51.24 49.24 53.31 56.68 58.76 59.08 61.77 63.76 64.04 64.51
49.89 53.72 59.91 63.28 63.91 63.90 63.47 63.12 63.01 63.43 62.92 63.44 63.12 62.62 62.66 63.92 64.70 63.74 63.42 62.07 60.97 60.70 60.33 59.08 59.28 57.20 58.44 58.03 57.43 56.57 53.90 52.65 50.33 49.01 49.50 51.93 55.26 56.69 57.16 57.22 58.10 60.33 62.15
46.35 47.49 48.15 54.95 56.42 62.90 62.43 61.92 61.99 62.10 61.97 62.47 63.96 64.74 64.74 63.77 62.52 61.83 62.36 60.68 60.19 60.68 61.21 60.45 59.01 58.73 56.80 53.34 52.25 52.27 50.30 49.69 48.80 49.57 48.93 48.49 52.35 55.32 55.50 55.96 56.67 56.13 57.00
46.71 46.77 46.98 47.43 47.55 50.59 55.66 58.14 61.47 61.52 62.08 62.44 62.46 62.94 63.75 63.93 64.06 63.80 62.02 60.65 59.50 59.48 59.25 59.39 58.74 56.55 56.33 52.93 54.32 48.60 52.06 52.16 47.81 47.25 46.32 47.27 47.28 52.28 53.96 54.43 54.27 53.70 53.93
46.77 47.47 48.58 48.45 48.48 47.61 47.48 47.79 48.23 49.03 50.49 54.96 58.13 59.71 60.72 61.61 62.70 62.91 63.25 63.10 61.64 60.23 59.99 59.05 58.39 57.83 57.74 52.60 52.42 55.60 50.32 48.79 47.50 48.44 44.84 44.53 45.27 46.57 50.38 52.01 52.20 52.57 52.56
46.79 48.09 48.02 48.45 48.55 48.63 47.88 46.78 45.65 45.44 45.70 46.76 49.15 49.83 49.29 50.45 52.16 56.56 60.00 61.90 62.37 61.45 60.35 59.11 58.55 57.97 56.24 57.01 51.16 52.51 51.15 50.19 49.78 49.25 48.61 46.30 44.67 44.00 46.59 50.33 50.61 51.04 51.33
46.97 46.18 46.63 47.85 48.09 47.64 47.64 47.51 46.73 46.04 45.85 46.38 46.64 47.09 48.13 49.23 52.16 53.53 53.94 55.07 58.87 60.58 61.35 60.48 58.13 56.60 56.64 56.07 52.78 51.15 52.26 49.98 48.98 48.49 50.31 51.27 48.69 47.51 46.81 47.01 48.72 49.61 49.91
45.64 45.84 46.51 47.51 47.32 47.73 47.86 47.72 47.14 46.48 46.53 46.78 47.15 47.66 49.42 50.42 51.51 51.10 51.96 51.93 53.18 57.81 59.19 60.34 59.69 58.25 56.17 55.98 55.86 55.15 53.89 52.11 50.31 48.28 47.02 47.61 48.56 49.18 47.19 47.55 45.50 46.36 48.30

GFSSE_sfc_wetblb_063.txt.gz
Wetbulb
69.87 74.17 76.12 76.34 75.82 75.68 75.28 74.50 74.51 73.95 73.20 72.92 72.54 71.89 71.12 70.70 70.41 72.11 72.67 72.63 72.36 71.65 71.16 70.93 71.13 71.43 70.85 70.44 70.31 69.81 69.26 69.14 69.02 69.21 68.61 69.48 70.03 71.05 71.23 70.78 70.46 70.41 70.55
71.43 74.77 75.75 76.04 75.96 75.86 75.70 75.37 75.08 74.57 74.10 72.93 72.14 71.35 70.61 70.24 71.60 72.85 72.68 71.53 70.90 70.35 70.59 70.35 70.59 70.93 70.73 70.62 70.48 70.41 70.21 69.40 68.88 68.38 67.92 68.55 69.50 69.37 69.39 69.46 69.70 69.53 69.18
72.57 74.25 74.45 75.67 75.67 75.80 75.80 74.84 74.68 74.13 73.59 72.37 71.52 71.08 71.28 71.18 72.77 73.08 71.73 71.53 70.77 69.58 69.63 69.89 69.98 70.38 70.03 69.73 69.46 69.34 69.17 69.11 68.81 69.40 68.89 68.57 69.57 70.50 70.60 67.88 68.35 68.58 68.40
73.36 73.96 73.88 75.24 75.62 75.93 75.68 74.85 74.52 73.38 72.70 72.03 70.94 71.01 71.17 71.79 73.10 72.61 71.89 71.57 70.25 68.89 69.35 68.95 69.10 69.82 69.63 69.32 69.10 69.04 68.67 68.21 69.21 68.82 70.02 68.84 69.33 70.95 71.47 71.59 69.97 69.08 69.88
73.41 73.78 74.06 75.62 75.87 75.77 75.15 74.73 73.69 72.34 71.68 71.15 69.78 71.10 71.34 71.82 72.76 72.87 71.96 71.06 69.48 68.56 68.80 68.48 68.59 69.09 69.09 69.10 69.09 68.98 69.38 69.01 68.13 69.49 70.07 69.35 69.21 70.54 71.12 71.19 70.92 70.80 70.61
73.09 73.83 74.81 75.41 75.50 75.24 74.98 74.06 73.01 71.84 71.08 70.17 69.95 70.96 72.47 71.72 72.65 72.93 71.46 70.35 68.98 68.41 68.24 68.18 68.50 68.82 68.88 68.92 68.78 68.80 68.98 68.05 68.01 69.24 69.49 70.07 70.83 70.66 70.46 69.93 69.44 69.23 69.73
72.58 73.77 74.42 75.12 75.30 74.87 74.17 73.50 72.89 71.63 70.72 70.08 69.97 72.24 72.57 71.58 72.96 72.36 70.77 69.97 69.05 68.42 68.62 68.56 68.57 68.72 68.48 68.53 68.26 68.87 67.95 66.86 67.95 67.97 68.38 68.68 68.95 68.89 68.62 68.27 67.82 67.59 67.51
72.41 73.66 73.94 73.93 74.28 74.16 73.54 73.30 72.63 71.15 70.30 69.95 70.84 72.44 72.82 72.58 72.20 70.94 70.06 69.61 69.21 68.43 68.56 68.70 68.47 68.26 67.87 67.77 67.49 66.72 66.84 66.03 66.09 66.56 67.09 67.86 68.54 67.75 67.58 66.60 65.92 65.77 65.81
72.53 72.81 73.10 73.59 73.09 72.70 72.66 72.33 71.86 71.17 70.38 70.45 71.18 71.87 71.43 70.98 71.32 71.00 70.19 69.53 69.07 68.37 68.13 68.53 68.46 68.11 67.73 67.05 66.22 65.36 66.17 63.93 65.77 66.96 67.05 68.28 68.35 66.73 66.46 65.43 65.07 64.82 64.57
72.04 71.94 71.95 72.74 72.64 72.19 71.72 70.93 70.71 70.24 69.83 70.09 69.80 69.32 68.91 68.85 69.47 70.37 69.54 69.62 68.70 68.18 68.21 68.35 68.29 67.81 67.11 66.58 65.54 64.18 65.11 62.89 65.35 66.73 68.13 68.21 67.32 66.06 65.62 64.64 64.09 63.66 63.25
70.88 71.31 71.93 72.00 72.20 71.82 71.30 70.31 70.04 69.51 68.92 68.70 68.32 67.26 67.19 68.71 68.86 68.65 67.25 67.92 69.02 68.56 68.22 68.22 67.80 66.75 65.55 64.71 64.74 63.84 61.47 64.44 65.37 66.40 67.79 66.39 68.12 66.43 65.15 63.95 63.19 62.72 62.54
68.40 69.51 70.06 71.02 71.62 71.61 71.06 71.03 70.52 69.59 69.04 68.44 68.22 68.34 68.22 67.86 67.92 67.64 66.14 66.41 68.27 69.00 69.06 68.50 67.63 66.26 64.33 63.64 63.29 61.86 63.72 61.57 62.78 65.50 66.73 66.25 68.23 67.16 65.52 63.87 63.00 62.12 61.68
67.28 68.09 68.57 69.70 71.17 71.01 70.85 71.11 70.51 69.82 68.73 68.15 67.57 67.22 66.85 66.44 67.03 67.73 67.54 67.31 68.22 66.19 68.60 68.73 68.44 67.11 64.47 63.18 61.55 61.65 61.69 61.04 60.87 62.40 65.27 66.11 68.28 68.25 66.70 64.67 63.62 62.29 61.67
66.58 67.98 68.95 70.43 70.06 70.38 70.28 70.26 70.18 69.49 68.35 67.67 67.16 66.48 65.65 64.93 64.95 65.94 66.21 66.08 66.23 66.91 67.32 67.46 67.63 66.96 65.28 63.11 61.17 60.07 59.59 59.57 59.82 60.53 63.92 64.50 67.29 68.50 67.57 66.07 64.81 63.41 62.35
65.91 67.45 68.72 69.59 69.54 69.40 69.42 69.40 69.53 69.32 68.56 67.91 67.08 66.49 65.77 64.71 64.05 64.23 64.32 64.40 64.61 65.52 65.92 66.13 66.23 66.38 65.86 64.66 63.58 60.98 59.59 59.69 59.49 59.24 61.67 62.32 64.85 67.64 67.85 67.00 66.03 64.84 63.49
65.81 66.62 67.91 68.46 68.86 68.54 68.53 68.64 68.92 69.11 69.03 68.29 67.49 66.89 66.02 65.48 64.85 64.11 63.79 63.34 63.26 64.40 65.22 65.41 65.56 65.61 65.52 65.09 64.39 63.99 63.03 61.70 59.75 59.02 59.13 61.88 63.18 65.71 67.41 67.37 66.54 65.77 64.90
64.75 66.48 66.51 67.58 68.17 67.63 67.80 67.94 68.21 68.72 68.44 68.43 68.32 67.79 66.79 66.10 65.53 65.07 64.58 64.02 64.04 64.44 64.30 64.63 64.79 64.78 64.50 64.44 64.06 64.24 63.70 63.72 61.78 59.52 58.37 59.21 61.24 62.21 65.21 67.25 66.92 66.33 65.57
65.00 64.92 66.48 67.09 67.13 67.42 67.34 67.54 67.33 67.09 67.40 67.72 68.04 68.25 67.93 67.35 66.60 65.81 65.17 65.04 65.59 65.00 64.64 64.18 64.19 63.65 63.48 63.57 63.66 63.78 63.45 63.52 63.29 61.60 59.43 58.40 59.49 60.82 62.84 65.33 66.83 66.70 66.07
64.90 64.65 65.31 66.66 67.13 66.91 67.13 67.08 66.92 66.44 65.79 66.07 65.96 66.18 66.67 67.15 67.24 66.56 65.91 65.99 65.92 65.36 64.74 64.39 63.92 63.26 63.33 63.26 62.76 63.28 63.20 63.13 63.41 62.07 61.47 59.81 59.05 59.48 61.35 62.60 64.06 64.94 65.70
57.05 63.68 64.73 65.64 66.30 66.91 66.17 65.85 66.10 65.97 65.92 65.92 65.54 65.46 65.52 65.90 66.48 66.58 66.40 66.09 65.86 65.31 65.04 64.39 63.83 63.73 63.31 63.37 61.38 61.19 62.45 62.32 61.66 61.01 61.02 59.85 58.88 58.88 59.71 61.18 62.66 63.66 62.84
50.00 52.43 57.58 61.36 65.03 65.66 65.39 64.90 64.82 64.90 65.93 65.80 66.13 66.25 65.95 65.67 65.50 65.96 66.18 65.99 65.38 64.75 65.07 64.83 64.20 63.06 62.66 61.46 59.99 60.93 60.00 59.56 59.51 59.60 59.49 58.19 57.25 57.78 58.46 59.17 60.49 61.72 62.66
50.17 50.27 50.99 55.01 56.50 62.74 64.62 64.84 65.45 65.61 65.77 66.18 66.23 66.32 66.63 66.88 66.97 66.58 65.47 64.83 64.50 63.66 63.59 63.59 63.22 62.25 61.65 59.66 60.68 57.23 57.15 59.09 57.42 56.70 55.37 54.64 55.22 55.15 56.08 57.23 58.28 59.31 60.62
49.92 50.51 50.81 51.10 51.18 51.50 54.04 53.89 54.11 54.70 55.73 58.92 61.89 63.50 62.32 60.87 63.89 65.04 65.53 65.63 65.27 63.40 63.14 63.59 62.78 61.66 60.98 59.52 59.32 60.42 53.83 53.80 53.65 55.88 54.50 53.89 53.60 53.67 54.45 55.42 56.32 56.89 57.80
50.01 51.22 50.87 51.13 51.18 51.20 51.10 50.90 51.03 52.16 52.52 51.62 52.86 53.50 53.13 53.16 54.09 56.70 58.70 61.12 63.11 63.52 62.47 62.39 61.80 61.73 61.05 60.02 56.56 56.88 57.26 54.14 53.39 52.95 55.73 54.36 49.37 48.81 50.32 52.07 53.30 55.18 56.06
50.33 50.00 50.10 50.48 50.35 50.40 50.84 51.24 50.91 50.16 50.17 50.68 51.03 51.52 52.50 53.51 55.27 55.07 55.72 56.21 58.03 59.17 60.07 60.68 61.71 60.13 59.99 60.37 58.58 55.89 55.92 53.08 52.25 51.30 50.90 54.37 53.72 52.72 50.93 53.31 52.39 53.14 53.74
49.01 48.87 50.02 50.30 49.82 50.75 51.20 50.99 50.78 50.73 50.31 50.78 51.02 51.72 53.08 53.75 54.07 52.69 53.08 53.97 54.95 56.74 57.78 59.04 60.46 60.86 59.74 59.08 59.51 58.56 57.62 54.74 53.42 50.67 49.71 50.40 51.97 55.03 51.87 53.82 53.18 52.67 52.29

GFSSE_sfc_wetblb_066.txt.gz
Wetbulb
72.46 75.07 75.85 76.07 75.46 75.26 75.12 75.13 74.72 73.73 73.43 72.96 72.40 71.77 71.10 70.74 72.49 72.91 72.78 72.12 71.88 71.20 71.80 72.02 71.78 71.38 71.10 70.86 70.08 69.54 69.26 68.98 68.67 68.72 68.92 69.89 70.82 71.35 71.29 70.75 70.73 69.98 69.92
73.39 74.80 76.11 76.36 76.03 75.85 75.56 74.86 74.64 74.09 73.59 72.61 71.89 70.73 70.44 72.25 73.10 73.07 71.65 70.96 70.58 71.07 70.48 71.35 71.38 71.38 71.15 70.95 70.79 70.65 70.51 70.05 69.21 68.29 68.07 68.96 70.00 69.07 68.96 69.67 69.87 68.95 68.57
72.96 74.42 75.28 76.09 76.26 76.00 75.56 74.56 74.10 73.61 72.76 72.01 71.36 71.20 71.04 72.67 73.14 71.90 71.65 70.62 69.72 69.94 70.65 70.86 70.89 70.56 70.14 69.78 69.60 69.47 69.25 69.81 69.90 69.47 68.57 70.79 71.46 71.76 70.91 68.47 68.54 69.39 70.51
73.90 74.08 74.38 75.75 75.96 75.90 75.18 74.48 73.98 73.18 72.39 71.45 71.43 71.27 72.33 73.33 72.47 72.04 71.27 70.00 69.32 69.71 69.65 70.11 70.23 69.91 69.67 69.63 69.52 69.22 69.12 69.70 69.44 69.67 70.04 70.32 70.45 71.45 71.83 70.41 70.19 70.95 71.28
73.68 73.65 74.37 75.15 75.83 75.81 75.10 74.50 73.43 72.59 71.86 70.92 70.87 71.27 72.10 73.38 72.89 72.31 71.32 69.45 69.12 69.27 68.98 69.32 69.59 69.51 69.51 69.34 69.37 69.64 69.32 68.79 68.81 70.69 70.42 70.87 70.93 70.73 70.92 70.79 70.55 70.44 70.83
73.25 73.76 73.80 75.16 75.73 75.31 74.78 73.93 72.66 71.77 71.21 70.02 70.96 71.76 71.88 72.89 73.31 72.25 70.66 69.01 68.57 68.51 68.55 68.95 69.19 69.21 69.21 69.11 69.23 69.28 68.42 68.13 68.86 69.05 70.10 70.23 69.41 69.96 69.96 69.13 68.85 68.48 68.91
72.68 73.63 74.17 75.37 75.30 75.05 74.16 73.64 72.68 71.44 70.51 70.69 70.28 72.28 71.79 72.82 72.86 71.65 70.38 69.19 68.64 68.71 68.61 68.82 69.01 68.84 68.88 68.57 69.12 68.73 67.76 67.23 67.64 67.42 68.06 68.67 68.90 68.50 68.09 67.30 66.63 66.48 66.76
72.30 72.86 73.92 74.07 74.53 74.15 73.71 73.27 72.70 71.31 70.31 71.29 72.40 73.04 72.57 72.68 72.01 71.16 70.32 69.60 68.71 68.91 68.94 68.62 68.61 68.37 68.14 67.87 67.20 67.35 66.42 65.85 66.94 66.89 67.73 68.68 67.80 67.70 66.90 66.29 65.78 65.67 65.81
72.89 72.82 73.91 73.98 73.50 72.69 72.81 72.64 72.18 71.42 70.75 70.99 71.29 72.73 72.18 71.60 71.78 70.75 69.97 69.57 68.84 68.44 68.78 68.61 68.26 67.83 67.44 66.72 65.91 65.23 65.87 64.28 67.35 67.27 66.77 68.85 67.82 66.87 66.53 65.74 65.23 64.71 64.42
72.17 72.83 72.75 73.23 73.11 72.76 72.08 71.11 70.76 70.38 70.15 70.50 70.53 69.76 69.13 69.03 69.94 70.68 70.06 69.54 68.70 68.47 68.37 68.43 68.07 67.49 66.78 66.04 65.03 64.55 65.17 64.28 67.90 67.58 68.12 68.02 67.61 66.40 65.71 64.90 64.18 63.52 63.35
71.41 71.94 71.98 72.24 72.42 72.38 72.09 70.88 69.76 69.13 69.07 68.85 68.75 67.52 68.13 70.36 70.11 69.29 67.47 68.39 68.66 68.12 68.25 68.18 67.78 66.54 65.07 64.92 64.11 62.90 62.10 67.50 67.65 67.17 67.44 66.39 67.48 66.61 65.34 64.16 63.20 62.70 62.39
70.20 69.78 70.76 71.91 72.30 72.13 71.51 71.61 71.25 70.18 69.74 68.40 67.44 68.51 68.24 68.37 68.91 69.22 67.25 67.10 67.89 68.50 68.58 68.37 67.64 66.16 64.74 66.00 65.42 63.17 65.81 66.12 65.63 66.16 66.36 65.97 67.43 68.20 66.11 64.21 63.18 62.27 61.76
70.19 70.87 71.29 72.21 72.40 71.70 71.40 71.40 71.46 71.21 70.76 69.99 68.60 68.03 67.41 67.36 67.49 67.30 68.22 67.92 69.06 66.83 68.02 68.41 68.70 68.03 66.33 66.11 64.82 64.24 64.31 64.77 65.04 64.60 65.81 65.51 67.22 68.64 67.88 65.71 64.16 62.76 61.93
68.32 68.55 69.50 70.70 72.03 71.79 71.78 71.44 71.24 70.89 70.87 70.28 69.69 68.96 68.34 67.33 66.19 66.21 66.76 67.52 67.72 67.39 66.60 67.44 67.67 67.62 67.33 66.80 65.62 63.93 63.04 63.09 63.47 63.52 64.49 64.43 66.13 68.23 68.43 67.54 65.51 64.37 63.13
68.19 69.64 70.35 71.42 71.42 71.53 71.49 71.47 71.24 70.94 70.76 70.81 70.25 69.61 69.16 68.06 66.97 66.67 65.90 65.76 65.83 66.14 65.90 66.54 67.33 67.43 67.38 66.95 66.27 65.62 64.59 63.88 63.56 63.31 63.15 62.84 64.03 66.32 68.17 67.87 67.25 66.18 64.81
68.69 69.75 71.23 71.02 71.49 71.71 71.43 71.47 70.96 71.13 71.21 71.19 70.71 70.23 69.53 68.89 68.07 67.40 67.26 66.58 65.19 65.82 66.42 67.05 67.44 67.70 67.76 67.80 67.24 66.95 66.40 66.07 65.98 65.03 63.70 63.49 63.09 64.50 66.59 67.92 67.57 66.43 66.03
68.49 68.94 69.92 70.70 71.56 71.38 71.30 71.26 71.05 71.11 70.87 70.76 70.78 70.72 69.93 69.28 68.56 67.74 67.52 67.84 67.70 67.53 67.20 67.39 67.52 67.59 67.23 67.42 67.12 67.46 67.33 67.12 66.91 66.57 65.37 64.02 63.84 61.96 63.83 66.43 67.53 67.22 66.17
68.37 67.98 68.97 69.07 69.86 70.56 70.55 70.80 70.90 71.07 71.02 70.90 70.91 70.85 70.32 69.76 69.28 68.45 67.75 67.97 69.00 68.76 68.29 67.91 67.71 67.21 67.17 67.13 66.97 67.27 67.30 67.30 67.13 66.90 66.81 65.86 64.89 64.20 63.63 63.77 66.04 67.10 66.98
68.24 68.64 68.32 68.68 68.56 69.35 70.23 70.35 70.49 70.46 70.50 70.60 70.51 70.31 70.20 69.94 69.61 69.15 68.73 68.65 68.99 68.80 68.59 68.22 67.85 67.65 66.97 67.28 67.09 67.21 67.20 67.04 67.02 66.68 66.69 66.72 66.22 64.73 64.77 63.37 63.41 64.74 66.22
63.14 67.98 68.50 68.48 68.92 69.26 69.63 69.98 69.92 69.70 69.88 70.44 70.07 69.91 69.50 69.26 69.08 69.10 69.02 68.94 69.03 68.39 68.25 68.38 67.74 68.12 67.50 67.08 66.25 65.33 66.28 66.68 66.64 66.29 66.10 65.95 66.12 64.97 64.17 64.03 63.89 63.29 62.86
55.91 56.94 66.41 67.35 68.15 68.77 68.68 68.31 68.34 68.30 69.01 69.39 70.03 70.18 69.58 69.14 68.78 68.67 68.72 68.96 69.21 68.28 68.25 68.36 67.97 67.11 66.63 67.34 64.69 64.53 65.21 65.41 65.02 65.16 65.31 65.00 63.61 62.64 62.52 62.81 62.70 62.82 62.98
55.49 55.60 57.19 62.24 66.24 68.13 68.79 69.14 69.22 69.27 69.48 69.59 70.01 69.54 69.22 68.94 69.04 68.97 68.74 68.62 68.59 67.63 67.84 67.69 66.94 65.49 65.36 66.27 63.42 62.42 59.20 61.65 63.24 63.10 63.28 61.90 61.87 61.62 60.72 60.84 61.05 61.13 61.47
54.27 55.00 55.19 56.46 58.55 61.63 66.71 65.61 65.22 65.03 65.28 65.97 67.39 68.11 67.75 65.93 67.50 66.92 66.65 66.52 66.49 66.22 65.27 65.72 65.58 64.44 62.82 64.51 64.08 62.20 57.91 56.29 58.90 60.46 60.42 60.16 60.12 60.12 59.80 58.15 58.66 59.78 59.88
54.14 55.27 55.34 55.22 55.01 55.53 57.28 60.94 62.93 64.32 64.21 62.79 61.19 59.82 58.92 57.15 57.70 58.63 60.29 62.18 63.60 64.50 63.56 64.04 64.77 64.27 63.29 61.23 61.66 62.07 62.67 60.78 56.89 54.50 58.80 59.96 58.84 57.59 57.69 57.31 58.09 58.67 58.22
54.20 55.33 55.61 55.40 55.01 55.42 55.64 55.79 56.02 55.63 56.04 55.93 56.04 55.30 56.29 57.29 57.83 57.78 58.31 58.71 59.32 60.47 60.97 61.28 61.54 61.82 62.63 61.91 60.91 58.19 59.20 58.22 56.31 54.38 53.25 55.84 57.67 59.14 60.05 58.65 58.52 58.57 58.05
54.77 54.31 54.87 54.88 54.60 55.39 55.65 55.39 55.51 55.44 55.01 55.45 55.55 55.75 56.86 57.66 57.90 56.33 55.88 57.10 57.79 58.44 59.33 59.71 59.96 59.50 60.27 60.73 61.33 60.21 59.20 57.24 56.91 55.62 52.71 53.16 53.81 56.69 58.50 58.06 57.74 56.99 55.90

GFSSE_sfc_wetblb_069.txt.gz
Wetbulb
72.88 74.67 76.00 75.74 75.15 75.16 74.93 74.46 74.41 73.70 73.38 72.81 72.37 71.54 70.92 72.75 72.88 72.76 72.03 71.95 72.42 72.28 72.75 72.12 71.84 71.68 71.12 70.63 70.09 69.84 69.23 68.84 68.71 69.05 69.94 70.74 70.58 71.16 71.13 70.61 71.12 68.35 68.91
73.88 74.59 75.65 75.85 75.75 75.69 75.06 74.38 73.94 73.60 73.13 72.34 71.20 70.55 71.77 73.05 73.02 71.44 70.94 70.74 71.13 71.11 72.23 71.69 71.27 71.39 71.09 70.84 70.79 70.55 70.73 70.21 68.53 67.83 68.65 70.21 71.21 69.47 69.46 69.33 69.48 70.05 69.85
73.41 74.34 74.96 75.63 75.86 75.80 75.01 74.11 73.69 73.15 72.43 71.69 71.00 70.79 73.08 73.07 71.93 71.56 70.46 69.77 70.19 70.78 71.21 70.88 70.72 70.46 70.16 69.89 69.61 69.64 70.52 70.23 69.29 69.07 69.36 70.49 70.68 71.51 69.70 69.36 70.87 71.27 71.34
73.18 74.06 74.60 75.81 75.99 75.66 74.85 74.07 73.44 72.65 71.86 71.44 71.37 72.14 73.06 72.44 72.08 70.95 69.78 69.61 69.83 70.14 70.47 69.87 70.19 70.01 69.97 69.80 69.54 69.53 69.32 69.89 69.55 70.22 69.87 70.03 69.83 71.55 71.47 71.28 71.09 71.54 70.43
73.03 73.64 75.03 75.83 75.83 75.46 74.65 74.11 73.23 72.51 71.56 71.19 71.56 72.27 73.24 72.76 72.41 71.31 69.38 69.62 69.52 69.38 69.92 69.95 69.86 69.77 69.56 69.64 69.73 69.02 68.55 68.85 69.94 70.48 70.16 69.89 69.65 70.07 70.51 70.16 69.58 69.73 70.39
72.57 73.54 73.97 75.34 75.49 75.32 74.72 73.97 72.66 71.78 70.98 70.86 71.55 71.74 73.13 73.20 72.51 70.81 69.04 68.79 68.86 69.05 69.42 69.58 69.53 69.42 69.29 69.54 69.40 68.52 68.42 68.61 68.70 68.74 68.86 69.13 68.46 69.02 68.91 67.87 67.29 67.39 68.05
72.09 73.94 73.80 75.23 75.20 74.71 74.10 73.46 72.27 71.17 70.45 71.44 71.87 71.45 72.77 73.26 72.14 70.56 69.14 68.82 68.82 68.79 69.18 69.31 69.16 69.11 68.81 69.19 69.12 68.01 67.29 67.73 66.87 67.40 67.85 68.20 67.65 68.10 67.49 66.76 66.47 66.21 66.42
72.05 72.70 73.46 73.89 74.34 73.97 73.66 73.14 72.30 70.85 70.91 71.33 72.83 72.35 72.42 73.06 71.89 70.99 69.70 68.80 69.14 69.12 68.83 68.84 68.71 68.46 68.21 67.69 67.48 67.32 66.32 66.95 66.77 66.76 67.94 67.45 68.11 67.89 67.39 66.31 65.54 65.05 65.33
72.51 71.73 72.05 73.58 73.18 72.73 72.72 72.58 72.16 71.13 71.39 71.61 72.85 72.76 72.67 71.86 71.41 70.47 69.86 69.16 68.57 69.03 68.78 68.49 68.16 67.92 67.44 66.77 66.13 65.70 65.65 65.95 66.20 66.35 66.34 67.82 67.95 67.49 66.86 65.83 65.15 64.56 64.49
71.99 71.01 72.32 72.77 72.46 72.13 71.43 71.18 70.74 70.47 70.54 71.41 70.73 70.07 69.48 69.46 70.14 70.35 69.99 69.54 68.61 68.38 68.57 68.29 67.75 67.36 66.75 66.06 65.05 64.28 65.40 65.41 66.65 66.31 66.59 66.87 67.80 66.95 66.05 65.24 64.47 63.99 63.66
70.67 71.35 72.35 71.54 71.11 70.95 70.87 70.32 69.23 69.06 69.13 69.20 68.70 68.13 67.95 69.76 69.44 68.29 67.74 68.68 68.61 68.23 68.27 68.07 67.56 66.43 65.40 65.30 64.58 63.80 63.48 65.97 66.08 65.78 65.90 67.01 67.00 66.97 65.55 64.55 63.64 63.21 62.72
69.00 70.46 70.99 71.00 70.74 70.87 70.42 70.46 70.26 68.92 67.06 66.71 69.03 69.25 68.97 68.85 69.07 68.81 67.69 67.54 68.08 68.32 68.38 68.23 67.69 66.55 65.09 65.60 64.82 63.80 64.22 65.24 64.86 64.91 65.63 66.61 66.62 67.99 66.72 64.74 63.58 62.64 62.18
69.16 69.95 70.14 70.91 70.98 70.55 70.15 70.38 70.57 70.23 69.74 68.14 66.52 66.73 66.89 66.70 67.09 66.46 67.75 67.24 67.83 66.64 67.43 67.67 67.59 67.12 66.84 65.98 64.79 63.91 63.92 64.08 64.25 64.51 65.50 66.10 66.17 67.47 68.29 66.65 64.58 63.22 62.35
69.24 69.05 71.10 71.64 71.31 70.72 70.35 70.17 70.77 70.08 70.11 69.24 68.51 68.03 67.43 66.23 65.73 65.66 66.08 67.13 67.62 67.74 66.19 66.75 66.67 66.96 66.86 66.54 65.86 64.69 63.72 63.31 63.22 63.94 64.27 64.85 65.51 66.69 68.08 68.25 66.85 65.06 63.66
67.97 68.65 69.25 71.06 71.28 70.46 69.99 70.10 70.19 70.27 70.07 70.26 69.82 69.24 68.59 67.48 66.42 66.08 65.41 65.50 65.81 65.88 65.31 65.37 66.23 66.84 66.98 67.00 66.50 65.66 65.03 64.64 64.11 64.24 64.13 63.21 64.41 65.46 66.99 67.95 67.75 67.09 65.92
68.46 68.90 70.17 70.28 70.78 70.18 70.28 70.12 70.46 70.38 70.50 70.55 70.25 69.83 69.14 68.34 67.51 67.02 66.88 66.61 65.05 65.09 65.35 65.65 66.77 67.20 67.42 67.63 67.24 67.30 66.82 66.71 66.34 66.17 65.72 64.99 63.54 64.33 65.39 67.07 67.71 67.39 66.95
68.65 70.03 69.42 70.18 70.21 70.68 70.55 70.46 70.61 70.11 69.98 69.84 69.84 70.21 69.83 69.08 68.23 67.30 67.23 67.77 67.82 67.29 66.72 67.05 67.30 67.55 67.22 67.36 67.00 67.27 67.41 67.34 67.13 66.88 67.04 66.57 64.98 62.34 64.27 65.03 66.66 67.27 67.21
68.97 69.00 70.20 70.41 70.18 69.96 69.67 69.63 69.17 70.06 69.84 69.97 70.41 70.65 70.28 69.65 69.31 68.42 67.68 67.85 68.94 69.03 68.46 67.97 67.67 67.19 67.06 66.88 66.67 67.06 67.16 67.33 67.16 67.16 67.42 67.20 66.69 65.27 63.82 64.52 64.98 65.94 66.89
68.12 68.63 69.24 70.13 69.83 70.11 69.97 69.94 69.70 69.56 70.02 70.56 70.68 70.62 70.59 70.34 69.94 69.27 68.78 68.78 68.97 68.79 68.61 68.23 67.78 67.32 66.25 66.00 65.91 66.26 66.74 67.09 67.31 67.06 66.82 67.16 67.27 66.85 66.02 64.41 63.27 63.94 65.60
67.10 68.47 69.21 69.55 69.61 69.81 70.06 70.10 70.16 69.81 70.17 70.70 70.43 70.33 70.22 70.12 70.00 69.62 69.36 69.18 68.91 68.00 67.62 67.37 66.49 66.89 66.83 66.72 65.98 65.35 66.93 66.94 67.16 66.94 66.48 66.47 66.45 66.64 65.97 64.92 64.79 62.91 62.37
59.17 65.55 68.17 68.43 69.02 69.15 69.02 68.31 68.22 68.14 69.24 69.86 70.30 70.43 70.21 69.93 69.49 69.07 68.94 69.01 68.18 67.63 67.72 67.09 66.41 66.59 66.44 67.45 65.03 64.74 65.08 65.70 65.61 65.66 65.93 65.31 65.07 64.63 63.58 63.11 63.39 63.37 63.30
57.25 57.98 62.32 67.22 68.16 68.72 68.89 69.26 69.46 69.61 69.90 70.17 70.77 70.42 70.53 70.01 69.35 68.73 68.50 67.94 68.24 68.10 67.93 67.11 66.08 64.90 65.28 65.51 62.90 62.48 59.61 60.91 63.20 64.16 63.91 63.34 62.73 63.11 62.20 62.00 61.76 61.77 62.09
56.52 57.17 56.97 59.90 64.08 67.12 68.62 69.02 68.45 67.20 67.12 67.17 68.16 68.73 68.97 68.60 68.91 68.17 67.66 66.83 66.55 66.43 65.52 65.45 65.16 64.46 62.74 63.58 63.91 61.51 58.09 56.26 58.88 60.82 61.00 61.40 61.13 61.22 61.49 59.44 59.68 60.24 60.35
56.04 57.63 56.91 57.29 58.09 60.15 62.45 66.08 64.70 64.48 64.47 66.58 65.40 65.52 64.10 60.91 60.90 61.19 62.35 63.61 64.30 64.85 64.56 64.56 64.07 63.71 63.56 61.53 63.41 62.98 62.92 61.04 57.41 55.68 60.03 60.15 59.29 59.21 59.99 59.58 58.41 59.62 59.15
56.65 56.98 56.74 56.69 56.48 56.81 57.64 59.79 61.65 62.22 60.94 58.96 57.74 57.06 57.02 57.50 58.33 58.34 58.35 58.73 58.97 60.19 60.82 60.79 61.02 61.42 61.40 60.21 59.69 60.35 60.78 60.74 57.86 55.06 54.60 56.19 59.38 59.59 59.49 59.91 58.67 58.54 57.70
56.73 56.98 56.84 55.66 55.47 56.42 57.09 56.92 57.00 57.35 56.29 55.98 56.54 56.50 57.00 57.57 58.05 57.17 56.73 57.30 57.99 58.27 58.67 59.62 60.01 59.88 58.98 58.51 59.23 59.13 58.46 57.24 55.56 54.80 54.72 55.77 55.66 56.67 57.34 58.52 57.83 55.94 54.38

GFSSE_sfc_wetblb_072.txt.gz
Wetbulb
71.23 73.52 75.82 75.87 75.29 75.58 75.05 74.43 74.17 73.80 73.25 72.70 71.73 71.66 73.13 73.29 72.61 71.87 72.02 72.22 73.10 73.19 72.68 72.32 71.56 71.23 71.00 70.92 70.88 70.03 68.75 69.01 69.34 69.92 70.91 70.85 70.61 70.69 69.91 70.89 71.40 68.72 68.90
72.14 73.47 75.37 75.75 75.66 75.40 74.91 74.17 74.23 73.82 73.33 71.69 70.80 72.07 73.26 72.35 71.29 70.78 70.95 71.39 72.30 72.84 72.61 72.04 70.91 70.91 70.79 70.66 70.77 70.91 70.25 69.00 68.55 68.85 70.57 71.17 70.60 70.16 70.44 71.36 71.38 70.76 69.17
71.89 73.40 74.33 75.50 75.42 75.02 74.69 73.72 73.49 72.92 72.40 72.01 71.28 73.24 72.94 72.10 71.23 70.03 70.13 70.89 71.58 72.03 71.57 70.39 70.55 70.34 70.07 69.89 70.31 70.47 70.43 70.17 69.87 70.19 70.19 69.24 68.82 71.57 71.68 71.39 71.90 70.76 69.21
72.44 72.86 73.69 75.56 75.32 75.29 74.52 73.71 72.89 72.19 71.72 72.09 72.39 73.33 72.29 72.03 70.84 69.60 70.10 70.29 70.74 70.31 69.70 69.90 70.23 70.06 70.06 69.87 69.22 69.28 69.98 70.05 70.81 70.32 69.01 67.94 68.27 71.20 71.22 70.56 70.39 71.15 71.10
71.77 72.68 73.94 75.46 75.05 75.08 74.34 73.59 72.64 71.79 71.80 72.48 72.61 73.44 73.16 72.34 70.99 69.45 70.02 69.80 70.05 70.07 69.51 69.93 69.89 69.81 69.95 69.81 68.68 68.64 69.34 69.90 69.54 68.97 67.37 65.82 65.99 68.81 69.14 68.41 67.82 68.58 69.42
70.75 73.12 74.50 74.93 74.95 74.80 74.40 73.90 72.53 71.59 71.43 71.73 72.68 73.50 73.61 72.25 70.59 69.17 69.27 69.27 69.64 70.21 69.83 69.71 69.60 69.56 69.87 69.38 68.65 68.36 68.60 69.26 68.87 65.24 65.72 67.57 65.64 67.90 67.52 67.01 66.54 66.70 67.30
71.50 72.80 74.08 74.94 75.02 74.54 74.04 73.22 72.38 71.24 71.70 71.94 72.16 73.24 73.30 72.21 70.67 69.18 68.92 68.93 69.05 69.50 69.53 69.41 69.37 69.09 69.46 69.41 68.45 67.87 67.80 67.83 64.19 64.04 64.72 64.75 65.06 68.02 67.42 66.44 65.76 65.93 66.30
70.84 71.79 73.15 73.81 74.04 73.81 73.36 72.72 72.11 71.66 72.15 72.44 72.57 72.92 73.51 71.99 71.08 69.91 68.95 69.23 69.10 69.09 69.17 69.01 68.76 68.58 68.19 67.71 67.47 67.47 67.39 66.57 64.30 63.54 64.26 64.44 68.18 67.95 67.32 66.26 65.20 65.01 65.23
70.80 71.14 72.26 72.60 72.56 72.50 72.41 72.19 71.65 71.74 72.21 72.81 72.96 72.87 72.78 71.79 71.31 70.33 69.38 68.94 69.31 69.09 68.73 68.49 68.27 68.05 67.47 66.90 66.25 66.28 66.47 65.86 62.40 62.93 65.64 64.40 68.35 67.77 66.84 65.96 65.26 64.47 64.39
68.98 70.30 71.61 71.12 70.95 70.07 70.11 70.74 70.28 70.65 71.25 71.36 71.62 70.67 69.60 69.32 69.86 70.52 69.68 69.36 68.85 68.84 68.66 68.29 67.89 67.47 66.78 65.99 65.23 65.26 65.27 65.27 61.71 62.79 64.23 65.62 68.54 67.27 66.44 65.45 64.76 64.22 63.62
69.19 70.02 70.91 70.81 70.42 69.52 68.90 68.84 68.81 69.11 69.54 68.93 68.48 67.90 67.24 67.17 67.70 67.46 67.72 68.15 68.82 68.96 68.45 68.14 67.56 66.49 66.57 65.74 65.78 64.98 63.89 60.51 61.03 61.59 63.25 67.79 67.90 67.04 65.88 64.94 63.96 63.63 63.03
67.65 69.81 70.51 69.79 69.36 69.31 69.60 66.81 65.61 66.07 66.25 67.15 66.97 65.69 65.80 66.04 66.09 67.80 66.10 67.26 68.49 68.45 68.54 68.36 67.96 67.27 65.42 61.60 61.13 63.47 59.91 60.20 60.05 60.09 63.20 67.28 66.87 67.45 67.20 65.17 63.88 62.95 62.54
68.78 69.10 69.47 69.52 69.74 69.17 69.00 67.61 67.22 65.45 63.33 63.05 65.22 65.87 64.62 64.51 64.35 65.25 64.81 64.82 64.90 65.72 65.37 67.32 66.39 65.04 62.84 61.91 60.80 59.30 59.50 58.93 58.79 59.41 64.00 66.48 66.40 66.64 67.72 67.52 65.27 63.77 62.74
67.61 67.98 68.22 69.93 68.83 69.37 69.15 67.69 67.31 66.73 65.88 63.84 62.66 62.92 61.73 60.96 61.33 60.82 63.07 63.65 63.76 64.27 63.40 64.11 63.52 64.20 63.04 62.90 61.76 60.51 59.58 58.40 58.24 58.43 61.60 64.76 66.37 66.22 67.04 67.82 67.94 65.93 64.42
67.03 67.88 68.25 69.49 69.35 69.11 68.54 68.62 67.37 66.17 66.21 65.95 64.96 64.92 64.20 62.85 61.27 60.68 60.61 61.63 62.11 61.92 60.75 60.41 61.13 61.78 62.27 62.60 62.38 61.38 60.84 59.96 58.77 58.83 58.64 62.93 64.74 66.20 66.05 67.13 67.72 68.05 66.83
67.42 67.49 68.04 68.22 68.52 68.92 68.52 68.51 67.30 66.95 67.32 66.66 66.69 66.08 65.58 64.17 63.02 62.60 61.86 61.47 59.99 60.10 60.11 60.00 60.97 62.62 63.10 63.42 63.37 63.31 62.52 62.13 61.89 61.51 61.25 59.98 63.86 64.72 65.81 65.86 67.06 67.64 67.82
66.66 68.06 68.52 68.91 69.07 68.39 68.32 68.46 68.42 67.50 67.11 66.81 66.66 66.63 66.19 65.51 64.12 63.16 62.81 63.17 62.99 61.68 61.52 61.61 62.40 63.14 62.93 63.87 63.02 63.55 63.47 63.11 62.87 62.61 62.64 62.26 61.16 62.47 64.29 65.40 65.95 67.06 67.57
66.37 67.00 68.28 69.62 68.73 68.43 68.77 68.88 68.62 66.71 65.87 65.89 66.16 66.57 66.93 66.42 65.64 64.23 63.39 63.56 65.00 64.53 63.94 63.59 63.37 63.07 62.96 62.75 62.36 62.73 62.88 63.63 63.66 63.14 63.26 63.10 62.54 61.80 62.20 64.85 66.12 66.34 66.70
65.61 66.94 66.80 67.60 68.03 68.08 68.19 68.19 67.74 67.80 67.49 66.96 67.05 67.56 67.68 67.27 66.76 65.73 65.05 64.97 65.25 64.96 64.70 64.56 64.28 63.90 63.62 63.61 63.96 64.18 64.00 64.38 63.76 64.50 62.97 63.19 63.45 63.46 62.51 63.28 63.17 63.85 65.21
65.15 65.99 66.52 67.27 66.69 67.39 67.41 67.50 67.80 67.66 67.44 67.46 67.88 67.25 67.55 67.42 67.38 66.28 66.01 65.77 66.55 65.59 65.28 65.22 64.47 64.64 64.51 64.36 64.97 63.87 63.40 63.48 63.01 62.82 62.86 63.60 62.78 62.87 62.29 60.90 60.64 60.52 62.20
56.79 64.50 65.85 66.34 65.92 65.97 66.03 65.41 65.28 65.18 66.40 67.60 67.32 68.59 67.98 67.92 67.84 66.71 65.82 66.23 66.22 65.50 65.51 65.59 64.24 63.63 63.52 63.54 61.40 60.89 61.77 63.03 62.84 62.52 62.51 61.84 61.43 60.00 59.30 58.91 59.07 59.23 59.51
53.62 58.04 62.42 65.71 66.13 65.77 66.50 66.45 66.20 65.94 66.45 67.05 67.35 67.64 68.23 68.12 67.58 66.24 65.33 65.95 66.53 66.45 66.28 65.19 65.26 63.99 63.93 64.20 61.73 60.61 57.57 57.08 58.76 60.34 60.98 60.08 58.53 58.62 57.97 57.73 56.53 56.54 56.13
52.99 53.81 55.55 61.80 65.27 65.65 65.85 66.17 65.65 64.19 64.38 63.99 65.35 66.11 66.02 65.29 65.35 66.79 66.46 65.82 65.50 65.30 64.63 64.57 64.11 63.11 61.77 62.51 62.98 60.49 56.26 52.68 54.95 56.52 56.88 57.28 56.70 55.87 54.63 54.99 55.64 56.00 55.54
52.06 53.71 53.84 54.51 58.41 60.05 62.26 64.52 63.35 61.98 61.79 63.26 63.00 62.83 59.89 58.36 58.18 58.41 59.29 61.10 62.97 63.58 63.86 63.25 63.20 62.21 62.16 60.38 60.65 61.63 60.29 57.17 53.76 51.67 55.45 56.16 55.95 54.90 54.67 54.28 53.70 54.89 54.40
53.43 53.17 53.10 53.59 53.90 54.94 56.16 60.61 61.10 61.19 57.96 54.66 53.89 54.39 54.15 54.78 55.93 56.18 56.10 55.86 55.69 56.16 56.74 57.05 56.91 57.24 58.15 57.30 56.31 56.62 58.29 58.49 55.64 54.99 52.10 53.62 56.12 56.78 54.83 55.22 55.46 53.69 53.08
53.67 53.70 52.84 53.00 52.99 53.42 53.64 54.38 55.68 55.70 52.21 51.82 51.80 51.48 52.08 53.50 54.71 54.65 54.92 54.33 54.78 55.12 55.30 55.71 56.49 56.16 56.21 55.32 55.61 56.64 56.59 55.73 54.60 54.35 52.97 53.31 52.46 53.77 54.50 54.69 52.57 49.67 50.20

GFSSE_sfc_wetblb_075.txt.gz
Wetbulb
70.74 73.97 75.89 75.71 74.79 74.62 74.65 74.61 74.21 73.63 72.97 71.61 72.85 73.36 72.95 71.98 72.12 72.36 73.32 73.24 73.90 73.11 72.47 71.44 71.25 70.98 71.21 71.05 69.24 69.55 69.78 70.19 71.40 71.66 71.26 70.73 70.31 71.80 72.21 71.69 70.46 66.76 68.72
72.12 73.98 75.56 75.62 75.45 75.16 74.47 73.83 74.07 73.55 72.88 72.13 73.17 73.26 71.59 70.84 70.79 71.66 72.51 73.02 73.11 72.73 71.28 70.95 70.71 70.75 70.74 71.01 70.82 70.35 70.05 69.46 69.15 69.78 70.74 70.24 71.21 71.93 72.08 71.77 70.60 67.70 69.15
72.10 73.53 74.38 75.36 75.28 74.97 74.17 73.46 73.05 72.25 72.23 72.45 73.79 72.32 71.84 70.49 70.06 70.67 71.52 71.78 71.56 70.78 70.51 70.42 70.41 70.19 70.08 70.21 70.74 71.11 70.99 70.45 70.31 70.48 70.04 68.27 69.61 71.55 71.22 71.05 71.18 71.24 71.23
72.31 73.10 73.85 75.21 75.09 74.71 73.81 73.21 72.52 71.81 71.29 73.14 73.77 73.05 71.23 70.00 70.10 70.27 70.88 71.26 70.48 69.92 69.90 70.14 70.22 70.11 69.62 69.07 69.60 70.04 70.01 70.17 70.68 69.39 66.48 66.76 67.07 69.71 69.47 69.32 69.33 70.17 69.52
71.45 72.92 74.16 74.80 74.86 74.70 73.45 72.58 71.96 72.03 71.56 73.38 73.58 73.36 71.78 69.85 70.18 70.19 70.58 70.75 69.53 69.27 69.47 69.92 70.02 69.99 69.31 68.66 69.10 69.58 69.74 70.46 69.93 67.40 65.38 64.37 64.31 66.95 67.55 67.10 66.83 68.27 68.35
71.19 72.49 74.03 74.44 74.82 74.34 73.79 73.00 71.68 71.94 71.90 73.42 73.75 73.50 71.65 69.95 69.76 69.86 69.84 70.05 69.59 69.63 69.74 69.71 69.89 69.78 69.17 68.73 68.51 68.88 68.98 68.97 66.96 64.45 64.54 65.58 63.83 67.62 67.00 66.36 66.36 66.67 67.33
71.48 72.97 73.49 74.33 74.70 74.25 73.74 72.88 72.10 71.99 72.12 73.09 73.60 72.88 71.78 70.11 69.01 69.19 69.24 69.59 69.69 69.64 69.56 69.54 69.38 69.76 69.42 68.62 68.23 68.16 67.96 67.45 63.35 63.39 63.69 63.87 64.64 67.72 67.01 66.04 65.60 65.67 65.81
71.84 72.91 73.22 73.44 73.78 73.59 72.93 72.38 71.90 72.59 72.64 72.78 73.88 73.45 71.74 70.73 69.36 69.19 69.10 69.15 69.50 69.48 69.25 69.19 68.94 68.50 67.93 67.38 66.97 67.06 67.29 66.24 62.95 63.07 63.49 64.14 68.23 67.63 67.00 65.99 65.16 65.03 65.09
71.97 72.01 72.21 72.44 72.21 71.95 71.95 71.66 71.69 72.58 72.53 72.77 72.97 73.23 71.85 71.20 70.23 69.15 69.45 69.37 69.13 68.96 68.83 68.65 68.39 67.81 67.35 66.56 65.93 66.21 66.26 65.82 61.20 62.96 64.54 64.13 68.47 67.54 66.56 65.69 65.21 64.67 64.51
70.97 71.19 70.46 70.74 70.63 69.93 69.60 70.15 70.64 71.05 71.19 72.16 71.83 71.05 69.72 69.37 69.77 70.15 69.13 69.46 69.33 68.85 68.58 68.21 67.85 67.32 66.59 65.74 65.17 65.77 64.48 63.87 60.70 61.64 63.40 65.47 68.44 67.25 66.33 65.17 64.77 64.20 63.86
69.92 70.05 69.74 68.81 68.45 68.26 68.11 68.04 69.23 69.66 69.39 69.58 69.09 67.74 67.25 67.24 67.67 67.68 67.15 67.94 69.00 68.90 68.51 68.15 67.57 66.65 66.23 65.59 65.56 64.83 64.03 59.53 58.81 60.52 62.77 68.20 68.17 67.35 66.13 65.08 64.19 63.73 63.14
67.59 69.02 69.35 68.90 67.91 67.37 68.50 65.67 65.04 67.78 66.92 66.37 66.29 66.02 65.56 65.29 65.69 67.36 65.84 66.87 68.46 68.60 68.48 68.25 67.93 67.32 65.34 60.85 60.24 63.15 59.27 58.48 58.34 59.97 62.33 67.61 67.32 67.55 67.34 65.58 64.16 63.39 62.78
67.31 69.08 68.63 69.12 69.07 67.17 66.05 64.86 63.10 62.92 64.84 65.65 65.30 64.57 64.40 64.83 65.18 65.18 64.43 65.02 64.74 65.15 65.09 66.77 65.83 64.78 62.06 61.00 59.83 59.06 58.85 57.52 57.03 57.72 63.22 66.80 67.19 66.54 67.39 68.06 65.88 64.34 63.31
67.31 68.02 68.83 69.02 68.39 67.79 67.00 65.88 64.29 62.54 61.43 61.48 64.03 64.97 61.34 61.54 62.59 63.13 62.85 63.00 62.95 63.93 62.72 62.92 63.00 63.25 62.83 61.94 60.33 59.61 58.53 57.15 57.07 57.06 59.71 65.14 66.92 66.42 66.59 67.55 68.43 66.63 64.96
66.96 67.33 68.17 69.05 68.52 68.56 68.19 66.48 66.63 65.07 64.02 61.61 61.08 63.15 60.81 59.76 59.22 59.15 60.41 62.34 62.04 62.95 61.79 61.20 61.11 60.89 60.83 60.80 61.04 60.39 59.55 58.87 57.46 57.22 57.02 62.86 64.95 66.82 66.35 66.47 67.45 68.49 67.42
66.86 67.32 67.72 68.26 67.98 67.86 68.17 66.93 66.72 66.62 66.41 63.87 63.13 63.25 63.15 61.87 60.19 59.61 58.87 59.33 59.22 59.41 58.72 58.28 58.62 60.22 61.20 61.68 61.94 61.71 60.91 60.18 60.11 59.53 59.03 59.37 63.90 65.16 66.64 66.08 66.49 67.36 67.95
66.99 67.39 67.44 67.85 68.38 67.82 67.55 67.95 66.37 66.68 67.07 66.55 65.47 64.87 64.40 63.82 62.00 61.58 61.28 60.67 60.57 59.06 59.25 59.14 59.69 61.03 61.33 62.30 61.80 62.36 62.36 62.03 61.77 61.43 61.29 60.38 60.50 62.74 64.79 66.17 66.47 66.76 67.41
66.36 66.91 67.78 69.04 68.10 67.14 67.50 68.22 67.91 68.11 66.00 66.87 66.85 65.36 65.20 64.88 64.27 62.46 61.81 61.92 63.14 61.78 60.54 60.86 61.60 61.44 61.57 61.56 61.45 62.01 62.36 63.06 63.67 63.60 63.55 61.95 61.30 60.47 61.98 65.29 66.64 66.95 66.96
65.74 66.37 66.78 67.84 67.75 67.77 68.13 68.37 68.46 67.85 66.65 65.94 66.16 65.82 66.68 65.72 65.11 64.00 63.04 63.07 63.61 63.61 63.46 63.00 62.81 63.30 63.08 63.11 63.57 64.06 63.84 62.99 62.93 64.14 62.48 62.32 62.08 63.00 61.79 62.55 63.46 64.03 65.19
64.40 66.18 66.24 66.43 67.07 67.14 67.66 67.74 67.03 66.68 67.00 67.32 66.86 66.56 66.52 66.06 65.63 64.82 64.68 64.41 64.68 64.93 64.86 64.55 64.14 64.27 63.85 63.85 64.30 63.57 62.67 62.60 62.56 62.28 62.19 62.85 61.94 61.36 62.11 61.54 60.54 60.34 61.98
63.32 64.43 65.06 65.74 65.70 65.69 65.51 64.97 64.78 65.50 66.30 67.25 67.07 68.12 67.35 67.43 67.43 66.32 65.16 65.42 65.80 64.91 64.94 64.70 64.22 63.42 63.07 63.64 62.71 60.81 60.48 61.58 61.80 62.00 61.93 61.45 61.37 59.34 58.44 58.02 57.89 58.14 58.21
55.78 63.10 63.87 65.61 65.23 66.00 65.76 65.87 65.47 64.71 65.49 65.54 65.93 66.37 66.80 67.25 67.41 66.32 65.73 64.54 65.85 66.02 65.97 65.75 64.71 63.59 63.72 64.05 61.49 60.44 56.97 56.31 57.68 58.39 58.82 60.00 59.11 58.12 57.21 56.16 55.34 55.24 54.81
51.31 57.24 62.29 65.37 65.75 65.22 65.61 65.62 64.45 64.54 64.31 64.42 64.41 65.31 65.03 64.16 65.13 66.42 65.88 65.85 65.51 65.28 64.65 64.60 64.20 63.20 61.93 61.98 62.20 60.17 55.50 51.70 54.17 56.29 56.17 56.61 56.28 55.62 54.99 55.02 55.01 54.75 53.60
50.74 52.18 56.37 59.88 64.51 64.18 64.94 63.88 62.65 61.98 61.49 62.41 63.51 62.25 58.67 58.64 57.81 58.09 58.29 60.52 62.58 63.26 63.70 63.09 63.12 60.26 59.22 57.17 57.96 59.93 59.03 58.24 55.62 53.12 54.68 55.16 56.36 55.07 53.46 54.79 54.02 52.97 51.70
51.01 51.14 51.61 53.55 57.47 58.27 60.82 63.29 61.98 60.96 61.13 56.54 56.37 55.69 54.11 54.77 55.58 55.83 55.60 55.34 55.27 55.50 55.82 56.06 55.99 55.71 56.54 55.81 55.36 55.19 54.29 54.20 55.10 55.33 51.44 52.12 54.19 54.78 53.80 53.41 51.74 50.68 49.73
51.57 52.15 51.32 51.83 52.44 53.53 55.60 58.39 60.10 60.05 53.85 51.91 51.03 52.21 52.59 53.94 54.06 53.95 53.92 53.29 53.75 54.15 54.42 54.49 54.64 54.74 54.79 54.66 54.00 53.25 53.13 52.26 51.69 53.13 52.86 52.17 52.95 54.09 53.97 52.26 50.91 49.90 48.26

GFSSE_sfc_wetblb_078.txt.gz
Wetbulb
70.64 73.27 75.34 75.48 74.68 74.39 74.22 73.98 73.57 72.66 71.98 73.20 72.89 72.56 72.33 72.73 73.33 73.48 73.37 73.57 73.28 72.50 71.61 71.04 71.30 70.95 69.88 70.37 70.64 70.93 71.58 71.46 71.17 70.03 70.40 71.71 72.18 72.19 71.66 68.94 68.12 66.61 69.25
72.31 73.65 75.14 75.22 75.25 74.70 74.35 73.80 73.66 72.55 72.53 73.31 72.42 71.16 71.18 72.02 73.12 73.23 73.42 73.23 72.12 71.24 70.86 70.86 71.17 71.18 71.20 71.14 70.84 70.51 70.17 69.78 69.94 70.43 70.69 70.70 71.33 71.30 70.70 70.52 70.63 70.05 71.20
72.44 73.59 73.91 75.07 74.89 74.50 74.10 73.21 72.46 71.54 72.26 73.41 72.00 71.02 70.31 71.08 72.10 72.55 72.65 72.00 70.93 70.61 70.36 70.45 70.41 70.87 71.10 71.32 71.21 70.67 70.33 70.28 70.41 70.32 69.83 66.85 67.85 70.24 69.98 70.36 70.15 69.89 70.90
72.72 73.38 73.44 74.77 74.78 74.15 73.39 72.87 71.99 71.02 72.35 73.25 72.23 70.43 69.95 70.35 71.32 71.37 71.38 70.56 70.15 70.26 70.17 70.05 69.81 69.80 70.01 70.14 70.11 70.29 70.87 70.60 69.45 68.12 65.51 65.32 66.00 67.97 67.73 68.24 68.66 68.63 68.54
71.86 72.90 73.61 74.39 74.37 74.07 73.06 72.38 71.70 71.87 73.08 73.26 72.52 70.12 70.05 70.22 70.76 71.27 70.65 70.32 69.93 69.63 69.82 69.96 69.72 68.93 69.19 69.50 69.72 70.17 70.54 69.34 68.44 66.17 63.56 62.77 62.67 66.04 66.82 66.73 66.92 67.98 67.90
70.73 72.09 73.38 73.84 73.97 73.72 73.00 72.61 71.97 72.40 73.25 73.52 72.68 70.20 69.88 70.14 70.60 70.94 70.27 70.05 70.25 69.72 69.63 69.71 69.22 68.88 68.82 68.92 69.11 69.11 68.65 68.03 66.34 63.60 63.26 65.22 63.37 66.92 66.40 66.31 66.46 66.51 67.10
70.99 72.46 72.84 73.74 73.59 73.27 72.47 72.41 72.52 72.71 73.55 73.10 72.18 70.62 69.54 70.00 69.99 70.36 69.76 69.60 69.56 69.60 69.52 69.77 69.54 69.06 68.64 68.33 68.33 68.26 67.56 67.02 63.09 62.62 63.07 63.26 63.98 67.39 66.88 65.80 65.46 65.65 66.27
71.54 72.21 72.39 72.76 73.32 73.23 72.30 72.21 72.53 72.77 73.46 73.48 72.85 71.05 69.54 69.16 69.39 69.57 69.73 69.63 69.60 69.57 69.48 69.19 68.91 68.46 67.77 67.10 67.07 66.84 66.86 65.35 63.69 62.56 63.25 63.90 67.60 67.26 66.78 65.74 65.18 65.20 65.21
71.96 71.45 71.26 71.89 72.01 71.71 71.68 71.47 72.23 72.59 72.93 73.57 72.87 71.91 70.85 69.60 69.27 69.01 69.22 69.53 69.45 69.26 69.06 68.82 68.36 67.80 67.12 66.07 65.39 65.99 65.84 65.41 60.34 62.52 64.15 64.11 68.36 67.26 66.27 65.58 64.84 64.42 64.44
71.32 71.33 71.11 70.00 69.90 69.00 68.75 70.65 71.20 71.40 71.78 71.88 71.84 70.71 69.60 68.82 68.79 69.84 69.51 69.51 69.15 68.87 68.60 68.33 67.96 67.41 66.52 65.51 65.72 65.99 64.65 63.10 59.91 61.83 62.64 64.39 68.13 67.29 66.16 65.10 64.62 64.07 63.68
70.03 70.16 69.67 68.26 67.87 67.45 67.05 68.68 69.69 69.89 70.34 70.21 69.82 68.30 67.57 67.11 67.41 66.97 66.59 68.29 69.24 68.88 68.39 68.04 67.59 66.87 66.44 65.48 65.22 64.87 63.77 58.48 57.99 60.24 62.13 67.73 68.14 67.34 66.47 65.06 64.23 63.59 63.09
66.76 68.63 68.94 67.74 67.09 66.64 67.35 65.72 66.35 67.74 67.49 67.39 67.49 66.24 65.73 65.34 65.83 66.69 65.42 66.75 68.60 68.69 68.50 68.08 67.80 67.35 64.96 60.00 59.57 62.19 58.99 57.42 57.23 59.47 61.47 67.86 67.63 67.46 67.23 65.98 64.53 63.60 62.77
66.67 68.04 68.52 67.75 67.02 66.40 64.86 63.40 63.87 65.08 65.24 65.47 65.36 64.96 64.48 64.78 64.41 64.91 64.09 64.51 64.09 64.87 64.33 65.89 64.86 63.92 61.36 60.27 59.45 58.73 58.28 57.55 55.67 56.93 62.50 66.95 67.58 66.65 67.30 67.97 66.21 64.65 63.49
65.31 67.01 67.96 68.42 67.11 66.24 64.72 62.97 61.70 63.18 63.68 63.99 64.25 64.01 63.01 62.53 63.43 63.24 62.77 62.73 62.32 63.06 61.64 61.60 62.09 61.97 62.07 61.54 60.06 58.66 57.91 56.67 56.06 56.20 58.03 65.29 67.31 66.96 66.60 67.08 68.37 67.06 65.45
61.85 67.09 67.30 67.20 67.61 67.05 65.19 64.32 62.92 60.80 61.72 63.32 63.39 63.95 61.56 61.68 62.21 62.31 62.00 61.73 61.60 61.85 61.75 61.04 61.00 61.21 61.41 61.86 60.71 59.54 59.26 57.97 57.11 56.55 55.97 61.74 65.28 67.24 66.91 66.50 67.06 68.22 68.10
66.17 66.90 68.02 68.17 67.62 67.71 66.64 65.12 65.09 64.16 63.16 60.53 60.90 62.07 61.03 60.80 59.61 58.93 58.76 61.02 61.00 61.07 61.95 59.83 60.19 59.79 58.59 60.17 60.74 60.65 59.80 59.33 59.04 58.78 57.70 57.32 63.64 65.43 67.21 66.54 66.73 67.18 67.82
66.29 66.87 66.89 67.87 67.90 67.19 66.94 66.36 66.03 66.81 66.15 63.60 61.51 61.67 61.98 61.24 59.79 59.60 58.39 58.10 58.91 58.32 58.18 57.10 57.22 58.76 60.20 61.13 60.87 61.54 61.59 61.27 61.15 60.81 60.82 60.68 60.40 62.69 65.01 66.63 67.17 67.09 67.34
66.36 66.35 67.08 69.01 68.01 67.41 67.00 67.48 66.16 66.42 65.84 65.57 64.17 64.68 63.72 63.56 62.14 61.17 60.79 60.81 61.38 60.01 58.36 58.37 59.38 60.04 60.42 60.74 60.86 61.56 61.81 62.51 63.26 62.49 63.28 62.63 61.94 61.24 62.06 65.23 67.16 67.54 67.22
65.44 65.67 66.73 67.61 66.97 67.45 68.16 67.92 67.72 66.74 66.24 66.08 66.47 65.93 65.53 64.26 63.95 62.45 61.66 61.60 62.28 62.67 61.84 60.99 61.25 62.33 62.61 62.94 62.69 63.40 63.51 63.44 62.98 63.18 62.59 62.04 61.82 61.68 60.30 61.69 63.47 64.38 65.31
64.91 66.12 66.63 67.18 67.53 67.20 66.81 67.07 67.43 67.41 66.86 66.31 65.84 66.19 65.70 65.56 64.41 63.51 63.15 62.86 63.14 62.78 63.15 64.25 63.80 63.98 63.44 63.38 63.68 63.49 62.55 62.43 61.95 61.71 61.63 62.39 61.58 61.58 61.61 60.70 60.46 60.48 62.12
63.70 63.49 64.92 66.06 66.63 66.59 65.75 65.67 65.21 64.98 65.61 66.04 66.96 66.85 66.00 66.51 65.97 65.15 64.29 63.93 64.68 64.38 64.30 64.21 63.68 63.17 62.95 63.31 62.50 61.42 60.12 60.58 60.65 60.84 60.83 60.66 60.71 60.80 60.09 58.60 57.71 57.68 57.88
62.75 62.89 63.67 65.42 65.17 65.92 65.84 65.47 65.32 64.51 64.66 64.75 66.67 65.95 66.42 66.79 66.75 65.84 65.57 64.94 64.86 64.82 65.05 64.96 64.79 63.67 63.72 63.60 60.92 59.73 55.51 55.77 56.42 57.06 57.22 58.20 58.45 57.82 57.91 57.46 56.26 55.78 55.58
57.31 62.09 64.32 65.06 65.69 66.23 65.55 64.93 63.98 64.16 64.12 63.79 64.12 64.75 65.57 66.08 66.51 65.47 65.34 65.54 65.50 65.20 64.38 64.45 64.24 63.42 62.07 62.17 61.99 59.81 55.03 51.22 53.21 56.11 55.97 56.07 55.36 54.89 56.01 55.58 55.52 54.80 53.55
51.86 56.20 62.46 64.00 64.46 65.16 64.30 64.18 63.56 62.86 62.44 62.78 62.57 62.78 61.19 61.16 60.79 61.63 61.64 63.29 63.90 63.91 62.83 62.78 62.79 62.11 60.92 58.64 56.92 58.12 57.17 57.67 53.73 52.84 54.34 55.19 55.13 54.76 54.17 54.19 53.03 52.10 50.09
48.76 48.34 52.85 57.81 62.34 63.08 63.49 64.33 63.50 61.31 61.29 60.63 60.39 59.13 57.27 57.83 57.76 57.27 57.60 57.06 55.78 56.59 56.10 55.36 55.07 54.65 55.55 55.66 55.04 54.04 52.49 52.41 53.15 52.68 50.27 51.27 53.16 54.07 54.05 52.84 51.39 48.90 49.12
49.72 49.42 49.47 51.63 55.14 58.45 60.73 62.01 62.68 62.33 59.50 57.34 56.88 56.47 55.30 55.48 55.63 55.14 55.48 54.21 54.04 53.93 53.77 53.68 53.19 52.95 53.44 53.63 53.60 53.12 52.63 51.43 50.76 50.54 49.55 50.18 50.19 51.36 51.00 50.94 50.12 48.38 47.87

GFSSE_sfc_wetblb_081.txt.gz
Wetbulb
70.06 72.27 74.83 75.00 74.34 74.22 73.99 73.66 72.26 72.35 72.74 72.09 72.51 73.22 73.56 73.61 73.64 73.50 73.09 72.46 71.91 71.02 70.99 70.70 70.51 70.96 71.54 71.59 71.77 71.43 71.06 70.07 70.53 71.33 71.42 71.93 71.03 70.23 69.92 69.40 69.01 68.28 68.86
71.55 72.67 74.49 74.96 74.67 74.09 73.89 73.48 72.13 72.84 73.36 73.01 72.08 72.56 73.45 73.40 73.51 73.52 72.68 71.95 71.34 71.02 71.24 70.98 70.90 71.48 71.45 71.30 70.94 70.64 70.39 70.70 71.13 70.44 70.04 69.82 70.09 70.43 71.12 70.74 71.02 69.68 70.47
71.88 72.86 73.35 74.61 74.59 74.04 73.49 72.98 71.62 72.13 72.96 72.05 70.87 71.69 72.75 73.35 73.38 73.42 72.11 71.34 70.64 70.72 70.90 71.00 71.27 71.10 71.44 71.11 70.47 70.55 70.62 70.45 70.03 68.64 68.13 65.38 65.93 69.19 68.81 68.86 68.48 69.65 70.22
72.18 72.68 72.66 74.24 74.01 73.52 73.19 72.33 71.16 72.55 72.28 71.39 70.30 70.49 71.70 72.54 72.74 72.18 71.24 70.72 70.34 70.37 70.35 70.46 70.67 70.90 70.29 70.21 71.07 71.46 70.86 70.07 68.55 67.04 63.90 63.49 64.05 67.12 67.26 68.03 68.11 68.13 68.70
71.84 72.52 72.78 74.00 73.67 73.32 72.71 71.80 71.14 72.82 72.11 71.12 70.29 70.54 70.98 71.61 71.27 71.07 70.29 70.08 69.86 69.91 70.01 69.95 69.84 69.79 69.70 70.20 70.89 70.53 69.86 68.78 67.20 64.56 62.23 61.90 61.89 65.63 67.11 67.00 67.19 67.64 67.70
70.60 71.88 72.86 73.35 73.26 73.07 72.34 71.65 71.69 72.92 71.92 70.75 69.79 70.54 71.14 70.97 70.63 69.98 69.72 69.58 69.57 69.64 69.73 69.38 69.20 69.13 69.24 69.64 69.59 69.99 69.31 67.84 65.52 62.68 63.04 64.56 62.62 66.68 66.37 66.13 66.24 66.61 67.27
70.46 71.87 72.06 73.37 73.13 72.22 71.77 71.64 72.42 73.22 72.21 70.89 69.78 70.06 70.24 70.77 70.08 69.57 69.22 69.26 69.41 69.47 69.42 69.07 68.85 68.69 68.62 68.87 68.67 68.46 68.48 66.21 62.25 62.24 62.31 62.54 63.49 67.25 66.68 65.92 65.64 65.92 66.39
70.59 71.50 71.59 71.94 72.78 72.31 71.79 72.01 72.24 72.99 72.81 71.58 70.23 69.76 69.90 70.38 69.95 69.49 69.16 69.25 69.39 69.36 69.46 69.39 68.98 68.37 67.58 67.53 67.68 67.40 66.46 65.86 62.98 62.07 62.52 62.90 67.19 67.14 66.50 65.71 65.31 65.36 65.48
70.81 70.42 70.36 71.21 71.29 71.51 71.49 71.74 72.26 73.01 73.16 72.39 71.18 70.06 70.00 69.87 69.78 69.46 69.40 69.27 69.34 69.32 68.99 68.55 68.09 67.42 66.77 66.22 65.98 66.19 65.89 64.63 61.10 62.04 63.78 63.67 68.11 66.76 66.19 65.40 65.05 64.77 64.36
68.75 70.04 69.58 69.69 69.32 68.52 68.65 70.73 71.07 71.55 72.16 71.99 71.05 69.82 68.47 68.23 68.69 69.54 69.24 69.53 69.22 68.87 68.59 68.16 67.54 66.77 66.10 65.49 65.36 65.01 64.23 63.34 59.38 61.75 62.27 63.26 67.47 66.54 65.70 65.15 64.59 64.32 63.79
69.81 69.76 68.76 67.51 67.06 66.52 66.81 69.02 70.00 70.30 70.26 70.48 69.46 67.96 66.92 65.64 66.34 66.96 66.86 68.17 69.04 68.66 68.05 67.71 67.06 66.53 66.54 64.68 64.90 64.73 62.96 57.54 57.10 59.32 61.48 65.32 67.82 66.59 65.95 64.86 64.20 63.62 63.03
67.57 68.77 68.44 67.31 66.62 65.85 67.52 66.72 66.40 68.07 68.03 68.48 68.00 66.42 65.49 64.96 64.86 65.64 65.02 67.06 68.68 68.63 68.29 67.71 67.36 67.25 64.78 59.38 58.73 61.06 58.09 56.67 56.49 57.95 61.20 65.49 67.92 67.07 66.69 65.70 64.40 63.53 62.75
66.64 67.54 66.65 67.04 66.85 65.58 65.04 65.19 65.48 65.75 65.70 66.37 65.61 64.95 64.34 64.48 63.96 63.89 63.21 63.95 63.73 64.83 63.72 65.04 63.67 62.93 60.63 59.65 59.02 58.15 57.81 56.73 55.37 56.10 61.26 65.32 67.63 67.27 67.01 67.67 66.32 64.91 63.83
65.52 66.28 67.08 67.28 66.48 65.93 64.15 63.97 64.65 64.80 64.73 64.55 64.62 64.40 62.94 62.49 62.60 62.88 62.51 62.12 61.63 62.00 60.76 60.40 60.88 60.83 60.92 60.81 59.76 58.97 58.05 56.84 55.47 55.44 56.42 63.42 67.19 67.30 66.88 67.08 68.31 67.44 66.22
62.85 63.17 62.84 66.79 66.18 66.03 64.10 62.87 62.35 62.84 63.59 64.41 63.91 63.90 63.07 61.92 62.07 62.47 62.03 61.37 61.11 60.93 60.86 59.78 59.92 60.26 60.35 60.79 61.44 59.84 58.79 58.25 57.22 56.45 55.68 59.41 64.98 67.12 67.25 66.98 67.19 68.06 68.66
60.24 61.31 62.88 66.36 67.02 66.36 64.92 63.76 62.18 61.02 62.42 62.49 62.89 63.52 62.84 61.51 61.94 62.31 61.91 61.32 60.66 60.67 61.11 60.66 59.71 59.88 59.51 58.29 59.55 59.71 59.30 58.89 58.47 58.36 58.09 57.27 61.33 65.15 67.19 66.74 67.33 67.55 68.00
60.00 62.07 65.98 66.26 67.44 66.73 66.14 65.45 64.00 63.68 62.54 61.48 61.57 62.11 62.53 60.51 60.87 61.06 59.89 58.70 60.68 60.64 60.38 59.92 56.98 56.71 57.69 59.89 60.07 60.89 61.01 60.83 60.78 60.59 60.57 60.47 60.99 61.98 64.64 66.56 67.68 67.64 67.83
64.50 64.74 66.86 67.71 67.48 67.15 66.74 66.70 66.09 65.75 65.29 64.48 62.38 60.96 62.09 61.12 60.21 58.79 58.42 57.88 58.86 58.21 57.34 56.51 56.90 58.02 58.96 59.77 60.12 61.03 61.30 61.56 62.05 62.84 62.00 61.88 61.98 61.12 62.15 64.65 67.13 67.86 67.97
65.47 65.87 66.16 66.65 67.13 67.08 67.22 67.26 66.43 66.49 66.08 65.15 64.21 62.90 62.76 62.57 62.05 60.87 60.47 60.48 61.06 60.52 59.30 58.68 58.92 60.24 61.60 62.24 62.62 62.77 63.33 63.28 63.40 63.31 61.91 61.96 61.79 61.30 60.46 61.32 63.22 64.56 65.61
66.05 66.31 65.65 65.92 66.69 66.99 66.15 65.55 65.15 66.81 66.47 65.85 66.00 65.08 65.12 64.65 63.93 62.22 61.61 61.16 61.36 61.72 61.97 61.94 61.63 62.59 63.00 62.89 63.23 63.29 63.32 62.90 61.99 61.17 61.25 61.52 60.95 61.20 61.23 60.89 60.03 60.46 62.52
64.59 65.24 65.98 65.81 65.87 66.38 66.01 65.44 65.28 65.10 65.99 65.65 65.48 66.10 65.78 65.45 64.52 64.13 63.06 62.11 62.28 61.97 62.12 62.97 63.43 62.90 62.61 63.01 61.08 60.70 60.11 60.36 59.41 59.81 59.40 59.26 59.14 60.49 59.90 60.01 58.86 59.13 60.76
62.39 64.47 64.94 65.40 66.02 66.41 66.34 66.20 65.65 65.57 64.51 64.47 66.10 66.27 66.20 65.67 65.69 64.98 64.45 63.49 63.84 63.47 63.96 63.80 64.00 63.39 63.24 63.75 60.80 59.86 56.27 55.24 55.84 56.01 56.22 56.69 56.64 56.86 57.24 56.98 56.68 56.97 57.62
59.93 61.82 63.92 64.88 65.89 65.61 66.20 63.99 63.46 63.54 63.55 63.07 63.81 65.02 65.24 65.33 65.77 65.42 64.89 64.84 64.45 64.83 64.16 64.31 64.27 63.58 62.04 62.03 61.92 60.26 55.04 50.67 53.04 56.36 55.43 55.45 54.79 54.05 53.92 54.11 54.47 55.39 54.15
52.60 59.31 62.63 63.15 63.90 64.71 64.26 63.82 62.87 61.86 61.58 62.40 62.87 62.92 62.92 63.45 63.33 64.22 63.94 63.80 63.38 63.16 62.16 62.42 62.29 61.36 61.60 59.73 57.60 57.40 57.09 57.58 53.71 50.86 53.50 54.04 54.65 53.44 52.68 53.07 52.59 51.73 51.65
50.37 51.88 58.51 60.67 62.58 63.65 63.62 64.20 63.52 61.59 62.05 61.37 60.73 60.45 59.78 60.01 60.29 60.63 60.57 60.25 59.95 58.72 57.93 57.34 55.80 55.38 56.28 55.60 54.25 53.47 52.43 51.74 52.58 52.89 50.95 51.04 52.67 53.33 52.80 52.61 51.30 49.77 50.00
47.02 48.16 49.98 54.77 58.52 60.26 61.26 62.08 62.94 62.01 61.05 59.30 58.47 58.95 57.58 56.78 57.04 55.68 55.31 55.06 55.06 55.65 56.24 55.04 54.49 53.11 52.43 52.25 52.37 52.14 51.90 50.65 48.86 48.56 49.38 48.72 48.90 49.54 48.93 48.98 47.92 47.21 48.96

GFSSE_sfc_wetblb_084.txt.gz
Wetbulb
69.22 71.74 74.77 74.81 74.15 73.87 73.72 72.49 72.42 71.72 73.06 73.08 73.92 74.37 74.22 73.89 73.57 73.18 72.65 71.80 70.95 70.67 70.89 71.39 71.99 72.31 71.85 71.28 71.00 70.49 71.17 71.92 71.62 71.22 71.14 70.87 70.66 71.21 71.38 70.79 70.31 67.60 68.93
70.59 72.33 74.51 74.73 74.57 73.94 73.59 72.15 72.81 72.65 73.03 73.16 73.73 73.92 73.93 73.78 73.50 73.02 72.44 71.45 71.02 71.04 70.56 71.35 71.62 71.55 71.11 71.09 70.94 71.01 71.72 70.87 70.00 69.71 69.22 68.86 69.62 69.97 69.83 69.66 71.20 67.93 70.33
71.22 72.33 72.80 74.29 74.24 74.08 73.41 72.00 72.43 72.97 72.35 72.65 73.21 73.82 73.55 73.59 73.51 72.50 71.70 71.08 71.04 71.07 71.05 71.70 71.07 70.88 71.22 70.75 70.83 70.94 70.96 69.78 69.06 68.32 67.32 63.45 64.43 68.40 68.66 68.36 68.60 69.38 69.81
71.62 72.13 72.05 73.94 73.98 73.53 73.08 71.58 72.40 72.45 70.96 71.26 72.72 72.94 73.34 73.38 73.00 71.85 71.20 70.67 70.90 70.97 71.17 71.15 70.78 70.49 70.59 71.38 71.15 70.85 70.17 68.84 67.46 66.04 62.43 62.35 63.55 67.28 67.67 68.01 68.04 68.24 68.37
71.40 71.95 72.15 73.76 73.60 73.37 72.42 71.20 72.40 72.44 70.94 70.33 71.75 72.84 72.94 73.07 72.30 71.64 70.67 70.37 70.37 70.44 70.73 70.89 70.48 70.22 70.84 71.25 70.98 70.23 69.23 67.75 66.36 63.87 61.81 61.32 61.63 66.16 67.36 67.16 67.24 67.69 67.58
70.97 71.28 72.74 73.41 73.05 73.08 72.33 71.73 72.48 71.88 70.84 69.73 70.21 71.59 72.54 72.32 71.13 70.67 70.05 69.92 70.17 70.34 70.26 70.16 69.78 69.84 70.02 70.74 70.35 69.82 68.69 66.97 64.96 62.20 62.29 63.93 62.31 66.93 66.67 66.56 66.87 67.14 67.33
70.84 71.15 71.43 72.85 72.93 72.40 71.58 71.62 72.39 71.81 70.55 69.68 69.83 70.19 70.79 71.24 70.25 69.93 69.58 69.57 69.64 69.63 69.60 69.51 69.27 69.20 69.29 69.19 69.33 69.36 67.44 65.56 61.97 61.52 61.63 62.13 63.37 67.28 66.94 66.28 66.07 66.03 66.92
70.24 70.68 70.82 71.79 72.40 72.12 71.45 71.69 72.29 72.55 70.76 69.68 70.26 69.86 70.37 69.82 69.52 69.37 69.27 69.31 69.39 69.35 69.12 68.99 68.79 68.30 68.16 68.25 68.01 67.90 67.04 65.24 62.55 61.63 61.96 62.46 67.27 67.11 66.60 66.06 65.65 65.49 65.69
70.32 69.90 69.81 70.48 70.84 71.18 71.44 71.71 71.94 72.53 71.89 70.71 70.33 70.45 70.34 69.56 68.86 68.94 68.95 69.21 69.28 69.20 69.09 68.71 68.07 67.47 66.97 66.69 66.63 66.39 65.82 64.98 60.61 61.56 63.37 63.11 67.69 66.65 66.20 65.60 65.45 65.21 64.76
69.34 69.49 69.66 69.44 68.78 68.13 68.42 70.67 70.86 71.35 71.39 70.69 69.79 69.27 68.46 68.27 68.49 68.55 67.91 69.28 69.27 68.93 68.55 68.07 67.62 66.97 66.22 65.56 65.37 65.12 64.32 63.18 59.24 61.14 61.73 62.53 67.10 66.25 65.72 65.24 64.87 64.62 64.17
67.44 68.47 68.47 67.29 66.57 66.24 67.05 68.80 69.96 70.54 70.48 69.87 68.76 67.12 66.29 64.99 65.84 66.42 66.66 68.00 69.06 68.63 68.03 67.49 66.93 66.26 65.60 63.74 64.27 64.46 61.55 57.10 56.49 58.34 61.10 64.39 67.86 66.41 65.71 64.85 64.28 63.89 63.49
66.70 66.88 67.47 66.49 65.83 65.82 68.46 66.53 66.61 68.93 69.80 69.38 66.97 65.33 64.40 63.88 64.29 65.62 65.10 67.00 68.50 68.41 68.21 67.25 66.90 66.89 63.76 58.81 58.06 60.08 57.11 56.16 55.86 56.76 60.71 64.89 67.79 67.38 66.70 65.78 64.66 63.81 63.07
67.34 67.91 67.09 66.27 65.68 65.22 66.12 65.42 65.25 66.01 67.05 68.31 67.07 65.13 64.24 64.04 63.20 62.68 62.32 63.59 63.19 64.38 63.11 64.02 62.63 61.99 59.84 58.96 58.68 57.77 57.50 56.52 55.53 55.31 58.92 64.73 66.91 67.91 67.14 67.83 66.85 65.50 64.43
65.88 66.59 66.62 66.54 65.66 64.56 65.10 65.41 65.30 65.61 65.48 66.47 66.26 64.78 63.04 62.42 62.17 61.88 61.61 61.49 61.08 61.46 60.26 59.59 59.94 59.71 59.77 59.91 58.88 59.33 58.17 57.19 55.86 55.18 55.93 61.02 65.39 67.54 67.54 67.22 67.96 68.05 66.94
65.50 66.17 66.58 66.54 65.93 65.43 62.86 63.45 64.75 64.31 64.20 64.61 64.62 64.27 63.30 62.18 61.96 62.14 62.01 61.23 60.74 60.32 60.09 58.87 58.68 59.25 59.27 59.80 60.43 60.40 59.67 58.50 57.87 56.94 55.94 59.25 61.42 66.08 67.28 67.44 67.53 67.80 68.88
65.05 65.40 66.80 66.56 66.30 65.90 64.11 62.62 61.72 62.87 63.50 63.82 63.44 63.73 63.41 62.68 62.38 62.37 61.90 61.32 60.41 60.24 60.14 60.05 59.24 59.37 59.42 58.45 58.29 59.42 59.30 58.99 58.73 58.39 58.49 58.34 61.17 62.81 65.35 67.07 67.52 67.95 68.28
64.24 63.39 63.35 65.56 66.36 65.86 65.55 64.87 62.57 61.61 62.93 63.45 62.99 62.96 63.14 62.25 61.48 61.63 61.62 60.95 60.70 60.25 60.01 60.07 59.34 57.05 56.97 57.95 58.98 60.19 60.57 60.53 60.55 60.45 60.69 60.67 60.97 61.75 63.30 65.79 67.18 67.71 68.14
61.10 61.88 64.24 64.64 64.74 64.12 65.74 65.70 65.20 64.58 62.56 61.37 61.40 62.24 62.77 63.05 60.93 60.43 60.52 59.85 59.17 59.58 59.45 58.08 57.33 55.80 56.63 58.27 59.21 60.32 60.87 61.24 61.85 62.48 62.83 62.61 61.49 61.93 62.45 64.47 65.92 67.11 67.98
61.28 62.25 64.42 65.27 65.34 65.37 66.17 66.56 65.98 65.76 65.25 64.49 62.87 60.62 60.95 62.33 60.98 60.04 59.67 58.76 58.01 58.08 57.14 56.80 56.65 57.77 58.49 59.63 61.29 62.48 62.65 63.03 63.23 63.32 62.41 61.66 61.31 61.20 60.97 62.15 62.54 63.59 65.14
64.27 64.30 65.30 65.51 65.94 66.05 66.57 66.18 64.71 65.66 65.61 65.78 64.63 63.27 62.23 62.23 61.81 60.46 59.92 59.46 59.91 60.17 59.62 59.27 58.39 59.27 60.13 61.88 62.75 62.80 61.95 62.11 61.85 60.16 59.88 60.26 59.82 60.29 60.53 60.54 59.96 59.88 62.30
64.74 64.81 64.89 64.86 65.32 65.67 64.92 64.34 63.01 61.64 64.44 65.15 64.37 65.09 64.75 64.40 63.83 62.77 61.67 61.37 60.57 60.59 61.15 61.49 61.72 61.56 62.43 62.91 61.75 59.72 59.13 59.53 58.71 58.18 57.52 56.95 57.16 58.16 58.82 59.00 58.65 58.44 59.89
63.53 64.37 64.31 64.67 64.87 64.79 65.16 64.79 64.23 64.29 64.82 65.15 65.14 65.09 64.69 64.83 64.60 63.89 63.47 62.77 61.65 61.81 61.51 62.01 63.08 62.80 62.85 62.33 59.45 57.84 54.65 55.04 55.14 55.83 55.44 55.17 54.36 55.45 56.65 56.71 56.56 56.16 56.66
60.93 62.49 64.13 64.80 64.31 63.94 65.21 64.72 63.51 63.56 63.53 63.54 64.15 64.18 64.75 64.86 64.58 64.47 63.85 64.00 63.44 63.36 62.43 62.93 62.77 62.79 61.21 60.67 61.46 59.02 54.48 50.58 51.85 55.88 54.99 55.15 53.82 53.45 53.25 53.55 53.93 54.79 54.59
54.40 60.74 62.37 62.35 63.38 64.62 64.70 63.88 63.49 62.35 61.87 63.61 63.52 63.41 63.40 62.64 63.19 63.56 64.16 63.89 63.67 63.20 62.88 62.71 62.08 61.20 60.46 58.55 56.50 56.71 55.81 56.70 54.89 50.51 52.92 54.06 53.35 52.94 51.90 52.18 52.08 51.52 51.37
49.93 52.86 59.59 60.94 61.73 62.85 62.37 62.92 62.51 61.49 62.28 61.63 61.38 62.08 61.97 61.39 61.54 61.78 61.48 61.85 62.58 61.00 58.85 58.88 58.22 57.97 58.15 57.43 56.14 54.15 53.19 50.79 51.47 53.13 48.09 49.29 51.53 51.46 51.03 50.87 50.08 49.03 50.25
47.70 48.91 52.32 56.58 58.29 60.09 60.79 61.22 61.28 61.28 60.29 59.28 59.51 59.52 58.60 58.04 58.15 59.33 59.23 57.93 57.64 57.40 57.39 57.38 56.23 54.97 53.59 52.15 51.71 51.34 51.07 49.65 47.64 47.17 49.03 48.70 47.60 49.27 48.36 48.23 47.35 47.06 47.94

GFSSE_sfc_wetblb_087.txt.gz
Wetbulb
70.60 73.09 74.69 74.76 73.82 73.40 72.89 72.04 72.26 73.33 73.82 74.07 74.08 74.35 74.15 74.01 73.75 73.01 72.15 71.30 71.19 72.04 71.71 72.48 72.76 71.96 71.62 71.28 71.20 72.54 72.01 71.51 71.22 70.87 70.78 71.38 71.62 70.83 71.14 70.67 70.38 69.25 69.65
71.76 73.20 74.09 74.68 74.39 73.87 72.67 72.95 72.49 72.97 73.33 73.75 74.78 74.19 74.19 74.08 73.46 72.67 71.77 71.25 71.00 71.49 71.89 72.45 72.12 71.38 71.35 71.24 71.90 71.98 71.03 70.58 70.09 69.25 68.95 69.17 70.14 69.76 69.70 70.07 71.07 70.38 71.41
71.88 73.01 73.31 74.48 74.46 74.21 72.47 72.83 72.05 72.57 72.89 73.79 74.17 74.01 74.11 73.79 73.33 72.19 71.67 71.35 70.92 71.21 71.96 71.58 71.09 70.90 71.17 71.20 71.26 70.98 70.07 69.12 68.49 67.48 67.05 66.92 67.87 68.70 68.59 68.89 69.46 70.33 71.15
72.31 72.97 73.03 73.93 74.06 73.90 72.22 72.66 72.49 72.18 72.26 72.90 73.63 74.03 73.69 73.83 72.71 71.85 71.32 71.36 71.30 72.10 71.44 71.38 70.47 70.96 71.26 71.01 70.90 70.24 68.89 67.65 66.79 66.16 66.09 66.52 66.43 67.95 68.36 68.30 68.46 68.17 68.98
72.15 72.86 72.82 73.60 73.79 73.64 72.20 72.88 72.69 71.41 71.25 72.37 72.71 73.56 73.46 73.42 72.25 71.15 71.07 71.57 72.01 71.67 71.27 70.54 70.83 71.50 71.58 71.77 70.45 69.46 67.92 67.13 66.26 66.36 66.39 66.78 66.98 67.15 67.58 67.77 67.92 67.91 68.17
71.74 72.74 72.96 73.26 73.52 72.99 72.39 72.72 72.74 70.97 70.48 71.11 72.34 72.51 72.90 73.01 71.81 70.76 70.70 71.22 71.20 70.82 70.60 70.41 70.66 70.95 71.66 70.76 70.18 68.95 67.46 66.87 66.11 66.78 66.93 67.17 67.18 67.32 67.29 67.23 67.34 67.46 67.68
71.37 72.44 72.39 73.22 73.24 72.72 72.37 72.79 72.63 70.93 69.99 70.09 71.37 72.26 72.65 71.55 70.85 69.95 69.67 70.16 70.27 70.31 70.39 69.95 70.03 69.91 69.87 70.17 69.96 68.29 66.87 65.49 66.13 66.48 66.87 67.33 67.31 67.38 67.34 66.76 66.36 66.53 66.99
70.86 71.79 71.92 71.86 72.67 72.25 72.03 72.61 72.24 70.56 69.84 70.14 71.15 71.58 71.59 70.15 69.96 69.09 68.99 69.21 69.68 69.90 69.87 69.52 69.17 68.99 68.95 68.70 69.05 68.19 66.31 65.38 65.45 66.25 66.77 67.38 68.01 67.22 66.82 66.47 65.99 65.82 65.72
71.26 70.99 71.23 71.70 71.47 71.01 71.57 71.88 71.96 71.14 70.57 70.62 69.75 70.81 69.65 69.99 68.99 68.89 68.61 68.96 69.63 69.57 69.48 69.09 68.28 67.80 67.66 67.60 67.27 66.66 66.52 64.57 66.35 66.41 66.06 67.56 67.73 66.89 66.38 66.06 65.75 65.41 65.01
70.46 70.43 70.64 70.70 70.27 70.20 71.05 70.76 71.11 70.75 70.04 70.19 69.71 69.44 67.91 67.43 67.51 68.63 67.99 69.61 69.54 69.26 68.89 68.36 67.77 67.15 66.45 65.83 65.36 65.07 65.04 63.47 66.12 66.33 66.84 67.33 67.20 66.24 65.85 65.46 65.20 64.90 64.44
68.74 69.11 69.68 69.21 69.25 69.52 70.56 70.35 70.50 70.28 69.44 68.79 68.34 67.06 67.23 68.09 67.66 67.12 67.10 68.23 69.26 68.86 68.36 67.88 67.31 66.26 64.61 63.54 64.40 64.32 62.26 63.97 63.93 64.62 66.64 64.62 67.48 66.64 65.77 64.97 64.52 64.20 63.67
65.12 67.79 68.97 68.52 68.10 68.56 69.38 70.59 71.10 70.98 70.26 68.84 67.98 67.98 67.92 68.16 68.36 67.78 66.52 67.11 68.65 68.39 67.99 67.46 67.04 66.09 64.09 64.18 64.06 61.94 63.68 63.09 63.08 63.48 65.12 64.55 66.59 67.89 67.00 66.09 64.99 64.22 63.52
66.48 66.87 67.62 66.85 67.17 67.74 68.32 68.77 69.43 70.43 70.49 68.89 68.13 67.24 67.07 66.90 67.23 67.31 67.68 68.03 68.29 66.09 67.44 67.28 66.93 66.45 64.33 64.51 64.49 64.47 63.79 63.35 63.48 62.89 62.56 63.48 66.38 67.78 67.78 67.85 67.43 66.37 65.34
66.69 66.63 66.87 66.63 66.35 67.10 67.76 67.39 67.88 68.31 69.72 68.35 67.64 67.22 66.50 65.79 65.82 65.64 65.88 66.36 66.07 66.57 65.66 65.60 65.46 64.91 64.37 64.39 64.83 65.08 64.90 64.39 64.34 63.59 63.02 60.37 62.86 66.67 67.99 67.83 67.82 68.68 67.78
65.70 65.50 65.83 66.47 66.08 66.30 66.74 66.83 67.50 67.91 68.26 69.20 67.82 67.01 66.47 65.81 65.60 65.91 65.65 65.70 65.67 65.44 65.16 64.29 63.60 63.66 64.24 64.52 65.06 65.11 65.38 65.13 64.74 64.81 64.41 59.93 61.19 63.20 66.59 67.75 68.03 68.24 68.69
64.37 66.02 66.59 65.86 66.21 65.53 65.83 66.33 66.83 67.18 67.56 68.16 67.81 67.12 66.42 65.87 65.78 65.73 65.89 65.84 65.53 65.26 64.98 64.68 63.91 63.94 64.27 64.35 63.66 63.92 64.78 64.95 65.18 65.01 65.31 65.45 61.92 63.16 64.58 66.77 67.60 68.06 68.60
64.82 65.81 66.88 66.45 66.76 65.71 64.70 65.31 65.97 66.68 66.62 66.44 67.01 67.59 66.65 65.80 65.95 66.01 65.74 65.55 65.88 65.16 64.36 63.97 64.14 63.59 62.80 62.87 62.71 63.90 64.91 65.49 65.74 66.05 66.10 66.38 65.93 62.30 63.64 65.81 67.45 67.84 68.38
64.70 63.75 64.70 66.87 66.84 66.35 66.03 65.70 64.50 64.75 66.03 66.52 66.59 66.78 66.16 65.99 66.20 65.53 65.17 64.99 65.61 64.87 63.86 63.40 63.53 62.80 61.06 61.22 62.69 64.42 65.41 65.76 66.15 65.48 64.61 64.96 66.16 65.93 64.95 64.45 65.59 67.01 67.88
62.96 62.90 62.90 64.36 64.95 65.66 66.44 66.65 66.17 64.96 63.86 63.57 64.88 65.42 65.17 66.08 65.82 65.08 64.49 64.65 64.57 63.46 62.53 62.77 62.02 61.13 61.25 62.37 63.06 64.47 65.15 64.34 65.42 65.65 66.05 65.73 65.38 65.31 65.56 64.11 62.86 63.60 65.43
62.24 63.44 63.57 64.33 64.86 65.49 66.41 67.03 67.20 66.88 66.09 66.40 64.95 63.02 62.78 64.59 65.12 64.69 64.42 64.07 63.35 61.69 61.27 61.20 60.80 61.07 62.07 63.64 63.44 63.26 65.15 66.26 66.44 66.05 64.38 63.72 64.07 63.77 64.04 64.61 65.22 64.73 61.71
62.71 62.46 63.94 64.85 65.19 65.84 65.99 65.39 64.42 64.55 65.54 66.41 66.36 66.50 66.21 65.19 64.37 63.91 63.83 61.98 61.71 61.94 62.49 62.53 62.55 62.20 62.17 63.63 64.02 63.95 63.87 64.66 64.41 64.08 63.09 62.53 62.34 62.56 62.98 63.61 64.38 64.42 64.51
62.76 63.29 64.13 64.90 65.19 65.81 65.65 65.53 65.41 65.07 66.14 66.85 66.97 66.61 66.55 66.01 65.59 64.80 63.42 62.52 62.11 62.73 62.97 63.62 64.08 64.41 64.14 64.39 63.05 62.59 58.47 60.28 61.05 61.10 61.54 60.49 60.42 61.06 61.38 61.10 62.12 62.42 63.50
62.05 62.77 63.73 63.48 64.94 66.05 64.90 65.06 64.39 64.19 64.31 63.89 64.35 65.51 66.28 65.51 65.09 64.94 65.17 65.16 64.55 63.65 63.57 63.90 64.05 63.85 62.82 63.92 63.33 61.05 57.55 55.83 57.58 60.62 60.10 60.05 59.71 59.68 59.80 59.58 59.46 59.82 60.46
61.32 63.32 64.19 63.20 64.05 64.83 64.46 64.67 63.42 62.02 61.51 62.87 63.02 63.81 64.95 64.59 64.39 64.65 64.54 64.15 64.04 63.36 62.56 61.94 61.98 62.49 62.45 61.05 60.66 58.87 59.76 60.42 57.65 55.36 57.00 57.91 57.55 57.82 57.50 57.90 57.75 56.72 56.88
54.61 57.36 61.93 62.37 62.82 63.85 64.10 64.55 63.40 62.60 63.00 63.53 63.39 63.17 63.57 63.83 64.20 64.08 64.54 64.01 62.51 61.67 61.13 60.98 60.12 59.93 60.51 59.65 58.62 57.73 58.02 57.71 57.40 54.47 51.86 53.80 56.47 56.68 55.76 55.60 55.37 55.17 54.83
50.80 51.97 55.75 60.79 61.53 62.40 62.91 63.25 63.19 62.85 62.08 61.46 61.70 61.89 62.17 61.79 61.97 62.60 63.07 63.27 63.04 61.82 60.46 59.53 58.42 57.58 56.80 56.57 56.62 56.14 55.85 54.19 52.77 52.88 51.45 52.14 52.34 53.92 54.16 53.34 52.57 52.68 53.52

GFSSE_sfc_wetblb_090.txt.gz
Wetbulb
71.50 73.91 74.81 74.86 73.97 73.43 72.35 72.19 72.86 73.45 73.98 75.10 74.95 74.17 74.10 73.79 73.55 72.61 71.85 71.80 73.54 73.57 73.07 73.27 72.38 72.53 71.56 72.77 72.75 71.80 71.18 71.09 70.91 70.62 70.38 71.43 70.91 71.26 70.27 69.89 71.88 70.49 69.87
72.54 73.99 74.46 74.63 74.26 73.22 72.49 73.11 73.96 74.03 73.82 74.93 75.16 74.38 74.22 73.86 73.23 72.28 71.62 71.40 72.99 72.76 72.98 72.38 71.57 71.44 71.64 72.85 71.80 70.83 70.66 70.01 69.34 68.71 69.53 69.33 70.08 69.72 70.08 70.09 71.95 70.91 70.66
72.57 73.79 74.13 74.13 74.43 73.88 73.59 73.01 73.02 73.18 74.17 74.84 74.77 74.79 74.29 73.77 72.93 72.11 71.43 71.95 72.20 72.82 72.58 71.21 71.39 71.24 71.78 71.99 70.61 69.87 68.91 68.50 67.56 67.18 68.10 67.32 68.11 68.73 69.13 69.28 69.51 70.53 70.86
72.69 73.73 73.83 74.02 74.50 73.84 73.69 72.75 72.92 73.08 73.43 74.60 74.46 74.37 74.48 73.69 72.61 72.19 71.49 71.54 72.37 72.17 71.77 71.04 71.12 71.21 71.22 70.90 70.11 68.49 67.60 67.07 66.35 67.06 67.18 66.66 66.41 68.22 68.39 68.48 68.71 68.97 70.40
72.20 73.59 73.59 73.91 74.23 73.65 73.45 72.88 72.78 72.74 73.20 73.56 74.12 73.92 73.87 73.79 72.29 71.78 72.11 72.45 72.54 71.86 71.40 71.01 71.67 71.47 71.15 70.48 69.30 67.78 67.44 66.86 66.16 67.84 67.49 67.80 67.33 67.56 67.69 67.47 67.94 68.11 68.84
72.51 73.36 73.19 73.54 73.74 73.30 73.58 73.60 72.34 72.20 72.77 72.87 73.29 73.33 73.68 73.10 71.79 71.83 72.25 71.99 71.98 71.61 70.95 71.27 71.48 71.52 70.89 70.24 68.73 67.76 67.43 66.48 67.54 67.58 67.61 67.43 67.58 67.46 67.49 67.42 67.45 67.65 67.78
72.33 73.11 73.16 73.41 73.72 73.09 73.59 72.98 72.02 71.67 72.24 72.69 72.87 72.88 73.08 72.05 70.97 70.58 71.06 71.30 71.03 70.87 70.45 70.75 70.86 71.01 70.59 70.17 68.73 67.61 66.68 65.30 66.97 67.12 67.59 67.75 67.72 67.37 67.11 66.68 66.38 66.70 67.07
71.84 72.03 72.87 72.39 72.76 72.66 73.10 72.64 72.01 71.34 71.58 72.46 72.55 72.67 72.25 71.64 70.59 69.99 69.78 70.35 70.60 70.31 70.24 70.07 69.89 69.60 69.45 69.89 68.80 67.40 66.16 66.24 66.62 67.17 67.37 67.61 67.44 67.00 66.70 66.27 65.93 65.74 65.74
71.95 71.87 72.07 72.38 71.66 71.59 72.20 71.85 71.27 70.96 70.98 71.64 71.97 71.88 71.17 70.72 69.95 69.83 69.61 69.90 70.15 70.23 69.81 69.20 68.75 68.66 68.49 68.11 67.95 67.36 65.95 64.46 67.87 67.41 66.61 67.72 67.45 66.70 66.29 65.86 65.56 65.33 65.32
71.04 71.39 71.16 71.52 70.91 70.28 72.39 70.62 70.11 70.13 70.33 70.61 70.55 69.57 68.56 68.27 68.85 69.25 68.69 69.73 69.58 69.85 69.32 68.56 67.89 67.33 66.85 66.47 65.93 65.53 65.38 64.99 67.82 67.87 68.00 67.47 67.14 66.13 65.80 65.38 65.20 64.89 64.61
69.11 70.16 70.75 70.82 70.02 69.33 71.66 70.81 69.85 69.46 69.14 68.64 68.32 66.75 66.71 68.48 68.44 67.93 67.84 68.20 69.62 69.24 68.62 68.07 67.44 66.27 65.42 65.19 64.62 64.09 63.34 67.15 66.83 66.92 68.02 65.29 66.96 66.83 65.84 65.05 64.62 64.29 63.86
66.85 68.42 70.04 69.80 68.57 69.18 70.65 71.30 70.83 69.15 68.50 68.88 69.59 67.56 67.99 68.25 68.43 67.82 67.09 67.81 69.00 68.77 68.39 67.51 66.80 65.58 64.05 65.02 64.78 62.78 65.63 66.25 66.03 66.17 66.84 64.99 66.29 68.21 67.55 66.59 65.58 64.87 64.19
66.24 67.84 68.79 68.22 67.69 69.11 70.26 70.82 71.01 69.96 69.46 68.00 67.47 68.61 68.33 67.97 68.43 68.25 68.43 68.18 67.90 66.09 67.08 66.95 66.74 66.00 64.75 65.85 66.30 65.94 65.87 65.36 66.08 65.99 65.03 63.41 66.23 67.37 68.25 68.09 68.03 67.06 66.06
63.25 66.45 68.21 67.53 66.47 68.48 70.77 70.72 70.90 70.41 69.65 69.25 67.92 66.21 66.20 66.25 66.78 66.68 66.68 66.96 67.00 66.73 66.34 66.30 66.04 65.90 65.32 65.63 66.46 66.75 66.70 66.92 67.42 67.68 66.59 61.70 62.57 65.63 67.60 68.26 68.23 68.79 68.55
61.93 65.59 67.51 67.32 66.54 66.85 69.51 70.23 70.49 70.41 69.82 69.40 68.91 67.70 67.20 66.22 65.41 65.61 65.33 65.66 65.81 66.24 65.63 64.90 64.56 64.19 64.98 65.96 66.76 67.13 67.30 67.67 67.68 68.30 68.07 61.55 62.03 63.66 65.37 67.24 68.32 68.60 68.75
62.77 62.73 65.27 66.58 66.56 66.52 67.25 69.20 69.71 70.26 70.44 69.85 69.49 69.13 68.74 68.02 66.96 66.40 66.27 66.91 67.81 67.77 66.77 65.93 65.50 64.93 66.18 66.50 65.95 66.27 67.11 67.85 67.92 67.91 68.45 68.25 62.96 63.73 64.92 66.75 67.87 68.42 68.69
61.78 63.16 64.99 66.26 66.62 66.50 66.23 67.19 69.10 69.54 69.61 69.99 70.17 70.07 69.45 68.54 68.01 67.72 67.74 67.87 68.12 67.86 67.07 66.62 66.42 66.11 65.80 65.56 65.29 66.10 67.02 67.68 67.86 68.03 68.19 67.94 67.42 62.68 64.04 66.40 67.62 68.34 68.75
62.17 63.10 64.07 66.45 66.27 65.67 65.95 66.82 67.00 67.54 68.52 68.96 69.37 69.79 69.61 69.16 68.72 68.13 68.00 67.69 68.21 67.80 66.87 66.33 66.04 65.53 65.14 64.10 63.98 65.82 66.98 67.44 67.40 67.24 66.89 67.02 67.09 67.22 66.00 65.74 66.02 66.72 67.67
62.41 62.83 62.98 66.72 66.42 66.62 67.22 66.91 66.17 66.97 67.34 67.64 68.42 68.81 69.06 68.79 68.39 67.71 67.07 67.33 67.47 67.27 66.58 65.84 65.52 65.15 64.12 63.91 64.78 66.26 66.62 66.21 66.47 66.44 66.78 67.01 67.07 67.07 67.02 65.27 63.78 63.53 64.38
63.34 63.18 63.37 63.72 66.65 66.81 67.55 67.74 67.34 66.03 66.31 67.09 67.24 67.71 68.12 68.01 67.96 67.29 67.08 67.15 67.06 66.59 65.91 65.17 64.73 65.14 64.52 65.57 65.22 64.96 65.67 66.43 66.85 66.82 66.82 66.44 66.36 65.80 65.62 65.80 66.30 65.84 62.50
62.85 63.18 62.42 63.52 64.85 66.08 65.97 66.14 67.12 66.08 66.24 66.92 67.79 67.53 67.03 66.42 65.98 65.91 66.59 66.44 66.73 65.88 66.20 65.81 65.11 64.23 64.76 65.24 63.52 64.24 65.03 65.82 65.54 65.54 66.06 65.21 64.51 64.45 64.71 65.07 65.71 66.03 66.35
61.15 62.79 63.17 63.39 64.26 65.51 65.67 66.13 66.44 66.91 68.02 68.18 68.61 68.10 68.15 68.09 67.85 66.82 66.15 65.53 64.58 62.65 62.91 64.89 65.22 64.99 65.72 66.54 63.09 62.93 59.93 61.52 63.43 64.04 64.58 63.66 63.67 63.76 63.54 63.51 64.00 64.52 65.75
59.89 61.89 62.94 63.52 64.18 66.18 66.50 66.79 65.73 65.58 66.76 66.44 67.44 67.68 67.93 67.84 67.81 67.14 65.97 66.18 64.24 64.43 64.56 64.95 64.75 64.01 63.50 64.60 63.85 62.19 58.43 56.54 59.13 62.70 62.36 62.59 62.39 62.43 62.59 62.20 61.79 62.30 63.18
61.31 62.62 62.54 62.89 63.57 64.08 66.64 64.86 63.36 63.42 63.17 64.59 65.46 65.87 66.25 66.46 66.52 66.70 65.89 65.34 64.67 64.08 63.28 61.84 61.01 60.52 60.64 59.68 62.02 62.17 61.83 60.32 56.45 55.50 59.29 59.90 60.62 59.41 60.23 60.92 60.36 60.60 60.71
61.89 61.93 61.90 62.55 62.65 64.03 64.13 64.62 64.00 63.59 62.90 63.18 64.13 63.94 64.73 65.27 65.55 65.57 65.64 65.34 64.73 63.45 62.44 61.78 60.52 59.92 60.08 59.38 59.87 59.35 59.11 60.09 60.89 58.43 52.52 54.13 57.27 58.36 58.93 58.47 58.37 59.09 58.79
55.00 55.59 59.45 62.70 62.77 64.03 64.21 63.78 63.51 63.24 63.70 62.68 62.58 62.63 62.94 64.37 65.12 65.17 65.54 65.86 64.77 63.61 63.17 62.24 61.68 61.26 60.60 60.60 60.12 60.28 59.35 56.01 54.55 54.61 53.17 53.55 53.31 55.16 56.70 57.21 57.18 57.23 57.21

GFSSE_sfc_wetblb_093.txt.gz
Wetbulb
71.97 73.50 74.98 74.76 73.86 73.33 72.87 72.80 72.70 73.47 75.16 75.22 74.74 74.36 74.11 73.77 73.17 72.45 72.50 73.54 73.33 73.57 73.21 72.94 73.05 72.27 73.15 72.63 71.89 71.25 71.22 70.96 70.79 70.76 70.90 71.25 71.25 70.84 71.00 72.14 71.95 69.33 70.11
73.05 73.30 74.42 74.80 74.10 73.08 72.61 72.92 73.53 73.43 74.92 74.72 75.02 74.20 74.07 73.66 72.95 72.07 72.34 73.00 73.75 73.51 72.52 72.50 72.01 72.37 72.39 71.38 70.88 70.58 70.06 69.58 68.87 69.38 69.75 69.30 70.31 70.28 70.35 70.66 71.90 70.10 70.02
72.40 73.12 73.60 74.48 74.10 73.58 73.33 73.83 73.87 73.70 74.71 74.67 74.89 74.94 73.99 73.60 72.72 71.80 72.01 73.14 73.83 73.04 71.96 70.94 70.92 72.68 71.67 70.73 69.71 68.97 68.59 67.42 66.67 67.76 67.81 66.33 67.77 69.25 69.61 69.79 71.39 71.13 71.07
72.86 73.23 72.88 74.21 74.15 73.64 73.46 73.39 73.34 74.00 74.53 74.43 74.56 74.84 73.93 73.45 72.43 71.64 72.51 73.18 73.45 72.98 71.25 71.49 71.50 71.67 70.73 69.97 68.34 67.57 67.09 66.55 65.60 66.91 66.50 65.67 66.03 68.62 68.83 69.22 69.60 70.34 71.38
72.22 72.95 72.73 74.04 74.24 73.86 73.34 73.06 73.06 73.62 74.19 74.11 73.99 73.85 73.83 73.87 72.32 71.63 72.68 73.20 73.06 72.50 71.78 71.14 71.15 71.10 70.46 69.09 67.81 67.51 66.91 66.14 66.83 68.13 67.29 67.46 66.76 67.51 68.20 68.67 68.27 69.16 69.39
71.24 71.96 72.77 73.46 73.87 73.70 73.29 73.50 73.10 73.29 73.90 73.81 73.62 73.51 73.24 73.42 72.98 72.54 72.42 72.24 71.67 71.30 71.42 72.03 71.26 71.02 70.25 68.47 67.95 67.63 66.75 66.30 67.85 67.14 66.81 67.30 66.69 67.63 67.91 67.69 67.76 67.80 68.11
70.68 71.67 72.87 73.60 73.63 73.63 73.01 73.35 73.10 73.07 73.49 73.54 73.25 73.12 73.14 72.92 71.22 70.75 72.12 71.67 71.35 71.35 71.27 71.58 71.36 70.78 70.30 68.91 68.06 67.16 65.83 66.05 66.63 66.91 67.13 66.93 66.86 67.71 67.59 67.06 66.77 66.90 66.94
71.06 71.46 72.70 72.20 72.81 73.24 73.17 72.46 72.59 72.71 72.96 73.03 73.00 72.91 72.87 72.20 71.58 70.82 71.24 71.61 71.31 70.71 70.84 70.86 70.87 70.66 70.37 69.21 68.12 67.12 65.48 66.36 66.41 66.56 67.09 66.64 67.70 67.36 67.05 66.49 66.24 66.10 65.94
70.67 70.70 71.78 72.26 71.70 71.76 72.09 71.51 71.48 72.31 72.43 72.30 72.26 72.28 71.71 70.78 70.72 70.02 70.84 71.31 71.01 70.43 70.28 70.00 69.67 69.23 69.23 69.44 68.21 66.93 65.40 65.92 66.79 66.43 66.76 66.56 67.96 67.17 66.73 66.23 65.85 65.58 65.51
68.38 70.93 70.71 71.48 71.32 70.38 71.52 70.54 70.26 70.60 70.95 71.31 71.13 70.34 69.08 68.74 69.29 70.13 69.78 70.42 70.75 70.56 69.70 68.92 68.62 68.29 67.82 67.35 66.63 66.40 66.22 65.82 66.82 66.70 66.67 66.43 66.90 66.42 66.12 65.69 65.41 65.05 64.89
62.51 61.72 68.25 70.95 69.87 69.17 71.09 69.82 69.41 69.52 69.50 69.03 68.33 67.12 67.31 67.98 68.00 67.90 67.99 68.63 69.89 69.94 68.89 68.14 67.49 66.81 66.43 66.07 65.54 65.09 64.71 66.05 65.31 65.79 66.66 67.28 67.73 66.76 65.68 65.09 64.79 64.51 63.97
59.40 60.45 61.99 70.15 68.58 68.55 70.20 69.35 68.23 67.88 67.82 67.90 68.49 67.94 67.97 67.75 67.81 67.99 66.83 67.85 69.23 69.12 68.73 67.84 66.94 65.68 64.34 64.61 63.87 63.24 64.10 65.26 64.79 65.00 66.17 66.63 66.37 68.05 67.42 66.48 65.64 65.11 64.53
60.49 60.15 59.53 68.43 68.32 67.92 69.99 69.74 68.01 66.96 66.97 66.77 66.71 66.75 67.28 67.21 67.23 67.77 67.61 67.52 67.82 66.32 66.53 66.61 65.90 64.71 64.51 64.64 64.97 64.81 64.87 64.78 64.86 65.35 64.50 66.14 66.26 67.05 68.20 68.31 68.29 67.59 66.70
59.98 60.04 61.30 66.38 66.65 67.97 70.31 68.78 67.59 66.94 66.64 67.64 67.89 67.10 66.94 67.35 66.61 66.73 66.69 66.70 66.55 65.90 65.95 65.97 65.68 65.28 65.00 64.84 65.17 65.34 65.62 65.72 66.38 66.59 64.31 63.53 64.37 65.97 67.30 68.21 68.66 68.74 68.97
60.67 61.72 61.27 66.83 65.45 68.90 69.46 69.56 68.87 67.52 67.34 66.26 66.70 66.82 66.85 66.35 65.73 66.12 65.95 66.27 66.18 65.85 65.61 64.89 64.63 64.25 63.96 64.14 65.26 65.91 66.24 66.87 67.17 67.28 67.32 62.42 63.58 64.55 65.51 66.52 67.69 68.61 68.94
61.80 62.35 65.40 65.86 65.49 67.65 68.25 68.93 68.88 69.05 67.67 68.19 66.65 65.97 65.32 65.48 65.24 64.93 64.94 64.92 65.01 65.52 65.48 65.06 64.34 63.36 63.55 65.31 65.41 65.68 65.91 66.96 67.21 67.30 67.46 65.93 64.03 64.83 65.78 67.08 68.03 68.78 69.06
61.55 62.35 62.81 64.43 64.88 66.42 67.48 68.36 68.96 69.24 68.37 68.53 68.68 67.26 67.13 67.01 66.24 66.10 65.48 66.42 67.05 67.29 66.17 65.61 64.82 64.99 64.94 65.16 64.65 65.24 66.10 66.66 67.12 66.91 66.45 67.93 66.62 63.40 65.42 67.26 67.91 68.28 68.48
61.83 62.23 62.88 64.35 65.14 65.70 66.01 68.07 68.71 69.16 69.27 69.86 69.72 69.59 68.32 67.88 67.77 67.24 67.11 67.40 67.92 67.15 66.39 65.79 65.39 64.84 64.55 64.20 63.51 64.04 65.48 66.50 66.56 66.61 66.77 66.36 66.96 66.58 65.34 66.39 67.47 66.90 66.83
62.35 61.76 61.99 64.37 65.78 65.34 65.72 66.67 67.21 68.15 68.75 69.19 69.19 69.16 69.31 68.77 68.47 67.43 67.47 67.65 67.40 67.10 66.22 65.63 65.10 64.84 64.01 63.97 63.38 64.69 66.02 65.98 65.72 65.50 65.66 66.47 67.43 67.31 66.70 64.95 64.60 64.32 64.96
61.96 61.94 62.19 62.96 65.37 65.51 65.64 66.13 66.40 66.95 66.74 67.03 67.20 67.59 67.95 67.91 67.72 67.27 66.54 66.74 66.72 66.63 66.20 66.02 64.88 65.00 64.28 63.96 63.78 63.79 64.64 65.27 65.70 65.76 65.49 65.73 66.01 66.05 65.47 65.27 65.37 65.02 63.21
61.71 62.49 62.25 62.30 63.02 64.78 65.16 64.43 64.96 64.35 65.05 65.99 66.59 67.46 67.81 67.99 67.98 67.59 67.36 66.90 67.13 66.44 66.47 65.49 65.35 64.44 64.22 65.31 64.90 64.20 64.37 64.89 64.96 65.43 65.71 64.74 64.69 64.64 64.31 64.15 64.07 64.52 64.46
61.01 61.58 61.89 61.91 62.94 64.55 64.76 66.15 65.00 66.16 66.92 67.09 67.51 67.16 67.63 67.18 67.16 66.66 66.52 66.70 65.93 64.14 63.46 63.48 64.29 63.45 64.84 67.19 63.35 63.35 59.75 60.82 62.95 63.01 63.87 63.42 63.06 63.18 62.77 62.64 62.68 63.06 64.42
60.75 60.94 60.86 61.19 63.25 64.28 64.91 65.62 66.26 66.52 66.85 66.74 66.87 66.50 67.42 67.53 68.06 67.66 67.19 66.53 65.21 64.45 62.66 63.17 63.69 62.13 62.82 65.11 64.65 62.11 58.25 56.92 57.92 61.93 62.44 62.74 61.27 61.56 61.77 62.01 61.65 61.63 61.81
60.17 61.27 61.91 61.13 61.94 63.19 64.77 65.34 63.83 61.62 61.68 63.76 63.70 65.66 65.32 65.63 66.48 66.80 66.39 66.17 65.64 65.06 64.58 63.32 62.10 60.46 60.05 59.09 60.57 62.02 61.18 59.64 55.49 54.20 58.99 58.81 60.15 58.77 59.25 59.98 59.81 60.16 60.56
59.62 59.76 60.85 61.79 61.99 62.82 63.34 62.79 62.00 61.09 61.58 62.49 63.24 63.20 64.12 64.70 65.52 65.86 65.86 65.07 64.81 64.48 63.97 62.11 60.60 59.63 60.17 59.58 59.32 59.43 59.15 59.32 58.93 56.16 54.62 53.46 57.11 57.76 58.72 58.38 57.95 58.09 58.99
58.98 60.58 60.39 61.16 60.61 61.17 61.95 62.32 62.13 62.10 62.29 61.92 61.86 60.95 62.81 63.88 64.93 64.91 65.12 64.93 64.69 64.50 62.85 61.91 62.09 61.40 60.84 60.30 60.23 59.99 59.05 57.70 57.23 57.20 55.22 53.09 52.58 55.13 56.78 57.27 56.81 57.14 57.11

GFSSE_sfc_wetblb_096.txt.gz
Wetbulb
70.08 72.13 75.08 74.48 73.90 73.50 73.21 73.02 73.99 75.54 75.28 75.24 74.77 74.18 74.26 73.82 73.52 73.19 72.75 72.89 73.34 73.33 73.56 73.29 73.31 72.96 72.78 71.57 71.38 71.59 71.56 71.45 71.35 70.99 70.96 71.19 71.53 71.76 72.07 71.49 71.40 68.88 71.11
71.63 72.51 74.78 74.81 74.19 73.42 73.27 73.81 73.71 74.97 75.11 74.75 75.29 73.81 74.15 73.63 72.91 73.39 73.93 73.42 73.34 73.29 73.53 72.79 73.26 72.19 71.31 70.87 70.54 70.18 70.01 69.70 69.60 70.29 69.68 69.68 70.60 70.84 71.23 71.40 71.54 69.79 71.77
71.39 72.31 73.50 74.61 74.36 73.97 73.87 73.84 73.74 74.64 75.16 74.98 75.13 74.41 74.20 73.53 72.59 73.16 73.39 73.63 73.48 73.59 72.63 72.39 73.08 71.91 70.46 69.88 69.57 68.50 67.62 67.04 67.70 69.20 69.37 65.64 66.54 70.07 70.52 70.67 71.97 71.67 71.97
71.82 71.93 72.17 74.51 74.29 73.83 73.74 73.86 73.78 74.17 75.08 74.92 75.07 74.77 74.29 73.42 72.44 72.98 73.47 74.02 73.43 72.40 72.31 72.80 72.10 70.72 69.80 68.44 67.77 66.96 66.76 66.20 67.32 67.62 63.68 64.13 66.16 69.16 69.23 69.85 70.70 71.00 70.69
71.51 71.65 72.42 74.25 74.16 73.73 73.94 73.89 73.81 73.90 74.87 74.71 74.34 74.48 73.92 73.60 72.18 72.42 73.62 73.66 72.31 70.90 71.18 72.07 71.39 70.46 69.16 67.99 67.61 67.07 66.71 67.31 68.20 66.42 64.09 63.21 63.54 67.84 69.14 69.07 69.03 69.45 69.47
71.36 71.65 73.08 73.86 73.95 73.59 73.83 73.66 73.57 73.94 74.03 74.31 74.07 74.07 73.59 73.61 72.99 73.29 73.19 72.21 71.41 71.54 71.81 71.29 71.15 70.02 68.57 68.26 67.80 67.29 66.78 67.12 67.52 63.30 63.41 66.38 64.42 68.04 68.06 67.95 68.03 68.16 68.31
70.69 71.49 72.25 73.79 73.81 73.56 73.59 73.65 73.78 73.91 73.96 73.96 73.89 73.42 73.05 73.28 72.73 72.81 72.37 71.80 71.05 71.81 72.65 71.26 70.84 70.27 68.59 68.25 67.40 66.43 65.78 66.99 64.05 63.33 63.50 63.82 64.52 67.91 67.76 67.28 67.03 66.95 66.91
70.19 71.27 71.75 72.59 73.12 73.17 73.26 73.35 73.32 73.84 74.06 73.64 73.32 72.96 72.89 72.71 70.64 72.24 71.38 70.64 70.98 71.42 71.69 71.48 70.79 70.47 69.38 68.56 67.69 66.18 66.61 66.24 64.50 63.37 63.62 63.87 67.99 67.69 67.43 66.92 66.64 66.58 66.42
70.50 70.75 70.68 71.25 71.81 71.86 72.37 72.22 72.50 73.26 73.38 73.00 72.48 72.18 71.82 71.18 69.79 70.39 70.84 70.75 70.81 71.17 70.96 70.83 70.49 70.38 69.96 68.64 67.64 66.51 66.29 65.71 62.55 63.19 65.08 64.06 68.38 67.69 67.21 66.76 66.46 66.29 66.19
63.92 61.60 63.11 70.33 70.31 70.49 69.89 70.52 70.84 71.24 71.56 71.64 71.09 70.40 69.03 68.80 69.28 69.59 69.83 69.95 70.70 70.88 70.47 70.33 69.38 68.84 68.56 68.27 67.54 67.47 65.92 65.32 61.39 63.25 64.10 64.80 67.70 66.97 66.61 66.25 65.92 65.56 65.46
62.54 61.79 62.00 61.42 68.27 68.56 69.42 68.92 69.49 70.01 69.93 69.85 69.13 67.69 67.28 67.67 67.80 67.41 68.11 68.75 69.86 70.09 69.65 68.81 68.15 67.75 67.23 66.25 66.03 65.47 64.64 61.74 61.06 62.30 63.37 68.26 67.81 66.71 65.92 65.34 65.14 64.94 64.51
60.09 60.59 61.44 61.95 62.32 66.99 69.90 67.93 66.84 68.76 68.98 68.78 67.80 67.20 66.65 66.40 66.69 67.00 66.78 67.91 69.38 69.08 68.60 68.41 67.56 66.77 64.89 61.18 60.85 63.11 59.70 60.43 59.98 60.95 63.17 67.74 67.92 67.86 67.21 66.17 65.55 65.16 64.72
59.56 60.66 61.34 61.17 61.55 61.37 68.51 67.42 65.75 66.36 67.50 67.34 66.56 66.90 65.85 65.64 64.70 65.84 65.79 67.37 66.83 65.59 65.42 65.84 64.72 62.42 59.92 59.77 60.12 58.75 59.42 59.79 59.31 60.58 64.37 66.76 67.04 67.07 68.07 68.24 68.28 67.64 66.87
58.74 59.16 60.97 61.15 61.06 61.66 64.50 66.58 64.98 63.72 63.84 64.80 65.96 64.62 64.77 64.25 64.62 65.05 64.49 64.24 63.99 63.85 62.47 62.86 62.83 61.43 60.95 60.74 60.00 60.56 60.51 60.52 61.35 61.48 61.86 65.11 66.88 66.91 67.23 67.96 68.53 68.78 68.99
58.52 58.67 60.04 61.16 61.40 62.30 63.08 67.28 64.74 63.92 63.59 64.02 63.43 63.66 64.42 64.15 62.75 64.30 63.99 64.05 63.19 62.47 61.92 61.95 60.98 60.31 60.47 60.03 60.54 61.43 61.52 61.88 62.65 63.12 59.53 62.46 64.46 66.15 66.28 66.76 67.39 68.23 68.85
59.71 59.08 60.61 61.38 62.34 64.14 64.83 66.66 64.35 64.07 63.35 64.68 63.77 64.11 63.63 63.68 62.00 61.88 62.03 62.09 61.64 61.37 61.16 60.71 59.31 58.89 59.06 60.53 60.98 61.54 61.36 61.92 62.91 63.53 62.03 61.19 64.04 65.42 67.17 67.73 68.33 68.66 68.94
59.83 62.00 62.58 62.21 64.03 64.74 64.72 66.35 66.36 65.16 64.61 63.06 61.98 61.96 62.02 62.24 61.32 61.08 60.58 60.80 61.46 62.56 62.16 61.43 60.34 60.15 59.70 61.49 60.42 60.80 61.32 61.96 63.76 63.60 64.73 64.61 63.38 63.51 65.98 68.24 68.48 68.42 68.25
61.01 62.36 63.47 64.45 63.64 63.61 64.90 65.41 66.25 66.92 65.81 65.07 63.76 63.29 63.22 63.52 62.67 62.23 61.99 63.29 64.25 63.52 62.85 61.77 61.26 60.86 60.64 60.47 59.68 59.66 60.31 62.43 63.29 63.61 63.89 62.25 62.54 64.24 64.02 66.41 67.68 68.02 67.27
61.08 61.76 62.13 61.31 60.75 61.17 63.85 65.31 65.87 66.37 66.64 67.28 66.77 65.44 65.18 65.15 64.43 64.14 64.35 64.69 64.84 63.94 62.76 62.57 62.03 61.58 60.73 60.57 60.33 59.40 60.97 63.16 63.19 62.69 61.87 62.71 63.38 63.05 62.16 63.50 64.52 64.80 65.34
61.83 61.79 61.91 61.88 60.01 60.07 64.01 64.91 65.18 64.94 66.02 66.20 65.96 67.24 67.10 66.57 66.02 64.68 64.34 64.22 64.31 63.86 62.91 62.51 61.55 61.25 60.87 60.61 61.43 60.68 62.36 62.93 61.84 61.14 62.53 63.12 62.47 61.13 60.75 60.81 60.34 61.15 62.79
60.78 60.98 61.40 61.21 63.46 63.39 63.26 62.72 63.31 63.23 63.23 63.73 64.46 65.40 66.62 65.69 65.68 64.50 64.45 64.08 64.02 63.28 63.37 62.68 62.66 61.87 60.83 61.27 60.98 61.20 61.86 61.58 60.66 62.25 61.55 59.30 59.77 60.17 59.48 58.99 58.86 59.50 61.19
59.48 60.25 61.31 61.25 61.82 63.25 64.29 63.53 64.02 63.10 63.15 63.22 64.17 64.69 65.79 65.98 66.17 65.59 64.99 64.42 64.19 62.76 62.03 61.54 62.26 61.57 62.05 63.12 60.11 58.95 56.29 58.26 59.83 60.15 58.80 59.09 58.15 58.25 58.61 58.14 58.42 58.67 58.79
58.54 60.16 60.42 60.75 61.23 62.43 62.46 63.26 63.23 63.32 62.76 64.02 64.53 64.16 65.05 64.76 64.64 64.65 64.97 64.76 63.18 62.55 61.41 61.17 61.93 61.63 60.92 62.37 62.54 60.17 56.06 53.16 55.80 57.50 58.23 58.42 56.94 56.65 56.85 57.86 57.62 57.48 57.56
59.01 60.81 60.76 60.69 61.44 62.28 62.72 61.40 60.70 60.12 59.33 61.11 61.54 62.69 63.41 64.00 64.15 64.97 65.05 64.72 63.31 62.84 61.70 62.16 62.02 60.75 60.20 59.29 59.85 61.15 59.44 57.74 53.91 53.04 56.41 56.78 57.20 56.64 55.03 56.36 55.21 55.91 56.79
59.75 60.08 60.94 60.54 60.78 61.63 61.95 62.08 61.27 60.02 60.68 61.50 61.55 61.22 62.24 63.17 63.54 63.98 64.66 64.14 63.71 63.42 62.75 61.90 60.74 59.42 59.63 58.66 57.91 57.57 57.36 57.59 57.33 54.37 52.03 54.88 54.53 54.50 55.23 54.88 54.55 54.18 55.13
58.47 58.91 59.83 59.96 60.47 60.84 61.15 61.47 61.42 60.44 60.50 60.03 60.23 60.33 60.59 62.20 62.81 63.54 63.60 63.59 63.76 63.42 63.01 62.55 61.16 60.03 59.41 58.96 58.55 58.68 57.66 56.41 55.27 55.15 53.99 53.38 50.78 51.80 53.50 54.22 53.58 53.51 53.20

GFSSE_sfc_wetblb_099.txt.gz
Wetbulb
69.21 72.27 75.02 74.75 73.81 73.83 74.54 75.72 76.18 75.79 75.43 75.01 73.97 73.93 74.56 74.40 73.79 72.46 72.06 71.99 72.33 73.27 73.74 73.64 73.49 72.04 71.55 72.16 72.08 71.64 71.47 71.58 71.45 70.89 70.65 71.47 71.97 71.78 71.10 70.42 70.45 70.27 72.03
70.45 72.48 74.51 74.61 74.37 74.15 74.27 75.04 75.67 75.19 74.79 74.91 73.69 73.97 74.28 74.06 73.37 72.92 73.06 73.24 73.43 73.39 73.54 73.43 72.43 71.26 70.90 71.08 71.17 70.81 69.74 70.18 69.96 70.19 69.38 69.56 70.99 71.82 71.84 71.26 72.16 71.12 72.02
70.63 72.56 73.21 74.48 74.37 74.30 74.24 74.15 75.13 75.31 75.05 74.78 74.19 74.09 74.03 73.43 73.49 73.61 73.69 73.55 73.28 73.18 73.36 72.57 70.97 70.83 70.41 69.70 68.75 68.65 68.51 68.35 68.75 68.93 68.74 65.39 67.60 70.80 71.39 71.76 72.12 71.91 72.07
71.47 72.41 72.62 74.42 74.37 74.28 74.14 73.89 74.40 75.25 75.20 74.88 74.53 74.73 74.44 73.25 73.67 73.88 73.46 73.79 73.62 72.78 73.02 72.12 70.74 69.33 68.69 67.92 67.26 67.92 67.87 67.50 68.65 67.36 63.29 64.55 66.70 69.47 70.55 70.95 70.86 70.38 70.85
71.31 71.97 72.87 74.29 74.28 74.07 73.89 73.78 73.78 75.08 75.02 74.93 74.63 74.84 74.49 73.84 73.54 73.18 73.53 73.02 72.32 72.78 72.86 71.25 69.96 68.67 68.03 67.43 67.62 68.03 68.10 68.63 68.15 65.55 62.73 62.83 64.05 68.45 69.22 69.35 69.22 69.61 69.95
70.34 71.20 73.35 73.97 74.02 73.81 73.99 73.86 73.49 74.14 75.03 74.94 74.56 74.38 73.91 73.63 73.70 73.90 73.37 71.95 71.54 71.55 72.35 71.12 69.67 68.56 68.24 67.83 67.92 67.91 67.56 67.92 66.00 62.99 63.43 65.44 63.94 67.95 68.16 68.03 67.82 67.99 68.24
69.66 71.28 72.67 74.02 73.92 73.81 73.97 73.79 73.72 73.78 74.34 74.22 74.10 74.28 73.50 73.56 73.67 73.68 72.32 71.39 70.91 71.56 71.48 70.84 69.64 68.38 68.30 67.71 67.34 67.06 67.27 67.42 62.68 62.40 62.74 63.05 64.31 67.99 67.83 67.45 67.18 66.92 66.84
70.07 71.42 72.27 72.89 73.30 73.42 73.39 73.61 73.65 73.84 73.83 73.63 73.38 73.93 73.13 73.33 73.42 73.14 72.05 71.01 70.79 72.17 71.28 70.55 70.13 68.96 68.62 67.82 66.97 66.69 66.91 66.11 63.42 62.66 62.80 63.46 68.03 67.74 67.65 67.19 67.03 66.95 66.81
70.52 70.54 71.15 71.75 72.09 72.11 72.63 72.91 73.14 73.29 73.25 73.11 72.81 72.58 72.09 71.85 72.11 72.50 69.92 70.45 71.34 72.39 72.01 71.03 70.44 69.74 68.96 68.07 66.96 66.62 66.22 65.68 60.99 62.92 64.34 63.77 68.58 67.84 67.43 67.05 66.76 66.85 66.79
63.41 64.48 67.28 70.09 70.74 70.46 70.48 71.24 71.31 72.09 72.30 71.93 71.48 70.68 69.81 68.89 69.68 69.72 68.50 69.28 71.21 71.46 71.14 70.84 70.27 70.19 69.57 68.56 67.25 67.21 65.80 64.49 60.35 62.88 63.32 64.28 67.87 67.31 67.02 66.65 66.37 66.19 65.96
62.07 62.31 63.48 64.25 66.24 68.90 68.61 69.17 69.95 70.34 70.32 70.06 69.51 68.06 67.39 67.55 67.74 67.80 67.27 67.98 70.13 70.34 70.31 69.67 69.09 68.61 67.90 66.52 66.03 65.61 64.47 60.47 59.67 62.33 63.27 67.80 67.79 66.91 66.29 65.84 65.56 65.33 64.83
59.94 60.80 61.85 62.59 62.60 62.85 69.37 67.08 67.48 69.02 69.29 69.27 68.61 67.68 67.24 67.12 66.98 67.58 66.43 67.27 69.29 69.19 68.87 68.81 68.30 67.46 65.21 61.07 60.75 63.23 59.52 58.77 58.09 61.57 63.68 68.44 68.36 67.90 67.15 66.36 65.83 65.41 64.97
59.99 60.85 61.36 62.18 62.27 61.99 62.03 66.02 65.72 67.07 68.61 68.32 67.65 66.98 66.47 66.32 66.05 66.83 67.16 67.42 67.19 65.52 65.52 66.10 64.86 62.20 60.03 59.32 59.28 58.19 57.74 57.72 57.51 61.26 64.16 67.50 68.19 68.41 68.65 68.53 68.30 67.67 67.13
59.40 60.07 60.70 61.63 61.91 62.00 61.75 62.32 64.85 65.95 67.22 67.01 67.24 66.69 65.58 65.00 64.84 65.30 66.07 66.38 65.69 63.87 62.83 62.41 61.64 60.39 59.36 58.81 58.65 58.43 58.34 58.71 58.72 59.80 62.57 65.68 67.82 67.66 67.86 68.30 68.61 68.74 68.95
58.08 59.77 60.15 60.71 61.26 62.55 62.10 63.38 64.32 64.54 66.50 66.20 66.40 66.73 65.64 64.24 64.79 64.13 63.53 63.90 63.43 62.84 61.58 61.17 60.89 60.19 59.43 59.10 59.14 59.01 59.07 59.47 60.42 60.48 59.75 63.37 65.91 67.87 67.88 67.80 68.02 68.19 68.55
58.26 57.84 59.89 60.11 60.69 62.01 62.44 63.51 63.79 65.08 64.40 64.55 65.77 65.61 65.25 64.69 64.64 63.88 63.59 63.43 62.75 61.93 61.77 61.24 59.85 58.64 58.64 58.62 58.46 59.70 60.50 60.48 61.12 62.80 59.33 60.14 64.14 65.79 67.65 67.87 68.30 68.60 68.72
60.13 59.34 59.04 59.70 61.55 61.81 62.40 63.14 64.35 65.02 64.42 63.31 64.08 64.39 64.55 64.20 63.25 62.87 62.74 62.54 62.54 61.27 59.83 59.48 58.70 58.06 57.33 58.77 59.15 60.30 60.27 60.15 61.53 61.88 62.71 61.70 62.97 63.24 65.84 68.27 68.97 68.65 68.56
59.80 60.39 60.31 60.86 60.61 61.51 62.68 63.36 64.88 64.26 63.91 64.03 62.55 62.84 64.14 63.39 61.72 61.83 61.64 61.40 61.21 60.99 60.53 59.48 59.26 59.01 58.92 59.10 58.73 59.26 59.20 60.81 61.91 61.81 62.43 64.04 62.44 62.70 63.87 66.69 67.97 68.50 68.04
59.53 60.85 61.63 63.08 61.98 62.71 63.46 65.32 65.32 64.53 63.75 63.40 62.37 62.39 62.56 62.39 61.70 61.01 61.12 61.27 62.12 61.82 61.20 60.86 60.29 60.30 59.45 59.69 59.34 58.69 59.01 59.49 62.02 62.90 60.26 60.74 62.46 63.50 61.74 63.17 64.40 64.66 65.04
58.82 60.86 61.90 62.65 63.12 61.70 63.68 64.77 64.88 64.61 64.26 64.88 63.96 63.51 63.02 63.36 62.92 62.48 62.80 63.05 63.64 62.45 61.68 61.37 60.55 60.58 60.45 59.89 60.66 59.39 58.35 61.10 62.18 61.51 59.62 62.39 62.66 61.60 60.11 59.59 59.22 59.90 62.56
57.64 60.74 61.63 60.10 60.00 61.09 61.70 62.16 63.23 62.48 63.70 63.65 64.85 65.18 65.02 64.77 64.08 63.64 63.19 62.77 63.48 62.70 61.95 61.42 61.17 60.06 59.93 59.81 59.72 59.86 60.41 61.32 61.14 60.19 61.06 60.06 59.34 59.17 58.49 58.25 58.03 58.59 60.69
56.80 56.12 60.49 60.75 60.25 59.72 62.36 62.99 63.65 62.96 63.73 63.59 63.63 65.73 66.46 65.87 65.33 63.71 63.01 62.18 62.41 61.87 61.85 61.71 61.79 61.16 60.71 61.05 59.05 58.45 56.23 58.39 60.15 59.92 58.38 58.45 57.91 58.09 57.44 57.70 57.49 57.56 58.74
55.59 56.57 57.69 60.98 60.83 60.50 62.48 63.11 62.73 62.63 62.67 62.20 62.55 63.01 63.64 64.28 64.26 64.85 64.23 63.95 62.66 62.23 61.11 61.04 61.59 61.03 59.84 61.34 61.39 59.01 55.83 54.39 55.62 58.33 58.27 58.68 56.53 57.05 56.44 57.11 56.03 57.77 57.14
57.94 58.92 59.44 61.15 61.40 61.95 62.63 62.00 60.80 60.10 59.18 60.74 61.18 62.26 62.64 63.29 63.23 63.87 63.91 63.73 62.77 62.32 61.38 61.40 61.56 60.89 60.52 58.93 59.58 60.64 58.87 57.43 52.84 53.17 56.42 56.14 55.74 56.01 55.68 55.92 54.90 55.65 56.81
58.32 58.94 59.97 60.45 61.10 61.22 61.39 61.07 60.49 59.86 60.58 60.85 61.15 60.83 61.28 62.19 62.93 62.99 63.79 63.44 62.97 62.42 61.74 61.36 60.61 59.96 59.74 58.61 57.62 57.97 57.14 56.60 56.33 53.25 51.13 53.77 54.55 54.63 54.74 53.72 52.90 52.87 54.34
57.88 59.07 58.99 59.69 60.19 60.93 61.08 60.87 60.30 59.65 59.59 59.35 59.98 59.80 59.96 60.94 61.75 62.39 62.81 62.62 62.77 62.57 61.68 61.46 60.91 60.18 59.10 58.41 58.48 57.48 55.82 55.50 54.86 54.52 53.03 53.16 49.78 51.29 52.77 53.40 52.17 52.18 52.34

GFSSE_sfc_wetblb_102.txt.gz
Wetbulb
68.94 72.05 75.11 75.26 75.45 76.37 76.44 76.26 75.85 75.38 75.13 74.68 74.37 74.52 73.87 73.28 72.18 71.64 72.35 72.95 73.28 73.36 73.66 73.38 71.85 72.09 71.98 71.70 71.59 71.94 71.95 71.19 71.06 71.01 71.23 72.04 71.29 70.57 71.21 71.62 71.48 70.14 71.23
70.30 72.45 74.64 74.94 75.38 75.88 76.21 76.16 75.75 75.20 74.99 74.78 74.59 74.45 74.61 73.32 72.37 71.65 72.29 72.98 73.43 73.53 73.40 72.65 71.51 71.20 71.95 71.13 70.53 70.47 70.20 69.99 69.92 69.87 69.77 70.45 71.50 71.42 72.02 71.72 71.94 70.62 71.23
70.91 72.44 73.14 74.46 74.73 75.29 75.88 75.93 75.59 75.31 74.84 74.07 73.34 74.38 74.52 73.66 72.80 73.00 72.68 73.63 73.46 73.55 72.84 71.51 70.78 70.53 70.81 70.45 69.73 69.73 69.83 69.38 68.51 69.07 68.69 66.39 67.98 71.70 71.47 71.31 71.94 71.63 72.05
71.29 72.12 72.24 74.23 74.41 74.52 74.95 75.52 75.37 75.05 74.92 74.55 74.20 74.48 74.18 73.29 73.47 74.06 73.63 73.22 73.47 73.23 71.77 70.75 70.09 69.46 68.51 68.40 68.61 68.40 68.00 67.38 68.09 67.20 63.68 65.03 66.89 70.92 70.85 70.59 70.43 70.97 70.96
70.95 71.74 72.45 74.23 74.41 74.36 73.97 74.71 75.22 75.21 74.82 74.52 74.23 74.48 74.28 74.30 73.97 73.87 73.68 73.63 73.31 73.14 71.52 70.04 68.81 68.04 67.63 68.80 68.86 69.04 68.68 68.24 67.36 64.64 62.72 63.30 64.72 68.47 69.82 69.52 69.31 69.67 69.46
70.57 71.31 73.19 74.02 74.26 74.08 73.98 73.80 74.72 75.20 75.03 74.72 74.31 73.97 73.95 73.91 74.01 73.80 73.36 72.73 73.05 72.34 70.82 69.63 68.40 68.03 68.04 68.99 68.72 68.64 68.41 67.67 65.76 62.97 63.29 65.26 63.44 68.15 68.29 67.91 67.75 68.02 68.47
70.15 71.54 72.73 74.07 74.10 73.98 73.88 73.60 73.78 74.35 74.80 74.65 74.43 74.23 73.63 73.79 73.79 73.44 72.33 71.49 72.59 72.30 70.76 69.29 68.62 68.30 68.15 68.37 68.07 68.23 68.24 66.80 62.39 61.97 62.30 62.80 64.07 67.97 67.80 67.44 67.16 66.93 66.63
69.69 71.64 72.33 72.94 73.45 73.73 73.70 73.58 73.32 74.07 74.11 74.31 74.14 73.69 73.27 73.31 73.74 72.85 71.92 71.46 71.93 71.88 70.67 69.32 68.45 68.23 67.83 67.67 67.46 67.49 67.05 65.71 63.09 61.92 62.45 63.37 67.95 67.76 67.85 67.46 67.20 67.03 66.72
70.60 71.07 71.70 71.88 72.14 72.38 72.75 72.90 73.07 73.26 73.68 73.27 73.54 73.09 72.41 72.10 72.83 72.20 71.49 70.99 71.36 71.81 70.71 70.03 69.06 68.81 68.31 67.70 66.90 66.75 66.56 65.06 61.38 62.40 63.82 63.75 68.68 68.03 67.65 67.27 67.19 67.05 66.67
67.29 69.98 70.90 70.74 71.02 70.86 71.45 71.72 71.91 72.27 72.22 71.96 72.03 71.39 70.14 69.90 70.83 71.20 69.66 70.01 71.82 71.89 71.26 70.95 69.90 69.18 68.63 67.81 67.19 66.27 65.06 64.03 60.52 62.11 62.94 63.78 68.23 67.80 67.38 66.82 66.57 66.37 66.10
64.14 65.81 68.47 69.18 68.94 69.45 69.76 70.01 70.63 70.94 70.75 70.21 69.65 68.66 68.14 69.26 68.92 67.50 66.54 67.70 70.25 71.19 71.18 70.63 70.26 70.04 68.92 67.27 66.15 65.03 63.65 59.53 60.16 61.80 62.51 67.73 68.10 67.46 66.73 66.29 65.92 65.58 65.09
62.34 63.19 64.96 65.15 65.82 66.58 69.47 67.80 67.62 69.14 69.61 68.99 69.06 68.54 67.39 67.33 66.92 66.52 65.42 67.02 69.47 69.58 69.59 69.78 69.31 68.55 65.77 61.29 60.58 63.18 58.93 58.54 57.95 61.22 62.66 68.20 68.40 67.70 67.03 66.33 65.85 65.59 65.18
61.16 62.58 62.40 64.82 64.78 64.16 66.03 65.30 66.85 68.36 68.12 68.07 67.37 67.09 66.74 66.89 65.92 66.05 65.56 66.90 67.04 65.67 65.98 66.89 66.06 63.10 60.21 58.72 58.30 57.50 57.41 56.73 57.35 61.07 63.51 68.01 69.02 68.69 68.61 68.17 67.67 67.31 67.04
60.10 60.93 61.70 62.18 62.51 63.12 64.19 62.97 66.15 68.00 68.56 67.12 66.90 66.11 66.30 65.66 65.32 66.07 65.49 66.03 65.94 64.08 63.43 62.91 61.41 59.98 58.75 58.25 57.85 57.60 56.86 57.23 57.06 60.43 61.57 66.02 68.60 68.47 68.88 69.17 69.08 69.08 69.11
59.09 59.90 60.85 61.52 61.60 62.19 62.11 62.24 63.07 66.04 67.00 67.53 66.67 66.23 66.20 65.62 64.98 65.36 65.93 65.73 65.26 63.53 62.47 61.35 60.11 59.05 57.99 57.82 57.81 57.70 57.91 57.56 57.91 59.57 60.43 63.37 66.07 68.42 68.94 68.58 68.73 68.78 68.76
58.43 58.87 60.19 60.47 61.10 62.20 62.12 62.51 63.33 64.08 66.46 66.54 66.70 66.10 65.89 65.46 65.14 64.64 64.19 64.30 64.06 63.74 62.17 60.96 59.79 59.41 58.39 58.28 57.60 57.60 58.66 58.81 59.16 59.88 58.67 60.21 64.47 66.45 68.43 68.48 68.46 68.51 68.54
58.52 57.96 59.08 59.79 60.76 60.42 61.37 62.17 62.13 63.93 64.23 64.84 65.95 66.26 65.47 65.63 65.22 64.36 64.02 63.91 63.93 62.40 61.45 60.54 59.71 58.71 57.71 57.66 56.98 58.12 59.20 59.26 59.82 60.63 59.55 59.63 61.30 63.19 65.86 67.98 68.78 68.80 68.52
58.07 58.71 59.24 60.29 60.23 60.22 61.26 62.36 62.76 64.13 63.91 63.54 64.76 65.38 65.25 65.30 65.56 64.53 63.76 63.64 63.89 61.87 60.68 60.00 58.92 56.87 55.96 57.32 57.62 58.49 58.77 59.23 60.30 61.10 61.29 60.52 61.72 61.50 63.26 66.46 68.21 68.60 68.11
57.92 59.17 59.25 59.72 59.64 60.30 60.78 62.18 62.67 63.13 63.41 63.57 63.64 64.12 63.75 64.59 64.94 64.53 63.59 63.18 62.23 61.07 60.16 59.38 58.29 58.06 57.73 57.84 58.27 58.46 58.24 58.84 59.88 61.93 60.19 61.22 61.66 61.63 61.44 63.02 64.39 64.72 64.33
58.60 59.54 59.99 61.06 60.00 59.79 61.11 61.74 62.28 63.63 62.89 63.42 63.10 62.69 63.35 64.08 63.55 63.15 62.12 61.61 61.37 60.59 60.31 59.83 58.87 59.27 58.77 58.73 59.88 59.38 58.31 58.28 60.03 60.28 60.60 61.03 60.77 62.61 62.01 60.61 60.53 59.53 62.64
57.18 58.69 59.76 60.08 61.99 61.81 61.64 61.62 62.07 61.47 62.23 62.61 62.65 62.81 63.09 63.53 62.50 62.10 61.92 61.59 61.92 61.47 61.16 60.28 59.60 59.23 59.16 59.27 58.96 59.31 59.79 59.97 60.19 59.76 60.46 59.99 60.19 60.34 59.32 58.43 57.94 58.61 61.08
55.25 56.24 59.17 61.09 60.20 60.85 62.13 62.32 62.99 62.59 62.68 62.70 63.27 63.14 63.11 63.03 62.48 62.09 62.13 62.02 62.44 61.61 61.15 60.60 60.46 59.98 59.49 59.75 58.45 58.02 56.04 57.75 59.97 60.14 58.23 58.34 57.82 57.83 57.09 57.02 57.47 57.77 58.68
54.24 54.04 54.07 56.19 60.49 60.16 61.80 62.08 62.40 62.90 63.02 62.06 62.22 62.61 63.31 63.41 63.09 62.73 62.84 62.32 61.84 62.32 61.54 60.85 61.14 60.87 59.41 60.50 60.94 58.66 55.09 53.94 55.29 57.50 57.27 56.98 56.67 57.01 56.83 56.65 57.27 57.63 57.60
53.98 54.85 54.96 56.43 58.97 60.32 60.61 61.22 60.48 60.10 59.77 61.07 60.89 61.67 61.77 62.76 63.30 63.59 63.23 62.63 61.93 61.58 61.07 61.09 61.15 60.64 59.78 59.08 59.79 60.91 59.19 57.58 53.84 52.55 55.22 55.17 55.16 56.01 55.97 55.34 56.00 56.47 56.00
56.43 56.99 57.93 58.59 57.81 59.91 59.87 61.44 59.75 59.40 59.84 60.85 60.84 60.69 61.14 61.78 62.25 62.31 62.48 62.11 61.53 61.98 61.20 60.74 60.47 59.99 60.15 58.86 57.44 58.23 57.46 56.10 55.41 53.82 51.07 52.71 55.94 56.16 55.28 54.08 52.45 53.08 54.44
57.39 58.02 58.48 58.85 59.89 59.87 60.43 61.02 60.09 59.85 59.20 59.69 59.75 59.55 60.12 60.79 61.25 61.84 62.11 61.94 62.11 62.05 61.46 61.10 60.53 60.03 59.29 58.41 58.14 57.19 56.95 55.60 54.27 52.70 51.28 52.02 52.08 52.79 53.06 53.03 51.61 52.04 52.68

GFSSE_sfc_wetblb_105.txt.gz
Wetbulb
67.89 71.84 75.33 75.72 75.87 76.07 75.63 75.19 75.31 75.21 75.11 74.95 74.44 74.26 73.89 73.16 72.07 72.17 72.26 72.28 72.64 73.24 72.95 71.81 71.68 71.18 71.99 72.36 72.15 71.20 71.12 71.19 71.39 71.66 71.91 71.16 70.84 71.72 71.98 71.54 71.48 67.77 70.00
69.76 72.30 74.84 75.58 75.95 76.21 75.94 75.67 75.33 74.98 74.81 74.88 74.36 73.89 73.19 72.19 71.79 72.95 72.47 73.62 73.64 73.53 72.67 71.47 71.76 71.01 71.05 71.12 70.83 70.26 70.45 70.35 70.40 70.41 70.27 70.68 71.23 72.07 72.13 71.39 71.87 69.48 70.50
70.58 72.32 73.27 75.00 75.59 75.86 75.89 75.71 75.28 75.10 74.89 74.80 74.77 74.10 73.19 72.07 71.60 73.17 73.35 73.65 73.48 73.34 72.18 71.11 71.29 70.72 70.05 69.90 69.82 69.41 68.98 69.52 69.40 69.27 68.55 66.46 68.85 70.94 71.62 71.46 71.35 71.73 71.74
71.20 72.02 72.28 74.63 75.29 75.68 75.59 75.38 75.00 75.06 74.68 74.41 74.54 74.88 73.63 72.55 71.97 72.81 73.76 73.57 73.38 72.22 71.15 70.53 70.45 70.23 69.82 69.34 68.80 68.54 68.29 67.96 67.66 66.87 64.52 65.30 67.87 70.39 70.41 70.59 70.95 70.92 70.77
70.79 71.67 72.09 74.28 74.82 75.25 75.57 75.31 74.87 74.70 74.46 73.99 74.45 74.35 74.17 73.46 73.26 73.53 73.49 73.36 73.23 72.10 70.47 69.81 69.07 68.43 68.80 69.01 69.06 68.65 68.80 67.70 66.84 64.69 63.26 63.62 64.56 68.33 69.28 69.40 69.02 69.02 69.01
70.24 71.10 72.73 73.89 74.32 74.37 74.87 74.55 74.53 74.32 74.14 74.04 74.27 74.23 73.82 74.47 73.85 73.72 73.31 72.93 72.47 71.45 69.40 68.77 67.94 68.27 69.35 69.46 68.96 68.57 68.27 67.41 65.25 62.46 63.01 64.90 63.42 68.27 68.31 67.87 67.92 68.30 68.62
69.37 70.77 72.37 73.98 74.18 74.06 74.00 74.51 74.53 74.55 74.16 73.89 73.67 74.19 73.67 73.71 73.56 73.22 73.09 72.76 72.23 70.94 69.20 68.37 68.07 68.58 68.99 68.74 68.68 68.70 68.07 66.28 61.90 61.58 62.00 62.46 63.48 67.81 67.72 67.33 66.90 66.65 66.32
69.41 71.00 72.01 72.95 73.60 73.71 73.55 73.51 74.32 74.38 74.21 73.97 73.73 73.30 73.44 73.52 73.31 73.25 73.12 72.69 71.84 70.41 69.11 68.53 68.33 68.64 68.59 68.35 68.24 68.31 67.00 65.26 62.66 61.51 61.93 62.72 67.80 67.77 67.76 67.46 67.12 66.96 66.73
69.77 70.78 70.92 71.57 72.15 72.42 72.65 72.57 72.93 73.94 73.73 73.42 73.19 72.98 72.42 71.98 72.39 72.18 71.82 72.59 71.80 70.58 69.19 68.85 68.29 68.15 68.18 67.98 67.51 67.29 66.83 64.97 60.78 61.91 63.44 63.37 68.53 67.79 67.59 67.27 67.15 66.84 66.46
69.22 70.63 70.87 70.34 70.87 71.05 71.22 71.61 71.59 72.19 72.61 72.57 72.26 71.41 70.23 69.74 70.53 71.09 70.36 71.02 71.74 71.13 70.50 69.63 68.87 68.41 68.46 68.08 67.54 66.68 65.81 65.01 60.32 61.96 62.69 63.33 68.36 67.88 67.34 66.98 66.68 66.54 66.17
66.07 67.66 70.11 69.81 68.82 68.99 69.44 70.25 70.85 70.87 70.94 70.65 70.27 68.89 68.41 69.31 69.33 68.52 67.18 68.79 70.48 70.85 70.83 69.98 69.43 69.28 68.48 67.13 66.45 65.29 63.26 59.71 59.74 61.12 61.93 66.59 68.47 67.96 67.29 66.60 66.14 65.64 65.31
63.08 65.64 68.08 68.62 67.65 67.83 69.93 68.15 68.53 69.88 69.65 69.31 69.42 68.15 68.70 68.22 68.86 66.92 64.91 67.57 70.26 70.34 70.30 70.54 70.21 69.61 66.76 61.49 60.41 62.86 58.20 58.06 59.14 60.70 61.58 67.44 67.98 67.76 67.14 66.64 66.17 65.76 65.29
61.37 63.68 65.91 66.74 66.40 68.04 67.19 66.46 67.62 67.07 67.57 67.61 67.78 68.07 67.00 67.58 65.00 64.33 64.83 65.60 67.85 66.54 67.77 67.52 66.84 63.91 60.77 59.25 58.53 57.44 57.40 56.55 56.45 60.24 62.37 67.09 68.52 68.17 67.73 67.32 67.09 66.90 66.75
59.32 61.91 62.61 64.21 65.27 65.77 66.23 66.42 67.93 68.67 68.44 66.41 66.85 66.32 65.67 66.10 64.92 64.03 64.21 65.59 65.82 66.06 65.56 64.51 62.56 61.04 59.63 58.05 56.99 56.62 56.02 55.74 56.13 59.76 60.87 65.51 68.75 68.80 68.93 69.02 68.96 68.95 68.90
58.00 60.82 62.02 62.38 62.40 65.15 65.01 64.97 67.03 67.24 68.14 66.81 65.33 65.57 65.81 65.56 65.25 64.75 64.51 65.32 64.86 64.79 64.46 63.01 60.44 59.08 57.76 56.98 56.95 56.89 57.11 56.35 56.22 58.01 59.66 62.55 66.11 68.79 69.40 68.96 69.09 69.12 68.91
56.43 58.74 60.80 62.10 62.13 62.93 63.19 64.54 65.46 66.79 66.95 67.11 65.96 65.45 65.04 65.67 65.50 65.28 64.71 64.44 63.75 64.63 62.93 62.64 59.74 58.28 57.20 57.00 57.25 57.02 57.28 57.18 56.98 58.20 58.76 59.56 64.09 66.20 68.51 68.76 68.82 68.79 68.55
53.26 57.90 59.45 61.55 61.35 61.73 61.81 62.22 63.69 66.07 67.06 66.84 65.98 66.18 65.56 65.62 65.50 65.21 64.33 63.88 63.87 63.91 62.58 61.59 60.04 58.60 57.87 57.90 56.93 56.95 57.22 58.02 58.66 58.84 59.56 58.86 59.83 62.74 65.48 68.15 69.01 68.71 68.60
52.28 56.95 58.93 61.59 61.15 60.45 60.99 61.69 61.77 63.40 64.44 66.26 66.37 65.67 65.56 65.53 65.78 65.02 64.54 63.82 63.72 63.59 62.96 61.21 58.70 57.70 56.91 56.36 56.19 56.63 57.70 58.33 58.78 59.58 60.56 59.46 59.09 60.40 62.51 65.84 68.06 68.76 68.16
52.00 55.92 57.33 59.06 60.10 60.53 60.92 61.83 62.03 62.09 62.33 63.55 65.22 65.89 65.36 64.95 65.63 65.33 64.44 63.73 63.49 62.62 61.39 60.28 58.44 57.69 56.12 55.58 56.77 57.03 57.53 57.76 58.53 60.50 59.85 60.17 60.30 60.41 60.08 62.36 64.41 65.20 64.79
52.09 54.95 58.16 58.56 58.78 58.82 59.34 60.55 61.70 62.11 62.02 62.92 62.84 64.52 65.15 65.07 65.10 64.88 64.22 63.28 61.98 61.86 59.88 58.75 58.78 57.85 57.31 57.12 58.63 58.27 57.87 58.11 57.89 58.12 59.52 59.94 60.15 60.92 60.96 60.66 61.14 60.66 62.47
52.69 56.03 58.12 58.70 58.56 58.85 59.19 59.14 59.37 59.09 60.94 61.57 62.62 63.17 63.95 64.83 64.38 63.82 62.58 61.80 62.11 61.65 61.03 60.12 58.81 57.96 58.14 58.21 57.47 58.04 58.85 59.29 58.75 59.09 59.84 59.27 59.95 60.08 60.16 59.62 58.70 58.47 60.65
52.76 56.45 58.31 59.25 60.46 60.13 60.26 59.99 59.54 59.62 60.42 61.57 61.83 62.25 62.49 63.26 63.68 63.51 62.40 61.80 61.60 60.76 60.36 59.92 59.39 58.38 58.47 58.61 57.41 56.96 54.79 56.89 59.10 59.93 59.17 58.62 59.10 58.64 58.02 57.52 57.57 57.86 58.54
53.45 55.66 57.65 58.97 59.63 61.09 61.44 61.46 61.61 62.11 61.25 61.23 61.88 61.92 61.49 62.68 62.73 63.34 63.19 62.57 60.99 61.60 60.62 60.45 60.36 59.66 57.89 58.82 59.65 57.88 54.08 53.39 54.90 57.46 57.21 57.29 56.82 56.69 56.47 56.42 57.11 58.46 58.07
53.54 54.25 55.76 58.09 59.08 59.54 60.26 60.72 60.24 60.07 59.79 61.31 61.50 61.94 62.05 61.91 62.22 62.30 62.36 62.39 62.14 62.16 61.35 60.83 60.99 60.12 59.30 58.38 58.82 60.01 58.87 57.39 53.90 52.07 55.33 55.48 56.06 56.48 56.71 56.25 57.01 57.57 56.95
53.27 53.84 54.21 53.95 54.70 57.74 58.62 59.87 60.96 60.12 60.17 61.36 61.08 60.99 61.07 61.58 62.30 62.22 62.23 62.05 61.68 61.16 60.79 59.94 59.49 59.54 59.48 58.42 57.86 58.44 58.03 56.86 54.28 52.60 51.01 52.27 54.82 55.57 56.97 56.60 55.92 55.63 55.28
53.58 54.05 54.35 54.93 54.25 57.22 58.26 58.79 60.29 59.81 59.08 59.86 59.82 59.38 59.85 60.58 60.87 61.12 61.37 61.38 60.91 60.73 60.52 60.32 60.19 60.01 59.74 59.09 58.40 57.73 56.89 55.63 55.16 53.10 51.65 51.97 51.96 52.95 54.47 55.27 53.99 53.64 53.74

GFSSE_sfc_wetblb_108.txt.gz
Wetbulb
66.64 72.07 75.62 76.05 75.63 75.42 75.12 75.10 75.59 75.66 75.67 75.69 75.07 74.69 74.09 73.24 72.38 71.60 72.12 72.43 73.08 73.15 71.76 71.94 70.87 72.50 71.70 71.30 71.16 71.47 71.48 71.48 71.72 71.24 71.31 71.86 71.95 71.82 71.94 70.45 69.69 67.75 70.37
68.87 72.37 75.23 75.92 75.77 75.69 75.39 75.33 75.24 75.15 75.10 75.20 74.53 74.24 73.88 72.88 72.04 72.07 72.05 72.92 73.25 72.88 71.55 71.44 71.61 71.68 72.51 71.95 70.26 70.67 70.69 71.00 70.89 70.82 70.45 70.71 71.37 71.92 71.66 71.01 70.64 69.19 70.24
70.55 72.71 73.68 75.68 75.81 75.18 75.19 75.07 75.03 74.95 74.87 74.86 74.08 73.54 72.95 72.09 72.48 72.56 73.46 73.62 73.36 72.55 71.63 71.50 70.64 70.73 70.51 70.03 69.65 69.93 70.31 70.28 69.77 69.26 68.58 67.16 68.11 71.62 71.75 71.70 71.82 71.59 71.73
71.18 72.04 71.97 75.54 75.85 75.30 75.07 75.10 74.95 74.91 74.83 74.62 74.17 73.82 72.77 72.02 73.00 73.32 73.79 73.49 73.31 72.69 71.47 71.95 70.51 69.95 69.93 69.79 69.36 68.64 68.93 68.81 68.36 67.55 65.01 65.81 67.13 70.50 70.41 70.07 70.28 70.67 70.45
70.27 71.11 71.82 75.20 75.62 75.35 75.17 74.89 74.95 74.84 74.71 74.56 74.74 74.28 73.46 72.72 73.33 73.55 73.76 73.21 72.89 71.76 71.39 70.67 70.10 69.85 69.26 68.94 68.80 68.39 67.82 67.75 67.40 65.07 63.37 63.92 64.71 68.21 69.48 69.15 68.93 68.62 68.74
69.24 70.10 72.60 74.50 75.16 75.17 75.01 74.73 74.80 74.78 74.39 74.37 74.40 73.89 73.71 73.58 73.16 74.02 73.18 72.69 71.99 71.23 70.24 69.60 69.20 69.20 69.83 69.40 69.26 69.23 68.20 67.21 65.17 62.19 62.68 65.38 64.16 68.58 68.57 68.53 68.62 68.54 68.44
69.12 69.59 71.86 74.16 74.74 75.00 74.49 74.72 74.59 74.49 74.40 74.30 74.20 74.02 73.72 74.18 74.30 73.63 72.56 72.22 71.42 70.35 68.96 68.41 68.94 69.37 69.34 69.20 69.01 68.67 67.86 66.20 61.58 61.08 61.44 62.09 63.18 67.76 67.71 67.26 66.86 66.75 66.53
69.10 70.14 71.50 72.80 73.79 74.22 74.55 74.35 74.39 74.57 74.32 74.07 73.93 73.80 73.72 73.59 73.22 72.92 72.58 72.36 71.11 69.27 68.46 68.34 69.07 69.40 69.00 68.96 69.14 68.61 67.03 65.03 62.37 61.04 61.39 62.16 67.76 67.91 67.72 67.49 67.24 66.95 66.76
68.64 69.59 70.46 71.20 72.05 72.43 72.94 73.68 73.88 74.20 74.02 73.75 73.42 73.11 72.96 72.11 72.22 72.84 72.46 72.10 70.95 69.54 69.26 69.25 69.13 69.08 68.79 68.57 68.93 68.16 66.73 64.81 60.21 61.44 62.83 62.78 68.56 68.05 67.78 67.47 67.21 66.93 66.55
66.69 68.36 69.31 69.95 70.62 70.49 70.36 71.38 71.77 72.78 72.70 72.93 72.43 71.59 70.49 69.97 70.36 71.45 71.30 71.50 71.37 70.18 69.71 69.56 69.46 68.86 68.77 68.42 67.81 67.75 66.20 64.65 59.97 61.38 62.30 62.89 68.34 67.90 67.67 67.30 67.08 66.81 66.28
64.13 66.03 68.42 69.12 69.25 69.35 69.43 69.83 70.45 71.03 71.08 70.88 70.50 69.17 68.50 68.94 69.39 68.73 68.88 69.83 70.57 70.18 69.77 69.62 69.39 69.25 68.49 67.19 66.86 65.75 65.28 60.21 59.28 60.69 61.53 65.19 68.18 67.89 67.37 66.88 66.51 66.17 65.62
57.09 62.62 66.14 68.66 68.68 68.82 70.25 68.90 68.65 69.25 69.32 69.94 69.94 68.93 68.45 68.47 68.42 68.16 65.90 68.20 70.16 69.99 69.71 69.81 69.68 69.20 66.35 61.77 61.21 63.27 58.46 58.51 58.90 60.05 60.69 65.57 68.20 67.96 67.34 66.78 66.42 66.03 65.48
55.79 60.41 64.13 66.69 67.78 67.37 67.92 68.23 68.64 68.76 67.71 67.52 67.89 68.28 67.59 68.40 66.72 64.40 64.02 66.80 67.95 66.85 67.70 68.09 67.68 64.82 61.26 59.35 58.27 57.88 57.40 56.89 56.61 59.94 61.58 65.37 68.11 68.16 67.86 67.29 66.95 66.72 66.58
51.56 57.19 61.34 63.65 64.66 66.13 66.57 67.52 68.39 68.40 68.75 66.94 66.87 67.20 65.95 65.77 65.43 63.66 63.62 64.94 66.11 66.66 66.41 64.62 63.76 61.55 59.97 58.32 57.09 56.40 56.20 55.62 55.60 57.11 60.24 64.14 67.46 68.56 68.63 68.47 68.25 68.24 68.48
50.09 56.16 59.82 62.92 63.49 64.77 65.95 66.97 67.18 68.06 68.40 67.89 66.38 66.36 65.74 64.66 64.83 63.65 63.39 64.42 65.15 64.53 65.21 64.26 62.98 59.65 58.20 57.34 56.62 56.16 55.72 55.06 55.22 56.31 59.18 61.43 65.21 68.08 69.18 69.27 69.43 69.37 69.17
49.23 54.39 58.35 61.67 62.98 63.70 65.15 65.49 66.55 66.96 67.84 67.40 66.21 65.89 64.82 64.77 65.08 64.42 63.90 64.59 64.29 64.51 63.16 63.57 62.00 60.12 57.29 56.41 56.07 56.11 56.03 56.10 56.35 56.51 57.47 59.24 62.86 65.85 67.85 68.76 69.14 69.12 68.99
48.36 51.33 57.00 60.94 62.72 62.88 63.10 63.78 65.84 67.11 67.62 66.67 66.03 65.34 64.79 64.70 64.57 64.87 64.38 64.21 64.33 64.26 63.05 62.28 61.00 59.27 57.21 56.61 55.94 56.70 56.45 56.21 57.19 57.02 58.46 58.58 59.64 62.63 64.97 67.13 68.47 69.14 68.84
49.16 50.71 56.04 60.75 62.23 62.23 62.67 61.84 62.20 64.29 66.75 67.22 66.85 66.02 65.78 65.31 65.24 65.17 64.66 64.37 64.54 64.21 62.92 62.00 60.93 59.58 58.26 57.13 55.89 56.21 56.35 56.55 57.57 58.25 58.95 59.38 58.72 59.27 61.85 65.25 67.44 68.71 69.02
48.84 50.39 54.40 58.36 60.89 61.51 61.71 61.48 62.41 62.95 62.99 64.37 66.52 65.99 65.02 65.14 65.13 64.71 64.03 64.46 64.23 63.30 62.23 61.96 60.36 58.85 57.08 56.22 55.62 56.05 56.23 56.92 57.78 59.33 58.49 59.57 59.80 59.50 59.34 61.33 63.78 65.15 66.71
49.57 50.38 53.24 56.56 59.35 61.12 61.31 60.18 60.19 60.71 61.95 62.89 63.66 65.90 65.50 65.03 64.82 64.82 64.23 64.08 63.79 62.62 61.16 60.19 60.06 58.33 58.30 56.75 57.44 56.87 56.77 57.47 57.81 57.51 58.32 59.72 59.73 60.55 59.90 59.41 60.71 61.86 63.11
47.74 48.15 51.90 55.61 57.23 58.95 59.13 59.98 60.53 60.44 60.35 60.68 62.71 63.59 65.05 65.11 64.90 64.37 63.65 63.83 63.42 62.03 62.05 60.91 60.07 58.80 57.71 56.91 55.83 56.45 57.58 58.49 57.75 57.80 58.48 58.87 59.26 59.46 59.79 59.97 59.67 59.66 60.14
46.55 48.68 52.16 55.89 57.18 58.02 58.47 58.50 57.85 58.44 59.08 60.71 61.32 62.46 63.11 64.64 64.58 64.23 62.99 62.31 61.27 61.10 61.08 60.91 59.85 58.46 58.18 57.87 56.35 56.66 54.29 56.42 58.69 59.85 59.21 59.08 58.89 58.70 58.50 58.92 58.49 57.99 59.62
45.50 47.69 51.69 55.93 58.03 59.28 58.99 59.01 58.61 58.47 58.23 58.65 60.23 60.45 61.59 62.29 64.19 64.14 62.82 61.89 60.87 60.84 60.08 60.18 59.87 59.02 57.57 58.23 59.02 57.25 53.78 53.43 54.79 57.42 57.60 58.28 57.56 57.02 57.20 57.32 57.25 58.03 58.31
47.95 50.17 53.13 56.35 58.84 59.49 59.66 59.73 59.06 58.18 57.80 58.83 59.41 60.50 61.01 61.28 61.64 62.97 62.40 61.70 60.74 60.40 59.74 60.36 60.67 60.00 59.22 57.76 57.78 59.25 58.42 56.69 53.89 52.83 55.11 55.09 55.90 56.57 56.28 55.93 55.95 57.72 58.30
50.13 51.47 53.53 56.73 58.18 58.90 59.95 59.54 59.03 58.63 59.44 60.33 60.81 60.04 60.34 60.78 61.36 62.01 62.25 61.89 60.93 60.40 60.45 60.73 60.34 59.86 59.82 59.36 58.78 57.82 57.87 56.87 55.55 53.17 51.77 53.37 54.64 54.97 55.12 55.41 56.38 57.02 56.94
50.02 52.02 52.33 52.51 53.74 55.34 57.10 57.92 57.94 58.13 58.42 59.05 60.14 60.54 61.00 61.41 61.52 61.66 61.50 62.09 61.81 60.95 60.92 60.77 60.57 60.35 60.14 59.58 58.93 57.54 57.20 55.99 55.69 54.71 52.07 52.28 52.55 53.28 54.74 54.85 54.31 55.54 55.72

GFSSE_sfc_wetblb_111.txt.gz
Wetbulb
70.24 73.89 75.76 76.07 75.58 75.39 75.36 75.68 75.99 75.99 75.92 75.89 75.05 74.46 74.26 73.58 72.38 71.93 72.64 73.31 73.49 73.28 72.00 71.02 71.35 72.63 72.25 71.39 71.54 71.93 71.90 71.97 71.17 71.44 71.91 72.19 72.09 72.27 70.34 70.16 70.54 70.13 71.37
71.04 74.03 75.37 75.84 75.88 75.60 75.53 75.34 75.22 75.53 75.43 75.35 74.76 74.22 73.81 73.15 72.38 72.36 72.70 73.54 73.39 72.77 71.53 72.55 73.03 72.08 71.20 71.12 71.23 70.85 70.91 71.10 71.06 70.97 71.04 71.08 71.76 71.90 71.01 70.30 71.04 69.99 70.61
70.94 74.04 74.02 75.64 75.64 75.66 75.47 75.40 75.12 75.07 75.17 75.02 75.00 74.07 73.57 72.86 71.84 71.88 72.87 73.56 73.60 72.84 71.82 71.81 72.61 72.52 71.00 70.39 70.43 70.47 70.64 70.73 70.44 69.90 69.65 71.31 71.60 72.16 72.01 71.50 71.71 71.87 71.83
72.05 73.88 73.56 75.59 75.52 75.38 75.25 74.99 75.03 74.90 75.07 74.75 74.57 73.93 73.14 72.48 72.42 72.52 73.58 73.48 73.57 72.80 72.48 72.16 71.50 70.95 70.09 69.81 70.11 70.39 70.20 69.52 69.04 68.73 69.78 69.98 70.36 70.82 70.44 70.48 70.64 70.93 70.72
72.26 73.45 73.59 75.09 75.14 75.20 75.05 74.76 74.78 74.85 74.86 74.44 74.13 73.85 73.42 73.36 72.87 74.14 73.75 73.13 73.06 72.30 72.28 71.45 70.66 70.37 69.93 69.77 68.97 68.90 69.17 68.78 67.87 68.46 68.94 69.30 69.68 69.28 69.31 69.66 69.16 69.18 69.05
71.94 72.98 73.05 74.42 75.07 74.87 74.66 74.55 74.67 74.78 74.78 74.62 74.54 73.83 73.36 73.48 73.93 74.11 73.21 72.94 71.95 71.75 71.65 70.79 70.10 69.68 69.81 69.56 68.99 68.53 68.01 68.08 66.63 67.94 68.58 68.69 68.70 69.20 69.20 69.06 68.90 68.62 68.23
70.55 72.16 72.99 74.50 74.10 74.58 74.56 74.40 74.51 74.74 74.72 74.70 74.69 74.19 73.64 73.68 74.14 73.20 72.89 72.28 71.66 71.43 71.02 70.10 69.76 69.68 69.70 70.07 69.61 68.89 67.66 66.62 66.53 66.74 67.26 67.64 67.98 68.01 67.89 67.50 67.06 66.86 66.76
69.90 71.75 72.76 72.78 73.40 73.79 74.05 74.33 74.37 74.63 74.35 74.53 74.38 74.29 74.02 73.82 73.94 72.87 72.52 72.03 71.36 70.08 69.58 69.46 69.70 69.80 69.55 69.45 69.14 68.51 67.03 65.36 65.06 66.26 66.85 67.52 68.93 68.06 67.94 67.75 67.41 67.27 67.00
67.90 70.56 71.94 72.57 72.12 71.83 72.47 73.09 73.67 74.19 73.96 73.80 73.60 73.59 73.31 72.65 72.57 73.07 72.18 71.63 70.28 69.73 69.62 70.22 70.07 69.59 69.37 69.70 69.51 68.04 66.51 64.90 65.86 66.32 66.31 67.76 68.86 68.15 67.98 67.64 67.35 67.14 66.79
63.52 67.63 70.49 71.73 72.25 72.51 72.70 70.80 71.92 72.58 72.60 73.02 72.56 71.86 70.85 70.32 70.75 71.85 71.13 71.30 70.80 69.95 69.62 70.07 70.44 69.81 69.35 69.60 69.70 67.96 66.12 64.65 65.39 66.03 66.82 67.47 67.79 68.00 67.79 67.53 67.31 66.94 66.47
56.92 61.04 66.37 69.93 71.34 71.92 72.07 71.61 70.79 70.77 70.79 70.99 71.03 69.37 69.53 71.99 71.94 71.20 69.64 69.75 70.17 69.89 69.76 69.87 70.18 69.79 68.86 67.78 68.00 67.07 65.32 65.25 65.15 65.74 66.44 65.78 68.21 67.98 67.61 67.25 66.97 66.58 66.03
53.29 56.65 62.49 66.29 69.81 71.08 71.20 71.59 71.50 72.15 72.85 72.38 72.37 72.41 71.95 71.57 71.53 70.90 68.75 68.50 69.88 69.50 69.24 69.66 69.62 69.20 67.26 66.64 66.13 65.19 66.10 65.26 64.94 65.33 65.63 65.44 68.35 68.25 67.73 67.27 66.90 66.40 65.77
52.26 55.63 58.49 63.17 66.80 69.34 70.55 70.80 70.82 70.54 71.37 71.48 71.68 71.79 71.47 71.00 70.68 70.18 70.43 70.76 70.45 67.39 67.89 68.33 68.54 67.86 66.75 65.46 64.89 64.48 63.94 64.13 64.75 65.41 65.06 64.87 67.76 68.58 68.16 67.57 67.22 67.00 66.80
51.24 53.10 56.82 61.64 64.88 65.94 67.89 69.58 70.41 69.66 69.97 70.37 71.14 71.10 70.76 70.31 69.74 68.75 68.52 69.74 69.67 69.30 68.21 68.40 68.34 67.71 66.21 64.09 63.51 63.20 62.85 62.76 62.76 62.97 64.72 63.82 66.45 68.47 68.62 68.40 68.09 67.94 68.02
49.67 52.18 55.31 59.74 63.67 65.39 66.23 67.98 69.30 69.28 69.47 69.75 69.96 70.24 70.36 69.82 69.04 68.44 67.42 67.95 68.75 69.11 68.38 67.91 67.95 66.83 64.46 63.42 62.25 61.88 61.72 61.86 61.45 61.73 62.84 61.75 64.22 67.23 68.73 69.25 69.33 69.51 69.53
49.41 51.00 54.59 58.11 62.38 64.39 65.83 67.04 67.39 68.59 69.20 69.48 69.33 69.54 69.48 69.18 69.01 67.67 66.92 66.91 67.68 68.42 67.76 66.55 67.01 65.00 63.07 61.91 61.66 61.30 61.46 61.77 61.95 61.74 62.29 63.25 62.76 64.88 67.12 68.39 69.45 69.63 69.56
49.24 50.96 52.62 56.03 61.10 63.58 64.50 65.76 66.66 67.42 68.91 68.99 68.67 67.81 67.94 68.61 68.43 67.48 66.73 66.70 67.58 67.32 66.02 66.56 65.40 64.72 63.50 61.26 60.54 60.87 61.38 62.04 61.90 62.35 62.41 62.61 62.93 61.89 64.53 67.01 67.85 68.95 69.52
49.15 49.53 51.77 54.82 59.83 62.64 64.17 65.36 66.09 66.91 67.63 68.32 68.02 67.46 67.04 66.77 67.36 66.77 66.83 66.17 66.12 65.35 65.66 64.19 64.02 62.09 61.57 61.27 60.12 60.19 61.30 61.79 62.01 62.37 63.03 63.17 63.41 63.14 62.89 65.05 67.14 68.18 69.21
49.22 49.96 51.16 54.33 58.46 61.46 62.88 64.44 64.25 65.21 66.72 68.04 68.03 67.70 66.65 66.49 66.52 66.51 66.68 66.63 65.81 65.31 64.31 63.46 63.90 62.82 62.81 62.02 60.30 61.14 61.77 62.25 62.17 61.79 62.28 63.02 63.77 63.39 63.84 62.79 63.33 64.90 66.54
49.78 50.51 51.16 53.74 57.12 60.56 61.59 63.55 62.92 63.36 64.76 66.71 66.94 66.67 66.44 66.21 65.98 66.13 66.10 65.89 66.24 65.63 64.41 62.36 62.25 60.90 61.13 62.33 60.99 60.46 61.49 61.44 61.42 61.85 62.10 62.74 63.33 63.67 63.95 63.58 63.64 63.93 63.22
49.86 50.17 50.97 52.42 56.06 59.86 59.86 60.18 61.08 60.87 62.70 64.29 65.93 66.38 65.88 65.86 66.00 65.83 65.66 65.48 65.66 64.99 64.29 63.57 61.80 60.66 59.89 60.14 60.58 60.57 60.27 61.25 61.34 61.76 62.15 61.98 62.00 62.61 63.60 63.85 63.67 64.50 64.53
48.52 49.61 50.51 51.57 54.73 58.35 60.22 60.07 61.99 62.04 62.65 63.60 64.21 64.81 66.28 65.89 65.61 65.65 65.23 64.33 64.63 64.57 63.88 63.09 62.52 60.74 61.04 59.02 58.42 58.07 56.23 59.78 61.66 61.91 62.04 61.32 62.00 61.86 61.92 62.02 63.70 64.05 64.36
47.27 48.40 49.23 51.03 54.38 57.30 59.56 61.01 60.62 59.98 60.74 61.21 62.16 62.91 63.76 65.20 65.94 65.95 65.32 64.81 64.93 64.54 62.64 62.59 62.89 62.44 60.55 59.37 59.65 59.84 56.22 55.89 57.45 60.31 60.97 61.15 61.41 61.22 61.19 61.48 62.37 62.41 62.96
47.74 48.72 49.41 51.08 53.90 57.25 59.55 59.02 58.93 59.60 58.76 60.31 61.08 62.25 62.25 63.28 64.02 65.78 65.72 64.73 64.60 63.99 63.23 62.68 62.87 62.51 61.73 59.63 58.57 59.71 61.34 60.05 57.18 55.88 58.13 58.25 58.74 59.15 60.41 61.28 61.03 61.16 61.39
50.30 50.29 50.59 51.75 55.02 58.07 59.52 58.10 58.29 59.02 60.09 60.70 60.80 60.84 61.60 62.19 62.66 63.32 64.80 64.25 62.79 63.30 62.78 62.24 61.96 61.53 61.62 59.68 59.32 58.50 59.53 59.89 58.72 56.56 55.44 57.41 57.97 58.45 58.04 58.58 60.02 60.24 60.78
52.87 51.77 52.77 54.32 56.11 58.20 58.56 58.36 58.26 58.46 59.24 59.84 60.84 60.91 61.14 61.93 62.30 62.65 63.15 63.87 63.11 62.77 62.63 62.04 61.93 61.78 60.97 59.69 59.74 59.41 59.35 58.09 57.64 56.88 55.80 55.72 55.60 57.67 57.63 58.29 58.56 59.50 59.45

GFSSE_sfc_wetblb_114.txt.gz
Wetbulb
72.56 73.82 75.63 75.88 75.39 75.75 75.79 75.93 76.07 75.74 75.98 75.60 74.61 74.32 74.41 73.37 72.02 72.31 73.22 71.85 72.59 72.33 71.34 71.14 71.93 72.54 71.89 71.89 72.20 72.30 72.14 71.84 71.69 71.95 72.08 72.55 72.14 70.23 70.55 70.23 71.90 71.21 71.74
73.29 73.57 75.14 75.75 75.78 75.87 76.14 76.06 75.73 75.95 75.61 75.45 74.96 74.57 73.93 73.04 71.97 72.74 73.33 73.00 72.30 72.04 71.28 71.40 72.71 72.29 71.48 71.75 71.63 71.72 71.18 71.19 71.41 71.30 71.60 71.47 71.82 70.57 70.15 69.81 71.72 70.32 71.00
72.58 74.02 74.46 75.49 75.39 75.57 75.52 75.63 75.42 75.70 75.31 74.88 74.98 74.28 73.67 73.04 72.26 72.58 73.46 73.30 73.24 72.52 72.47 72.73 72.18 71.26 71.00 70.91 70.49 70.76 70.90 71.00 70.80 70.19 70.44 72.04 72.12 71.96 71.72 71.35 71.65 71.91 71.85
72.80 74.27 73.73 74.94 75.40 75.60 75.70 75.48 75.24 75.42 75.24 74.76 74.45 74.34 73.50 72.98 72.01 72.34 73.54 73.49 73.60 73.31 72.81 73.00 72.50 71.39 70.27 70.36 70.40 70.52 70.43 70.41 69.90 69.91 70.93 70.76 70.34 71.00 71.11 71.04 71.14 70.89 70.47
73.06 74.56 73.86 74.37 74.91 75.20 75.44 75.29 75.14 75.09 74.92 74.79 74.87 74.49 74.02 72.73 72.21 72.38 73.67 73.29 73.24 72.36 72.75 71.69 70.87 70.28 69.80 70.00 70.17 70.00 69.63 69.27 68.55 69.39 69.90 70.32 70.02 69.64 69.94 69.55 69.41 69.26 69.19
73.07 74.32 73.89 74.10 74.40 74.88 74.42 74.82 75.04 75.22 75.17 74.70 74.38 74.18 73.79 73.68 72.91 73.68 73.22 72.76 72.69 72.40 72.01 70.81 70.26 69.97 69.81 69.19 68.76 68.39 68.92 68.13 67.63 69.30 68.47 68.30 68.96 69.29 69.23 69.21 68.81 68.37 67.96
71.06 73.46 74.21 74.20 74.05 74.23 74.65 74.52 74.50 74.81 74.85 74.68 74.57 73.91 73.67 74.07 74.27 73.63 73.01 72.65 72.34 71.92 71.50 70.33 70.10 69.68 69.47 69.35 68.90 68.35 67.86 66.97 66.84 67.02 67.60 67.63 68.46 68.02 67.89 67.53 67.21 67.05 66.92
68.00 71.41 73.62 72.88 73.49 73.58 73.99 74.08 74.21 74.50 74.66 74.60 74.38 74.23 73.71 73.91 74.20 73.42 73.14 72.24 72.05 71.36 70.57 70.25 69.82 69.80 69.46 69.72 69.60 68.40 67.03 65.88 65.07 66.12 66.82 67.85 68.28 67.94 67.86 67.53 67.35 67.08 66.92
64.13 69.61 73.02 73.29 72.78 71.88 72.03 72.57 73.11 73.78 74.01 73.69 73.80 73.60 73.13 72.58 72.69 73.03 72.65 71.98 71.56 71.13 70.92 70.75 69.97 69.80 69.49 69.59 69.16 68.07 66.40 65.63 66.26 66.82 66.60 68.03 68.43 68.20 67.91 67.55 67.22 66.96 66.63
58.44 62.01 69.84 72.09 72.51 72.66 72.98 71.37 71.65 72.35 72.33 72.62 72.67 71.93 70.87 70.44 70.92 71.87 70.84 70.96 71.12 70.61 70.26 70.59 70.67 69.67 69.43 70.40 69.27 67.45 66.13 64.88 66.45 66.66 67.35 68.14 67.59 68.18 67.91 67.57 67.22 66.77 66.38
57.23 58.35 60.97 68.58 71.69 71.83 71.95 71.92 71.17 70.52 70.24 69.95 70.31 69.20 69.29 72.38 72.26 71.68 69.79 69.24 69.96 69.95 69.82 70.46 70.73 70.21 69.19 68.62 68.83 66.92 65.18 66.53 66.43 66.58 67.37 66.85 68.02 68.21 67.85 67.48 67.16 66.65 66.21
55.13 56.49 58.28 60.45 67.74 71.35 71.48 71.96 72.28 72.21 72.37 72.21 72.29 72.35 72.51 72.20 72.21 71.32 68.88 68.19 69.76 69.54 69.29 70.19 70.36 69.66 67.70 67.77 67.71 66.19 67.18 67.21 67.10 67.03 66.98 66.60 68.13 68.64 68.06 67.48 67.14 66.74 66.13
54.21 55.32 57.05 58.16 62.37 69.01 71.35 71.82 71.00 71.03 71.60 71.48 71.59 71.52 71.70 71.41 71.80 71.92 71.63 71.30 70.86 67.40 68.50 68.57 68.98 68.18 67.57 67.32 67.04 66.91 67.01 67.16 66.74 67.12 66.73 65.26 67.05 68.98 68.53 67.84 67.47 67.25 67.04
53.39 54.66 56.13 57.28 59.41 64.56 69.66 70.98 71.02 69.72 69.89 70.39 70.54 71.35 71.03 70.69 70.68 70.76 70.15 70.56 70.27 69.76 68.90 67.27 66.07 66.68 66.89 66.93 66.51 66.20 66.38 66.35 66.25 66.44 66.68 64.36 65.75 67.79 68.88 68.60 68.15 67.87 67.94
52.22 53.56 55.19 56.73 57.93 61.97 66.49 68.92 70.06 70.22 69.76 70.11 70.35 70.58 70.74 70.45 70.00 70.37 70.28 69.97 70.04 69.38 69.21 67.71 66.64 66.75 66.00 65.70 65.42 64.91 64.97 65.58 65.69 65.61 65.49 62.89 64.15 66.08 67.97 69.24 69.41 69.32 69.27
52.57 53.18 54.68 55.54 56.90 60.64 63.75 67.10 68.83 69.38 70.35 69.86 70.07 69.95 70.01 69.98 69.92 69.71 69.76 69.71 69.31 69.12 69.52 68.66 66.40 65.82 65.91 65.73 64.63 64.31 63.98 64.25 64.55 64.72 65.07 65.37 63.09 64.57 66.17 67.79 69.30 69.82 69.98
53.02 53.78 53.81 54.98 56.05 57.47 61.87 65.53 67.67 68.68 70.37 69.76 69.66 70.15 69.59 70.13 70.10 69.81 69.70 69.07 68.72 69.19 68.99 68.28 66.96 66.44 64.92 65.42 64.39 64.17 63.77 63.77 63.72 64.09 64.90 65.45 65.18 62.02 64.26 66.61 67.79 68.40 69.30
53.20 53.04 53.83 54.02 54.68 56.02 59.52 63.55 66.42 67.91 68.79 69.62 69.37 69.45 69.41 68.87 70.37 69.73 69.62 68.85 69.18 68.95 69.10 67.70 67.20 66.45 65.74 64.05 63.61 63.75 63.01 63.52 64.23 64.58 64.88 65.35 65.84 65.56 64.17 64.57 66.81 67.90 68.89
53.25 53.27 53.74 54.93 54.64 54.91 58.48 61.52 65.32 66.41 67.39 68.19 69.47 68.33 68.38 68.42 69.16 68.92 70.16 69.32 69.46 68.57 68.47 65.71 65.55 65.92 66.06 64.16 63.53 63.80 62.97 62.62 63.91 64.36 64.41 64.65 65.65 66.20 66.73 64.75 63.45 64.63 66.28
53.37 53.81 53.85 54.59 55.05 55.08 57.43 60.78 64.04 66.14 65.78 67.29 68.34 68.36 67.41 67.39 67.95 68.63 68.53 68.80 68.76 67.77 67.32 66.04 64.27 64.43 64.99 65.50 63.69 61.68 63.09 62.92 63.59 64.23 64.26 64.19 64.63 65.27 66.30 66.56 66.58 65.05 62.35
53.00 53.24 53.53 53.86 54.81 55.17 55.58 58.64 60.18 61.71 63.96 65.24 66.88 68.19 68.26 67.75 66.69 67.85 67.44 66.60 67.19 66.69 66.80 66.74 66.37 65.73 63.27 61.84 60.67 61.24 61.36 62.89 62.45 63.41 64.15 63.15 63.35 64.67 65.61 65.73 65.61 65.88 65.35
52.06 53.03 53.37 53.70 54.45 54.86 55.62 58.08 60.45 61.53 63.11 65.21 65.75 66.84 67.64 67.96 67.66 66.15 66.48 66.71 66.67 65.95 66.11 65.79 65.36 64.33 64.77 64.40 61.59 60.85 57.20 59.29 61.76 62.62 63.60 62.97 62.88 64.32 64.42 64.41 64.86 64.84 65.44
52.17 52.49 53.03 53.77 54.33 54.81 56.32 59.00 60.68 61.81 63.31 62.82 63.37 64.45 66.61 67.17 67.50 66.99 66.18 65.94 66.06 66.93 64.91 65.23 65.93 65.00 62.79 63.71 63.07 60.51 57.26 55.74 58.70 62.12 63.28 63.23 62.82 63.42 63.95 63.86 63.66 64.12 64.52
54.01 54.44 53.58 53.75 53.96 54.56 56.30 57.34 58.22 58.37 58.95 60.99 61.88 64.14 65.36 65.77 66.56 66.36 66.56 66.06 66.06 65.32 64.34 65.95 66.75 66.33 64.74 62.07 62.53 63.42 63.45 61.59 57.94 56.15 60.60 62.76 62.91 63.16 63.65 63.59 62.32 63.04 63.57
55.09 55.04 55.03 54.20 53.62 54.20 56.08 57.00 57.12 56.60 59.94 61.62 63.06 63.59 64.52 65.15 65.39 65.39 66.37 66.32 64.90 64.65 64.20 64.67 64.95 65.12 65.25 63.88 63.24 61.79 61.86 62.59 61.31 58.60 54.32 58.87 60.89 61.36 61.86 62.00 62.46 63.25 63.19
54.66 56.61 57.14 54.95 53.62 54.20 55.85 56.95 57.18 57.29 58.25 60.39 61.17 62.06 62.77 63.37 63.75 64.20 64.50 65.06 65.79 65.53 64.29 63.88 64.21 63.69 64.48 63.81 63.07 62.50 60.39 58.66 59.19 58.59 56.36 57.87 59.57 60.56 60.77 59.65 60.82 61.43 61.08

GFSSE_sfc_wetblb_117.txt.gz
Wetbulb
72.25 73.48 75.71 76.30 75.70 75.74 75.86 76.00 75.76 75.59 75.68 75.02 74.02 73.85 73.78 72.98 71.63 71.74 71.45 71.72 71.26 71.12 70.97 71.52 71.87 72.47 72.13 72.24 72.40 72.56 72.36 72.10 72.24 72.05 72.49 71.95 70.87 70.86 70.87 70.48 72.46 70.38 71.43
72.32 73.37 75.14 76.00 76.06 75.85 75.92 76.28 75.61 75.32 75.33 75.25 75.09 74.34 74.12 72.66 71.84 73.04 72.47 72.03 71.77 71.84 71.49 71.88 72.44 71.82 72.07 71.92 72.09 71.59 71.38 71.61 71.48 72.06 71.79 70.87 71.03 70.28 70.48 72.05 72.01 70.63 71.72
72.47 73.18 73.56 75.69 75.74 75.85 75.70 75.85 75.59 75.02 75.40 75.10 74.91 74.82 73.59 72.57 71.97 72.90 73.62 72.41 73.16 71.51 71.56 72.43 72.16 72.06 71.65 71.16 70.75 70.31 71.06 71.10 70.71 70.94 71.16 71.16 71.43 71.83 71.64 71.66 71.96 71.85 71.72
72.71 73.87 73.29 75.09 75.69 75.74 75.74 75.60 75.72 75.62 75.51 75.31 74.76 74.72 73.66 72.86 72.26 72.65 73.65 73.25 73.38 72.76 72.66 73.16 72.50 71.05 70.96 70.60 70.47 70.45 70.64 70.30 69.44 69.98 70.61 70.15 70.26 71.29 71.34 71.05 70.90 70.75 70.47
72.29 73.77 74.12 74.66 74.89 75.53 75.63 75.54 75.42 75.56 75.09 74.71 74.88 74.71 73.64 73.17 72.23 72.32 73.17 73.00 73.57 73.24 73.25 72.55 71.21 70.44 70.33 70.36 70.40 70.17 70.09 69.36 69.24 69.47 69.39 70.07 69.39 69.99 69.99 69.89 69.60 69.47 69.14
71.20 73.03 73.91 74.42 74.49 74.68 75.38 75.35 75.37 75.26 75.15 74.50 74.57 74.18 74.15 72.88 72.10 72.70 73.65 72.55 72.98 72.89 72.33 71.16 70.56 69.69 69.70 70.02 69.78 69.62 68.98 68.16 68.51 68.09 68.26 68.36 69.03 69.37 69.47 69.15 68.45 67.84 67.67
69.63 72.01 73.15 73.85 74.20 74.32 74.59 74.49 74.84 74.59 74.83 74.57 74.56 73.81 73.24 73.10 73.35 73.93 73.03 72.75 72.82 72.28 71.87 70.68 70.21 69.74 69.27 68.77 68.18 67.92 68.13 67.41 67.15 66.99 67.26 67.76 67.89 68.48 68.07 67.63 67.46 67.40 67.21
63.48 70.59 72.48 72.88 73.20 73.57 73.75 73.80 73.88 74.60 74.65 74.20 74.32 74.17 73.80 74.06 74.07 73.34 73.21 72.73 72.12 72.01 71.17 70.36 70.09 69.56 69.28 69.20 68.89 67.92 66.98 66.56 64.99 65.80 66.60 68.01 68.66 68.11 68.04 67.70 67.41 67.26 67.10
61.44 63.34 72.02 73.18 72.61 71.80 72.59 72.77 73.15 73.48 73.55 73.85 73.52 73.41 73.21 72.96 72.96 73.45 73.12 72.39 71.89 71.78 71.36 71.04 70.00 69.94 69.43 69.50 69.31 67.78 66.22 65.73 64.91 66.03 66.32 67.45 68.81 68.33 67.97 67.61 67.32 66.97 66.55
59.41 60.48 64.47 71.24 72.19 72.63 72.64 71.58 71.69 72.07 72.15 72.27 72.39 71.56 70.06 70.77 71.18 71.81 71.01 71.18 71.43 71.49 71.15 70.94 70.75 69.97 69.71 70.05 69.16 67.48 66.12 65.28 65.87 66.23 66.31 67.69 68.70 68.36 67.89 67.50 67.10 66.70 66.20
58.47 59.06 60.30 64.00 70.43 71.19 71.81 71.88 71.12 70.91 70.74 70.74 70.78 69.54 69.19 71.66 71.28 70.93 69.61 69.48 70.44 70.77 70.58 70.75 70.90 70.33 69.57 69.64 68.89 66.80 65.29 64.77 65.69 65.74 66.33 68.12 68.18 68.27 67.88 67.47 67.17 66.61 66.09
55.86 57.57 58.32 59.76 62.57 69.88 71.32 71.16 72.06 72.10 71.99 71.48 71.40 71.37 71.23 71.48 70.78 70.29 68.52 68.09 69.89 69.79 69.56 70.54 70.76 69.93 67.86 67.42 67.81 65.98 65.69 66.68 66.18 66.00 66.38 67.92 68.34 68.52 68.13 67.54 67.23 66.89 66.44
55.04 55.93 57.52 58.16 59.39 62.96 70.08 71.75 71.06 71.64 71.42 71.36 70.90 70.90 71.11 70.74 69.88 71.38 71.82 69.83 69.63 67.08 67.54 68.76 69.04 68.01 66.81 66.57 66.63 66.32 66.19 66.53 65.84 66.27 66.42 67.20 67.34 68.91 68.82 68.15 67.66 67.46 67.31
55.48 55.68 56.56 57.38 57.66 59.81 65.28 70.72 71.01 70.42 70.26 69.74 70.05 69.76 69.98 69.21 69.07 69.22 70.38 71.11 70.74 69.33 68.31 67.15 66.40 66.34 66.30 66.28 66.28 65.69 65.63 65.91 65.64 66.14 66.21 65.20 66.66 67.50 68.89 68.97 68.52 68.12 67.97
53.08 55.26 57.10 56.79 57.16 58.13 61.27 67.08 70.48 70.49 69.41 69.65 69.98 70.41 70.45 69.78 68.56 69.03 69.64 70.27 70.05 70.12 68.77 67.54 66.22 65.48 65.34 66.15 65.72 65.18 64.88 65.09 65.14 65.34 65.42 63.64 65.30 66.62 67.62 69.03 69.36 69.20 69.00
53.60 54.59 56.39 56.16 56.61 57.89 59.54 63.44 67.92 70.02 70.39 69.45 69.05 70.31 70.25 70.07 68.95 68.67 68.76 68.95 69.50 69.58 69.09 67.31 66.47 65.51 65.24 65.31 64.47 64.42 63.95 64.03 64.32 64.63 64.72 64.69 64.28 65.59 66.64 67.53 68.83 69.94 69.81
53.76 55.65 56.43 56.28 56.20 56.08 58.15 61.48 64.50 68.09 70.01 70.69 69.53 69.89 69.33 68.91 68.88 68.29 67.71 67.34 68.58 69.27 68.54 67.91 66.96 66.03 65.01 64.78 64.31 64.22 63.96 63.53 63.55 63.20 63.85 64.85 64.60 62.92 65.19 66.86 67.61 68.30 69.04
54.59 54.57 55.84 55.65 55.21 55.16 56.54 59.34 62.63 67.10 68.23 69.71 70.52 70.22 69.56 68.07 68.47 69.17 69.20 68.94 69.16 68.31 68.93 68.06 67.37 65.42 63.95 64.27 63.58 63.88 63.53 63.46 63.05 63.17 63.98 64.42 65.15 65.20 63.60 65.50 66.96 67.77 68.85
55.12 54.82 55.56 55.83 55.18 54.88 54.89 57.26 61.07 64.29 67.20 67.79 69.53 69.82 69.82 69.41 69.20 68.39 68.72 68.94 69.49 68.13 68.05 68.10 67.04 66.00 64.61 62.49 63.94 63.84 63.68 63.08 62.10 63.01 63.34 64.27 64.83 65.29 66.00 64.51 63.72 64.63 66.11
55.45 55.30 55.33 55.56 55.40 55.78 56.13 56.61 60.06 62.28 66.76 67.17 67.62 69.31 69.48 69.13 68.51 67.75 68.49 68.31 68.32 68.57 67.95 68.02 67.00 67.01 65.16 65.28 63.55 63.46 62.54 62.42 62.92 62.29 62.76 64.09 64.30 64.76 65.39 65.64 65.94 64.14 62.67
54.85 54.31 54.41 54.99 55.16 55.70 55.64 54.87 57.42 59.60 63.30 65.26 66.57 68.27 68.80 68.57 67.53 68.50 67.14 67.14 67.55 67.69 66.54 67.28 66.60 65.61 65.09 65.52 63.68 63.65 62.85 62.43 61.95 61.73 63.37 63.65 63.81 63.72 64.25 64.97 65.80 65.71 65.12
54.42 54.18 54.34 54.44 55.08 55.31 56.18 56.18 57.10 60.43 62.19 64.29 66.26 66.36 67.58 68.06 68.27 67.76 67.71 67.43 66.43 66.13 66.09 65.72 65.38 64.27 64.35 65.05 61.85 60.84 58.59 60.40 62.15 62.82 62.81 62.94 63.34 63.62 63.30 64.03 65.02 65.11 65.33
53.98 54.45 54.09 54.80 55.61 55.89 56.27 56.93 57.06 60.18 62.29 61.73 63.85 64.48 66.14 67.28 68.03 68.07 67.75 67.41 66.81 66.08 65.00 65.43 65.15 64.44 62.57 63.89 64.20 61.49 57.53 55.70 58.35 61.42 61.44 62.61 62.49 62.84 63.42 63.88 64.27 64.32 64.26
51.96 56.46 56.05 55.40 55.77 55.92 56.61 55.37 55.34 57.29 57.92 61.10 62.29 64.00 64.93 65.88 66.60 67.59 66.87 67.06 66.20 66.18 65.61 65.22 65.64 64.93 64.66 63.28 64.23 63.69 62.74 61.43 58.13 56.48 60.92 61.85 62.91 62.57 63.17 63.03 63.65 63.92 64.22
50.63 52.54 56.84 56.38 55.52 55.34 55.88 55.62 55.94 56.66 58.35 60.71 62.26 62.48 62.89 64.67 65.19 65.94 66.77 66.41 66.80 66.01 66.15 65.98 65.41 64.20 65.24 64.13 63.30 62.41 61.66 61.46 61.07 58.63 56.27 58.56 61.19 62.00 63.08 62.67 63.14 63.40 63.35
50.60 51.96 54.62 56.57 56.06 55.56 54.97 55.10 55.69 56.18 56.76 58.23 60.22 61.20 62.11 63.17 63.40 64.37 65.19 65.83 66.12 65.47 64.28 64.46 65.00 65.02 64.01 63.60 63.76 63.23 61.30 59.30 59.45 59.13 57.58 57.79 57.42 60.34 61.28 60.61 60.92 62.26 62.66